<?xml version="1.0" encoding="UTF-8" standalone="no" ?>
<gpx xmlns="http://www.topografix.com/GPX/1/1" xmlns:xsi="http://www.w3.org/2001/XMLSchema-instance" xsi:schemaLocation="http://www.topografix.com/GPX/1/1 http://www.topografix.com/GPX/1/1/gpx.xsd" version="1.1" creator="VisuGPX - https://www.visugpx.com">
  <metadata>
    <name>Évenos</name>
    <desc><![CDATA[
]]></desc>
  </metadata>
  <trk>
    <name><![CDATA[Évenos]]></name>
    <trkseg>
      <trkpt lat="43.12773" lon="5.78565">
        <ele>43.14502</ele>
        <time>2022-08-13T04:52:43Z</time>
      </trkpt>
      <trkpt lat="43.12795" lon="5.78516">
        <ele>43.144657</ele>
        <time>2022-08-13T04:52:45Z</time>
      </trkpt>
      <trkpt lat="43.12797" lon="5.78514">
        <ele>43.143578</ele>
        <time>2022-08-13T04:52:47Z</time>
      </trkpt>
      <trkpt lat="43.128" lon="5.78511">
        <ele>43.126427</ele>
        <time>2022-08-13T04:52:49Z</time>
      </trkpt>
      <trkpt lat="43.12802" lon="5.78506">
        <ele>43.104759</ele>
        <time>2022-08-13T04:52:51Z</time>
      </trkpt>
      <trkpt lat="43.12801" lon="5.78502">
        <ele>43.029297</ele>
        <time>2022-08-13T04:52:53Z</time>
      </trkpt>
      <trkpt lat="43.12801" lon="5.78499">
        <ele>42.978561</ele>
        <time>2022-08-13T04:52:55Z</time>
      </trkpt>
      <trkpt lat="43.12796" lon="5.78494">
        <ele>42.181416</ele>
        <time>2022-08-13T04:53:08Z</time>
      </trkpt>
      <trkpt lat="43.12793" lon="5.78495">
        <ele>42.101509</ele>
        <time>2022-08-13T04:53:10Z</time>
      </trkpt>
      <trkpt lat="43.12788" lon="5.78493">
        <ele>41.940098</ele>
        <time>2022-08-13T04:53:12Z</time>
      </trkpt>
      <trkpt lat="43.12782" lon="5.78497">
        <ele>41.858284</ele>
        <time>2022-08-13T04:53:14Z</time>
      </trkpt>
      <trkpt lat="43.12775" lon="5.78499">
        <ele>41.692802</ele>
        <time>2022-08-13T04:53:16Z</time>
      </trkpt>
      <trkpt lat="43.12771" lon="5.78496">
        <ele>41.528027</ele>
        <time>2022-08-13T04:53:18Z</time>
      </trkpt>
      <trkpt lat="43.12765" lon="5.78495">
        <ele>41.446465</ele>
        <time>2022-08-13T04:53:20Z</time>
      </trkpt>
      <trkpt lat="43.12759" lon="5.78499">
        <ele>41.284321</ele>
        <time>2022-08-13T04:53:22Z</time>
      </trkpt>
      <trkpt lat="43.12754" lon="5.78507">
        <ele>41.2034</ele>
        <time>2022-08-13T04:53:24Z</time>
      </trkpt>
      <trkpt lat="43.12748" lon="5.78516">
        <ele>41.043297</ele>
        <time>2022-08-13T04:53:26Z</time>
      </trkpt>
      <trkpt lat="43.12743" lon="5.78526">
        <ele>40.892113</ele>
        <time>2022-08-13T04:53:28Z</time>
      </trkpt>
      <trkpt lat="43.12737" lon="5.78536">
        <ele>40.822685</ele>
        <time>2022-08-13T04:53:30Z</time>
      </trkpt>
      <trkpt lat="43.12731" lon="5.78547">
        <ele>40.700401</ele>
        <time>2022-08-13T04:53:32Z</time>
      </trkpt>
      <trkpt lat="43.12726" lon="5.78559">
        <ele>40.649029</ele>
        <time>2022-08-13T04:53:34Z</time>
      </trkpt>
      <trkpt lat="43.12721" lon="5.7857">
        <ele>40.569332</ele>
        <time>2022-08-13T04:53:36Z</time>
      </trkpt>
      <trkpt lat="43.12717" lon="5.78582">
        <ele>40.528831</ele>
        <time>2022-08-13T04:53:38Z</time>
      </trkpt>
      <trkpt lat="43.12713" lon="5.78595">
        <ele>40.531189</ele>
        <time>2022-08-13T04:53:40Z</time>
      </trkpt>
      <trkpt lat="43.12708" lon="5.78607">
        <ele>40.593544</ele>
        <time>2022-08-13T04:53:42Z</time>
      </trkpt>
      <trkpt lat="43.12705" lon="5.78619">
        <ele>40.654594</ele>
        <time>2022-08-13T04:53:44Z</time>
      </trkpt>
      <trkpt lat="43.12701" lon="5.78631">
        <ele>40.826881</ele>
        <time>2022-08-13T04:53:46Z</time>
      </trkpt>
      <trkpt lat="43.12697" lon="5.78641">
        <ele>40.935188</ele>
        <time>2022-08-13T04:53:48Z</time>
      </trkpt>
      <trkpt lat="43.12693" lon="5.78652">
        <ele>41.19178</ele>
        <time>2022-08-13T04:53:50Z</time>
      </trkpt>
      <trkpt lat="43.12689" lon="5.78662">
        <ele>41.496418</ele>
        <time>2022-08-13T04:53:52Z</time>
      </trkpt>
      <trkpt lat="43.12685" lon="5.78672">
        <ele>41.664795</ele>
        <time>2022-08-13T04:53:54Z</time>
      </trkpt>
      <trkpt lat="43.12682" lon="5.78682">
        <ele>42.029835</ele>
        <time>2022-08-13T04:53:56Z</time>
      </trkpt>
      <trkpt lat="43.12678" lon="5.78692">
        <ele>42.225273</ele>
        <time>2022-08-13T04:53:58Z</time>
      </trkpt>
      <trkpt lat="43.12674" lon="5.78701">
        <ele>42.639122</ele>
        <time>2022-08-13T04:54:00Z</time>
      </trkpt>
      <trkpt lat="43.12671" lon="5.78711">
        <ele>42.856476</ele>
        <time>2022-08-13T04:54:02Z</time>
      </trkpt>
      <trkpt lat="43.12667" lon="5.78721">
        <ele>43.309669</ele>
        <time>2022-08-13T04:54:04Z</time>
      </trkpt>
      <trkpt lat="43.12663" lon="5.7873">
        <ele>43.544758</ele>
        <time>2022-08-13T04:54:06Z</time>
      </trkpt>
      <trkpt lat="43.12658" lon="5.78738">
        <ele>44.028847</ele>
        <time>2022-08-13T04:54:08Z</time>
      </trkpt>
      <trkpt lat="43.12655" lon="5.78747">
        <ele>44.52779</ele>
        <time>2022-08-13T04:54:10Z</time>
      </trkpt>
      <trkpt lat="43.12651" lon="5.78755">
        <ele>44.782238</ele>
        <time>2022-08-13T04:54:12Z</time>
      </trkpt>
      <trkpt lat="43.12646" lon="5.78763">
        <ele>45.300762</ele>
        <time>2022-08-13T04:54:14Z</time>
      </trkpt>
      <trkpt lat="43.12641" lon="5.78771">
        <ele>45.564362</ele>
        <time>2022-08-13T04:54:16Z</time>
      </trkpt>
      <trkpt lat="43.12635" lon="5.78778">
        <ele>46.095779</ele>
        <time>2022-08-13T04:54:18Z</time>
      </trkpt>
      <trkpt lat="43.1263" lon="5.78786">
        <ele>46.623344</ele>
        <time>2022-08-13T04:54:20Z</time>
      </trkpt>
      <trkpt lat="43.12624" lon="5.78793">
        <ele>46.882286</ele>
        <time>2022-08-13T04:54:22Z</time>
      </trkpt>
      <trkpt lat="43.12618" lon="5.78799">
        <ele>47.384377</ele>
        <time>2022-08-13T04:54:24Z</time>
      </trkpt>
      <trkpt lat="43.12611" lon="5.78806">
        <ele>47.62542</ele>
        <time>2022-08-13T04:54:26Z</time>
      </trkpt>
      <trkpt lat="43.12605" lon="5.78812">
        <ele>48.08268</ele>
        <time>2022-08-13T04:54:28Z</time>
      </trkpt>
      <trkpt lat="43.12598" lon="5.78817">
        <ele>48.500427</ele>
        <time>2022-08-13T04:54:30Z</time>
      </trkpt>
      <trkpt lat="43.1259" lon="5.78822">
        <ele>48.692188</ele>
        <time>2022-08-13T04:54:32Z</time>
      </trkpt>
      <trkpt lat="43.12582" lon="5.78827">
        <ele>49.037395</ele>
        <time>2022-08-13T04:54:34Z</time>
      </trkpt>
      <trkpt lat="43.12575" lon="5.78832">
        <ele>49.18927</ele>
        <time>2022-08-13T04:54:36Z</time>
      </trkpt>
      <trkpt lat="43.12567" lon="5.78836">
        <ele>49.449051</ele>
        <time>2022-08-13T04:54:38Z</time>
      </trkpt>
      <trkpt lat="43.1256" lon="5.78841">
        <ele>49.556435</ele>
        <time>2022-08-13T04:54:40Z</time>
      </trkpt>
      <trkpt lat="43.12553" lon="5.78845">
        <ele>49.725761</ele>
        <time>2022-08-13T04:54:42Z</time>
      </trkpt>
      <trkpt lat="43.12545" lon="5.7885">
        <ele>49.834419</ele>
        <time>2022-08-13T04:54:44Z</time>
      </trkpt>
      <trkpt lat="43.12537" lon="5.78854">
        <ele>49.866089</ele>
        <time>2022-08-13T04:54:46Z</time>
      </trkpt>
      <trkpt lat="43.12529" lon="5.78859">
        <ele>49.884113</ele>
        <time>2022-08-13T04:54:48Z</time>
      </trkpt>
      <trkpt lat="43.12521" lon="5.78864">
        <ele>49.870098</ele>
        <time>2022-08-13T04:54:50Z</time>
      </trkpt>
      <trkpt lat="43.12514" lon="5.78869">
        <ele>49.796341</ele>
        <time>2022-08-13T04:54:52Z</time>
      </trkpt>
      <trkpt lat="43.12507" lon="5.78875">
        <ele>49.66407</ele>
        <time>2022-08-13T04:54:54Z</time>
      </trkpt>
      <trkpt lat="43.125" lon="5.78882">
        <ele>49.577003</ele>
        <time>2022-08-13T04:54:56Z</time>
      </trkpt>
      <trkpt lat="43.12494" lon="5.78889">
        <ele>49.36261</ele>
        <time>2022-08-13T04:54:58Z</time>
      </trkpt>
      <trkpt lat="43.12487" lon="5.78898">
        <ele>49.235855</ele>
        <time>2022-08-13T04:55:00Z</time>
      </trkpt>
      <trkpt lat="43.12483" lon="5.78908">
        <ele>48.945503</ele>
        <time>2022-08-13T04:55:02Z</time>
      </trkpt>
      <trkpt lat="43.12479" lon="5.78918">
        <ele>48.783108</ele>
        <time>2022-08-13T04:55:04Z</time>
      </trkpt>
      <trkpt lat="43.12474" lon="5.78928">
        <ele>48.427788</ele>
        <time>2022-08-13T04:55:06Z</time>
      </trkpt>
      <trkpt lat="43.1247" lon="5.78938">
        <ele>48.037544</ele>
        <time>2022-08-13T04:55:08Z</time>
      </trkpt>
      <trkpt lat="43.12466" lon="5.78948">
        <ele>47.83181</ele>
        <time>2022-08-13T04:55:10Z</time>
      </trkpt>
      <trkpt lat="43.12461" lon="5.78958">
        <ele>47.404305</ele>
        <time>2022-08-13T04:55:12Z</time>
      </trkpt>
      <trkpt lat="43.12457" lon="5.78967">
        <ele>47.184418</ele>
        <time>2022-08-13T04:55:14Z</time>
      </trkpt>
      <trkpt lat="43.12454" lon="5.78978">
        <ele>46.735832</ele>
        <time>2022-08-13T04:55:16Z</time>
      </trkpt>
      <trkpt lat="43.1245" lon="5.78988">
        <ele>46.279503</ele>
        <time>2022-08-13T04:55:18Z</time>
      </trkpt>
      <trkpt lat="43.12445" lon="5.78999">
        <ele>46.050636</ele>
        <time>2022-08-13T04:55:20Z</time>
      </trkpt>
      <trkpt lat="43.12441" lon="5.79009">
        <ele>45.598763</ele>
        <time>2022-08-13T04:55:22Z</time>
      </trkpt>
      <trkpt lat="43.12437" lon="5.7902">
        <ele>45.379402</ele>
        <time>2022-08-13T04:55:24Z</time>
      </trkpt>
      <trkpt lat="43.12434" lon="5.79029">
        <ele>44.962616</ele>
        <time>2022-08-13T04:55:26Z</time>
      </trkpt>
      <trkpt lat="43.12431" lon="5.79038">
        <ele>44.767849</ele>
        <time>2022-08-13T04:55:28Z</time>
      </trkpt>
      <trkpt lat="43.12426" lon="5.79049">
        <ele>44.409725</ele>
        <time>2022-08-13T04:55:30Z</time>
      </trkpt>
      <trkpt lat="43.12422" lon="5.79058">
        <ele>44.096191</ele>
        <time>2022-08-13T04:55:32Z</time>
      </trkpt>
      <trkpt lat="43.12419" lon="5.79068">
        <ele>43.957039</ele>
        <time>2022-08-13T04:55:34Z</time>
      </trkpt>
      <trkpt lat="43.12416" lon="5.79078">
        <ele>43.716114</ele>
        <time>2022-08-13T04:55:36Z</time>
      </trkpt>
      <trkpt lat="43.12413" lon="5.79088">
        <ele>43.615898</ele>
        <time>2022-08-13T04:55:38Z</time>
      </trkpt>
      <trkpt lat="43.12413" lon="5.79099">
        <ele>43.461601</ele>
        <time>2022-08-13T04:55:40Z</time>
      </trkpt>
      <trkpt lat="43.12419" lon="5.791">
        <ele>43.410072</ele>
        <time>2022-08-13T04:55:42Z</time>
      </trkpt>
      <trkpt lat="43.12432" lon="5.791">
        <ele>43.361465</ele>
        <time>2022-08-13T04:55:44Z</time>
      </trkpt>
      <trkpt lat="43.1235" lon="5.7924">
        <ele>43.381721</ele>
        <time>2022-08-13T04:56:09Z</time>
      </trkpt>
      <trkpt lat="43.12341" lon="5.79246">
        <ele>43.480473</ele>
        <time>2022-08-13T04:56:11Z</time>
      </trkpt>
      <trkpt lat="43.12332" lon="5.79255">
        <ele>43.595531</ele>
        <time>2022-08-13T04:56:13Z</time>
      </trkpt>
      <trkpt lat="43.12332" lon="5.79259">
        <ele>44.003407</ele>
        <time>2022-08-13T04:56:15Z</time>
      </trkpt>
      <trkpt lat="43.12322" lon="5.79267">
        <ele>44.61787</ele>
        <time>2022-08-13T04:56:17Z</time>
      </trkpt>
      <trkpt lat="43.12315" lon="5.79274">
        <ele>44.972382</ele>
        <time>2022-08-13T04:56:19Z</time>
      </trkpt>
      <trkpt lat="43.12309" lon="5.7928">
        <ele>45.736874</ele>
        <time>2022-08-13T04:56:21Z</time>
      </trkpt>
      <trkpt lat="43.12302" lon="5.79287">
        <ele>46.137146</ele>
        <time>2022-08-13T04:56:23Z</time>
      </trkpt>
      <trkpt lat="43.12294" lon="5.79294">
        <ele>46.958183</ele>
        <time>2022-08-13T04:56:25Z</time>
      </trkpt>
      <trkpt lat="43.12286" lon="5.79302">
        <ele>47.374798</ele>
        <time>2022-08-13T04:56:27Z</time>
      </trkpt>
      <trkpt lat="43.12276" lon="5.79311">
        <ele>48.213036</ele>
        <time>2022-08-13T04:56:29Z</time>
      </trkpt>
      <trkpt lat="43.12266" lon="5.79321">
        <ele>49.049679</ele>
        <time>2022-08-13T04:56:31Z</time>
      </trkpt>
      <trkpt lat="43.12257" lon="5.79332">
        <ele>49.463852</ele>
        <time>2022-08-13T04:56:33Z</time>
      </trkpt>
      <trkpt lat="43.12251" lon="5.79345">
        <ele>50.273556</ele>
        <time>2022-08-13T04:56:35Z</time>
      </trkpt>
      <trkpt lat="43.12246" lon="5.79361">
        <ele>50.663895</ele>
        <time>2022-08-13T04:56:37Z</time>
      </trkpt>
      <trkpt lat="43.12242" lon="5.7938">
        <ele>51.402008</ele>
        <time>2022-08-13T04:56:39Z</time>
      </trkpt>
      <trkpt lat="43.12239" lon="5.79401">
        <ele>52.065926</ele>
        <time>2022-08-13T04:56:41Z</time>
      </trkpt>
      <trkpt lat="43.12236" lon="5.79422">
        <ele>52.363911</ele>
        <time>2022-08-13T04:56:43Z</time>
      </trkpt>
      <trkpt lat="43.12235" lon="5.79444">
        <ele>52.880104</ele>
        <time>2022-08-13T04:56:45Z</time>
      </trkpt>
      <trkpt lat="43.12233" lon="5.79466">
        <ele>53.094471</ele>
        <time>2022-08-13T04:56:47Z</time>
      </trkpt>
      <trkpt lat="43.12231" lon="5.79489">
        <ele>53.426262</ele>
        <time>2022-08-13T04:56:49Z</time>
      </trkpt>
      <trkpt lat="43.12227" lon="5.79512">
        <ele>53.540546</ele>
        <time>2022-08-13T04:56:51Z</time>
      </trkpt>
      <trkpt lat="43.12221" lon="5.79536">
        <ele>53.658928</ele>
        <time>2022-08-13T04:56:53Z</time>
      </trkpt>
      <trkpt lat="43.12211" lon="5.79558">
        <ele>53.625233</ele>
        <time>2022-08-13T04:56:55Z</time>
      </trkpt>
      <trkpt lat="43.12199" lon="5.79577">
        <ele>53.551483</ele>
        <time>2022-08-13T04:56:57Z</time>
      </trkpt>
      <trkpt lat="43.12186" lon="5.79597">
        <ele>53.296761</ele>
        <time>2022-08-13T04:56:59Z</time>
      </trkpt>
      <trkpt lat="43.12174" lon="5.79618">
        <ele>52.891186</ele>
        <time>2022-08-13T04:57:01Z</time>
      </trkpt>
      <trkpt lat="43.12166" lon="5.7964">
        <ele>52.595001</ele>
        <time>2022-08-13T04:57:03Z</time>
      </trkpt>
      <trkpt lat="43.12162" lon="5.79665">
        <ele>51.770424</ele>
        <time>2022-08-13T04:57:05Z</time>
      </trkpt>
      <trkpt lat="43.12156" lon="5.79688">
        <ele>51.250378</ele>
        <time>2022-08-13T04:57:07Z</time>
      </trkpt>
      <trkpt lat="43.12152" lon="5.79709">
        <ele>50.072609</ele>
        <time>2022-08-13T04:57:09Z</time>
      </trkpt>
      <trkpt lat="43.12156" lon="5.79727">
        <ele>49.438034</ele>
        <time>2022-08-13T04:57:11Z</time>
      </trkpt>
      <trkpt lat="43.12161" lon="5.79743">
        <ele>48.118698</ele>
        <time>2022-08-13T04:57:13Z</time>
      </trkpt>
      <trkpt lat="43.12166" lon="5.79757">
        <ele>47.446854</ele>
        <time>2022-08-13T04:57:15Z</time>
      </trkpt>
      <trkpt lat="43.12171" lon="5.79772">
        <ele>46.108044</ele>
        <time>2022-08-13T04:57:17Z</time>
      </trkpt>
      <trkpt lat="43.12175" lon="5.79785">
        <ele>45.450272</ele>
        <time>2022-08-13T04:57:19Z</time>
      </trkpt>
      <trkpt lat="43.1218" lon="5.798">
        <ele>44.172394</ele>
        <time>2022-08-13T04:57:21Z</time>
      </trkpt>
      <trkpt lat="43.12185" lon="5.79815">
        <ele>42.956059</ele>
        <time>2022-08-13T04:57:23Z</time>
      </trkpt>
      <trkpt lat="43.1219" lon="5.79832">
        <ele>42.374275</ele>
        <time>2022-08-13T04:57:25Z</time>
      </trkpt>
      <trkpt lat="43.12196" lon="5.79851">
        <ele>41.269432</ele>
        <time>2022-08-13T04:57:27Z</time>
      </trkpt>
      <trkpt lat="43.12202" lon="5.79871">
        <ele>40.749111</ele>
        <time>2022-08-13T04:57:29Z</time>
      </trkpt>
      <trkpt lat="43.12206" lon="5.79892">
        <ele>39.781937</ele>
        <time>2022-08-13T04:57:31Z</time>
      </trkpt>
      <trkpt lat="43.12209" lon="5.79913">
        <ele>38.926273</ele>
        <time>2022-08-13T04:57:33Z</time>
      </trkpt>
      <trkpt lat="43.12211" lon="5.79932">
        <ele>38.544807</ele>
        <time>2022-08-13T04:57:35Z</time>
      </trkpt>
      <trkpt lat="43.12213" lon="5.79949">
        <ele>37.878593</ele>
        <time>2022-08-13T04:57:37Z</time>
      </trkpt>
      <trkpt lat="43.12215" lon="5.79965">
        <ele>37.594669</ele>
        <time>2022-08-13T04:57:39Z</time>
      </trkpt>
      <trkpt lat="43.12217" lon="5.79979">
        <ele>37.126373</ele>
        <time>2022-08-13T04:57:41Z</time>
      </trkpt>
      <trkpt lat="43.1222" lon="5.79996">
        <ele>36.942474</ele>
        <time>2022-08-13T04:57:43Z</time>
      </trkpt>
      <trkpt lat="43.12222" lon="5.80013">
        <ele>36.676098</ele>
        <time>2022-08-13T04:57:45Z</time>
      </trkpt>
      <trkpt lat="43.12223" lon="5.80031">
        <ele>36.592674</ele>
        <time>2022-08-13T04:57:47Z</time>
      </trkpt>
      <trkpt lat="43.12225" lon="5.80051">
        <ele>36.512455</ele>
        <time>2022-08-13T04:57:49Z</time>
      </trkpt>
      <trkpt lat="43.12226" lon="5.80071">
        <ele>36.500755</ele>
        <time>2022-08-13T04:57:51Z</time>
      </trkpt>
      <trkpt lat="43.12228" lon="5.80093">
        <ele>36.479149</ele>
        <time>2022-08-13T04:57:53Z</time>
      </trkpt>
      <trkpt lat="43.1223" lon="5.80116">
        <ele>36.446335</ele>
        <time>2022-08-13T04:57:55Z</time>
      </trkpt>
      <trkpt lat="43.12232" lon="5.80142">
        <ele>36.310394</ele>
        <time>2022-08-13T04:57:57Z</time>
      </trkpt>
      <trkpt lat="43.12235" lon="5.80168">
        <ele>36.097267</ele>
        <time>2022-08-13T04:57:59Z</time>
      </trkpt>
      <trkpt lat="43.12236" lon="5.80191">
        <ele>35.977688</ele>
        <time>2022-08-13T04:58:01Z</time>
      </trkpt>
      <trkpt lat="43.12238" lon="5.80207">
        <ele>35.735046</ele>
        <time>2022-08-13T04:58:03Z</time>
      </trkpt>
      <trkpt lat="43.1224" lon="5.80222">
        <ele>35.613762</ele>
        <time>2022-08-13T04:58:05Z</time>
      </trkpt>
      <trkpt lat="43.12241" lon="5.80237">
        <ele>35.363747</ele>
        <time>2022-08-13T04:58:07Z</time>
      </trkpt>
      <trkpt lat="43.12241" lon="5.80257">
        <ele>35.228706</ele>
        <time>2022-08-13T04:58:09Z</time>
      </trkpt>
      <trkpt lat="43.1224" lon="5.80279">
        <ele>34.926384</ele>
        <time>2022-08-13T04:58:11Z</time>
      </trkpt>
      <trkpt lat="43.12238" lon="5.80303">
        <ele>34.569626</ele>
        <time>2022-08-13T04:58:13Z</time>
      </trkpt>
      <trkpt lat="43.12234" lon="5.80329">
        <ele>34.368027</ele>
        <time>2022-08-13T04:58:15Z</time>
      </trkpt>
      <trkpt lat="43.12228" lon="5.80356">
        <ele>33.91436</ele>
        <time>2022-08-13T04:58:17Z</time>
      </trkpt>
      <trkpt lat="43.12222" lon="5.80381">
        <ele>33.661259</ele>
        <time>2022-08-13T04:58:19Z</time>
      </trkpt>
      <trkpt lat="43.12213" lon="5.80406">
        <ele>33.101181</ele>
        <time>2022-08-13T04:58:21Z</time>
      </trkpt>
      <trkpt lat="43.12203" lon="5.8043">
        <ele>32.794643</ele>
        <time>2022-08-13T04:58:23Z</time>
      </trkpt>
      <trkpt lat="43.12104" lon="5.80569">
        <ele>32.132767</ele>
        <time>2022-08-13T04:58:42Z</time>
      </trkpt>
      <trkpt lat="43.12074" lon="5.8058">
        <ele>31.415609</ele>
        <time>2022-08-13T04:58:44Z</time>
      </trkpt>
      <trkpt lat="43.11958" lon="5.80982">
        <ele>31.031393</ele>
        <time>2022-08-13T04:59:32Z</time>
      </trkpt>
      <trkpt lat="43.1195" lon="5.80995">
        <ele>30.189152</ele>
        <time>2022-08-13T04:59:34Z</time>
      </trkpt>
      <trkpt lat="43.11942" lon="5.81009">
        <ele>29.723663</ele>
        <time>2022-08-13T04:59:36Z</time>
      </trkpt>
      <trkpt lat="43.11934" lon="5.81023">
        <ele>28.71542</ele>
        <time>2022-08-13T04:59:38Z</time>
      </trkpt>
      <trkpt lat="43.11927" lon="5.81037">
        <ele>28.1833</ele>
        <time>2022-08-13T04:59:40Z</time>
      </trkpt>
      <trkpt lat="43.11921" lon="5.81051">
        <ele>27.092688</ele>
        <time>2022-08-13T04:59:42Z</time>
      </trkpt>
      <trkpt lat="43.11913" lon="5.81057">
        <ele>26.015589</ele>
        <time>2022-08-13T04:59:44Z</time>
      </trkpt>
      <trkpt lat="43.11905" lon="5.81065">
        <ele>25.508524</ele>
        <time>2022-08-13T04:59:46Z</time>
      </trkpt>
      <trkpt lat="43.11898" lon="5.81074">
        <ele>24.621122</ele>
        <time>2022-08-13T04:59:48Z</time>
      </trkpt>
      <trkpt lat="43.11896" lon="5.81089">
        <ele>24.256784</ele>
        <time>2022-08-13T04:59:50Z</time>
      </trkpt>
      <trkpt lat="43.119" lon="5.81111">
        <ele>23.682516</ele>
        <time>2022-08-13T04:59:52Z</time>
      </trkpt>
      <trkpt lat="43.11896" lon="5.81126">
        <ele>23.456524</ele>
        <time>2022-08-13T04:59:54Z</time>
      </trkpt>
      <trkpt lat="43.11896" lon="5.81141">
        <ele>23.077919</ele>
        <time>2022-08-13T04:59:56Z</time>
      </trkpt>
      <trkpt lat="43.1189" lon="5.81161">
        <ele>22.755501</ele>
        <time>2022-08-13T04:59:58Z</time>
      </trkpt>
      <trkpt lat="43.11875" lon="5.8119">
        <ele>22.606075</ele>
        <time>2022-08-13T05:00:00Z</time>
      </trkpt>
      <trkpt lat="43.11861" lon="5.81225">
        <ele>22.322926</ele>
        <time>2022-08-13T05:00:02Z</time>
      </trkpt>
      <trkpt lat="43.1186" lon="5.81344">
        <ele>22.187016</ele>
        <time>2022-08-13T05:00:18Z</time>
      </trkpt>
      <trkpt lat="43.11871" lon="5.81345">
        <ele>21.922903</ele>
        <time>2022-08-13T05:00:20Z</time>
      </trkpt>
      <trkpt lat="43.11881" lon="5.81348">
        <ele>21.653088</ele>
        <time>2022-08-13T05:00:22Z</time>
      </trkpt>
      <trkpt lat="43.11896" lon="5.81352">
        <ele>21.510563</ele>
        <time>2022-08-13T05:00:24Z</time>
      </trkpt>
      <trkpt lat="43.11911" lon="5.81361">
        <ele>21.211525</ele>
        <time>2022-08-13T05:00:26Z</time>
      </trkpt>
      <trkpt lat="43.11928" lon="5.81365">
        <ele>21.060059</ele>
        <time>2022-08-13T05:00:28Z</time>
      </trkpt>
      <trkpt lat="43.11945" lon="5.8137">
        <ele>20.759615</ele>
        <time>2022-08-13T05:00:30Z</time>
      </trkpt>
      <trkpt lat="43.11983" lon="5.81389">
        <ele>20.610605</ele>
        <time>2022-08-13T05:00:32Z</time>
      </trkpt>
      <trkpt lat="43.11993" lon="5.81398">
        <ele>20.312599</ele>
        <time>2022-08-13T05:00:34Z</time>
      </trkpt>
      <trkpt lat="43.12002" lon="5.81408">
        <ele>20.16457</ele>
        <time>2022-08-13T05:00:36Z</time>
      </trkpt>
      <trkpt lat="43.12011" lon="5.81419">
        <ele>19.899057</ele>
        <time>2022-08-13T05:00:38Z</time>
      </trkpt>
      <trkpt lat="43.12019" lon="5.8143">
        <ele>19.711836</ele>
        <time>2022-08-13T05:00:40Z</time>
      </trkpt>
      <trkpt lat="43.12034" lon="5.81443">
        <ele>19.652702</ele>
        <time>2022-08-13T05:00:42Z</time>
      </trkpt>
      <trkpt lat="43.12044" lon="5.81456">
        <ele>19.580759</ele>
        <time>2022-08-13T05:00:44Z</time>
      </trkpt>
      <trkpt lat="43.12046" lon="5.8147">
        <ele>19.557636</ele>
        <time>2022-08-13T05:00:46Z</time>
      </trkpt>
      <trkpt lat="43.12052" lon="5.81484">
        <ele>19.517521</ele>
        <time>2022-08-13T05:00:48Z</time>
      </trkpt>
      <trkpt lat="43.12057" lon="5.81498">
        <ele>19.496559</ele>
        <time>2022-08-13T05:00:50Z</time>
      </trkpt>
      <trkpt lat="43.12061" lon="5.81513">
        <ele>19.449215</ele>
        <time>2022-08-13T05:00:52Z</time>
      </trkpt>
      <trkpt lat="43.12064" lon="5.81528">
        <ele>19.422863</ele>
        <time>2022-08-13T05:00:54Z</time>
      </trkpt>
      <trkpt lat="43.12067" lon="5.81542">
        <ele>19.365841</ele>
        <time>2022-08-13T05:00:56Z</time>
      </trkpt>
      <trkpt lat="43.1207" lon="5.81558">
        <ele>19.301674</ele>
        <time>2022-08-13T05:00:58Z</time>
      </trkpt>
      <trkpt lat="43.12073" lon="5.81573">
        <ele>19.265598</ele>
        <time>2022-08-13T05:01:00Z</time>
      </trkpt>
      <trkpt lat="43.12075" lon="5.81589">
        <ele>19.184435</ele>
        <time>2022-08-13T05:01:02Z</time>
      </trkpt>
      <trkpt lat="43.12077" lon="5.81604">
        <ele>19.140085</ele>
        <time>2022-08-13T05:01:04Z</time>
      </trkpt>
      <trkpt lat="43.12079" lon="5.8162">
        <ele>19.046957</ele>
        <time>2022-08-13T05:01:06Z</time>
      </trkpt>
      <trkpt lat="43.12081" lon="5.81636">
        <ele>18.999348</ele>
        <time>2022-08-13T05:01:08Z</time>
      </trkpt>
      <trkpt lat="43.12083" lon="5.81652">
        <ele>18.907263</ele>
        <time>2022-08-13T05:01:10Z</time>
      </trkpt>
      <trkpt lat="43.12087" lon="5.81667">
        <ele>18.831507</ele>
        <time>2022-08-13T05:01:12Z</time>
      </trkpt>
      <trkpt lat="43.1209" lon="5.81682">
        <ele>18.808422</ele>
        <time>2022-08-13T05:01:14Z</time>
      </trkpt>
      <trkpt lat="43.12093" lon="5.81697">
        <ele>18.800678</ele>
        <time>2022-08-13T05:01:16Z</time>
      </trkpt>
      <trkpt lat="43.12097" lon="5.81712">
        <ele>18.814259</ele>
        <time>2022-08-13T05:01:18Z</time>
      </trkpt>
      <trkpt lat="43.121" lon="5.81727">
        <ele>18.865314</ele>
        <time>2022-08-13T05:01:20Z</time>
      </trkpt>
      <trkpt lat="43.12103" lon="5.81742">
        <ele>18.900396</ele>
        <time>2022-08-13T05:01:22Z</time>
      </trkpt>
      <trkpt lat="43.12107" lon="5.81757">
        <ele>18.985418</ele>
        <time>2022-08-13T05:01:24Z</time>
      </trkpt>
      <trkpt lat="43.12111" lon="5.81772">
        <ele>19.033718</ele>
        <time>2022-08-13T05:01:26Z</time>
      </trkpt>
      <trkpt lat="43.12113" lon="5.81787">
        <ele>19.138157</ele>
        <time>2022-08-13T05:01:28Z</time>
      </trkpt>
      <trkpt lat="43.12116" lon="5.81802">
        <ele>19.19257</ele>
        <time>2022-08-13T05:01:30Z</time>
      </trkpt>
      <trkpt lat="43.12119" lon="5.81818">
        <ele>19.301529</ele>
        <time>2022-08-13T05:01:32Z</time>
      </trkpt>
      <trkpt lat="43.12122" lon="5.81833">
        <ele>19.405399</ele>
        <time>2022-08-13T05:01:34Z</time>
      </trkpt>
      <trkpt lat="43.12125" lon="5.81849">
        <ele>19.454254</ele>
        <time>2022-08-13T05:01:36Z</time>
      </trkpt>
      <trkpt lat="43.12128" lon="5.81864">
        <ele>19.544601</ele>
        <time>2022-08-13T05:01:38Z</time>
      </trkpt>
      <trkpt lat="43.12131" lon="5.8188">
        <ele>19.585413</ele>
        <time>2022-08-13T05:01:40Z</time>
      </trkpt>
      <trkpt lat="43.12133" lon="5.81895">
        <ele>19.655369</ele>
        <time>2022-08-13T05:01:42Z</time>
      </trkpt>
      <trkpt lat="43.12136" lon="5.81911">
        <ele>19.68288</ele>
        <time>2022-08-13T05:01:44Z</time>
      </trkpt>
      <trkpt lat="43.12138" lon="5.81927">
        <ele>19.71944</ele>
        <time>2022-08-13T05:01:46Z</time>
      </trkpt>
      <trkpt lat="43.12141" lon="5.81942">
        <ele>19.72756</ele>
        <time>2022-08-13T05:01:48Z</time>
      </trkpt>
      <trkpt lat="43.12144" lon="5.81957">
        <ele>19.723459</ele>
        <time>2022-08-13T05:01:50Z</time>
      </trkpt>
      <trkpt lat="43.12146" lon="5.81972">
        <ele>19.694834</ele>
        <time>2022-08-13T05:01:52Z</time>
      </trkpt>
      <trkpt lat="43.12149" lon="5.81987">
        <ele>19.672413</ele>
        <time>2022-08-13T05:01:54Z</time>
      </trkpt>
      <trkpt lat="43.12151" lon="5.82002">
        <ele>19.611984</ele>
        <time>2022-08-13T05:01:56Z</time>
      </trkpt>
      <trkpt lat="43.12154" lon="5.82016">
        <ele>19.57362</ele>
        <time>2022-08-13T05:01:58Z</time>
      </trkpt>
      <trkpt lat="43.12157" lon="5.82032">
        <ele>19.479015</ele>
        <time>2022-08-13T05:02:00Z</time>
      </trkpt>
      <trkpt lat="43.12161" lon="5.82046">
        <ele>19.422318</ele>
        <time>2022-08-13T05:02:02Z</time>
      </trkpt>
      <trkpt lat="43.12164" lon="5.82061">
        <ele>19.290386</ele>
        <time>2022-08-13T05:02:04Z</time>
      </trkpt>
      <trkpt lat="43.12167" lon="5.82076">
        <ele>19.135952</ele>
        <time>2022-08-13T05:02:06Z</time>
      </trkpt>
      <trkpt lat="43.1217" lon="5.8209">
        <ele>19.051722</ele>
        <time>2022-08-13T05:02:08Z</time>
      </trkpt>
      <trkpt lat="43.12173" lon="5.82104">
        <ele>18.873089</ele>
        <time>2022-08-13T05:02:10Z</time>
      </trkpt>
      <trkpt lat="43.12176" lon="5.82119">
        <ele>18.780218</ele>
        <time>2022-08-13T05:02:12Z</time>
      </trkpt>
      <trkpt lat="43.12179" lon="5.82134">
        <ele>18.590509</ele>
        <time>2022-08-13T05:02:14Z</time>
      </trkpt>
      <trkpt lat="43.12183" lon="5.82149">
        <ele>18.494761</ele>
        <time>2022-08-13T05:02:16Z</time>
      </trkpt>
      <trkpt lat="43.12187" lon="5.82164">
        <ele>18.303654</ele>
        <time>2022-08-13T05:02:18Z</time>
      </trkpt>
      <trkpt lat="43.12192" lon="5.82178">
        <ele>18.116306</ele>
        <time>2022-08-13T05:02:20Z</time>
      </trkpt>
      <trkpt lat="43.12199" lon="5.82191">
        <ele>18.025259</ele>
        <time>2022-08-13T05:02:22Z</time>
      </trkpt>
      <trkpt lat="43.12206" lon="5.82203">
        <ele>17.850571</ele>
        <time>2022-08-13T05:02:24Z</time>
      </trkpt>
      <trkpt lat="43.12215" lon="5.82213">
        <ele>17.767822</ele>
        <time>2022-08-13T05:02:26Z</time>
      </trkpt>
      <trkpt lat="43.12224" lon="5.82222">
        <ele>17.614578</ele>
        <time>2022-08-13T05:02:28Z</time>
      </trkpt>
      <trkpt lat="43.12235" lon="5.82228">
        <ele>17.545414</ele>
        <time>2022-08-13T05:02:30Z</time>
      </trkpt>
      <trkpt lat="43.12245" lon="5.82232">
        <ele>17.425613</ele>
        <time>2022-08-13T05:02:32Z</time>
      </trkpt>
      <trkpt lat="43.12256" lon="5.82237">
        <ele>17.376282</ele>
        <time>2022-08-13T05:02:34Z</time>
      </trkpt>
      <trkpt lat="43.12268" lon="5.82241">
        <ele>17.301554</ele>
        <time>2022-08-13T05:02:36Z</time>
      </trkpt>
      <trkpt lat="43.1228" lon="5.82245">
        <ele>17.261456</ele>
        <time>2022-08-13T05:02:38Z</time>
      </trkpt>
      <trkpt lat="43.12291" lon="5.82247">
        <ele>17.255579</ele>
        <time>2022-08-13T05:02:40Z</time>
      </trkpt>
      <trkpt lat="43.12302" lon="5.82252">
        <ele>17.276037</ele>
        <time>2022-08-13T05:02:42Z</time>
      </trkpt>
      <trkpt lat="43.12312" lon="5.82257">
        <ele>17.303885</ele>
        <time>2022-08-13T05:02:44Z</time>
      </trkpt>
      <trkpt lat="43.1232" lon="5.82268">
        <ele>17.398214</ele>
        <time>2022-08-13T05:02:46Z</time>
      </trkpt>
      <trkpt lat="43.12321" lon="5.82282">
        <ele>17.464777</ele>
        <time>2022-08-13T05:02:48Z</time>
      </trkpt>
      <trkpt lat="43.12322" lon="5.82297">
        <ele>17.633886</ele>
        <time>2022-08-13T05:02:50Z</time>
      </trkpt>
      <trkpt lat="43.12321" lon="5.82311">
        <ele>17.734232</ele>
        <time>2022-08-13T05:02:52Z</time>
      </trkpt>
      <trkpt lat="43.1232" lon="5.82326">
        <ele>17.960718</ele>
        <time>2022-08-13T05:02:54Z</time>
      </trkpt>
      <trkpt lat="43.12318" lon="5.82341">
        <ele>18.085018</ele>
        <time>2022-08-13T05:02:56Z</time>
      </trkpt>
      <trkpt lat="43.12317" lon="5.82357">
        <ele>18.351795</ele>
        <time>2022-08-13T05:02:58Z</time>
      </trkpt>
      <trkpt lat="43.12315" lon="5.82373">
        <ele>18.63929</ele>
        <time>2022-08-13T05:03:00Z</time>
      </trkpt>
      <trkpt lat="43.12312" lon="5.82389">
        <ele>18.790031</ele>
        <time>2022-08-13T05:03:02Z</time>
      </trkpt>
      <trkpt lat="43.12309" lon="5.82405">
        <ele>19.104063</ele>
        <time>2022-08-13T05:03:04Z</time>
      </trkpt>
      <trkpt lat="43.12306" lon="5.82419">
        <ele>19.266605</ele>
        <time>2022-08-13T05:03:06Z</time>
      </trkpt>
      <trkpt lat="43.12303" lon="5.82433">
        <ele>19.600386</ele>
        <time>2022-08-13T05:03:08Z</time>
      </trkpt>
      <trkpt lat="43.12299" lon="5.82447">
        <ele>19.941517</ele>
        <time>2022-08-13T05:03:10Z</time>
      </trkpt>
      <trkpt lat="43.12296" lon="5.82462">
        <ele>20.113094</ele>
        <time>2022-08-13T05:03:12Z</time>
      </trkpt>
      <trkpt lat="43.12293" lon="5.82476">
        <ele>20.284512</ele>
        <time>2022-08-13T05:03:14Z</time>
      </trkpt>
      <trkpt lat="43.12289" lon="5.8249">
        <ele>20.62483</ele>
        <time>2022-08-13T05:03:16Z</time>
      </trkpt>
      <trkpt lat="43.12286" lon="5.82503">
        <ele>20.958551</ele>
        <time>2022-08-13T05:03:18Z</time>
      </trkpt>
      <trkpt lat="43.12283" lon="5.82516">
        <ele>21.121552</ele>
        <time>2022-08-13T05:03:20Z</time>
      </trkpt>
      <trkpt lat="43.12281" lon="5.8253">
        <ele>21.436987</ele>
        <time>2022-08-13T05:03:22Z</time>
      </trkpt>
      <trkpt lat="43.12279" lon="5.82546">
        <ele>21.588419</ele>
        <time>2022-08-13T05:03:24Z</time>
      </trkpt>
      <trkpt lat="43.12277" lon="5.8256">
        <ele>21.877632</ele>
        <time>2022-08-13T05:03:26Z</time>
      </trkpt>
      <trkpt lat="43.12274" lon="5.82576">
        <ele>22.015251</ele>
        <time>2022-08-13T05:03:28Z</time>
      </trkpt>
      <trkpt lat="43.12272" lon="5.82592">
        <ele>22.27702</ele>
        <time>2022-08-13T05:03:30Z</time>
      </trkpt>
      <trkpt lat="43.1227" lon="5.82607">
        <ele>22.400808</ele>
        <time>2022-08-13T05:03:32Z</time>
      </trkpt>
      <trkpt lat="43.1227" lon="5.82623">
        <ele>22.631718</ele>
        <time>2022-08-13T05:03:34Z</time>
      </trkpt>
      <trkpt lat="43.12273" lon="5.82638">
        <ele>22.73777</ele>
        <time>2022-08-13T05:03:36Z</time>
      </trkpt>
      <trkpt lat="43.12276" lon="5.82654">
        <ele>22.927023</ele>
        <time>2022-08-13T05:03:38Z</time>
      </trkpt>
      <trkpt lat="43.12278" lon="5.82669">
        <ele>23.083115</ele>
        <time>2022-08-13T05:03:40Z</time>
      </trkpt>
      <trkpt lat="43.12281" lon="5.82684">
        <ele>23.148945</ele>
        <time>2022-08-13T05:03:42Z</time>
      </trkpt>
      <trkpt lat="43.12284" lon="5.82699">
        <ele>23.258514</ele>
        <time>2022-08-13T05:03:44Z</time>
      </trkpt>
      <trkpt lat="43.12285" lon="5.82713">
        <ele>23.303381</ele>
        <time>2022-08-13T05:03:46Z</time>
      </trkpt>
      <trkpt lat="43.12289" lon="5.82728">
        <ele>23.37606</ele>
        <time>2022-08-13T05:03:48Z</time>
      </trkpt>
      <trkpt lat="43.12293" lon="5.82742">
        <ele>23.430676</ele>
        <time>2022-08-13T05:03:50Z</time>
      </trkpt>
      <trkpt lat="43.12296" lon="5.82757">
        <ele>23.45248</ele>
        <time>2022-08-13T05:03:52Z</time>
      </trkpt>
      <trkpt lat="43.12299" lon="5.82772">
        <ele>23.485378</ele>
        <time>2022-08-13T05:03:54Z</time>
      </trkpt>
      <trkpt lat="43.12303" lon="5.82786">
        <ele>23.496456</ele>
        <time>2022-08-13T05:03:56Z</time>
      </trkpt>
      <trkpt lat="43.12307" lon="5.828">
        <ele>23.508837</ele>
        <time>2022-08-13T05:03:58Z</time>
      </trkpt>
      <trkpt lat="43.12309" lon="5.82817">
        <ele>23.511103</ele>
        <time>2022-08-13T05:04:00Z</time>
      </trkpt>
      <trkpt lat="43.12313" lon="5.8283">
        <ele>23.510914</ele>
        <time>2022-08-13T05:04:02Z</time>
      </trkpt>
      <trkpt lat="43.1232" lon="5.82843">
        <ele>23.509825</ele>
        <time>2022-08-13T05:04:04Z</time>
      </trkpt>
      <trkpt lat="43.12326" lon="5.82856">
        <ele>23.508959</ele>
        <time>2022-08-13T05:04:06Z</time>
      </trkpt>
      <trkpt lat="43.12326" lon="5.82874">
        <ele>23.513775</ele>
        <time>2022-08-13T05:04:08Z</time>
      </trkpt>
      <trkpt lat="43.12323" lon="5.82892">
        <ele>23.519238</ele>
        <time>2022-08-13T05:04:10Z</time>
      </trkpt>
      <trkpt lat="43.12325" lon="5.82909">
        <ele>23.536449</ele>
        <time>2022-08-13T05:04:12Z</time>
      </trkpt>
      <trkpt lat="43.12326" lon="5.82925">
        <ele>23.548342</ele>
        <time>2022-08-13T05:04:14Z</time>
      </trkpt>
      <trkpt lat="43.12328" lon="5.82941">
        <ele>23.579887</ele>
        <time>2022-08-13T05:04:16Z</time>
      </trkpt>
      <trkpt lat="43.1233" lon="5.82956">
        <ele>23.623135</ele>
        <time>2022-08-13T05:04:18Z</time>
      </trkpt>
      <trkpt lat="43.12333" lon="5.8297">
        <ele>23.649038</ele>
        <time>2022-08-13T05:04:20Z</time>
      </trkpt>
      <trkpt lat="43.12336" lon="5.82984">
        <ele>23.708546</ele>
        <time>2022-08-13T05:04:22Z</time>
      </trkpt>
      <trkpt lat="43.12339" lon="5.82999">
        <ele>23.741791</ele>
        <time>2022-08-13T05:04:24Z</time>
      </trkpt>
      <trkpt lat="43.12343" lon="5.83013">
        <ele>23.813841</ele>
        <time>2022-08-13T05:04:26Z</time>
      </trkpt>
      <trkpt lat="43.12347" lon="5.83027">
        <ele>23.852421</ele>
        <time>2022-08-13T05:04:28Z</time>
      </trkpt>
      <trkpt lat="43.12351" lon="5.83042">
        <ele>23.936451</ele>
        <time>2022-08-13T05:04:30Z</time>
      </trkpt>
      <trkpt lat="43.12354" lon="5.83056">
        <ele>24.033609</ele>
        <time>2022-08-13T05:04:32Z</time>
      </trkpt>
      <trkpt lat="43.12357" lon="5.83071">
        <ele>24.088768</ele>
        <time>2022-08-13T05:04:34Z</time>
      </trkpt>
      <trkpt lat="43.12359" lon="5.83085">
        <ele>24.214121</ele>
        <time>2022-08-13T05:04:36Z</time>
      </trkpt>
      <trkpt lat="43.12362" lon="5.83099">
        <ele>24.28433</ele>
        <time>2022-08-13T05:04:38Z</time>
      </trkpt>
      <trkpt lat="43.12367" lon="5.83113">
        <ele>24.438255</ele>
        <time>2022-08-13T05:04:40Z</time>
      </trkpt>
      <trkpt lat="43.1237" lon="5.83125">
        <ele>24.60598</ele>
        <time>2022-08-13T05:04:42Z</time>
      </trkpt>
      <trkpt lat="43.12375" lon="5.83139">
        <ele>24.693682</ele>
        <time>2022-08-13T05:04:44Z</time>
      </trkpt>
      <trkpt lat="43.12379" lon="5.83152">
        <ele>24.875105</ele>
        <time>2022-08-13T05:04:46Z</time>
      </trkpt>
      <trkpt lat="43.12384" lon="5.83166">
        <ele>24.968487</ele>
        <time>2022-08-13T05:04:48Z</time>
      </trkpt>
      <trkpt lat="43.12389" lon="5.83179">
        <ele>25.160347</ele>
        <time>2022-08-13T05:04:50Z</time>
      </trkpt>
      <trkpt lat="43.12393" lon="5.83193">
        <ele>25.258757</ele>
        <time>2022-08-13T05:04:52Z</time>
      </trkpt>
      <trkpt lat="43.12396" lon="5.83207">
        <ele>25.459881</ele>
        <time>2022-08-13T05:04:54Z</time>
      </trkpt>
      <trkpt lat="43.12402" lon="5.83221">
        <ele>25.664341</ele>
        <time>2022-08-13T05:04:56Z</time>
      </trkpt>
      <trkpt lat="43.12405" lon="5.83234">
        <ele>25.76672</ele>
        <time>2022-08-13T05:04:58Z</time>
      </trkpt>
      <trkpt lat="43.12409" lon="5.83247">
        <ele>25.970484</ele>
        <time>2022-08-13T05:05:00Z</time>
      </trkpt>
      <trkpt lat="43.12413" lon="5.83261">
        <ele>26.071796</ele>
        <time>2022-08-13T05:05:02Z</time>
      </trkpt>
      <trkpt lat="43.12418" lon="5.83274">
        <ele>26.272755</ele>
        <time>2022-08-13T05:05:04Z</time>
      </trkpt>
      <trkpt lat="43.12422" lon="5.83288">
        <ele>26.37146</ele>
        <time>2022-08-13T05:05:06Z</time>
      </trkpt>
      <trkpt lat="43.12425" lon="5.83302">
        <ele>26.561935</ele>
        <time>2022-08-13T05:05:08Z</time>
      </trkpt>
      <trkpt lat="43.12429" lon="5.83315">
        <ele>26.739025</ele>
        <time>2022-08-13T05:05:10Z</time>
      </trkpt>
      <trkpt lat="43.12434" lon="5.83328">
        <ele>26.821863</ele>
        <time>2022-08-13T05:05:12Z</time>
      </trkpt>
      <trkpt lat="43.12438" lon="5.83342">
        <ele>26.976444</ele>
        <time>2022-08-13T05:05:14Z</time>
      </trkpt>
      <trkpt lat="43.12442" lon="5.83355">
        <ele>27.048548</ele>
        <time>2022-08-13T05:05:16Z</time>
      </trkpt>
      <trkpt lat="43.12445" lon="5.83369">
        <ele>27.183239</ele>
        <time>2022-08-13T05:05:18Z</time>
      </trkpt>
      <trkpt lat="43.12448" lon="5.83383">
        <ele>27.304951</ele>
        <time>2022-08-13T05:05:20Z</time>
      </trkpt>
      <trkpt lat="43.12452" lon="5.83397">
        <ele>27.360783</ele>
        <time>2022-08-13T05:05:22Z</time>
      </trkpt>
      <trkpt lat="43.12454" lon="5.83411">
        <ele>27.462967</ele>
        <time>2022-08-13T05:05:24Z</time>
      </trkpt>
      <trkpt lat="43.12457" lon="5.83425">
        <ele>27.509933</ele>
        <time>2022-08-13T05:05:26Z</time>
      </trkpt>
      <trkpt lat="43.1246" lon="5.83439">
        <ele>27.59757</ele>
        <time>2022-08-13T05:05:28Z</time>
      </trkpt>
      <trkpt lat="43.12463" lon="5.83453">
        <ele>27.679211</ele>
        <time>2022-08-13T05:05:30Z</time>
      </trkpt>
      <trkpt lat="43.12466" lon="5.83467">
        <ele>27.718555</ele>
        <time>2022-08-13T05:05:32Z</time>
      </trkpt>
      <trkpt lat="43.1247" lon="5.8348">
        <ele>27.79534</ele>
        <time>2022-08-13T05:05:34Z</time>
      </trkpt>
      <trkpt lat="43.12474" lon="5.83493">
        <ele>27.833044</ele>
        <time>2022-08-13T05:05:36Z</time>
      </trkpt>
      <trkpt lat="43.1248" lon="5.83506">
        <ele>27.907299</ele>
        <time>2022-08-13T05:05:38Z</time>
      </trkpt>
      <trkpt lat="43.12487" lon="5.83517">
        <ele>27.979198</ele>
        <time>2022-08-13T05:05:40Z</time>
      </trkpt>
      <trkpt lat="43.12495" lon="5.83528">
        <ele>28.013849</ele>
        <time>2022-08-13T05:05:42Z</time>
      </trkpt>
      <trkpt lat="43.12502" lon="5.8354">
        <ele>28.080408</ele>
        <time>2022-08-13T05:05:44Z</time>
      </trkpt>
      <trkpt lat="43.1251" lon="5.83551">
        <ele>28.112583</ele>
        <time>2022-08-13T05:05:46Z</time>
      </trkpt>
      <trkpt lat="43.12518" lon="5.83562">
        <ele>28.175604</ele>
        <time>2022-08-13T05:05:48Z</time>
      </trkpt>
      <trkpt lat="43.12525" lon="5.83574">
        <ele>28.206619</ele>
        <time>2022-08-13T05:05:50Z</time>
      </trkpt>
      <trkpt lat="43.12532" lon="5.83587">
        <ele>28.268011</ele>
        <time>2022-08-13T05:05:52Z</time>
      </trkpt>
      <trkpt lat="43.12538" lon="5.836">
        <ele>28.298721</ele>
        <time>2022-08-13T05:05:54Z</time>
      </trkpt>
      <trkpt lat="43.12546" lon="5.8361">
        <ele>28.361837</ele>
        <time>2022-08-13T05:05:56Z</time>
      </trkpt>
      <trkpt lat="43.12553" lon="5.83622">
        <ele>28.429159</ele>
        <time>2022-08-13T05:05:58Z</time>
      </trkpt>
      <trkpt lat="43.12558" lon="5.83636">
        <ele>28.465006</ele>
        <time>2022-08-13T05:06:00Z</time>
      </trkpt>
      <trkpt lat="43.12561" lon="5.8365">
        <ele>28.541845</ele>
        <time>2022-08-13T05:06:02Z</time>
      </trkpt>
      <trkpt lat="43.12565" lon="5.83665">
        <ele>28.626165</ele>
        <time>2022-08-13T05:06:04Z</time>
      </trkpt>
      <trkpt lat="43.12568" lon="5.83679">
        <ele>28.671179</ele>
        <time>2022-08-13T05:06:06Z</time>
      </trkpt>
      <trkpt lat="43.12571" lon="5.83694">
        <ele>28.766901</ele>
        <time>2022-08-13T05:06:08Z</time>
      </trkpt>
      <trkpt lat="43.12573" lon="5.83708">
        <ele>28.817799</ele>
        <time>2022-08-13T05:06:10Z</time>
      </trkpt>
      <trkpt lat="43.12576" lon="5.83722">
        <ele>28.926123</ele>
        <time>2022-08-13T05:06:12Z</time>
      </trkpt>
      <trkpt lat="43.12579" lon="5.83736">
        <ele>28.983368</ele>
        <time>2022-08-13T05:06:14Z</time>
      </trkpt>
      <trkpt lat="43.12581" lon="5.83751">
        <ele>29.101837</ele>
        <time>2022-08-13T05:06:16Z</time>
      </trkpt>
      <trkpt lat="43.12584" lon="5.83765">
        <ele>29.220837</ele>
        <time>2022-08-13T05:06:18Z</time>
      </trkpt>
      <trkpt lat="43.12586" lon="5.83779">
        <ele>29.278915</ele>
        <time>2022-08-13T05:06:20Z</time>
      </trkpt>
      <trkpt lat="43.12588" lon="5.83794">
        <ele>29.390146</ele>
        <time>2022-08-13T05:06:22Z</time>
      </trkpt>
      <trkpt lat="43.1259" lon="5.83808">
        <ele>29.443027</ele>
        <time>2022-08-13T05:06:24Z</time>
      </trkpt>
      <trkpt lat="43.12594" lon="5.83822">
        <ele>29.544064</ele>
        <time>2022-08-13T05:06:26Z</time>
      </trkpt>
      <trkpt lat="43.12599" lon="5.83835">
        <ele>29.640926</ele>
        <time>2022-08-13T05:06:28Z</time>
      </trkpt>
      <trkpt lat="43.12606" lon="5.83847">
        <ele>29.688711</ele>
        <time>2022-08-13T05:06:30Z</time>
      </trkpt>
      <trkpt lat="43.12615" lon="5.83856">
        <ele>29.784286</ele>
        <time>2022-08-13T05:06:32Z</time>
      </trkpt>
      <trkpt lat="43.12626" lon="5.83863">
        <ele>29.832516</ele>
        <time>2022-08-13T05:06:34Z</time>
      </trkpt>
      <trkpt lat="43.12635" lon="5.8387">
        <ele>29.930099</ele>
        <time>2022-08-13T05:06:36Z</time>
      </trkpt>
      <trkpt lat="43.12646" lon="5.83877">
        <ele>30.028194</ele>
        <time>2022-08-13T05:06:38Z</time>
      </trkpt>
      <trkpt lat="43.12656" lon="5.83883">
        <ele>30.076853</ele>
        <time>2022-08-13T05:06:40Z</time>
      </trkpt>
      <trkpt lat="43.12665" lon="5.83891">
        <ele>30.172501</ele>
        <time>2022-08-13T05:06:42Z</time>
      </trkpt>
      <trkpt lat="43.12673" lon="5.83901">
        <ele>30.219212</ele>
        <time>2022-08-13T05:06:44Z</time>
      </trkpt>
      <trkpt lat="43.1268" lon="5.83913">
        <ele>30.309622</ele>
        <time>2022-08-13T05:06:46Z</time>
      </trkpt>
      <trkpt lat="43.12685" lon="5.83926">
        <ele>30.353146</ele>
        <time>2022-08-13T05:06:48Z</time>
      </trkpt>
      <trkpt lat="43.12688" lon="5.83941">
        <ele>30.437119</ele>
        <time>2022-08-13T05:06:50Z</time>
      </trkpt>
      <trkpt lat="43.1269" lon="5.83956">
        <ele>30.519138</ele>
        <time>2022-08-13T05:06:52Z</time>
      </trkpt>
      <trkpt lat="43.1269" lon="5.83972">
        <ele>30.560471</ele>
        <time>2022-08-13T05:06:54Z</time>
      </trkpt>
      <trkpt lat="43.12691" lon="5.83987">
        <ele>30.645803</ele>
        <time>2022-08-13T05:06:56Z</time>
      </trkpt>
      <trkpt lat="43.12691" lon="5.84002">
        <ele>30.690159</ele>
        <time>2022-08-13T05:06:58Z</time>
      </trkpt>
      <trkpt lat="43.12692" lon="5.84017">
        <ele>30.782492</ele>
        <time>2022-08-13T05:07:00Z</time>
      </trkpt>
      <trkpt lat="43.12692" lon="5.84033">
        <ele>30.830318</ele>
        <time>2022-08-13T05:07:02Z</time>
      </trkpt>
      <trkpt lat="43.12693" lon="5.84048">
        <ele>30.929113</ele>
        <time>2022-08-13T05:07:04Z</time>
      </trkpt>
      <trkpt lat="43.12695" lon="5.84063">
        <ele>31.033279</ele>
        <time>2022-08-13T05:07:06Z</time>
      </trkpt>
      <trkpt lat="43.12699" lon="5.84078">
        <ele>31.088566</ele>
        <time>2022-08-13T05:07:08Z</time>
      </trkpt>
      <trkpt lat="43.12703" lon="5.84091">
        <ele>31.209137</ele>
        <time>2022-08-13T05:07:10Z</time>
      </trkpt>
      <trkpt lat="43.12708" lon="5.84104">
        <ele>31.275879</ele>
        <time>2022-08-13T05:07:12Z</time>
      </trkpt>
      <trkpt lat="43.12714" lon="5.84116">
        <ele>31.425411</ele>
        <time>2022-08-13T05:07:14Z</time>
      </trkpt>
      <trkpt lat="43.1272" lon="5.84129">
        <ele>31.597065</ele>
        <time>2022-08-13T05:07:16Z</time>
      </trkpt>
      <trkpt lat="43.12726" lon="5.84141">
        <ele>31.690495</ele>
        <time>2022-08-13T05:07:18Z</time>
      </trkpt>
      <trkpt lat="43.12732" lon="5.84152">
        <ele>31.888865</ele>
        <time>2022-08-13T05:07:20Z</time>
      </trkpt>
      <trkpt lat="43.12737" lon="5.84165">
        <ele>31.992258</ele>
        <time>2022-08-13T05:07:22Z</time>
      </trkpt>
      <trkpt lat="43.12743" lon="5.84177">
        <ele>32.204231</ele>
        <time>2022-08-13T05:07:24Z</time>
      </trkpt>
      <trkpt lat="43.12749" lon="5.84189">
        <ele>32.421604</ele>
        <time>2022-08-13T05:07:26Z</time>
      </trkpt>
      <trkpt lat="43.12754" lon="5.84201">
        <ele>32.532803</ele>
        <time>2022-08-13T05:07:28Z</time>
      </trkpt>
      <trkpt lat="43.12759" lon="5.84213">
        <ele>32.762688</ele>
        <time>2022-08-13T05:07:30Z</time>
      </trkpt>
      <trkpt lat="43.12763" lon="5.84225">
        <ele>32.882919</ele>
        <time>2022-08-13T05:07:32Z</time>
      </trkpt>
      <trkpt lat="43.12767" lon="5.84236">
        <ele>33.138008</ele>
        <time>2022-08-13T05:07:34Z</time>
      </trkpt>
      <trkpt lat="43.12771" lon="5.84247">
        <ele>33.416058</ele>
        <time>2022-08-13T05:07:36Z</time>
      </trkpt>
      <trkpt lat="43.12775" lon="5.84258">
        <ele>33.563988</ele>
        <time>2022-08-13T05:07:38Z</time>
      </trkpt>
      <trkpt lat="43.1278" lon="5.84268">
        <ele>33.87756</ele>
        <time>2022-08-13T05:07:40Z</time>
      </trkpt>
      <trkpt lat="43.12785" lon="5.84279">
        <ele>34.042789</ele>
        <time>2022-08-13T05:07:42Z</time>
      </trkpt>
      <trkpt lat="43.12791" lon="5.84288">
        <ele>34.387939</ele>
        <time>2022-08-13T05:07:44Z</time>
      </trkpt>
      <trkpt lat="43.12797" lon="5.84298">
        <ele>34.566338</ele>
        <time>2022-08-13T05:07:46Z</time>
      </trkpt>
      <trkpt lat="43.12803" lon="5.84309">
        <ele>34.931648</ele>
        <time>2022-08-13T05:07:48Z</time>
      </trkpt>
      <trkpt lat="43.1281" lon="5.84319">
        <ele>35.117714</ele>
        <time>2022-08-13T05:07:50Z</time>
      </trkpt>
      <trkpt lat="43.12817" lon="5.84328">
        <ele>35.496395</ele>
        <time>2022-08-13T05:07:52Z</time>
      </trkpt>
      <trkpt lat="43.12825" lon="5.84338">
        <ele>35.884468</ele>
        <time>2022-08-13T05:07:54Z</time>
      </trkpt>
      <trkpt lat="43.12833" lon="5.84347">
        <ele>36.083115</ele>
        <time>2022-08-13T05:07:56Z</time>
      </trkpt>
      <trkpt lat="43.12842" lon="5.84355">
        <ele>36.495213</ele>
        <time>2022-08-13T05:07:58Z</time>
      </trkpt>
      <trkpt lat="43.12851" lon="5.84363">
        <ele>36.71101</ele>
        <time>2022-08-13T05:08:00Z</time>
      </trkpt>
      <trkpt lat="43.12859" lon="5.84372">
        <ele>37.166149</ele>
        <time>2022-08-13T05:08:02Z</time>
      </trkpt>
      <trkpt lat="43.12867" lon="5.84381">
        <ele>37.651035</ele>
        <time>2022-08-13T05:08:04Z</time>
      </trkpt>
      <trkpt lat="43.12873" lon="5.84394">
        <ele>37.902725</ele>
        <time>2022-08-13T05:08:06Z</time>
      </trkpt>
      <trkpt lat="43.12874" lon="5.84409">
        <ele>38.416828</ele>
        <time>2022-08-13T05:08:08Z</time>
      </trkpt>
      <trkpt lat="43.12871" lon="5.84423">
        <ele>38.675468</ele>
        <time>2022-08-13T05:08:10Z</time>
      </trkpt>
      <trkpt lat="43.12872" lon="5.84437">
        <ele>39.186943</ele>
        <time>2022-08-13T05:08:12Z</time>
      </trkpt>
      <trkpt lat="43.1288" lon="5.84445">
        <ele>39.434959</ele>
        <time>2022-08-13T05:08:14Z</time>
      </trkpt>
      <trkpt lat="43.1289" lon="5.84445">
        <ele>39.903877</ele>
        <time>2022-08-13T05:08:16Z</time>
      </trkpt>
      <trkpt lat="43.129" lon="5.84445">
        <ele>40.335903</ele>
        <time>2022-08-13T05:08:18Z</time>
      </trkpt>
      <trkpt lat="43.1291" lon="5.84445">
        <ele>40.542698</ele>
        <time>2022-08-13T05:08:20Z</time>
      </trkpt>
      <trkpt lat="43.1292" lon="5.84444">
        <ele>40.94791</ele>
        <time>2022-08-13T05:08:22Z</time>
      </trkpt>
      <trkpt lat="43.1293" lon="5.84442">
        <ele>41.14798</ele>
        <time>2022-08-13T05:08:24Z</time>
      </trkpt>
      <trkpt lat="43.1294" lon="5.8444">
        <ele>41.544815</ele>
        <time>2022-08-13T05:08:26Z</time>
      </trkpt>
      <trkpt lat="43.1295" lon="5.84438">
        <ele>41.940254</ele>
        <time>2022-08-13T05:08:28Z</time>
      </trkpt>
      <trkpt lat="43.1296" lon="5.84436">
        <ele>42.138889</ele>
        <time>2022-08-13T05:08:30Z</time>
      </trkpt>
      <trkpt lat="43.1297" lon="5.84434">
        <ele>42.540512</ele>
        <time>2022-08-13T05:08:32Z</time>
      </trkpt>
      <trkpt lat="43.12981" lon="5.84431">
        <ele>42.743816</ele>
        <time>2022-08-13T05:08:34Z</time>
      </trkpt>
      <trkpt lat="43.12991" lon="5.84429">
        <ele>43.155663</ele>
        <time>2022-08-13T05:08:36Z</time>
      </trkpt>
      <trkpt lat="43.13002" lon="5.84427">
        <ele>43.363911</ele>
        <time>2022-08-13T05:08:38Z</time>
      </trkpt>
      <trkpt lat="43.13012" lon="5.84425">
        <ele>43.784874</ele>
        <time>2022-08-13T05:08:40Z</time>
      </trkpt>
      <trkpt lat="43.13023" lon="5.84424">
        <ele>43.997303</ele>
        <time>2022-08-13T05:08:42Z</time>
      </trkpt>
      <trkpt lat="43.13033" lon="5.84422">
        <ele>44.42543</ele>
        <time>2022-08-13T05:08:44Z</time>
      </trkpt>
      <trkpt lat="43.13044" lon="5.84421">
        <ele>44.855064</ele>
        <time>2022-08-13T05:08:46Z</time>
      </trkpt>
      <trkpt lat="43.13055" lon="5.84421">
        <ele>45.067047</ele>
        <time>2022-08-13T05:08:48Z</time>
      </trkpt>
      <trkpt lat="43.13066" lon="5.84423">
        <ele>45.4739</ele>
        <time>2022-08-13T05:08:50Z</time>
      </trkpt>
      <trkpt lat="43.13076" lon="5.84425">
        <ele>45.663937</ele>
        <time>2022-08-13T05:08:52Z</time>
      </trkpt>
      <trkpt lat="43.13087" lon="5.84428">
        <ele>46.009445</ele>
        <time>2022-08-13T05:08:54Z</time>
      </trkpt>
      <trkpt lat="43.13097" lon="5.84432">
        <ele>46.162941</ele>
        <time>2022-08-13T05:08:56Z</time>
      </trkpt>
      <trkpt lat="43.13108" lon="5.84435">
        <ele>46.430077</ele>
        <time>2022-08-13T05:08:58Z</time>
      </trkpt>
      <trkpt lat="43.1312" lon="5.8444">
        <ele>46.650364</ele>
        <time>2022-08-13T05:09:00Z</time>
      </trkpt>
      <trkpt lat="43.13131" lon="5.84444">
        <ele>46.747063</ele>
        <time>2022-08-13T05:09:02Z</time>
      </trkpt>
      <trkpt lat="43.13141" lon="5.84448">
        <ele>46.924309</ele>
        <time>2022-08-13T05:09:04Z</time>
      </trkpt>
      <trkpt lat="43.13151" lon="5.84453">
        <ele>47.009903</ele>
        <time>2022-08-13T05:09:06Z</time>
      </trkpt>
      <trkpt lat="43.13161" lon="5.84461">
        <ele>47.179409</ele>
        <time>2022-08-13T05:09:08Z</time>
      </trkpt>
      <trkpt lat="43.1317" lon="5.84471">
        <ele>47.260178</ele>
        <time>2022-08-13T05:09:10Z</time>
      </trkpt>
      <trkpt lat="43.13179" lon="5.84481">
        <ele>47.3964</ele>
        <time>2022-08-13T05:09:12Z</time>
      </trkpt>
      <trkpt lat="43.13188" lon="5.84491">
        <ele>47.472221</ele>
        <time>2022-08-13T05:09:14Z</time>
      </trkpt>
      <trkpt lat="43.13198" lon="5.84502">
        <ele>47.481552</ele>
        <time>2022-08-13T05:09:16Z</time>
      </trkpt>
      <trkpt lat="43.13207" lon="5.84512">
        <ele>47.442936</ele>
        <time>2022-08-13T05:09:18Z</time>
      </trkpt>
      <trkpt lat="43.13216" lon="5.84522">
        <ele>47.397293</ele>
        <time>2022-08-13T05:09:20Z</time>
      </trkpt>
      <trkpt lat="43.13225" lon="5.84532">
        <ele>47.256817</ele>
        <time>2022-08-13T05:09:22Z</time>
      </trkpt>
      <trkpt lat="43.13234" lon="5.84541">
        <ele>47.162338</ele>
        <time>2022-08-13T05:09:24Z</time>
      </trkpt>
      <trkpt lat="43.13243" lon="5.84551">
        <ele>46.926407</ele>
        <time>2022-08-13T05:09:26Z</time>
      </trkpt>
      <trkpt lat="43.13252" lon="5.84562">
        <ele>46.632111</ele>
        <time>2022-08-13T05:09:28Z</time>
      </trkpt>
      <trkpt lat="43.13263" lon="5.84568">
        <ele>46.466331</ele>
        <time>2022-08-13T05:09:30Z</time>
      </trkpt>
      <trkpt lat="43.13275" lon="5.84575">
        <ele>46.106178</ele>
        <time>2022-08-13T05:09:32Z</time>
      </trkpt>
      <trkpt lat="43.13285" lon="5.84582">
        <ele>45.914993</ele>
        <time>2022-08-13T05:09:34Z</time>
      </trkpt>
      <trkpt lat="43.13297" lon="5.84588">
        <ele>45.515118</ele>
        <time>2022-08-13T05:09:36Z</time>
      </trkpt>
      <trkpt lat="43.13309" lon="5.84595">
        <ele>45.09716</ele>
        <time>2022-08-13T05:09:38Z</time>
      </trkpt>
      <trkpt lat="43.13324" lon="5.84604">
        <ele>44.884209</ele>
        <time>2022-08-13T05:09:40Z</time>
      </trkpt>
      <trkpt lat="43.13337" lon="5.84608">
        <ele>44.459248</ele>
        <time>2022-08-13T05:09:42Z</time>
      </trkpt>
      <trkpt lat="43.13347" lon="5.84609">
        <ele>44.250832</ele>
        <time>2022-08-13T05:09:44Z</time>
      </trkpt>
      <trkpt lat="43.13358" lon="5.8461">
        <ele>43.849915</ele>
        <time>2022-08-13T05:09:46Z</time>
      </trkpt>
      <trkpt lat="43.13369" lon="5.8461">
        <ele>43.659889</ele>
        <time>2022-08-13T05:09:48Z</time>
      </trkpt>
      <trkpt lat="43.13379" lon="5.84608">
        <ele>43.305977</ele>
        <time>2022-08-13T05:09:50Z</time>
      </trkpt>
      <trkpt lat="43.13388" lon="5.84606">
        <ele>43.143799</ele>
        <time>2022-08-13T05:09:52Z</time>
      </trkpt>
      <trkpt lat="43.13398" lon="5.84604">
        <ele>42.852802</ele>
        <time>2022-08-13T05:09:54Z</time>
      </trkpt>
      <trkpt lat="43.13407" lon="5.84601">
        <ele>42.611565</ele>
        <time>2022-08-13T05:09:56Z</time>
      </trkpt>
      <trkpt lat="43.13417" lon="5.84601">
        <ele>42.511421</ele>
        <time>2022-08-13T05:09:58Z</time>
      </trkpt>
      <trkpt lat="43.1343" lon="5.84603">
        <ele>42.354939</ele>
        <time>2022-08-13T05:10:00Z</time>
      </trkpt>
      <trkpt lat="43.13442" lon="5.84606">
        <ele>42.300354</ele>
        <time>2022-08-13T05:10:02Z</time>
      </trkpt>
      <trkpt lat="43.13454" lon="5.84612">
        <ele>42.248451</ele>
        <time>2022-08-13T05:10:04Z</time>
      </trkpt>
      <trkpt lat="43.13465" lon="5.8462">
        <ele>42.25528</ele>
        <time>2022-08-13T05:10:06Z</time>
      </trkpt>
      <trkpt lat="43.13474" lon="5.84629">
        <ele>42.337036</ele>
        <time>2022-08-13T05:10:08Z</time>
      </trkpt>
      <trkpt lat="43.13484" lon="5.84639">
        <ele>42.49884</ele>
        <time>2022-08-13T05:10:10Z</time>
      </trkpt>
      <trkpt lat="43.13495" lon="5.84649">
        <ele>42.604797</ele>
        <time>2022-08-13T05:10:12Z</time>
      </trkpt>
      <trkpt lat="43.13503" lon="5.8466">
        <ele>42.860252</ele>
        <time>2022-08-13T05:10:14Z</time>
      </trkpt>
      <trkpt lat="43.13512" lon="5.84671">
        <ele>43.00761</ele>
        <time>2022-08-13T05:10:16Z</time>
      </trkpt>
      <trkpt lat="43.1352" lon="5.8468">
        <ele>43.337147</ele>
        <time>2022-08-13T05:10:18Z</time>
      </trkpt>
      <trkpt lat="43.13522" lon="5.8469">
        <ele>43.516987</ele>
        <time>2022-08-13T05:10:20Z</time>
      </trkpt>
      <trkpt lat="43.13519" lon="5.84697">
        <ele>43.899105</ele>
        <time>2022-08-13T05:10:22Z</time>
      </trkpt>
      <trkpt lat="43.13513" lon="5.84703">
        <ele>44.297295</ele>
        <time>2022-08-13T05:10:24Z</time>
      </trkpt>
      <trkpt lat="43.13511" lon="5.84707">
        <ele>44.497581</ele>
        <time>2022-08-13T05:10:26Z</time>
      </trkpt>
      <trkpt lat="43.13511" lon="5.84712">
        <ele>44.893234</ele>
        <time>2022-08-13T05:10:28Z</time>
      </trkpt>
      <trkpt lat="43.13514" lon="5.84719">
        <ele>45.086365</ele>
        <time>2022-08-13T05:10:30Z</time>
      </trkpt>
      <trkpt lat="43.13518" lon="5.84728">
        <ele>45.460514</ele>
        <time>2022-08-13T05:10:32Z</time>
      </trkpt>
      <trkpt lat="43.13522" lon="5.84738">
        <ele>45.816792</ele>
        <time>2022-08-13T05:10:34Z</time>
      </trkpt>
      <trkpt lat="43.13526" lon="5.84744">
        <ele>45.98811</ele>
        <time>2022-08-13T05:10:36Z</time>
      </trkpt>
      <trkpt lat="43.13532" lon="5.84755">
        <ele>46.318066</ele>
        <time>2022-08-13T05:10:38Z</time>
      </trkpt>
      <trkpt lat="43.13537" lon="5.84767">
        <ele>46.477242</ele>
        <time>2022-08-13T05:10:40Z</time>
      </trkpt>
      <trkpt lat="43.13543" lon="5.84776">
        <ele>46.784271</ele>
        <time>2022-08-13T05:10:42Z</time>
      </trkpt>
      <trkpt lat="43.13551" lon="5.84785">
        <ele>46.931721</ele>
        <time>2022-08-13T05:10:44Z</time>
      </trkpt>
      <trkpt lat="43.13559" lon="5.84793">
        <ele>47.213024</ele>
        <time>2022-08-13T05:10:46Z</time>
      </trkpt>
      <trkpt lat="43.13566" lon="5.84801">
        <ele>47.474548</ele>
        <time>2022-08-13T05:10:48Z</time>
      </trkpt>
      <trkpt lat="43.13573" lon="5.84809">
        <ele>47.597466</ele>
        <time>2022-08-13T05:10:50Z</time>
      </trkpt>
      <trkpt lat="43.1358" lon="5.84816">
        <ele>47.826031</ele>
        <time>2022-08-13T05:10:52Z</time>
      </trkpt>
      <trkpt lat="43.13586" lon="5.84822">
        <ele>47.930901</ele>
        <time>2022-08-13T05:10:54Z</time>
      </trkpt>
      <trkpt lat="43.1359" lon="5.84825">
        <ele>48.119984</ele>
        <time>2022-08-13T05:10:56Z</time>
      </trkpt>
      <trkpt lat="43.13592" lon="5.84826">
        <ele>48.525177</ele>
        <time>2022-08-13T05:11:04Z</time>
      </trkpt>
      <trkpt lat="43.13593" lon="5.84827">
        <ele>48.614868</ele>
        <time>2022-08-13T05:11:06Z</time>
      </trkpt>
      <trkpt lat="43.13594" lon="5.84828">
        <ele>48.771637</ele>
        <time>2022-08-13T05:11:12Z</time>
      </trkpt>
      <trkpt lat="43.13597" lon="5.84832">
        <ele>48.794048</ele>
        <time>2022-08-13T05:11:14Z</time>
      </trkpt>
      <trkpt lat="43.13601" lon="5.84835">
        <ele>48.834892</ele>
        <time>2022-08-13T05:11:16Z</time>
      </trkpt>
      <trkpt lat="43.13605" lon="5.84836">
        <ele>48.855145</ele>
        <time>2022-08-13T05:11:18Z</time>
      </trkpt>
      <trkpt lat="43.13606" lon="5.8484">
        <ele>48.900211</ele>
        <time>2022-08-13T05:11:20Z</time>
      </trkpt>
      <trkpt lat="43.13607" lon="5.84848">
        <ele>48.953083</ele>
        <time>2022-08-13T05:11:22Z</time>
      </trkpt>
      <trkpt lat="43.13611" lon="5.84856">
        <ele>48.981392</ele>
        <time>2022-08-13T05:11:24Z</time>
      </trkpt>
      <trkpt lat="43.13615" lon="5.84868">
        <ele>49.038483</ele>
        <time>2022-08-13T05:11:26Z</time>
      </trkpt>
      <trkpt lat="43.13618" lon="5.8488">
        <ele>49.066551</ele>
        <time>2022-08-13T05:11:28Z</time>
      </trkpt>
      <trkpt lat="43.13619" lon="5.84893">
        <ele>49.121033</ele>
        <time>2022-08-13T05:11:30Z</time>
      </trkpt>
      <trkpt lat="43.1362" lon="5.84906">
        <ele>49.147316</ele>
        <time>2022-08-13T05:11:32Z</time>
      </trkpt>
      <trkpt lat="43.1362" lon="5.8492">
        <ele>49.198009</ele>
        <time>2022-08-13T05:11:34Z</time>
      </trkpt>
      <trkpt lat="43.13621" lon="5.84933">
        <ele>49.246765</ele>
        <time>2022-08-13T05:11:36Z</time>
      </trkpt>
      <trkpt lat="43.13621" lon="5.84944">
        <ele>49.270645</ele>
        <time>2022-08-13T05:11:38Z</time>
      </trkpt>
      <trkpt lat="43.1362" lon="5.84957">
        <ele>49.31768</ele>
        <time>2022-08-13T05:11:40Z</time>
      </trkpt>
      <trkpt lat="43.1362" lon="5.8497">
        <ele>49.341183</ele>
        <time>2022-08-13T05:11:42Z</time>
      </trkpt>
      <trkpt lat="43.1362" lon="5.84981">
        <ele>49.391037</ele>
        <time>2022-08-13T05:11:44Z</time>
      </trkpt>
      <trkpt lat="43.13622" lon="5.8499">
        <ele>49.419014</ele>
        <time>2022-08-13T05:11:46Z</time>
      </trkpt>
      <trkpt lat="43.13622" lon="5.85001">
        <ele>49.484432</ele>
        <time>2022-08-13T05:11:48Z</time>
      </trkpt>
      <trkpt lat="43.13621" lon="5.85013">
        <ele>49.563969</ele>
        <time>2022-08-13T05:11:50Z</time>
      </trkpt>
      <trkpt lat="43.13622" lon="5.85024">
        <ele>49.6096</ele>
        <time>2022-08-13T05:11:52Z</time>
      </trkpt>
      <trkpt lat="43.13622" lon="5.85035">
        <ele>49.71418</ele>
        <time>2022-08-13T05:11:54Z</time>
      </trkpt>
      <trkpt lat="43.1362" lon="5.85044">
        <ele>49.773945</ele>
        <time>2022-08-13T05:11:56Z</time>
      </trkpt>
      <trkpt lat="43.13617" lon="5.85056">
        <ele>49.910301</ele>
        <time>2022-08-13T05:11:58Z</time>
      </trkpt>
      <trkpt lat="43.13617" lon="5.85068">
        <ele>49.987679</ele>
        <time>2022-08-13T05:12:00Z</time>
      </trkpt>
      <trkpt lat="43.13617" lon="5.85081">
        <ele>50.162819</ele>
        <time>2022-08-13T05:12:02Z</time>
      </trkpt>
      <trkpt lat="43.13619" lon="5.85094">
        <ele>50.367939</ele>
        <time>2022-08-13T05:12:04Z</time>
      </trkpt>
      <trkpt lat="43.13621" lon="5.85105">
        <ele>50.482792</ele>
        <time>2022-08-13T05:12:06Z</time>
      </trkpt>
      <trkpt lat="43.1362" lon="5.85115">
        <ele>50.739136</ele>
        <time>2022-08-13T05:12:08Z</time>
      </trkpt>
      <trkpt lat="43.13615" lon="5.85124">
        <ele>50.881439</ele>
        <time>2022-08-13T05:12:10Z</time>
      </trkpt>
      <trkpt lat="43.13609" lon="5.85132">
        <ele>51.195728</ele>
        <time>2022-08-13T05:12:12Z</time>
      </trkpt>
      <trkpt lat="43.13605" lon="5.8514">
        <ele>51.36739</ele>
        <time>2022-08-13T05:12:14Z</time>
      </trkpt>
      <trkpt lat="43.13599" lon="5.8515">
        <ele>51.737499</ele>
        <time>2022-08-13T05:12:16Z</time>
      </trkpt>
      <trkpt lat="43.13592" lon="5.8516">
        <ele>52.139961</ele>
        <time>2022-08-13T05:12:18Z</time>
      </trkpt>
      <trkpt lat="43.13585" lon="5.85168">
        <ele>52.352741</ele>
        <time>2022-08-13T05:12:20Z</time>
      </trkpt>
      <trkpt lat="43.13578" lon="5.85176">
        <ele>52.801147</ele>
        <time>2022-08-13T05:12:22Z</time>
      </trkpt>
      <trkpt lat="43.1357" lon="5.85184">
        <ele>53.036457</ele>
        <time>2022-08-13T05:12:24Z</time>
      </trkpt>
      <trkpt lat="43.13563" lon="5.85194">
        <ele>53.528282</ele>
        <time>2022-08-13T05:12:26Z</time>
      </trkpt>
      <trkpt lat="43.13557" lon="5.85204">
        <ele>53.78471</ele>
        <time>2022-08-13T05:12:28Z</time>
      </trkpt>
      <trkpt lat="43.13551" lon="5.85209">
        <ele>54.320606</ele>
        <time>2022-08-13T05:12:30Z</time>
      </trkpt>
      <trkpt lat="43.13543" lon="5.85216">
        <ele>54.888008</ele>
        <time>2022-08-13T05:12:32Z</time>
      </trkpt>
      <trkpt lat="43.13535" lon="5.85224">
        <ele>55.181885</ele>
        <time>2022-08-13T05:12:34Z</time>
      </trkpt>
      <trkpt lat="43.13525" lon="5.85231">
        <ele>55.783203</ele>
        <time>2022-08-13T05:12:36Z</time>
      </trkpt>
      <trkpt lat="43.13516" lon="5.85235">
        <ele>56.088287</ele>
        <time>2022-08-13T05:12:38Z</time>
      </trkpt>
      <trkpt lat="43.13505" lon="5.85245">
        <ele>56.703491</ele>
        <time>2022-08-13T05:12:40Z</time>
      </trkpt>
      <trkpt lat="43.13496" lon="5.85249">
        <ele>57.321442</ele>
        <time>2022-08-13T05:12:42Z</time>
      </trkpt>
      <trkpt lat="43.13491" lon="5.85261">
        <ele>57.630951</ele>
        <time>2022-08-13T05:12:44Z</time>
      </trkpt>
      <trkpt lat="43.1349" lon="5.85271">
        <ele>58.25341</ele>
        <time>2022-08-13T05:12:46Z</time>
      </trkpt>
      <trkpt lat="43.13489" lon="5.85276">
        <ele>58.568298</ele>
        <time>2022-08-13T05:12:48Z</time>
      </trkpt>
      <trkpt lat="43.13489" lon="5.85285">
        <ele>59.208515</ele>
        <time>2022-08-13T05:12:50Z</time>
      </trkpt>
      <trkpt lat="43.1349" lon="5.85293">
        <ele>59.532829</ele>
        <time>2022-08-13T05:12:52Z</time>
      </trkpt>
      <trkpt lat="43.13487" lon="5.85352">
        <ele>60.185394</ele>
        <time>2022-08-13T05:13:00Z</time>
      </trkpt>
      <trkpt lat="43.13491" lon="5.85364">
        <ele>60.851143</ele>
        <time>2022-08-13T05:13:02Z</time>
      </trkpt>
      <trkpt lat="43.13491" lon="5.8538">
        <ele>61.2029</ele>
        <time>2022-08-13T05:13:04Z</time>
      </trkpt>
      <trkpt lat="43.13496" lon="5.85393">
        <ele>61.965717</ele>
        <time>2022-08-13T05:13:06Z</time>
      </trkpt>
      <trkpt lat="43.13498" lon="5.85407">
        <ele>62.376606</ele>
        <time>2022-08-13T05:13:08Z</time>
      </trkpt>
      <trkpt lat="43.135" lon="5.85423">
        <ele>63.240833</ele>
        <time>2022-08-13T05:13:10Z</time>
      </trkpt>
      <trkpt lat="43.13503" lon="5.85436">
        <ele>64.149971</ele>
        <time>2022-08-13T05:13:12Z</time>
      </trkpt>
      <trkpt lat="43.13506" lon="5.85448">
        <ele>64.619698</ele>
        <time>2022-08-13T05:13:14Z</time>
      </trkpt>
      <trkpt lat="43.1351" lon="5.85459">
        <ele>65.584511</ele>
        <time>2022-08-13T05:13:16Z</time>
      </trkpt>
      <trkpt lat="43.13511" lon="5.85473">
        <ele>66.077286</ele>
        <time>2022-08-13T05:13:18Z</time>
      </trkpt>
      <trkpt lat="43.13514" lon="5.85484">
        <ele>67.082954</ele>
        <time>2022-08-13T05:13:20Z</time>
      </trkpt>
      <trkpt lat="43.13516" lon="5.85496">
        <ele>68.123734</ele>
        <time>2022-08-13T05:13:22Z</time>
      </trkpt>
      <trkpt lat="43.13518" lon="5.85509">
        <ele>68.660172</ele>
        <time>2022-08-13T05:13:24Z</time>
      </trkpt>
      <trkpt lat="43.1352" lon="5.8552">
        <ele>69.764694</ele>
        <time>2022-08-13T05:13:26Z</time>
      </trkpt>
      <trkpt lat="43.13523" lon="5.85532">
        <ele>70.331612</ele>
        <time>2022-08-13T05:13:28Z</time>
      </trkpt>
      <trkpt lat="43.13525" lon="5.85544">
        <ele>71.493149</ele>
        <time>2022-08-13T05:13:30Z</time>
      </trkpt>
      <trkpt lat="43.13527" lon="5.85556">
        <ele>72.087753</ele>
        <time>2022-08-13T05:13:32Z</time>
      </trkpt>
      <trkpt lat="43.13529" lon="5.85568">
        <ele>73.30574</ele>
        <time>2022-08-13T05:13:34Z</time>
      </trkpt>
      <trkpt lat="43.13531" lon="5.8558">
        <ele>74.563065</ele>
        <time>2022-08-13T05:13:36Z</time>
      </trkpt>
      <trkpt lat="43.13533" lon="5.85592">
        <ele>75.206467</ele>
        <time>2022-08-13T05:13:38Z</time>
      </trkpt>
      <trkpt lat="43.13535" lon="5.85604">
        <ele>76.510849</ele>
        <time>2022-08-13T05:13:40Z</time>
      </trkpt>
      <trkpt lat="43.13538" lon="5.85616">
        <ele>77.841499</ele>
        <time>2022-08-13T05:13:42Z</time>
      </trkpt>
      <trkpt lat="43.13539" lon="5.85628">
        <ele>78.5112</ele>
        <time>2022-08-13T05:13:44Z</time>
      </trkpt>
      <trkpt lat="43.13539" lon="5.8564">
        <ele>79.849754</ele>
        <time>2022-08-13T05:13:46Z</time>
      </trkpt>
      <trkpt lat="43.1354" lon="5.85653">
        <ele>80.517174</ele>
        <time>2022-08-13T05:13:48Z</time>
      </trkpt>
      <trkpt lat="43.13541" lon="5.85665">
        <ele>81.846436</ele>
        <time>2022-08-13T05:13:50Z</time>
      </trkpt>
      <trkpt lat="43.13541" lon="5.85677">
        <ele>82.505455</ele>
        <time>2022-08-13T05:13:52Z</time>
      </trkpt>
      <trkpt lat="43.1354" lon="5.8569">
        <ele>83.777687</ele>
        <time>2022-08-13T05:13:54Z</time>
      </trkpt>
      <trkpt lat="43.13538" lon="5.85702">
        <ele>84.950394</ele>
        <time>2022-08-13T05:13:56Z</time>
      </trkpt>
      <trkpt lat="43.13537" lon="5.85714">
        <ele>85.494995</ele>
        <time>2022-08-13T05:13:58Z</time>
      </trkpt>
      <trkpt lat="43.13534" lon="5.85725">
        <ele>86.515121</ele>
        <time>2022-08-13T05:14:00Z</time>
      </trkpt>
      <trkpt lat="43.1353" lon="5.85738">
        <ele>86.994675</ele>
        <time>2022-08-13T05:14:02Z</time>
      </trkpt>
      <trkpt lat="43.13525" lon="5.85751">
        <ele>87.898117</ele>
        <time>2022-08-13T05:14:04Z</time>
      </trkpt>
      <trkpt lat="43.13519" lon="5.85764">
        <ele>88.323654</ele>
        <time>2022-08-13T05:14:06Z</time>
      </trkpt>
      <trkpt lat="43.13514" lon="5.85778">
        <ele>89.127907</ele>
        <time>2022-08-13T05:14:08Z</time>
      </trkpt>
      <trkpt lat="43.13509" lon="5.85792">
        <ele>89.873672</ele>
        <time>2022-08-13T05:14:10Z</time>
      </trkpt>
      <trkpt lat="43.13505" lon="5.85807">
        <ele>90.223526</ele>
        <time>2022-08-13T05:14:12Z</time>
      </trkpt>
      <trkpt lat="43.13501" lon="5.85822">
        <ele>90.874016</ele>
        <time>2022-08-13T05:14:14Z</time>
      </trkpt>
      <trkpt lat="43.13497" lon="5.85838">
        <ele>91.174736</ele>
        <time>2022-08-13T05:14:16Z</time>
      </trkpt>
      <trkpt lat="43.13492" lon="5.85853">
        <ele>91.730545</ele>
        <time>2022-08-13T05:14:18Z</time>
      </trkpt>
      <trkpt lat="43.13486" lon="5.85868">
        <ele>91.98671</ele>
        <time>2022-08-13T05:14:20Z</time>
      </trkpt>
      <trkpt lat="43.13485" lon="5.85884">
        <ele>92.454941</ele>
        <time>2022-08-13T05:14:22Z</time>
      </trkpt>
      <trkpt lat="43.13494" lon="5.85893">
        <ele>92.856247</ele>
        <time>2022-08-13T05:14:24Z</time>
      </trkpt>
      <trkpt lat="43.13504" lon="5.85893">
        <ele>93.026566</ele>
        <time>2022-08-13T05:14:26Z</time>
      </trkpt>
      <trkpt lat="43.13515" lon="5.85891">
        <ele>93.301163</ele>
        <time>2022-08-13T05:14:28Z</time>
      </trkpt>
      <trkpt lat="43.13526" lon="5.85893">
        <ele>93.411354</ele>
        <time>2022-08-13T05:14:30Z</time>
      </trkpt>
      <trkpt lat="43.13536" lon="5.85898">
        <ele>93.576126</ele>
        <time>2022-08-13T05:14:32Z</time>
      </trkpt>
      <trkpt lat="43.13546" lon="5.85902">
        <ele>93.678688</ele>
        <time>2022-08-13T05:14:34Z</time>
      </trkpt>
      <trkpt lat="43.13556" lon="5.85906">
        <ele>93.709015</ele>
        <time>2022-08-13T05:14:36Z</time>
      </trkpt>
      <trkpt lat="43.13566" lon="5.85911">
        <ele>93.730392</ele>
        <time>2022-08-13T05:14:38Z</time>
      </trkpt>
      <trkpt lat="43.13575" lon="5.85916">
        <ele>93.722733</ele>
        <time>2022-08-13T05:14:40Z</time>
      </trkpt>
      <trkpt lat="43.13583" lon="5.85923">
        <ele>93.675064</ele>
        <time>2022-08-13T05:14:42Z</time>
      </trkpt>
      <trkpt lat="43.13592" lon="5.85929">
        <ele>93.5905</ele>
        <time>2022-08-13T05:14:44Z</time>
      </trkpt>
      <trkpt lat="43.13601" lon="5.85934">
        <ele>93.537163</ele>
        <time>2022-08-13T05:14:46Z</time>
      </trkpt>
      <trkpt lat="43.1361" lon="5.85942">
        <ele>93.414711</ele>
        <time>2022-08-13T05:14:48Z</time>
      </trkpt>
      <trkpt lat="43.13618" lon="5.85951">
        <ele>93.348099</ele>
        <time>2022-08-13T05:14:50Z</time>
      </trkpt>
      <trkpt lat="43.13627" lon="5.8596">
        <ele>93.208595</ele>
        <time>2022-08-13T05:14:52Z</time>
      </trkpt>
      <trkpt lat="43.13635" lon="5.8597">
        <ele>93.136963</ele>
        <time>2022-08-13T05:14:54Z</time>
      </trkpt>
      <trkpt lat="43.13644" lon="5.85979">
        <ele>92.992249</ele>
        <time>2022-08-13T05:14:56Z</time>
      </trkpt>
      <trkpt lat="43.13653" lon="5.85988">
        <ele>92.848526</ele>
        <time>2022-08-13T05:14:58Z</time>
      </trkpt>
      <trkpt lat="43.13662" lon="5.85998">
        <ele>92.778664</ele>
        <time>2022-08-13T05:15:00Z</time>
      </trkpt>
      <trkpt lat="43.13671" lon="5.86007">
        <ele>92.647537</ele>
        <time>2022-08-13T05:15:02Z</time>
      </trkpt>
      <trkpt lat="43.1368" lon="5.86016">
        <ele>92.587784</ele>
        <time>2022-08-13T05:15:04Z</time>
      </trkpt>
      <trkpt lat="43.13688" lon="5.86026">
        <ele>92.480362</ele>
        <time>2022-08-13T05:15:06Z</time>
      </trkpt>
      <trkpt lat="43.13697" lon="5.86035">
        <ele>92.431473</ele>
        <time>2022-08-13T05:15:08Z</time>
      </trkpt>
      <trkpt lat="43.13705" lon="5.86044">
        <ele>92.340942</ele>
        <time>2022-08-13T05:15:10Z</time>
      </trkpt>
      <trkpt lat="43.13714" lon="5.86053">
        <ele>92.262039</ele>
        <time>2022-08-13T05:15:12Z</time>
      </trkpt>
      <trkpt lat="43.13722" lon="5.86063">
        <ele>92.229088</ele>
        <time>2022-08-13T05:15:14Z</time>
      </trkpt>
      <trkpt lat="43.1373" lon="5.86072">
        <ele>92.185265</ele>
        <time>2022-08-13T05:15:16Z</time>
      </trkpt>
      <trkpt lat="43.13738" lon="5.86082">
        <ele>92.1782</ele>
        <time>2022-08-13T05:15:18Z</time>
      </trkpt>
      <trkpt lat="43.13746" lon="5.86091">
        <ele>92.195999</ele>
        <time>2022-08-13T05:15:20Z</time>
      </trkpt>
      <trkpt lat="43.13754" lon="5.86101">
        <ele>92.249413</ele>
        <time>2022-08-13T05:15:22Z</time>
      </trkpt>
      <trkpt lat="43.13762" lon="5.86112">
        <ele>92.286057</ele>
        <time>2022-08-13T05:15:24Z</time>
      </trkpt>
      <trkpt lat="43.13768" lon="5.86122">
        <ele>92.375748</ele>
        <time>2022-08-13T05:15:26Z</time>
      </trkpt>
      <trkpt lat="43.13775" lon="5.86131">
        <ele>92.428444</ele>
        <time>2022-08-13T05:15:28Z</time>
      </trkpt>
      <trkpt lat="43.13781" lon="5.86141">
        <ele>92.554665</ele>
        <time>2022-08-13T05:15:30Z</time>
      </trkpt>
      <trkpt lat="43.13788" lon="5.86151">
        <ele>92.633591</ele>
        <time>2022-08-13T05:15:32Z</time>
      </trkpt>
      <trkpt lat="43.13794" lon="5.86162">
        <ele>92.843567</ele>
        <time>2022-08-13T05:15:34Z</time>
      </trkpt>
      <trkpt lat="43.138" lon="5.86173">
        <ele>93.142532</ele>
        <time>2022-08-13T05:15:36Z</time>
      </trkpt>
      <trkpt lat="43.13805" lon="5.86185">
        <ele>93.328232</ele>
        <time>2022-08-13T05:15:38Z</time>
      </trkpt>
      <trkpt lat="43.13809" lon="5.86197">
        <ele>93.77034</ele>
        <time>2022-08-13T05:15:40Z</time>
      </trkpt>
      <trkpt lat="43.13814" lon="5.86208">
        <ele>94.025856</ele>
        <time>2022-08-13T05:15:42Z</time>
      </trkpt>
      <trkpt lat="43.13818" lon="5.8622">
        <ele>94.607117</ele>
        <time>2022-08-13T05:15:44Z</time>
      </trkpt>
      <trkpt lat="43.13822" lon="5.86232">
        <ele>94.93502</ele>
        <time>2022-08-13T05:15:46Z</time>
      </trkpt>
      <trkpt lat="43.13825" lon="5.86244">
        <ele>95.672363</ele>
        <time>2022-08-13T05:15:48Z</time>
      </trkpt>
      <trkpt lat="43.13828" lon="5.86257">
        <ele>96.08242</ele>
        <time>2022-08-13T05:15:50Z</time>
      </trkpt>
      <trkpt lat="43.1383" lon="5.8627">
        <ele>96.979126</ele>
        <time>2022-08-13T05:15:52Z</time>
      </trkpt>
      <trkpt lat="43.13833" lon="5.86283">
        <ele>97.46244</ele>
        <time>2022-08-13T05:15:54Z</time>
      </trkpt>
      <trkpt lat="43.13834" lon="5.86296">
        <ele>98.49131</ele>
        <time>2022-08-13T05:15:56Z</time>
      </trkpt>
      <trkpt lat="43.13835" lon="5.8631">
        <ele>99.597862</ele>
        <time>2022-08-13T05:15:58Z</time>
      </trkpt>
      <trkpt lat="43.13836" lon="5.86323">
        <ele>100.17955</ele>
        <time>2022-08-13T05:16:00Z</time>
      </trkpt>
      <trkpt lat="43.13837" lon="5.86337">
        <ele>101.401184</ele>
        <time>2022-08-13T05:16:02Z</time>
      </trkpt>
      <trkpt lat="43.13839" lon="5.86351">
        <ele>102.041748</ele>
        <time>2022-08-13T05:16:04Z</time>
      </trkpt>
      <trkpt lat="43.1384" lon="5.86364">
        <ele>103.381264</ele>
        <time>2022-08-13T05:16:06Z</time>
      </trkpt>
      <trkpt lat="43.1384" lon="5.86377">
        <ele>104.078537</ele>
        <time>2022-08-13T05:16:08Z</time>
      </trkpt>
      <trkpt lat="43.13841" lon="5.8639">
        <ele>105.522903</ele>
        <time>2022-08-13T05:16:10Z</time>
      </trkpt>
      <trkpt lat="43.13842" lon="5.86403">
        <ele>107.029831</ele>
        <time>2022-08-13T05:16:12Z</time>
      </trkpt>
      <trkpt lat="43.13842" lon="5.86418">
        <ele>107.804649</ele>
        <time>2022-08-13T05:16:14Z</time>
      </trkpt>
      <trkpt lat="43.13842" lon="5.86433">
        <ele>109.381874</ele>
        <time>2022-08-13T05:16:16Z</time>
      </trkpt>
      <trkpt lat="43.13842" lon="5.86449">
        <ele>110.177895</ele>
        <time>2022-08-13T05:16:18Z</time>
      </trkpt>
      <trkpt lat="43.13841" lon="5.86467">
        <ele>111.764748</ele>
        <time>2022-08-13T05:16:20Z</time>
      </trkpt>
      <trkpt lat="43.1384" lon="5.86486">
        <ele>112.546082</ele>
        <time>2022-08-13T05:16:22Z</time>
      </trkpt>
      <trkpt lat="43.13839" lon="5.86507">
        <ele>114.058731</ele>
        <time>2022-08-13T05:16:24Z</time>
      </trkpt>
      <trkpt lat="43.13837" lon="5.86529">
        <ele>115.463455</ele>
        <time>2022-08-13T05:16:26Z</time>
      </trkpt>
      <trkpt lat="43.13833" lon="5.86553">
        <ele>116.111107</ele>
        <time>2022-08-13T05:16:28Z</time>
      </trkpt>
      <trkpt lat="43.13826" lon="5.86577">
        <ele>117.275894</ele>
        <time>2022-08-13T05:16:30Z</time>
      </trkpt>
      <trkpt lat="43.1382" lon="5.86603">
        <ele>117.788429</ele>
        <time>2022-08-13T05:16:32Z</time>
      </trkpt>
      <trkpt lat="43.13812" lon="5.86629">
        <ele>118.667664</ele>
        <time>2022-08-13T05:16:34Z</time>
      </trkpt>
      <trkpt lat="43.13802" lon="5.86657">
        <ele>119.031593</ele>
        <time>2022-08-13T05:16:36Z</time>
      </trkpt>
      <trkpt lat="43.13793" lon="5.86685">
        <ele>119.595482</ele>
        <time>2022-08-13T05:16:38Z</time>
      </trkpt>
      <trkpt lat="43.13786" lon="5.86714">
        <ele>119.914795</ele>
        <time>2022-08-13T05:16:40Z</time>
      </trkpt>
      <trkpt lat="43.13779" lon="5.86743">
        <ele>119.978065</ele>
        <time>2022-08-13T05:16:42Z</time>
      </trkpt>
      <trkpt lat="43.13773" lon="5.86772">
        <ele>119.92025</ele>
        <time>2022-08-13T05:16:44Z</time>
      </trkpt>
      <trkpt lat="43.13767" lon="5.86802">
        <ele>119.809677</ele>
        <time>2022-08-13T05:16:46Z</time>
      </trkpt>
      <trkpt lat="43.13762" lon="5.86832">
        <ele>119.454666</ele>
        <time>2022-08-13T05:16:48Z</time>
      </trkpt>
      <trkpt lat="43.13756" lon="5.86861">
        <ele>119.220947</ele>
        <time>2022-08-13T05:16:50Z</time>
      </trkpt>
      <trkpt lat="43.13752" lon="5.8689">
        <ele>118.657913</ele>
        <time>2022-08-13T05:16:52Z</time>
      </trkpt>
      <trkpt lat="43.13752" lon="5.86919">
        <ele>117.96936</ele>
        <time>2022-08-13T05:16:54Z</time>
      </trkpt>
      <trkpt lat="43.13755" lon="5.86947">
        <ele>117.575111</ele>
        <time>2022-08-13T05:16:56Z</time>
      </trkpt>
      <trkpt lat="43.1376" lon="5.86975">
        <ele>116.675621</ele>
        <time>2022-08-13T05:16:58Z</time>
      </trkpt>
      <trkpt lat="43.13765" lon="5.87001">
        <ele>116.164917</ele>
        <time>2022-08-13T05:17:00Z</time>
      </trkpt>
      <trkpt lat="43.1377" lon="5.87026">
        <ele>115.007584</ele>
        <time>2022-08-13T05:17:02Z</time>
      </trkpt>
      <trkpt lat="43.13775" lon="5.8705">
        <ele>114.357704</ele>
        <time>2022-08-13T05:17:04Z</time>
      </trkpt>
      <trkpt lat="43.1378" lon="5.87074">
        <ele>112.922348</ele>
        <time>2022-08-13T05:17:06Z</time>
      </trkpt>
      <trkpt lat="43.13784" lon="5.87098">
        <ele>111.334084</ele>
        <time>2022-08-13T05:17:08Z</time>
      </trkpt>
      <trkpt lat="43.13785" lon="5.87123">
        <ele>110.494545</ele>
        <time>2022-08-13T05:17:10Z</time>
      </trkpt>
      <trkpt lat="43.13779" lon="5.87146">
        <ele>108.751442</ele>
        <time>2022-08-13T05:17:12Z</time>
      </trkpt>
      <trkpt lat="43.13774" lon="5.87168">
        <ele>107.856239</ele>
        <time>2022-08-13T05:17:14Z</time>
      </trkpt>
      <trkpt lat="43.13777" lon="5.87187">
        <ele>106.035439</ele>
        <time>2022-08-13T05:17:16Z</time>
      </trkpt>
      <trkpt lat="43.13776" lon="5.87204">
        <ele>105.11644</ele>
        <time>2022-08-13T05:17:18Z</time>
      </trkpt>
      <trkpt lat="43.13772" lon="5.8722">
        <ele>103.28141</ele>
        <time>2022-08-13T05:17:20Z</time>
      </trkpt>
      <trkpt lat="43.13767" lon="5.87235">
        <ele>101.475433</ele>
        <time>2022-08-13T05:17:22Z</time>
      </trkpt>
      <trkpt lat="43.13763" lon="5.8725">
        <ele>100.589508</ele>
        <time>2022-08-13T05:17:24Z</time>
      </trkpt>
      <trkpt lat="43.13758" lon="5.87264">
        <ele>98.86058</ele>
        <time>2022-08-13T05:17:26Z</time>
      </trkpt>
      <trkpt lat="43.13754" lon="5.87278">
        <ele>98.021378</ele>
        <time>2022-08-13T05:17:28Z</time>
      </trkpt>
      <trkpt lat="43.13749" lon="5.87292">
        <ele>96.408951</ele>
        <time>2022-08-13T05:17:30Z</time>
      </trkpt>
      <trkpt lat="43.13746" lon="5.87306">
        <ele>94.903122</ele>
        <time>2022-08-13T05:17:32Z</time>
      </trkpt>
      <trkpt lat="43.13741" lon="5.87319">
        <ele>94.190842</ele>
        <time>2022-08-13T05:17:34Z</time>
      </trkpt>
      <trkpt lat="43.13738" lon="5.87333">
        <ele>92.830185</ele>
        <time>2022-08-13T05:17:36Z</time>
      </trkpt>
      <trkpt lat="43.13734" lon="5.87347">
        <ele>92.173073</ele>
        <time>2022-08-13T05:17:38Z</time>
      </trkpt>
      <trkpt lat="43.13733" lon="5.87362">
        <ele>90.876137</ele>
        <time>2022-08-13T05:17:40Z</time>
      </trkpt>
      <trkpt lat="43.13731" lon="5.87377">
        <ele>89.580315</ele>
        <time>2022-08-13T05:17:42Z</time>
      </trkpt>
      <trkpt lat="43.1373" lon="5.87391">
        <ele>88.931671</ele>
        <time>2022-08-13T05:17:44Z</time>
      </trkpt>
      <trkpt lat="43.1373" lon="5.87406">
        <ele>87.644333</ele>
        <time>2022-08-13T05:17:46Z</time>
      </trkpt>
      <trkpt lat="43.13731" lon="5.87421">
        <ele>87.013763</ele>
        <time>2022-08-13T05:17:48Z</time>
      </trkpt>
      <trkpt lat="43.13732" lon="5.87436">
        <ele>85.803467</ele>
        <time>2022-08-13T05:17:50Z</time>
      </trkpt>
      <trkpt lat="43.13733" lon="5.87451">
        <ele>85.233192</ele>
        <time>2022-08-13T05:17:52Z</time>
      </trkpt>
      <trkpt lat="43.13734" lon="5.87466">
        <ele>84.181381</ele>
        <time>2022-08-13T05:17:54Z</time>
      </trkpt>
      <trkpt lat="43.13736" lon="5.8748">
        <ele>83.703819</ele>
        <time>2022-08-13T05:17:56Z</time>
      </trkpt>
      <trkpt lat="43.13738" lon="5.87494">
        <ele>82.849373</ele>
        <time>2022-08-13T05:17:58Z</time>
      </trkpt>
      <trkpt lat="43.1374" lon="5.87508">
        <ele>82.127182</ele>
        <time>2022-08-13T05:18:00Z</time>
      </trkpt>
      <trkpt lat="43.13742" lon="5.87522">
        <ele>81.815308</ele>
        <time>2022-08-13T05:18:02Z</time>
      </trkpt>
      <trkpt lat="43.13744" lon="5.87537">
        <ele>81.289444</ele>
        <time>2022-08-13T05:18:04Z</time>
      </trkpt>
      <trkpt lat="43.13746" lon="5.87551">
        <ele>81.076096</ele>
        <time>2022-08-13T05:18:06Z</time>
      </trkpt>
      <trkpt lat="43.13749" lon="5.87565">
        <ele>80.751419</ele>
        <time>2022-08-13T05:18:08Z</time>
      </trkpt>
      <trkpt lat="43.13751" lon="5.87579">
        <ele>80.640701</ele>
        <time>2022-08-13T05:18:10Z</time>
      </trkpt>
      <trkpt lat="43.13754" lon="5.87593">
        <ele>80.521881</ele>
        <time>2022-08-13T05:18:12Z</time>
      </trkpt>
      <trkpt lat="43.13755" lon="5.87608">
        <ele>80.536842</ele>
        <time>2022-08-13T05:18:14Z</time>
      </trkpt>
      <trkpt lat="43.13757" lon="5.87622">
        <ele>80.593147</ele>
        <time>2022-08-13T05:18:16Z</time>
      </trkpt>
      <trkpt lat="43.13759" lon="5.87637">
        <ele>80.798431</ele>
        <time>2022-08-13T05:18:18Z</time>
      </trkpt>
      <trkpt lat="43.13762" lon="5.8765">
        <ele>80.945389</ele>
        <time>2022-08-13T05:18:20Z</time>
      </trkpt>
      <trkpt lat="43.13764" lon="5.87663">
        <ele>81.325974</ele>
        <time>2022-08-13T05:18:22Z</time>
      </trkpt>
      <trkpt lat="43.13766" lon="5.87676">
        <ele>81.820686</ele>
        <time>2022-08-13T05:18:24Z</time>
      </trkpt>
      <trkpt lat="43.13768" lon="5.87689">
        <ele>82.110237</ele>
        <time>2022-08-13T05:18:26Z</time>
      </trkpt>
      <trkpt lat="43.1377" lon="5.87702">
        <ele>82.770523</ele>
        <time>2022-08-13T05:18:28Z</time>
      </trkpt>
      <trkpt lat="43.13771" lon="5.87714">
        <ele>83.141106</ele>
        <time>2022-08-13T05:18:30Z</time>
      </trkpt>
      <trkpt lat="43.13773" lon="5.87726">
        <ele>83.963066</ele>
        <time>2022-08-13T05:18:32Z</time>
      </trkpt>
      <trkpt lat="43.13774" lon="5.87737">
        <ele>84.411346</ele>
        <time>2022-08-13T05:18:34Z</time>
      </trkpt>
      <trkpt lat="43.13776" lon="5.87749">
        <ele>85.373062</ele>
        <time>2022-08-13T05:18:36Z</time>
      </trkpt>
      <trkpt lat="43.13779" lon="5.8776">
        <ele>86.409317</ele>
        <time>2022-08-13T05:18:38Z</time>
      </trkpt>
      <trkpt lat="43.13783" lon="5.87771">
        <ele>86.952179</ele>
        <time>2022-08-13T05:18:40Z</time>
      </trkpt>
      <trkpt lat="43.13785" lon="5.87784">
        <ele>88.081734</ele>
        <time>2022-08-13T05:18:42Z</time>
      </trkpt>
      <trkpt lat="43.1379" lon="5.87798">
        <ele>89.254143</ele>
        <time>2022-08-13T05:18:44Z</time>
      </trkpt>
      <trkpt lat="43.13794" lon="5.87814">
        <ele>89.848007</ele>
        <time>2022-08-13T05:18:46Z</time>
      </trkpt>
      <trkpt lat="43.138" lon="5.87832">
        <ele>91.035965</ele>
        <time>2022-08-13T05:18:48Z</time>
      </trkpt>
      <trkpt lat="43.13807" lon="5.87852">
        <ele>91.625542</ele>
        <time>2022-08-13T05:18:50Z</time>
      </trkpt>
      <trkpt lat="43.13813" lon="5.87873">
        <ele>92.785385</ele>
        <time>2022-08-13T05:18:52Z</time>
      </trkpt>
      <trkpt lat="43.1382" lon="5.87895">
        <ele>93.899651</ele>
        <time>2022-08-13T05:18:54Z</time>
      </trkpt>
      <trkpt lat="43.13827" lon="5.87917">
        <ele>94.43029</ele>
        <time>2022-08-13T05:18:56Z</time>
      </trkpt>
      <trkpt lat="43.13834" lon="5.87938">
        <ele>95.419991</ele>
        <time>2022-08-13T05:18:58Z</time>
      </trkpt>
      <trkpt lat="43.1384" lon="5.87958">
        <ele>95.873032</ele>
        <time>2022-08-13T05:19:00Z</time>
      </trkpt>
      <trkpt lat="43.13846" lon="5.87978">
        <ele>96.6828</ele>
        <time>2022-08-13T05:19:02Z</time>
      </trkpt>
      <trkpt lat="43.13854" lon="5.87997">
        <ele>97.351051</ele>
        <time>2022-08-13T05:19:04Z</time>
      </trkpt>
      <trkpt lat="43.13862" lon="5.88017">
        <ele>97.628685</ele>
        <time>2022-08-13T05:19:06Z</time>
      </trkpt>
      <trkpt lat="43.13872" lon="5.88036">
        <ele>98.066971</ele>
        <time>2022-08-13T05:19:08Z</time>
      </trkpt>
      <trkpt lat="43.13883" lon="5.88054">
        <ele>98.226662</ele>
        <time>2022-08-13T05:19:10Z</time>
      </trkpt>
      <trkpt lat="43.13894" lon="5.88074">
        <ele>98.423325</ele>
        <time>2022-08-13T05:19:12Z</time>
      </trkpt>
      <trkpt lat="43.13905" lon="5.88094">
        <ele>98.469872</ele>
        <time>2022-08-13T05:19:14Z</time>
      </trkpt>
      <trkpt lat="43.13916" lon="5.88114">
        <ele>98.43251</ele>
        <time>2022-08-13T05:19:16Z</time>
      </trkpt>
      <trkpt lat="43.13927" lon="5.88133">
        <ele>98.238953</ele>
        <time>2022-08-13T05:19:18Z</time>
      </trkpt>
      <trkpt lat="43.13938" lon="5.88152">
        <ele>98.082809</ele>
        <time>2022-08-13T05:19:20Z</time>
      </trkpt>
      <trkpt lat="43.13948" lon="5.88171">
        <ele>97.654129</ele>
        <time>2022-08-13T05:19:22Z</time>
      </trkpt>
      <trkpt lat="43.13955" lon="5.88192">
        <ele>97.384865</ele>
        <time>2022-08-13T05:19:24Z</time>
      </trkpt>
      <trkpt lat="43.1396" lon="5.88213">
        <ele>96.74585</ele>
        <time>2022-08-13T05:19:26Z</time>
      </trkpt>
      <trkpt lat="43.13964" lon="5.88234">
        <ele>96.379333</ele>
        <time>2022-08-13T05:19:28Z</time>
      </trkpt>
      <trkpt lat="43.13967" lon="5.88254">
        <ele>95.555641</ele>
        <time>2022-08-13T05:19:30Z</time>
      </trkpt>
      <trkpt lat="43.13968" lon="5.88273">
        <ele>94.613327</ele>
        <time>2022-08-13T05:19:32Z</time>
      </trkpt>
      <trkpt lat="43.13966" lon="5.88293">
        <ele>94.101059</ele>
        <time>2022-08-13T05:19:34Z</time>
      </trkpt>
      <trkpt lat="43.13965" lon="5.88313">
        <ele>93.009033</ele>
        <time>2022-08-13T05:19:36Z</time>
      </trkpt>
      <trkpt lat="43.13963" lon="5.88334">
        <ele>92.435951</ele>
        <time>2022-08-13T05:19:38Z</time>
      </trkpt>
      <trkpt lat="43.1396" lon="5.88356">
        <ele>91.24823</ele>
        <time>2022-08-13T05:19:40Z</time>
      </trkpt>
      <trkpt lat="43.13956" lon="5.88379">
        <ele>90.017029</ele>
        <time>2022-08-13T05:19:42Z</time>
      </trkpt>
      <trkpt lat="43.1395" lon="5.88402">
        <ele>89.389305</ele>
        <time>2022-08-13T05:19:44Z</time>
      </trkpt>
      <trkpt lat="43.13944" lon="5.88427">
        <ele>88.119064</ele>
        <time>2022-08-13T05:19:46Z</time>
      </trkpt>
      <trkpt lat="43.13939" lon="5.88451">
        <ele>87.480873</ele>
        <time>2022-08-13T05:19:48Z</time>
      </trkpt>
      <trkpt lat="43.13936" lon="5.88477">
        <ele>86.209145</ele>
        <time>2022-08-13T05:19:50Z</time>
      </trkpt>
      <trkpt lat="43.13934" lon="5.88504">
        <ele>85.579361</ele>
        <time>2022-08-13T05:19:52Z</time>
      </trkpt>
      <trkpt lat="43.13933" lon="5.88531">
        <ele>84.341324</ele>
        <time>2022-08-13T05:19:54Z</time>
      </trkpt>
      <trkpt lat="43.13933" lon="5.88559">
        <ele>83.736366</ele>
        <time>2022-08-13T05:19:56Z</time>
      </trkpt>
      <trkpt lat="43.13934" lon="5.88587">
        <ele>82.561874</ele>
        <time>2022-08-13T05:19:58Z</time>
      </trkpt>
      <trkpt lat="43.13934" lon="5.88616">
        <ele>81.44059</ele>
        <time>2022-08-13T05:20:00Z</time>
      </trkpt>
      <trkpt lat="43.13937" lon="5.88642">
        <ele>80.901283</ele>
        <time>2022-08-13T05:20:02Z</time>
      </trkpt>
      <trkpt lat="43.13942" lon="5.88667">
        <ele>79.857933</ele>
        <time>2022-08-13T05:20:04Z</time>
      </trkpt>
      <trkpt lat="43.13947" lon="5.88693">
        <ele>79.352013</ele>
        <time>2022-08-13T05:20:06Z</time>
      </trkpt>
      <trkpt lat="43.1395" lon="5.88719">
        <ele>78.373901</ele>
        <time>2022-08-13T05:20:08Z</time>
      </trkpt>
      <trkpt lat="43.13957" lon="5.8874">
        <ele>77.436584</ele>
        <time>2022-08-13T05:20:10Z</time>
      </trkpt>
      <trkpt lat="43.13963" lon="5.88762">
        <ele>76.982033</ele>
        <time>2022-08-13T05:20:12Z</time>
      </trkpt>
      <trkpt lat="43.13971" lon="5.88783">
        <ele>76.099167</ele>
        <time>2022-08-13T05:20:14Z</time>
      </trkpt>
      <trkpt lat="43.13977" lon="5.88806">
        <ele>75.669029</ele>
        <time>2022-08-13T05:20:16Z</time>
      </trkpt>
      <trkpt lat="43.13979" lon="5.88827">
        <ele>74.825943</ele>
        <time>2022-08-13T05:20:18Z</time>
      </trkpt>
      <trkpt lat="43.13982" lon="5.88845">
        <ele>74.410561</ele>
        <time>2022-08-13T05:20:20Z</time>
      </trkpt>
      <trkpt lat="43.13984" lon="5.88863">
        <ele>73.587303</ele>
        <time>2022-08-13T05:20:22Z</time>
      </trkpt>
      <trkpt lat="43.13988" lon="5.88867">
        <ele>73.177628</ele>
        <time>2022-08-13T05:20:24Z</time>
      </trkpt>
      <trkpt lat="43.13998" lon="5.88866">
        <ele>72.358078</ele>
        <time>2022-08-13T05:20:26Z</time>
      </trkpt>
      <trkpt lat="43.14007" lon="5.88877">
        <ele>71.541031</ele>
        <time>2022-08-13T05:20:28Z</time>
      </trkpt>
      <trkpt lat="43.14019" lon="5.88889">
        <ele>71.137924</ele>
        <time>2022-08-13T05:20:30Z</time>
      </trkpt>
      <trkpt lat="43.14028" lon="5.88902">
        <ele>70.354408</ele>
        <time>2022-08-13T05:20:32Z</time>
      </trkpt>
      <trkpt lat="43.14034" lon="5.88917">
        <ele>69.97612</ele>
        <time>2022-08-13T05:20:34Z</time>
      </trkpt>
      <trkpt lat="43.1404" lon="5.88932">
        <ele>69.247482</ele>
        <time>2022-08-13T05:20:36Z</time>
      </trkpt>
      <trkpt lat="43.14045" lon="5.8895">
        <ele>68.554482</ele>
        <time>2022-08-13T05:20:38Z</time>
      </trkpt>
      <trkpt lat="43.14051" lon="5.88964">
        <ele>68.220078</ele>
        <time>2022-08-13T05:20:40Z</time>
      </trkpt>
      <trkpt lat="43.14058" lon="5.88981">
        <ele>67.574852</ele>
        <time>2022-08-13T05:20:42Z</time>
      </trkpt>
      <trkpt lat="43.14063" lon="5.88997">
        <ele>67.26445</ele>
        <time>2022-08-13T05:20:44Z</time>
      </trkpt>
      <trkpt lat="43.14065" lon="5.89013">
        <ele>66.670128</ele>
        <time>2022-08-13T05:20:46Z</time>
      </trkpt>
      <trkpt lat="43.14068" lon="5.8903">
        <ele>66.38591</ele>
        <time>2022-08-13T05:20:48Z</time>
      </trkpt>
      <trkpt lat="43.14074" lon="5.89047">
        <ele>65.841835</ele>
        <time>2022-08-13T05:20:50Z</time>
      </trkpt>
      <trkpt lat="43.14082" lon="5.89064">
        <ele>65.329025</ele>
        <time>2022-08-13T05:20:52Z</time>
      </trkpt>
      <trkpt lat="43.14089" lon="5.89079">
        <ele>65.085411</ele>
        <time>2022-08-13T05:20:54Z</time>
      </trkpt>
      <trkpt lat="43.14097" lon="5.89093">
        <ele>64.62886</ele>
        <time>2022-08-13T05:20:56Z</time>
      </trkpt>
      <trkpt lat="43.14104" lon="5.89108">
        <ele>64.417679</ele>
        <time>2022-08-13T05:20:58Z</time>
      </trkpt>
      <trkpt lat="43.14111" lon="5.89122">
        <ele>64.032433</ele>
        <time>2022-08-13T05:21:00Z</time>
      </trkpt>
      <trkpt lat="43.1412" lon="5.89135">
        <ele>63.858753</ele>
        <time>2022-08-13T05:21:02Z</time>
      </trkpt>
      <trkpt lat="43.14128" lon="5.89148">
        <ele>63.551605</ele>
        <time>2022-08-13T05:21:04Z</time>
      </trkpt>
      <trkpt lat="43.14135" lon="5.89162">
        <ele>63.299633</ele>
        <time>2022-08-13T05:21:06Z</time>
      </trkpt>
      <trkpt lat="43.14143" lon="5.89175">
        <ele>63.194435</ele>
        <time>2022-08-13T05:21:08Z</time>
      </trkpt>
      <trkpt lat="43.14152" lon="5.89188">
        <ele>63.025978</ele>
        <time>2022-08-13T05:21:10Z</time>
      </trkpt>
      <trkpt lat="43.14159" lon="5.89202">
        <ele>62.963036</ele>
        <time>2022-08-13T05:21:12Z</time>
      </trkpt>
      <trkpt lat="43.14164" lon="5.89217">
        <ele>62.882252</ele>
        <time>2022-08-13T05:21:14Z</time>
      </trkpt>
      <trkpt lat="43.1417" lon="5.89232">
        <ele>62.864647</ele>
        <time>2022-08-13T05:21:16Z</time>
      </trkpt>
      <trkpt lat="43.14177" lon="5.89248">
        <ele>62.872108</ele>
        <time>2022-08-13T05:21:18Z</time>
      </trkpt>
      <trkpt lat="43.14184" lon="5.89264">
        <ele>62.918091</ele>
        <time>2022-08-13T05:21:20Z</time>
      </trkpt>
      <trkpt lat="43.14191" lon="5.8928">
        <ele>62.946968</ele>
        <time>2022-08-13T05:21:22Z</time>
      </trkpt>
      <trkpt lat="43.14197" lon="5.89296">
        <ele>63.003517</ele>
        <time>2022-08-13T05:21:24Z</time>
      </trkpt>
      <trkpt lat="43.14204" lon="5.89313">
        <ele>63.028786</ele>
        <time>2022-08-13T05:21:26Z</time>
      </trkpt>
      <trkpt lat="43.14211" lon="5.89329">
        <ele>63.071938</ele>
        <time>2022-08-13T05:21:28Z</time>
      </trkpt>
      <trkpt lat="43.14217" lon="5.89346">
        <ele>63.10955</ele>
        <time>2022-08-13T05:21:30Z</time>
      </trkpt>
      <trkpt lat="43.14224" lon="5.89363">
        <ele>63.127983</ele>
        <time>2022-08-13T05:21:32Z</time>
      </trkpt>
      <trkpt lat="43.1423" lon="5.8938">
        <ele>63.162224</ele>
        <time>2022-08-13T05:21:34Z</time>
      </trkpt>
      <trkpt lat="43.14237" lon="5.89397">
        <ele>63.175262</ele>
        <time>2022-08-13T05:21:36Z</time>
      </trkpt>
      <trkpt lat="43.14248" lon="5.89411">
        <ele>63.184723</ele>
        <time>2022-08-13T05:21:38Z</time>
      </trkpt>
      <trkpt lat="43.14259" lon="5.89423">
        <ele>63.163372</ele>
        <time>2022-08-13T05:21:40Z</time>
      </trkpt>
      <trkpt lat="43.14271" lon="5.89433">
        <ele>63.139362</ele>
        <time>2022-08-13T05:21:42Z</time>
      </trkpt>
      <trkpt lat="43.14282" lon="5.89444">
        <ele>63.063408</ele>
        <time>2022-08-13T05:21:44Z</time>
      </trkpt>
      <trkpt lat="43.14294" lon="5.89454">
        <ele>63.011932</ele>
        <time>2022-08-13T05:21:46Z</time>
      </trkpt>
      <trkpt lat="43.14305" lon="5.89465">
        <ele>62.884697</ele>
        <time>2022-08-13T05:21:48Z</time>
      </trkpt>
      <trkpt lat="43.14317" lon="5.89475">
        <ele>62.810188</ele>
        <time>2022-08-13T05:21:50Z</time>
      </trkpt>
      <trkpt lat="43.14329" lon="5.89486">
        <ele>62.641655</ele>
        <time>2022-08-13T05:21:52Z</time>
      </trkpt>
      <trkpt lat="43.14342" lon="5.89496">
        <ele>62.44862</ele>
        <time>2022-08-13T05:21:54Z</time>
      </trkpt>
      <trkpt lat="43.14354" lon="5.89506">
        <ele>62.343273</ele>
        <time>2022-08-13T05:21:56Z</time>
      </trkpt>
      <trkpt lat="43.14366" lon="5.89517">
        <ele>62.116638</ele>
        <time>2022-08-13T05:21:58Z</time>
      </trkpt>
      <trkpt lat="43.14378" lon="5.89527">
        <ele>61.996468</ele>
        <time>2022-08-13T05:22:00Z</time>
      </trkpt>
      <trkpt lat="43.1439" lon="5.89538">
        <ele>61.745129</ele>
        <time>2022-08-13T05:22:02Z</time>
      </trkpt>
      <trkpt lat="43.14402" lon="5.8955">
        <ele>61.614544</ele>
        <time>2022-08-13T05:22:04Z</time>
      </trkpt>
      <trkpt lat="43.14416" lon="5.89561">
        <ele>61.344597</ele>
        <time>2022-08-13T05:22:06Z</time>
      </trkpt>
      <trkpt lat="43.14431" lon="5.89572">
        <ele>61.065559</ele>
        <time>2022-08-13T05:22:08Z</time>
      </trkpt>
      <trkpt lat="43.14447" lon="5.89584">
        <ele>60.925129</ele>
        <time>2022-08-13T05:22:10Z</time>
      </trkpt>
      <trkpt lat="43.1446" lon="5.89599">
        <ele>60.650703</ele>
        <time>2022-08-13T05:22:12Z</time>
      </trkpt>
      <trkpt lat="43.14473" lon="5.89615">
        <ele>60.519875</ele>
        <time>2022-08-13T05:22:14Z</time>
      </trkpt>
      <trkpt lat="43.14486" lon="5.89628">
        <ele>60.276691</ele>
        <time>2022-08-13T05:22:16Z</time>
      </trkpt>
      <trkpt lat="43.14502" lon="5.89638">
        <ele>60.165649</ele>
        <time>2022-08-13T05:22:18Z</time>
      </trkpt>
      <trkpt lat="43.14513" lon="5.89653">
        <ele>59.966686</ele>
        <time>2022-08-13T05:22:20Z</time>
      </trkpt>
      <trkpt lat="43.14525" lon="5.89668">
        <ele>59.799175</ele>
        <time>2022-08-13T05:22:22Z</time>
      </trkpt>
      <trkpt lat="43.14539" lon="5.89681">
        <ele>59.727226</ele>
        <time>2022-08-13T05:22:24Z</time>
      </trkpt>
      <trkpt lat="43.14558" lon="5.89691">
        <ele>59.609722</ele>
        <time>2022-08-13T05:22:26Z</time>
      </trkpt>
      <trkpt lat="43.14565" lon="5.89706">
        <ele>59.567108</ele>
        <time>2022-08-13T05:22:28Z</time>
      </trkpt>
      <trkpt lat="43.14571" lon="5.89751">
        <ele>59.520241</ele>
        <time>2022-08-13T05:22:35Z</time>
      </trkpt>
      <trkpt lat="43.14572" lon="5.89765">
        <ele>59.520245</ele>
        <time>2022-08-13T05:22:37Z</time>
      </trkpt>
      <trkpt lat="43.14572" lon="5.8978">
        <ele>59.533806</ele>
        <time>2022-08-13T05:22:39Z</time>
      </trkpt>
      <trkpt lat="43.14576" lon="5.89792">
        <ele>59.575726</ele>
        <time>2022-08-13T05:22:41Z</time>
      </trkpt>
      <trkpt lat="43.14582" lon="5.89804">
        <ele>59.599834</ele>
        <time>2022-08-13T05:22:43Z</time>
      </trkpt>
      <trkpt lat="43.14589" lon="5.89816">
        <ele>59.648964</ele>
        <time>2022-08-13T05:22:45Z</time>
      </trkpt>
      <trkpt lat="43.14594" lon="5.89828">
        <ele>59.698669</ele>
        <time>2022-08-13T05:22:47Z</time>
      </trkpt>
      <trkpt lat="43.14599" lon="5.89841">
        <ele>59.724922</ele>
        <time>2022-08-13T05:22:49Z</time>
      </trkpt>
      <trkpt lat="43.14603" lon="5.89854">
        <ele>59.781658</ele>
        <time>2022-08-13T05:22:51Z</time>
      </trkpt>
      <trkpt lat="43.14605" lon="5.89868">
        <ele>59.812092</ele>
        <time>2022-08-13T05:22:53Z</time>
      </trkpt>
      <trkpt lat="43.14607" lon="5.89883">
        <ele>59.875938</ele>
        <time>2022-08-13T05:22:55Z</time>
      </trkpt>
      <trkpt lat="43.14608" lon="5.89898">
        <ele>59.940716</ele>
        <time>2022-08-13T05:22:57Z</time>
      </trkpt>
      <trkpt lat="43.1461" lon="5.89913">
        <ele>59.971901</ele>
        <time>2022-08-13T05:22:59Z</time>
      </trkpt>
      <trkpt lat="43.14613" lon="5.89928">
        <ele>60.028938</ele>
        <time>2022-08-13T05:23:01Z</time>
      </trkpt>
      <trkpt lat="43.14615" lon="5.89941">
        <ele>60.054512</ele>
        <time>2022-08-13T05:23:03Z</time>
      </trkpt>
      <trkpt lat="43.14619" lon="5.89955">
        <ele>60.099262</ele>
        <time>2022-08-13T05:23:05Z</time>
      </trkpt>
      <trkpt lat="43.14624" lon="5.89968">
        <ele>60.117912</ele>
        <time>2022-08-13T05:23:07Z</time>
      </trkpt>
      <trkpt lat="43.14629" lon="5.8998">
        <ele>60.146564</ele>
        <time>2022-08-13T05:23:09Z</time>
      </trkpt>
      <trkpt lat="43.14634" lon="5.89993">
        <ele>60.164875</ele>
        <time>2022-08-13T05:23:11Z</time>
      </trkpt>
      <trkpt lat="43.14639" lon="5.90006">
        <ele>60.171349</ele>
        <time>2022-08-13T05:23:13Z</time>
      </trkpt>
      <trkpt lat="43.14645" lon="5.90019">
        <ele>60.180206</ele>
        <time>2022-08-13T05:23:15Z</time>
      </trkpt>
      <trkpt lat="43.14649" lon="5.90033">
        <ele>60.18269</ele>
        <time>2022-08-13T05:23:17Z</time>
      </trkpt>
      <trkpt lat="43.14652" lon="5.90046">
        <ele>60.184376</ele>
        <time>2022-08-13T05:23:19Z</time>
      </trkpt>
      <trkpt lat="43.14653" lon="5.9006">
        <ele>60.183342</ele>
        <time>2022-08-13T05:23:21Z</time>
      </trkpt>
      <trkpt lat="43.14658" lon="5.90073">
        <ele>60.173664</ele>
        <time>2022-08-13T05:23:23Z</time>
      </trkpt>
      <trkpt lat="43.14665" lon="5.90085">
        <ele>60.149635</ele>
        <time>2022-08-13T05:23:25Z</time>
      </trkpt>
      <trkpt lat="43.14672" lon="5.90097">
        <ele>60.135201</ele>
        <time>2022-08-13T05:23:27Z</time>
      </trkpt>
      <trkpt lat="43.14679" lon="5.90109">
        <ele>60.113232</ele>
        <time>2022-08-13T05:23:29Z</time>
      </trkpt>
      <trkpt lat="43.14686" lon="5.9012">
        <ele>60.110912</ele>
        <time>2022-08-13T05:23:31Z</time>
      </trkpt>
      <trkpt lat="43.14693" lon="5.90131">
        <ele>60.133812</ele>
        <time>2022-08-13T05:23:33Z</time>
      </trkpt>
      <trkpt lat="43.14699" lon="5.90141">
        <ele>60.160423</ele>
        <time>2022-08-13T05:23:35Z</time>
      </trkpt>
      <trkpt lat="43.14706" lon="5.90151">
        <ele>60.243763</ele>
        <time>2022-08-13T05:23:37Z</time>
      </trkpt>
      <trkpt lat="43.14713" lon="5.90162">
        <ele>60.362316</ele>
        <time>2022-08-13T05:23:39Z</time>
      </trkpt>
      <trkpt lat="43.1472" lon="5.90174">
        <ele>60.433056</ele>
        <time>2022-08-13T05:23:41Z</time>
      </trkpt>
      <trkpt lat="43.14727" lon="5.90186">
        <ele>60.59602</ele>
        <time>2022-08-13T05:23:43Z</time>
      </trkpt>
      <trkpt lat="43.14734" lon="5.90199">
        <ele>60.688416</ele>
        <time>2022-08-13T05:23:45Z</time>
      </trkpt>
      <trkpt lat="43.14741" lon="5.90211">
        <ele>60.896954</ele>
        <time>2022-08-13T05:23:47Z</time>
      </trkpt>
      <trkpt lat="43.14745" lon="5.90223">
        <ele>61.014275</ele>
        <time>2022-08-13T05:23:49Z</time>
      </trkpt>
      <trkpt lat="43.1475" lon="5.90233">
        <ele>61.277557</ele>
        <time>2022-08-13T05:23:51Z</time>
      </trkpt>
      <trkpt lat="43.14756" lon="5.90236">
        <ele>61.57843</ele>
        <time>2022-08-13T05:23:53Z</time>
      </trkpt>
      <trkpt lat="43.14765" lon="5.90238">
        <ele>61.74165</ele>
        <time>2022-08-13T05:23:55Z</time>
      </trkpt>
      <trkpt lat="43.14773" lon="5.90239">
        <ele>62.090401</ele>
        <time>2022-08-13T05:23:57Z</time>
      </trkpt>
      <trkpt lat="43.14782" lon="5.90241">
        <ele>62.274849</ele>
        <time>2022-08-13T05:23:59Z</time>
      </trkpt>
      <trkpt lat="43.14791" lon="5.90242">
        <ele>62.66095</ele>
        <time>2022-08-13T05:24:01Z</time>
      </trkpt>
      <trkpt lat="43.148" lon="5.90243">
        <ele>62.861183</ele>
        <time>2022-08-13T05:24:03Z</time>
      </trkpt>
      <trkpt lat="43.14808" lon="5.90245">
        <ele>63.272545</ele>
        <time>2022-08-13T05:24:05Z</time>
      </trkpt>
      <trkpt lat="43.14816" lon="5.90247">
        <ele>63.694447</ele>
        <time>2022-08-13T05:24:07Z</time>
      </trkpt>
      <trkpt lat="43.14824" lon="5.90248">
        <ele>63.908226</ele>
        <time>2022-08-13T05:24:09Z</time>
      </trkpt>
      <trkpt lat="43.14831" lon="5.90249">
        <ele>64.341431</ele>
        <time>2022-08-13T05:24:11Z</time>
      </trkpt>
      <trkpt lat="43.14838" lon="5.9025">
        <ele>64.561668</ele>
        <time>2022-08-13T05:24:13Z</time>
      </trkpt>
      <trkpt lat="43.14845" lon="5.90252">
        <ele>65.012321</ele>
        <time>2022-08-13T05:24:15Z</time>
      </trkpt>
      <trkpt lat="43.14853" lon="5.90253">
        <ele>65.477158</ele>
        <time>2022-08-13T05:24:17Z</time>
      </trkpt>
      <trkpt lat="43.1486" lon="5.90255">
        <ele>65.714188</ele>
        <time>2022-08-13T05:24:19Z</time>
      </trkpt>
      <trkpt lat="43.14868" lon="5.90256">
        <ele>66.195267</ele>
        <time>2022-08-13T05:24:21Z</time>
      </trkpt>
      <trkpt lat="43.14875" lon="5.90258">
        <ele>66.438751</ele>
        <time>2022-08-13T05:24:23Z</time>
      </trkpt>
      <trkpt lat="43.14883" lon="5.9026">
        <ele>66.930618</ele>
        <time>2022-08-13T05:24:25Z</time>
      </trkpt>
      <trkpt lat="43.1489" lon="5.90261">
        <ele>67.178749</ele>
        <time>2022-08-13T05:24:27Z</time>
      </trkpt>
      <trkpt lat="43.14897" lon="5.90262">
        <ele>67.679558</ele>
        <time>2022-08-13T05:24:29Z</time>
      </trkpt>
      <trkpt lat="43.14905" lon="5.90264">
        <ele>68.187462</ele>
        <time>2022-08-13T05:24:31Z</time>
      </trkpt>
      <trkpt lat="43.14911" lon="5.90265">
        <ele>68.444504</ele>
        <time>2022-08-13T05:24:33Z</time>
      </trkpt>
      <trkpt lat="43.14917" lon="5.90266">
        <ele>68.965202</ele>
        <time>2022-08-13T05:24:35Z</time>
      </trkpt>
      <trkpt lat="43.14922" lon="5.90267">
        <ele>69.228424</ele>
        <time>2022-08-13T05:24:37Z</time>
      </trkpt>
      <trkpt lat="43.14929" lon="5.90269">
        <ele>69.758682</ele>
        <time>2022-08-13T05:24:39Z</time>
      </trkpt>
      <trkpt lat="43.1494" lon="5.90271">
        <ele>70.025093</ele>
        <time>2022-08-13T05:24:41Z</time>
      </trkpt>
      <trkpt lat="43.14948" lon="5.90272">
        <ele>70.563461</ele>
        <time>2022-08-13T05:24:43Z</time>
      </trkpt>
      <trkpt lat="43.14956" lon="5.90273">
        <ele>71.116974</ele>
        <time>2022-08-13T05:24:45Z</time>
      </trkpt>
      <trkpt lat="43.14965" lon="5.90274">
        <ele>71.401886</ele>
        <time>2022-08-13T05:24:47Z</time>
      </trkpt>
      <trkpt lat="43.14972" lon="5.90275">
        <ele>71.988884</ele>
        <time>2022-08-13T05:24:49Z</time>
      </trkpt>
      <trkpt lat="43.14978" lon="5.90276">
        <ele>72.290909</ele>
        <time>2022-08-13T05:24:51Z</time>
      </trkpt>
      <trkpt lat="43.14984" lon="5.90276">
        <ele>72.910645</ele>
        <time>2022-08-13T05:24:53Z</time>
      </trkpt>
      <trkpt lat="43.14993" lon="5.90277">
        <ele>73.227501</ele>
        <time>2022-08-13T05:24:55Z</time>
      </trkpt>
      <trkpt lat="43.15004" lon="5.90279">
        <ele>73.873322</ele>
        <time>2022-08-13T05:24:57Z</time>
      </trkpt>
      <trkpt lat="43.15012" lon="5.90281">
        <ele>74.538315</ele>
        <time>2022-08-13T05:24:59Z</time>
      </trkpt>
      <trkpt lat="43.1502" lon="5.90282">
        <ele>74.879745</ele>
        <time>2022-08-13T05:25:01Z</time>
      </trkpt>
      <trkpt lat="43.15028" lon="5.90284">
        <ele>75.581329</ele>
        <time>2022-08-13T05:25:03Z</time>
      </trkpt>
      <trkpt lat="43.15035" lon="5.90286">
        <ele>75.940437</ele>
        <time>2022-08-13T05:25:05Z</time>
      </trkpt>
      <trkpt lat="43.15043" lon="5.90287">
        <ele>76.672844</ele>
        <time>2022-08-13T05:25:07Z</time>
      </trkpt>
      <trkpt lat="43.1505" lon="5.90289">
        <ele>77.421974</ele>
        <time>2022-08-13T05:25:09Z</time>
      </trkpt>
      <trkpt lat="43.15057" lon="5.90291">
        <ele>77.802254</ele>
        <time>2022-08-13T05:25:11Z</time>
      </trkpt>
      <trkpt lat="43.15065" lon="5.90294">
        <ele>78.57341</ele>
        <time>2022-08-13T05:25:13Z</time>
      </trkpt>
      <trkpt lat="43.15072" lon="5.90296">
        <ele>78.964005</ele>
        <time>2022-08-13T05:25:15Z</time>
      </trkpt>
      <trkpt lat="43.15079" lon="5.90299">
        <ele>79.754723</ele>
        <time>2022-08-13T05:25:17Z</time>
      </trkpt>
      <trkpt lat="43.15086" lon="5.90301">
        <ele>80.556244</ele>
        <time>2022-08-13T05:25:19Z</time>
      </trkpt>
      <trkpt lat="43.15094" lon="5.90303">
        <ele>80.960587</ele>
        <time>2022-08-13T05:25:21Z</time>
      </trkpt>
      <trkpt lat="43.15101" lon="5.90305">
        <ele>81.775749</ele>
        <time>2022-08-13T05:25:23Z</time>
      </trkpt>
      <trkpt lat="43.15108" lon="5.90306">
        <ele>82.186455</ele>
        <time>2022-08-13T05:25:25Z</time>
      </trkpt>
      <trkpt lat="43.15115" lon="5.90308">
        <ele>83.014053</ele>
        <time>2022-08-13T05:25:27Z</time>
      </trkpt>
      <trkpt lat="43.15123" lon="5.90309">
        <ele>83.850937</ele>
        <time>2022-08-13T05:25:29Z</time>
      </trkpt>
      <trkpt lat="43.1513" lon="5.90311">
        <ele>84.273705</ele>
        <time>2022-08-13T05:25:31Z</time>
      </trkpt>
      <trkpt lat="43.15138" lon="5.90312">
        <ele>85.127533</ele>
        <time>2022-08-13T05:25:33Z</time>
      </trkpt>
      <trkpt lat="43.15145" lon="5.90314">
        <ele>85.557671</ele>
        <time>2022-08-13T05:25:35Z</time>
      </trkpt>
      <trkpt lat="43.15152" lon="5.90316">
        <ele>86.42131</ele>
        <time>2022-08-13T05:25:37Z</time>
      </trkpt>
      <trkpt lat="43.1516" lon="5.90318">
        <ele>86.853745</ele>
        <time>2022-08-13T05:25:39Z</time>
      </trkpt>
      <trkpt lat="43.15167" lon="5.9032">
        <ele>87.718811</ele>
        <time>2022-08-13T05:25:41Z</time>
      </trkpt>
      <trkpt lat="43.15175" lon="5.90323">
        <ele>88.584244</ele>
        <time>2022-08-13T05:25:43Z</time>
      </trkpt>
      <trkpt lat="43.15183" lon="5.90327">
        <ele>89.017799</ele>
        <time>2022-08-13T05:25:45Z</time>
      </trkpt>
      <trkpt lat="43.15191" lon="5.90331">
        <ele>89.887924</ele>
        <time>2022-08-13T05:25:47Z</time>
      </trkpt>
      <trkpt lat="43.15199" lon="5.90336">
        <ele>90.323807</ele>
        <time>2022-08-13T05:25:49Z</time>
      </trkpt>
      <trkpt lat="43.15206" lon="5.90342">
        <ele>91.19323</ele>
        <time>2022-08-13T05:25:51Z</time>
      </trkpt>
      <trkpt lat="43.15214" lon="5.90347">
        <ele>91.625534</ele>
        <time>2022-08-13T05:25:53Z</time>
      </trkpt>
      <trkpt lat="43.15222" lon="5.90352">
        <ele>92.485168</ele>
        <time>2022-08-13T05:25:55Z</time>
      </trkpt>
      <trkpt lat="43.1523" lon="5.90356">
        <ele>93.339066</ele>
        <time>2022-08-13T05:25:57Z</time>
      </trkpt>
      <trkpt lat="43.15238" lon="5.90362">
        <ele>93.763748</ele>
        <time>2022-08-13T05:25:59Z</time>
      </trkpt>
      <trkpt lat="43.15246" lon="5.90368">
        <ele>94.607788</ele>
        <time>2022-08-13T05:26:01Z</time>
      </trkpt>
      <trkpt lat="43.15255" lon="5.90373">
        <ele>95.026779</ele>
        <time>2022-08-13T05:26:03Z</time>
      </trkpt>
      <trkpt lat="43.15262" lon="5.90379">
        <ele>95.857094</ele>
        <time>2022-08-13T05:26:05Z</time>
      </trkpt>
      <trkpt lat="43.1527" lon="5.90385">
        <ele>96.675186</ele>
        <time>2022-08-13T05:26:07Z</time>
      </trkpt>
      <trkpt lat="43.15278" lon="5.90391">
        <ele>97.078812</ele>
        <time>2022-08-13T05:26:09Z</time>
      </trkpt>
      <trkpt lat="43.15286" lon="5.90396">
        <ele>97.873451</ele>
        <time>2022-08-13T05:26:11Z</time>
      </trkpt>
      <trkpt lat="43.15294" lon="5.90399">
        <ele>98.263733</ele>
        <time>2022-08-13T05:26:13Z</time>
      </trkpt>
      <trkpt lat="43.15303" lon="5.90401">
        <ele>99.028831</ele>
        <time>2022-08-13T05:26:15Z</time>
      </trkpt>
      <trkpt lat="43.15311" lon="5.90403">
        <ele>99.404007</ele>
        <time>2022-08-13T05:26:17Z</time>
      </trkpt>
      <trkpt lat="43.15318" lon="5.90405">
        <ele>100.143188</ele>
        <time>2022-08-13T05:26:19Z</time>
      </trkpt>
      <trkpt lat="43.15326" lon="5.90406">
        <ele>100.872597</ele>
        <time>2022-08-13T05:26:21Z</time>
      </trkpt>
      <trkpt lat="43.15333" lon="5.90407">
        <ele>101.234352</ele>
        <time>2022-08-13T05:26:23Z</time>
      </trkpt>
      <trkpt lat="43.1534" lon="5.90409">
        <ele>101.950905</ele>
        <time>2022-08-13T05:26:25Z</time>
      </trkpt>
      <trkpt lat="43.15347" lon="5.90413">
        <ele>102.305054</ele>
        <time>2022-08-13T05:26:27Z</time>
      </trkpt>
      <trkpt lat="43.15353" lon="5.9042">
        <ele>103.002892</ele>
        <time>2022-08-13T05:26:29Z</time>
      </trkpt>
      <trkpt lat="43.15358" lon="5.90429">
        <ele>103.344711</ele>
        <time>2022-08-13T05:26:31Z</time>
      </trkpt>
      <trkpt lat="43.1536" lon="5.9044">
        <ele>104.00679</ele>
        <time>2022-08-13T05:26:33Z</time>
      </trkpt>
      <trkpt lat="43.15363" lon="5.90451">
        <ele>104.627724</ele>
        <time>2022-08-13T05:26:35Z</time>
      </trkpt>
      <trkpt lat="43.15366" lon="5.90462">
        <ele>104.916969</ele>
        <time>2022-08-13T05:26:37Z</time>
      </trkpt>
      <trkpt lat="43.15368" lon="5.90472">
        <ele>105.443932</ele>
        <time>2022-08-13T05:26:39Z</time>
      </trkpt>
      <trkpt lat="43.1537" lon="5.90483">
        <ele>105.680748</ele>
        <time>2022-08-13T05:26:41Z</time>
      </trkpt>
      <trkpt lat="43.15371" lon="5.90494">
        <ele>106.103561</ele>
        <time>2022-08-13T05:26:43Z</time>
      </trkpt>
      <trkpt lat="43.15373" lon="5.90506">
        <ele>106.290726</ele>
        <time>2022-08-13T05:26:45Z</time>
      </trkpt>
      <trkpt lat="43.15374" lon="5.90517">
        <ele>106.617836</ele>
        <time>2022-08-13T05:26:47Z</time>
      </trkpt>
      <trkpt lat="43.15376" lon="5.90528">
        <ele>106.882645</ele>
        <time>2022-08-13T05:26:49Z</time>
      </trkpt>
      <trkpt lat="43.15376" lon="5.90539">
        <ele>106.995155</ele>
        <time>2022-08-13T05:26:51Z</time>
      </trkpt>
      <trkpt lat="43.15375" lon="5.90551">
        <ele>107.200111</ele>
        <time>2022-08-13T05:26:53Z</time>
      </trkpt>
      <trkpt lat="43.15373" lon="5.90563">
        <ele>107.302322</ele>
        <time>2022-08-13T05:26:55Z</time>
      </trkpt>
      <trkpt lat="43.15372" lon="5.90574">
        <ele>107.523277</ele>
        <time>2022-08-13T05:26:57Z</time>
      </trkpt>
      <trkpt lat="43.15371" lon="5.90586">
        <ele>107.645485</ele>
        <time>2022-08-13T05:26:59Z</time>
      </trkpt>
      <trkpt lat="43.15371" lon="5.90596">
        <ele>107.919167</ele>
        <time>2022-08-13T05:27:01Z</time>
      </trkpt>
      <trkpt lat="43.1537" lon="5.90607">
        <ele>108.234879</ele>
        <time>2022-08-13T05:27:03Z</time>
      </trkpt>
      <trkpt lat="43.15369" lon="5.90617">
        <ele>108.408485</ele>
        <time>2022-08-13T05:27:05Z</time>
      </trkpt>
      <trkpt lat="43.15368" lon="5.90628">
        <ele>108.784569</ele>
        <time>2022-08-13T05:27:07Z</time>
      </trkpt>
      <trkpt lat="43.15368" lon="5.90639">
        <ele>108.985489</ele>
        <time>2022-08-13T05:27:09Z</time>
      </trkpt>
      <trkpt lat="43.15367" lon="5.90649">
        <ele>109.408409</ele>
        <time>2022-08-13T05:27:11Z</time>
      </trkpt>
      <trkpt lat="43.15366" lon="5.9066">
        <ele>109.629013</ele>
        <time>2022-08-13T05:27:13Z</time>
      </trkpt>
      <trkpt lat="43.15365" lon="5.90672">
        <ele>110.084496</ele>
        <time>2022-08-13T05:27:15Z</time>
      </trkpt>
      <trkpt lat="43.15364" lon="5.90683">
        <ele>110.545181</ele>
        <time>2022-08-13T05:27:17Z</time>
      </trkpt>
      <trkpt lat="43.15363" lon="5.90695">
        <ele>110.77169</ele>
        <time>2022-08-13T05:27:19Z</time>
      </trkpt>
      <trkpt lat="43.15365" lon="5.90707">
        <ele>111.209412</ele>
        <time>2022-08-13T05:27:21Z</time>
      </trkpt>
      <trkpt lat="43.15369" lon="5.90717">
        <ele>111.419922</ele>
        <time>2022-08-13T05:27:23Z</time>
      </trkpt>
      <trkpt lat="43.15375" lon="5.90723">
        <ele>111.829262</ele>
        <time>2022-08-13T05:27:25Z</time>
      </trkpt>
      <trkpt lat="43.15382" lon="5.90726">
        <ele>112.239708</ele>
        <time>2022-08-13T05:27:27Z</time>
      </trkpt>
      <trkpt lat="43.15389" lon="5.90725">
        <ele>112.452538</ele>
        <time>2022-08-13T05:27:29Z</time>
      </trkpt>
      <trkpt lat="43.15395" lon="5.90721">
        <ele>112.902489</ele>
        <time>2022-08-13T05:27:31Z</time>
      </trkpt>
      <trkpt lat="43.154" lon="5.90713">
        <ele>113.142006</ele>
        <time>2022-08-13T05:27:33Z</time>
      </trkpt>
      <trkpt lat="43.15405" lon="5.90705">
        <ele>113.655884</ele>
        <time>2022-08-13T05:27:35Z</time>
      </trkpt>
      <trkpt lat="43.15411" lon="5.90697">
        <ele>113.932495</ele>
        <time>2022-08-13T05:27:37Z</time>
      </trkpt>
      <trkpt lat="43.15415" lon="5.90689">
        <ele>114.52993</ele>
        <time>2022-08-13T05:27:39Z</time>
      </trkpt>
      <trkpt lat="43.15421" lon="5.90682">
        <ele>115.186867</ele>
        <time>2022-08-13T05:27:41Z</time>
      </trkpt>
      <trkpt lat="43.15427" lon="5.90675">
        <ele>115.532204</ele>
        <time>2022-08-13T05:27:43Z</time>
      </trkpt>
      <trkpt lat="43.15433" lon="5.90669">
        <ele>116.237427</ele>
        <time>2022-08-13T05:27:45Z</time>
      </trkpt>
      <trkpt lat="43.15441" lon="5.90667">
        <ele>116.591309</ele>
        <time>2022-08-13T05:27:47Z</time>
      </trkpt>
      <trkpt lat="43.1545" lon="5.90668">
        <ele>117.300392</ele>
        <time>2022-08-13T05:27:49Z</time>
      </trkpt>
      <trkpt lat="43.15458" lon="5.90671">
        <ele>117.658157</ele>
        <time>2022-08-13T05:27:51Z</time>
      </trkpt>
      <trkpt lat="43.15466" lon="5.90675">
        <ele>118.389206</ele>
        <time>2022-08-13T05:27:53Z</time>
      </trkpt>
      <trkpt lat="43.15474" lon="5.90679">
        <ele>119.147827</ele>
        <time>2022-08-13T05:27:55Z</time>
      </trkpt>
      <trkpt lat="43.1548" lon="5.90683">
        <ele>119.537964</ele>
        <time>2022-08-13T05:27:57Z</time>
      </trkpt>
      <trkpt lat="43.15487" lon="5.90687">
        <ele>120.337036</ele>
        <time>2022-08-13T05:27:59Z</time>
      </trkpt>
      <trkpt lat="43.15495" lon="5.90693">
        <ele>120.743851</ele>
        <time>2022-08-13T05:28:01Z</time>
      </trkpt>
      <trkpt lat="43.15501" lon="5.90698">
        <ele>121.566849</ele>
        <time>2022-08-13T05:28:03Z</time>
      </trkpt>
      <trkpt lat="43.15509" lon="5.90703">
        <ele>122.399704</ele>
        <time>2022-08-13T05:28:05Z</time>
      </trkpt>
      <trkpt lat="43.15516" lon="5.90708">
        <ele>122.822731</ele>
        <time>2022-08-13T05:28:07Z</time>
      </trkpt>
      <trkpt lat="43.15524" lon="5.90714">
        <ele>123.69368</ele>
        <time>2022-08-13T05:28:09Z</time>
      </trkpt>
      <trkpt lat="43.15532" lon="5.9072">
        <ele>124.146118</ele>
        <time>2022-08-13T05:28:11Z</time>
      </trkpt>
      <trkpt lat="43.15538" lon="5.90725">
        <ele>125.094925</ele>
        <time>2022-08-13T05:28:13Z</time>
      </trkpt>
      <trkpt lat="43.15546" lon="5.90731">
        <ele>125.591576</ele>
        <time>2022-08-13T05:28:15Z</time>
      </trkpt>
      <trkpt lat="43.15553" lon="5.90736">
        <ele>126.622459</ele>
        <time>2022-08-13T05:28:17Z</time>
      </trkpt>
      <trkpt lat="43.15561" lon="5.90741">
        <ele>127.151047</ele>
        <time>2022-08-13T05:28:19Z</time>
      </trkpt>
      <trkpt lat="43.15569" lon="5.90745">
        <ele>128.224091</ele>
        <time>2022-08-13T05:28:21Z</time>
      </trkpt>
      <trkpt lat="43.15579" lon="5.9075">
        <ele>129.309113</ele>
        <time>2022-08-13T05:28:23Z</time>
      </trkpt>
      <trkpt lat="43.15587" lon="5.90755">
        <ele>129.851273</ele>
        <time>2022-08-13T05:28:25Z</time>
      </trkpt>
      <trkpt lat="43.15596" lon="5.9076">
        <ele>130.923416</ele>
        <time>2022-08-13T05:28:27Z</time>
      </trkpt>
      <trkpt lat="43.15603" lon="5.90762">
        <ele>131.966553</ele>
        <time>2022-08-13T05:28:29Z</time>
      </trkpt>
      <trkpt lat="43.15611" lon="5.90762">
        <ele>132.474258</ele>
        <time>2022-08-13T05:28:31Z</time>
      </trkpt>
      <trkpt lat="43.1562" lon="5.90761">
        <ele>133.463226</ele>
        <time>2022-08-13T05:28:33Z</time>
      </trkpt>
      <trkpt lat="43.15628" lon="5.90761">
        <ele>133.947922</ele>
        <time>2022-08-13T05:28:35Z</time>
      </trkpt>
      <trkpt lat="43.15636" lon="5.9076">
        <ele>134.908218</ele>
        <time>2022-08-13T05:28:37Z</time>
      </trkpt>
      <trkpt lat="43.15645" lon="5.90757">
        <ele>135.38475</ele>
        <time>2022-08-13T05:28:39Z</time>
      </trkpt>
      <trkpt lat="43.15653" lon="5.90753">
        <ele>136.326447</ele>
        <time>2022-08-13T05:28:41Z</time>
      </trkpt>
      <trkpt lat="43.15661" lon="5.90748">
        <ele>137.243042</ele>
        <time>2022-08-13T05:28:43Z</time>
      </trkpt>
      <trkpt lat="43.15668" lon="5.90741">
        <ele>137.691681</ele>
        <time>2022-08-13T05:28:45Z</time>
      </trkpt>
      <trkpt lat="43.15675" lon="5.90734">
        <ele>138.578339</ele>
        <time>2022-08-13T05:28:47Z</time>
      </trkpt>
      <trkpt lat="43.1568" lon="5.90726">
        <ele>139.469025</ele>
        <time>2022-08-13T05:28:49Z</time>
      </trkpt>
      <trkpt lat="43.15686" lon="5.90718">
        <ele>139.922989</ele>
        <time>2022-08-13T05:28:51Z</time>
      </trkpt>
      <trkpt lat="43.15691" lon="5.90708">
        <ele>140.86203</ele>
        <time>2022-08-13T05:28:53Z</time>
      </trkpt>
      <trkpt lat="43.15696" lon="5.90698">
        <ele>141.350861</ele>
        <time>2022-08-13T05:28:55Z</time>
      </trkpt>
      <trkpt lat="43.157" lon="5.90687">
        <ele>142.370209</ele>
        <time>2022-08-13T05:28:57Z</time>
      </trkpt>
      <trkpt lat="43.15703" lon="5.90677">
        <ele>142.899841</ele>
        <time>2022-08-13T05:28:59Z</time>
      </trkpt>
      <trkpt lat="43.15708" lon="5.90668">
        <ele>143.998962</ele>
        <time>2022-08-13T05:29:01Z</time>
      </trkpt>
      <trkpt lat="43.15714" lon="5.90661">
        <ele>145.150757</ele>
        <time>2022-08-13T05:29:03Z</time>
      </trkpt>
      <trkpt lat="43.15722" lon="5.90656">
        <ele>145.747299</ele>
        <time>2022-08-13T05:29:05Z</time>
      </trkpt>
      <trkpt lat="43.1573" lon="5.90655">
        <ele>146.984467</ele>
        <time>2022-08-13T05:29:07Z</time>
      </trkpt>
      <trkpt lat="43.15739" lon="5.90657">
        <ele>147.626999</ele>
        <time>2022-08-13T05:29:09Z</time>
      </trkpt>
      <trkpt lat="43.15748" lon="5.9066">
        <ele>148.956467</ele>
        <time>2022-08-13T05:29:11Z</time>
      </trkpt>
      <trkpt lat="43.15756" lon="5.90663">
        <ele>150.325577</ele>
        <time>2022-08-13T05:29:13Z</time>
      </trkpt>
      <trkpt lat="43.15765" lon="5.90667">
        <ele>151.016663</ele>
        <time>2022-08-13T05:29:15Z</time>
      </trkpt>
      <trkpt lat="43.15772" lon="5.90671">
        <ele>152.40152</ele>
        <time>2022-08-13T05:29:17Z</time>
      </trkpt>
      <trkpt lat="43.1578" lon="5.90675">
        <ele>153.092377</ele>
        <time>2022-08-13T05:29:19Z</time>
      </trkpt>
      <trkpt lat="43.15789" lon="5.90676">
        <ele>154.462967</ele>
        <time>2022-08-13T05:29:21Z</time>
      </trkpt>
      <trkpt lat="43.15797" lon="5.90675">
        <ele>155.800049</ele>
        <time>2022-08-13T05:29:23Z</time>
      </trkpt>
      <trkpt lat="43.15806" lon="5.90673">
        <ele>156.447876</ele>
        <time>2022-08-13T05:29:25Z</time>
      </trkpt>
      <trkpt lat="43.15814" lon="5.9067">
        <ele>157.693436</ele>
        <time>2022-08-13T05:29:27Z</time>
      </trkpt>
      <trkpt lat="43.15822" lon="5.90664">
        <ele>158.293945</ele>
        <time>2022-08-13T05:29:29Z</time>
      </trkpt>
      <trkpt lat="43.15829" lon="5.90658">
        <ele>159.469513</ele>
        <time>2022-08-13T05:29:31Z</time>
      </trkpt>
      <trkpt lat="43.15836" lon="5.90651">
        <ele>160.6436</ele>
        <time>2022-08-13T05:29:33Z</time>
      </trkpt>
      <trkpt lat="43.15843" lon="5.90643">
        <ele>161.241058</ele>
        <time>2022-08-13T05:29:35Z</time>
      </trkpt>
      <trkpt lat="43.15849" lon="5.90635">
        <ele>162.469849</ele>
        <time>2022-08-13T05:29:37Z</time>
      </trkpt>
      <trkpt lat="43.15855" lon="5.90626">
        <ele>163.102249</ele>
        <time>2022-08-13T05:29:39Z</time>
      </trkpt>
      <trkpt lat="43.15861" lon="5.90617">
        <ele>164.394196</ele>
        <time>2022-08-13T05:29:41Z</time>
      </trkpt>
      <trkpt lat="43.15867" lon="5.90608">
        <ele>165.702972</ele>
        <time>2022-08-13T05:29:43Z</time>
      </trkpt>
      <trkpt lat="43.15872" lon="5.90599">
        <ele>166.359131</ele>
        <time>2022-08-13T05:29:45Z</time>
      </trkpt>
      <trkpt lat="43.15878" lon="5.9059">
        <ele>167.674637</ele>
        <time>2022-08-13T05:29:47Z</time>
      </trkpt>
      <trkpt lat="43.15883" lon="5.9058">
        <ele>168.33493</ele>
        <time>2022-08-13T05:29:49Z</time>
      </trkpt>
      <trkpt lat="43.15888" lon="5.9057">
        <ele>169.659836</ele>
        <time>2022-08-13T05:29:51Z</time>
      </trkpt>
      <trkpt lat="43.15893" lon="5.9056">
        <ele>170.323334</ele>
        <time>2022-08-13T05:29:53Z</time>
      </trkpt>
      <trkpt lat="43.15898" lon="5.9055">
        <ele>171.654343</ele>
        <time>2022-08-13T05:29:55Z</time>
      </trkpt>
      <trkpt lat="43.15903" lon="5.9054">
        <ele>172.99678</ele>
        <time>2022-08-13T05:29:57Z</time>
      </trkpt>
      <trkpt lat="43.15907" lon="5.9053">
        <ele>173.675781</ele>
        <time>2022-08-13T05:29:59Z</time>
      </trkpt>
      <trkpt lat="43.15913" lon="5.90521">
        <ele>175.060455</ele>
        <time>2022-08-13T05:30:01Z</time>
      </trkpt>
      <trkpt lat="43.15918" lon="5.90511">
        <ele>175.771927</ele>
        <time>2022-08-13T05:30:03Z</time>
      </trkpt>
      <trkpt lat="43.15922" lon="5.90502">
        <ele>177.24353</ele>
        <time>2022-08-13T05:30:05Z</time>
      </trkpt>
      <trkpt lat="43.15928" lon="5.90492">
        <ele>178.776016</ele>
        <time>2022-08-13T05:30:07Z</time>
      </trkpt>
      <trkpt lat="43.15933" lon="5.90482">
        <ele>179.561401</ele>
        <time>2022-08-13T05:30:09Z</time>
      </trkpt>
      <trkpt lat="43.15938" lon="5.90471">
        <ele>181.166794</ele>
        <time>2022-08-13T05:30:11Z</time>
      </trkpt>
      <trkpt lat="43.15942" lon="5.9046">
        <ele>181.988739</ele>
        <time>2022-08-13T05:30:13Z</time>
      </trkpt>
      <trkpt lat="43.15946" lon="5.90449">
        <ele>183.679276</ele>
        <time>2022-08-13T05:30:15Z</time>
      </trkpt>
      <trkpt lat="43.1595" lon="5.90439">
        <ele>185.435715</ele>
        <time>2022-08-13T05:30:17Z</time>
      </trkpt>
      <trkpt lat="43.15953" lon="5.90427">
        <ele>186.334915</ele>
        <time>2022-08-13T05:30:19Z</time>
      </trkpt>
      <trkpt lat="43.15957" lon="5.90416">
        <ele>188.156525</ele>
        <time>2022-08-13T05:30:21Z</time>
      </trkpt>
      <trkpt lat="43.1596" lon="5.90405">
        <ele>189.070404</ele>
        <time>2022-08-13T05:30:23Z</time>
      </trkpt>
      <trkpt lat="43.15963" lon="5.90395">
        <ele>190.883316</ele>
        <time>2022-08-13T05:30:25Z</time>
      </trkpt>
      <trkpt lat="43.15969" lon="5.90385">
        <ele>191.774887</ele>
        <time>2022-08-13T05:30:27Z</time>
      </trkpt>
      <trkpt lat="43.15974" lon="5.90376">
        <ele>193.511993</ele>
        <time>2022-08-13T05:30:29Z</time>
      </trkpt>
      <trkpt lat="43.15979" lon="5.90366">
        <ele>195.177277</ele>
        <time>2022-08-13T05:30:31Z</time>
      </trkpt>
      <trkpt lat="43.15984" lon="5.90355">
        <ele>195.982727</ele>
        <time>2022-08-13T05:30:33Z</time>
      </trkpt>
      <trkpt lat="43.15989" lon="5.90345">
        <ele>197.538071</ele>
        <time>2022-08-13T05:30:35Z</time>
      </trkpt>
      <trkpt lat="43.15993" lon="5.90334">
        <ele>199.015488</ele>
        <time>2022-08-13T05:30:37Z</time>
      </trkpt>
      <trkpt lat="43.15997" lon="5.90324">
        <ele>199.724915</ele>
        <time>2022-08-13T05:30:39Z</time>
      </trkpt>
      <trkpt lat="43.16001" lon="5.90314">
        <ele>201.08754</ele>
        <time>2022-08-13T05:30:41Z</time>
      </trkpt>
      <trkpt lat="43.16005" lon="5.90303">
        <ele>201.742645</ele>
        <time>2022-08-13T05:30:43Z</time>
      </trkpt>
      <trkpt lat="43.16008" lon="5.90292">
        <ele>203.004333</ele>
        <time>2022-08-13T05:30:45Z</time>
      </trkpt>
      <trkpt lat="43.16011" lon="5.90282">
        <ele>203.612122</ele>
        <time>2022-08-13T05:30:47Z</time>
      </trkpt>
      <trkpt lat="43.16014" lon="5.9027">
        <ele>204.787399</ele>
        <time>2022-08-13T05:30:49Z</time>
      </trkpt>
      <trkpt lat="43.16016" lon="5.90259">
        <ele>205.917511</ele>
        <time>2022-08-13T05:30:51Z</time>
      </trkpt>
      <trkpt lat="43.16021" lon="5.90249">
        <ele>206.470245</ele>
        <time>2022-08-13T05:30:53Z</time>
      </trkpt>
      <trkpt lat="43.16027" lon="5.90242">
        <ele>207.559525</ele>
        <time>2022-08-13T05:30:55Z</time>
      </trkpt>
      <trkpt lat="43.16032" lon="5.90235">
        <ele>208.09787</ele>
        <time>2022-08-13T05:30:57Z</time>
      </trkpt>
      <trkpt lat="43.16038" lon="5.90227">
        <ele>209.1604</ele>
        <time>2022-08-13T05:30:59Z</time>
      </trkpt>
      <trkpt lat="43.16042" lon="5.90217">
        <ele>210.200104</ele>
        <time>2022-08-13T05:31:01Z</time>
      </trkpt>
      <trkpt lat="43.16045" lon="5.90207">
        <ele>210.711151</ele>
        <time>2022-08-13T05:31:03Z</time>
      </trkpt>
      <trkpt lat="43.16049" lon="5.90197">
        <ele>211.727295</ele>
        <time>2022-08-13T05:31:05Z</time>
      </trkpt>
      <trkpt lat="43.16055" lon="5.9019">
        <ele>212.238083</ele>
        <time>2022-08-13T05:31:07Z</time>
      </trkpt>
      <trkpt lat="43.16062" lon="5.90187">
        <ele>213.266525</ele>
        <time>2022-08-13T05:31:09Z</time>
      </trkpt>
      <trkpt lat="43.16071" lon="5.90189">
        <ele>213.77652</ele>
        <time>2022-08-13T05:31:11Z</time>
      </trkpt>
      <trkpt lat="43.16078" lon="5.90195">
        <ele>214.756256</ele>
        <time>2022-08-13T05:31:13Z</time>
      </trkpt>
      <trkpt lat="43.16084" lon="5.90204">
        <ele>215.603668</ele>
        <time>2022-08-13T05:31:15Z</time>
      </trkpt>
      <trkpt lat="43.1609" lon="5.90213">
        <ele>215.946411</ele>
        <time>2022-08-13T05:31:17Z</time>
      </trkpt>
      <trkpt lat="43.16097" lon="5.90222">
        <ele>216.424469</ele>
        <time>2022-08-13T05:31:19Z</time>
      </trkpt>
      <trkpt lat="43.16104" lon="5.9023">
        <ele>216.549957</ele>
        <time>2022-08-13T05:31:21Z</time>
      </trkpt>
      <trkpt lat="43.16111" lon="5.90235">
        <ele>216.562302</ele>
        <time>2022-08-13T05:31:23Z</time>
      </trkpt>
      <trkpt lat="43.1612" lon="5.90236">
        <ele>216.448456</ele>
        <time>2022-08-13T05:31:25Z</time>
      </trkpt>
      <trkpt lat="43.16127" lon="5.90233">
        <ele>215.987518</ele>
        <time>2022-08-13T05:31:27Z</time>
      </trkpt>
      <trkpt lat="43.16135" lon="5.90229">
        <ele>215.246628</ele>
        <time>2022-08-13T05:31:29Z</time>
      </trkpt>
      <trkpt lat="43.16142" lon="5.90224">
        <ele>214.796143</ele>
        <time>2022-08-13T05:31:31Z</time>
      </trkpt>
      <trkpt lat="43.16148" lon="5.90218">
        <ele>213.80069</ele>
        <time>2022-08-13T05:31:33Z</time>
      </trkpt>
      <trkpt lat="43.16153" lon="5.90211">
        <ele>213.276779</ele>
        <time>2022-08-13T05:31:35Z</time>
      </trkpt>
      <trkpt lat="43.16159" lon="5.90205">
        <ele>212.207977</ele>
        <time>2022-08-13T05:31:37Z</time>
      </trkpt>
      <trkpt lat="43.16167" lon="5.90201">
        <ele>211.670013</ele>
        <time>2022-08-13T05:31:39Z</time>
      </trkpt>
      <trkpt lat="43.16174" lon="5.90196">
        <ele>210.591553</ele>
        <time>2022-08-13T05:31:41Z</time>
      </trkpt>
      <trkpt lat="43.16183" lon="5.90193">
        <ele>209.499725</ele>
        <time>2022-08-13T05:31:43Z</time>
      </trkpt>
      <trkpt lat="43.16193" lon="5.90193">
        <ele>208.943726</ele>
        <time>2022-08-13T05:31:45Z</time>
      </trkpt>
      <trkpt lat="43.16201" lon="5.902">
        <ele>207.811691</ele>
        <time>2022-08-13T05:31:47Z</time>
      </trkpt>
      <trkpt lat="43.16208" lon="5.90206">
        <ele>207.238937</ele>
        <time>2022-08-13T05:31:49Z</time>
      </trkpt>
      <trkpt lat="43.16217" lon="5.90208">
        <ele>206.087112</ele>
        <time>2022-08-13T05:31:51Z</time>
      </trkpt>
      <trkpt lat="43.16226" lon="5.90206">
        <ele>204.924759</ele>
        <time>2022-08-13T05:31:53Z</time>
      </trkpt>
      <trkpt lat="43.16235" lon="5.90201">
        <ele>204.335098</ele>
        <time>2022-08-13T05:31:55Z</time>
      </trkpt>
      <trkpt lat="43.16243" lon="5.90195">
        <ele>203.135529</ele>
        <time>2022-08-13T05:31:57Z</time>
      </trkpt>
      <trkpt lat="43.1625" lon="5.90188">
        <ele>202.529755</ele>
        <time>2022-08-13T05:31:59Z</time>
      </trkpt>
      <trkpt lat="43.16257" lon="5.90181">
        <ele>201.334335</ele>
        <time>2022-08-13T05:32:01Z</time>
      </trkpt>
      <trkpt lat="43.16264" lon="5.90174">
        <ele>200.758408</ele>
        <time>2022-08-13T05:32:03Z</time>
      </trkpt>
      <trkpt lat="43.16271" lon="5.90166">
        <ele>199.693207</ele>
        <time>2022-08-13T05:32:05Z</time>
      </trkpt>
      <trkpt lat="43.16279" lon="5.90159">
        <ele>199.224182</ele>
        <time>2022-08-13T05:32:07Z</time>
      </trkpt>
      <trkpt lat="43.16285" lon="5.90151">
        <ele>198.458405</ele>
        <time>2022-08-13T05:32:09Z</time>
      </trkpt>
      <trkpt lat="43.16291" lon="5.9014">
        <ele>197.966568</ele>
        <time>2022-08-13T05:32:11Z</time>
      </trkpt>
      <trkpt lat="43.16295" lon="5.90128">
        <ele>197.837265</ele>
        <time>2022-08-13T05:32:13Z</time>
      </trkpt>
      <trkpt lat="43.16297" lon="5.90116">
        <ele>197.832458</ele>
        <time>2022-08-13T05:32:15Z</time>
      </trkpt>
      <trkpt lat="43.16299" lon="5.90104">
        <ele>197.962708</ele>
        <time>2022-08-13T05:32:17Z</time>
      </trkpt>
      <trkpt lat="43.16301" lon="5.90093">
        <ele>198.493027</ele>
        <time>2022-08-13T05:32:19Z</time>
      </trkpt>
      <trkpt lat="43.16304" lon="5.90082">
        <ele>199.342102</ele>
        <time>2022-08-13T05:32:21Z</time>
      </trkpt>
      <trkpt lat="43.16306" lon="5.90071">
        <ele>199.859192</ele>
        <time>2022-08-13T05:32:23Z</time>
      </trkpt>
      <trkpt lat="43.16309" lon="5.9006">
        <ele>201.019501</ele>
        <time>2022-08-13T05:32:25Z</time>
      </trkpt>
      <trkpt lat="43.16314" lon="5.90052">
        <ele>201.646301</ele>
        <time>2022-08-13T05:32:27Z</time>
      </trkpt>
      <trkpt lat="43.16322" lon="5.90048">
        <ele>202.962723</ele>
        <time>2022-08-13T05:32:29Z</time>
      </trkpt>
      <trkpt lat="43.16332" lon="5.90046">
        <ele>204.32309</ele>
        <time>2022-08-13T05:32:31Z</time>
      </trkpt>
      <trkpt lat="43.1634" lon="5.90045">
        <ele>205.00528</ele>
        <time>2022-08-13T05:32:33Z</time>
      </trkpt>
      <trkpt lat="43.16349" lon="5.90044">
        <ele>206.352783</ele>
        <time>2022-08-13T05:32:35Z</time>
      </trkpt>
      <trkpt lat="43.16358" lon="5.90042">
        <ele>207.013214</ele>
        <time>2022-08-13T05:32:37Z</time>
      </trkpt>
      <trkpt lat="43.16367" lon="5.90039">
        <ele>208.30484</ele>
        <time>2022-08-13T05:32:39Z</time>
      </trkpt>
      <trkpt lat="43.16377" lon="5.90042">
        <ele>208.939529</ele>
        <time>2022-08-13T05:32:41Z</time>
      </trkpt>
      <trkpt lat="43.16385" lon="5.90051">
        <ele>210.201294</ele>
        <time>2022-08-13T05:32:43Z</time>
      </trkpt>
      <trkpt lat="43.1639" lon="5.90061">
        <ele>211.458405</ele>
        <time>2022-08-13T05:32:45Z</time>
      </trkpt>
      <trkpt lat="43.16395" lon="5.90071">
        <ele>212.072174</ele>
        <time>2022-08-13T05:32:47Z</time>
      </trkpt>
      <trkpt lat="43.16401" lon="5.9008">
        <ele>213.220139</ele>
        <time>2022-08-13T05:32:49Z</time>
      </trkpt>
      <trkpt lat="43.16408" lon="5.90087">
        <ele>213.737717</ele>
        <time>2022-08-13T05:32:51Z</time>
      </trkpt>
      <trkpt lat="43.16417" lon="5.90091">
        <ele>214.641922</ele>
        <time>2022-08-13T05:32:53Z</time>
      </trkpt>
      <trkpt lat="43.16427" lon="5.90094">
        <ele>215.030914</ele>
        <time>2022-08-13T05:32:55Z</time>
      </trkpt>
      <trkpt lat="43.16435" lon="5.90097">
        <ele>215.70993</ele>
        <time>2022-08-13T05:32:57Z</time>
      </trkpt>
      <trkpt lat="43.16444" lon="5.901">
        <ele>216.30098</ele>
        <time>2022-08-13T05:32:59Z</time>
      </trkpt>
      <trkpt lat="43.16453" lon="5.90104">
        <ele>216.575287</ele>
        <time>2022-08-13T05:33:01Z</time>
      </trkpt>
      <trkpt lat="43.16462" lon="5.90107">
        <ele>217.086823</ele>
        <time>2022-08-13T05:33:03Z</time>
      </trkpt>
      <trkpt lat="43.1647" lon="5.90112">
        <ele>217.320755</ele>
        <time>2022-08-13T05:33:05Z</time>
      </trkpt>
      <trkpt lat="43.16478" lon="5.90115">
        <ele>217.730316</ele>
        <time>2022-08-13T05:33:07Z</time>
      </trkpt>
      <trkpt lat="43.16487" lon="5.90116">
        <ele>217.899017</ele>
        <time>2022-08-13T05:33:09Z</time>
      </trkpt>
      <trkpt lat="43.16496" lon="5.90114">
        <ele>218.151276</ele>
        <time>2022-08-13T05:33:11Z</time>
      </trkpt>
      <trkpt lat="43.16505" lon="5.9011">
        <ele>218.291595</ele>
        <time>2022-08-13T05:33:13Z</time>
      </trkpt>
      <trkpt lat="43.16513" lon="5.90105">
        <ele>218.328766</ele>
        <time>2022-08-13T05:33:15Z</time>
      </trkpt>
      <trkpt lat="43.16518" lon="5.90096">
        <ele>218.365036</ele>
        <time>2022-08-13T05:33:17Z</time>
      </trkpt>
      <trkpt lat="43.16522" lon="5.90085">
        <ele>218.376129</ele>
        <time>2022-08-13T05:33:19Z</time>
      </trkpt>
      <trkpt lat="43.16525" lon="5.90074">
        <ele>218.419189</ele>
        <time>2022-08-13T05:33:21Z</time>
      </trkpt>
      <trkpt lat="43.16526" lon="5.90062">
        <ele>218.465973</ele>
        <time>2022-08-13T05:33:23Z</time>
      </trkpt>
      <trkpt lat="43.16528" lon="5.9005">
        <ele>218.646393</ele>
        <time>2022-08-13T05:33:25Z</time>
      </trkpt>
      <trkpt lat="43.1653" lon="5.90039">
        <ele>218.977737</ele>
        <time>2022-08-13T05:33:27Z</time>
      </trkpt>
      <trkpt lat="43.16535" lon="5.90029">
        <ele>219.210052</ele>
        <time>2022-08-13T05:33:29Z</time>
      </trkpt>
      <trkpt lat="43.16542" lon="5.90024">
        <ele>219.815155</ele>
        <time>2022-08-13T05:33:31Z</time>
      </trkpt>
      <trkpt lat="43.16551" lon="5.90026">
        <ele>220.185257</ele>
        <time>2022-08-13T05:33:33Z</time>
      </trkpt>
      <trkpt lat="43.1656" lon="5.90034">
        <ele>221.041214</ele>
        <time>2022-08-13T05:33:35Z</time>
      </trkpt>
      <trkpt lat="43.16567" lon="5.90042">
        <ele>221.516815</ele>
        <time>2022-08-13T05:33:37Z</time>
      </trkpt>
      <trkpt lat="43.16575" lon="5.90048">
        <ele>222.548904</ele>
        <time>2022-08-13T05:33:39Z</time>
      </trkpt>
      <trkpt lat="43.16582" lon="5.9005">
        <ele>223.66745</ele>
        <time>2022-08-13T05:33:41Z</time>
      </trkpt>
      <trkpt lat="43.16588" lon="5.9005">
        <ele>224.249237</ele>
        <time>2022-08-13T05:33:43Z</time>
      </trkpt>
      <trkpt lat="43.16595" lon="5.90046">
        <ele>225.447418</ele>
        <time>2022-08-13T05:33:45Z</time>
      </trkpt>
      <trkpt lat="43.16602" lon="5.90041">
        <ele>226.063156</ele>
        <time>2022-08-13T05:33:47Z</time>
      </trkpt>
      <trkpt lat="43.16611" lon="5.90037">
        <ele>227.331879</ele>
        <time>2022-08-13T05:33:49Z</time>
      </trkpt>
      <trkpt lat="43.1662" lon="5.90031">
        <ele>227.986404</ele>
        <time>2022-08-13T05:33:51Z</time>
      </trkpt>
      <trkpt lat="43.16628" lon="5.90026">
        <ele>229.342804</ele>
        <time>2022-08-13T05:33:53Z</time>
      </trkpt>
      <trkpt lat="43.16637" lon="5.90021">
        <ele>230.773224</ele>
        <time>2022-08-13T05:33:55Z</time>
      </trkpt>
      <trkpt lat="43.16644" lon="5.90016">
        <ele>231.520462</ele>
        <time>2022-08-13T05:33:57Z</time>
      </trkpt>
      <trkpt lat="43.1665" lon="5.90011">
        <ele>233.084747</ele>
        <time>2022-08-13T05:33:59Z</time>
      </trkpt>
      <trkpt lat="43.16656" lon="5.90005">
        <ele>233.904129</ele>
        <time>2022-08-13T05:34:01Z</time>
      </trkpt>
      <trkpt lat="43.16663" lon="5.89998">
        <ele>235.617355</ele>
        <time>2022-08-13T05:34:03Z</time>
      </trkpt>
      <trkpt lat="43.16668" lon="5.89991">
        <ele>236.506027</ele>
        <time>2022-08-13T05:34:05Z</time>
      </trkpt>
      <trkpt lat="43.16674" lon="5.89984">
        <ele>238.325775</ele>
        <time>2022-08-13T05:34:07Z</time>
      </trkpt>
      <trkpt lat="43.16681" lon="5.89977">
        <ele>239.245682</ele>
        <time>2022-08-13T05:34:09Z</time>
      </trkpt>
      <trkpt lat="43.16686" lon="5.89969">
        <ele>241.072952</ele>
        <time>2022-08-13T05:34:11Z</time>
      </trkpt>
      <trkpt lat="43.16692" lon="5.89962">
        <ele>242.845367</ele>
        <time>2022-08-13T05:34:13Z</time>
      </trkpt>
      <trkpt lat="43.16702" lon="5.89956">
        <ele>243.702393</ele>
        <time>2022-08-13T05:34:15Z</time>
      </trkpt>
      <trkpt lat="43.16712" lon="5.8995">
        <ele>245.353607</ele>
        <time>2022-08-13T05:34:17Z</time>
      </trkpt>
      <trkpt lat="43.16721" lon="5.89943">
        <ele>246.145233</ele>
        <time>2022-08-13T05:34:19Z</time>
      </trkpt>
      <trkpt lat="43.16732" lon="5.89937">
        <ele>247.657562</ele>
        <time>2022-08-13T05:34:21Z</time>
      </trkpt>
      <trkpt lat="43.16742" lon="5.89932">
        <ele>248.379196</ele>
        <time>2022-08-13T05:34:23Z</time>
      </trkpt>
      <trkpt lat="43.16753" lon="5.89929">
        <ele>249.767334</ele>
        <time>2022-08-13T05:34:25Z</time>
      </trkpt>
      <trkpt lat="43.16765" lon="5.89928">
        <ele>251.112152</ele>
        <time>2022-08-13T05:34:27Z</time>
      </trkpt>
      <trkpt lat="43.16776" lon="5.89929">
        <ele>251.778</ele>
        <time>2022-08-13T05:34:29Z</time>
      </trkpt>
      <trkpt lat="43.16785" lon="5.89931">
        <ele>253.111038</ele>
        <time>2022-08-13T05:34:31Z</time>
      </trkpt>
      <trkpt lat="43.16797" lon="5.89933">
        <ele>253.780548</ele>
        <time>2022-08-13T05:34:33Z</time>
      </trkpt>
      <trkpt lat="43.16806" lon="5.89935">
        <ele>255.113724</ele>
        <time>2022-08-13T05:34:35Z</time>
      </trkpt>
      <trkpt lat="43.16816" lon="5.89937">
        <ele>255.765137</ele>
        <time>2022-08-13T05:34:37Z</time>
      </trkpt>
      <trkpt lat="43.16826" lon="5.89941">
        <ele>256.998108</ele>
        <time>2022-08-13T05:34:39Z</time>
      </trkpt>
      <trkpt lat="43.16835" lon="5.89946">
        <ele>258.098358</ele>
        <time>2022-08-13T05:34:41Z</time>
      </trkpt>
      <trkpt lat="43.16845" lon="5.89949">
        <ele>258.588806</ele>
        <time>2022-08-13T05:34:43Z</time>
      </trkpt>
      <trkpt lat="43.16853" lon="5.89947">
        <ele>259.432495</ele>
        <time>2022-08-13T05:34:45Z</time>
      </trkpt>
      <trkpt lat="43.16861" lon="5.89941">
        <ele>259.782837</ele>
        <time>2022-08-13T05:34:47Z</time>
      </trkpt>
      <trkpt lat="43.16869" lon="5.89933">
        <ele>260.364288</ele>
        <time>2022-08-13T05:34:49Z</time>
      </trkpt>
      <trkpt lat="43.16876" lon="5.89926">
        <ele>260.615662</ele>
        <time>2022-08-13T05:34:51Z</time>
      </trkpt>
      <trkpt lat="43.16885" lon="5.89926">
        <ele>261.091156</ele>
        <time>2022-08-13T05:34:53Z</time>
      </trkpt>
      <trkpt lat="43.16892" lon="5.89934">
        <ele>261.326599</ele>
        <time>2022-08-13T05:34:55Z</time>
      </trkpt>
      <trkpt lat="43.16894" lon="5.89947">
        <ele>261.781036</ele>
        <time>2022-08-13T05:34:57Z</time>
      </trkpt>
      <trkpt lat="43.16893" lon="5.89959">
        <ele>262.160004</ele>
        <time>2022-08-13T05:34:59Z</time>
      </trkpt>
      <trkpt lat="43.16888" lon="5.89971">
        <ele>262.295227</ele>
        <time>2022-08-13T05:35:01Z</time>
      </trkpt>
      <trkpt lat="43.16885" lon="5.89982">
        <ele>262.405457</ele>
        <time>2022-08-13T05:35:03Z</time>
      </trkpt>
      <trkpt lat="43.16879" lon="5.8999">
        <ele>262.368317</ele>
        <time>2022-08-13T05:35:05Z</time>
      </trkpt>
      <trkpt lat="43.16873" lon="5.89998">
        <ele>262.097168</ele>
        <time>2022-08-13T05:35:07Z</time>
      </trkpt>
      <trkpt lat="43.16866" lon="5.90005">
        <ele>261.864716</ele>
        <time>2022-08-13T05:35:09Z</time>
      </trkpt>
      <trkpt lat="43.16859" lon="5.90012">
        <ele>261.213898</ele>
        <time>2022-08-13T05:35:11Z</time>
      </trkpt>
      <trkpt lat="43.16853" lon="5.90018">
        <ele>260.326904</ele>
        <time>2022-08-13T05:35:13Z</time>
      </trkpt>
      <trkpt lat="43.16847" lon="5.90027">
        <ele>259.799194</ele>
        <time>2022-08-13T05:35:15Z</time>
      </trkpt>
      <trkpt lat="43.16841" lon="5.90035">
        <ele>258.586456</ele>
        <time>2022-08-13T05:35:17Z</time>
      </trkpt>
      <trkpt lat="43.16837" lon="5.90045">
        <ele>257.90741</ele>
        <time>2022-08-13T05:35:19Z</time>
      </trkpt>
      <trkpt lat="43.16837" lon="5.90056">
        <ele>256.424713</ele>
        <time>2022-08-13T05:35:21Z</time>
      </trkpt>
      <trkpt lat="43.16839" lon="5.90067">
        <ele>254.818069</ele>
        <time>2022-08-13T05:35:23Z</time>
      </trkpt>
      <trkpt lat="43.16846" lon="5.90074">
        <ele>253.990234</ele>
        <time>2022-08-13T05:35:25Z</time>
      </trkpt>
      <trkpt lat="43.16853" lon="5.90077">
        <ele>252.333771</ele>
        <time>2022-08-13T05:35:27Z</time>
      </trkpt>
      <trkpt lat="43.16862" lon="5.90075">
        <ele>251.524139</ele>
        <time>2022-08-13T05:35:29Z</time>
      </trkpt>
      <trkpt lat="43.16869" lon="5.90072">
        <ele>249.980255</ele>
        <time>2022-08-13T05:35:31Z</time>
      </trkpt>
      <trkpt lat="43.16876" lon="5.90066">
        <ele>249.256592</ele>
        <time>2022-08-13T05:35:33Z</time>
      </trkpt>
      <trkpt lat="43.16882" lon="5.90059">
        <ele>247.927246</ele>
        <time>2022-08-13T05:35:35Z</time>
      </trkpt>
      <trkpt lat="43.16888" lon="5.9005">
        <ele>247.330032</ele>
        <time>2022-08-13T05:35:37Z</time>
      </trkpt>
      <trkpt lat="43.16892" lon="5.90042">
        <ele>246.276901</ele>
        <time>2022-08-13T05:35:39Z</time>
      </trkpt>
      <trkpt lat="43.16897" lon="5.90033">
        <ele>245.366486</ele>
        <time>2022-08-13T05:35:41Z</time>
      </trkpt>
      <trkpt lat="43.16902" lon="5.90023">
        <ele>244.937714</ele>
        <time>2022-08-13T05:35:43Z</time>
      </trkpt>
      <trkpt lat="43.16907" lon="5.90013">
        <ele>244.091629</ele>
        <time>2022-08-13T05:35:45Z</time>
      </trkpt>
      <trkpt lat="43.16912" lon="5.90004">
        <ele>243.675079</ele>
        <time>2022-08-13T05:35:47Z</time>
      </trkpt>
      <trkpt lat="43.16917" lon="5.89995">
        <ele>242.890259</ele>
        <time>2022-08-13T05:35:49Z</time>
      </trkpt>
      <trkpt lat="43.16922" lon="5.89986">
        <ele>242.234451</ele>
        <time>2022-08-13T05:35:51Z</time>
      </trkpt>
      <trkpt lat="43.16926" lon="5.89976">
        <ele>241.984344</ele>
        <time>2022-08-13T05:35:53Z</time>
      </trkpt>
      <trkpt lat="43.16931" lon="5.89967">
        <ele>241.682175</ele>
        <time>2022-08-13T05:35:55Z</time>
      </trkpt>
      <trkpt lat="43.16935" lon="5.89958">
        <ele>241.636353</ele>
        <time>2022-08-13T05:35:57Z</time>
      </trkpt>
      <trkpt lat="43.1694" lon="5.89948">
        <ele>241.756836</ele>
        <time>2022-08-13T05:35:59Z</time>
      </trkpt>
      <trkpt lat="43.16944" lon="5.89938">
        <ele>242.156403</ele>
        <time>2022-08-13T05:36:01Z</time>
      </trkpt>
      <trkpt lat="43.16948" lon="5.89927">
        <ele>242.461456</ele>
        <time>2022-08-13T05:36:03Z</time>
      </trkpt>
      <trkpt lat="43.16953" lon="5.89916">
        <ele>243.286591</ele>
        <time>2022-08-13T05:36:05Z</time>
      </trkpt>
      <trkpt lat="43.16956" lon="5.89905">
        <ele>243.808304</ele>
        <time>2022-08-13T05:36:07Z</time>
      </trkpt>
      <trkpt lat="43.1696" lon="5.89895">
        <ele>245.074905</ele>
        <time>2022-08-13T05:36:09Z</time>
      </trkpt>
      <trkpt lat="43.16964" lon="5.89884">
        <ele>245.819305</ele>
        <time>2022-08-13T05:36:11Z</time>
      </trkpt>
      <trkpt lat="43.16967" lon="5.89873">
        <ele>247.524994</ele>
        <time>2022-08-13T05:36:13Z</time>
      </trkpt>
      <trkpt lat="43.1697" lon="5.89862">
        <ele>248.480179</ele>
        <time>2022-08-13T05:36:15Z</time>
      </trkpt>
      <trkpt lat="43.16972" lon="5.8985">
        <ele>250.574997</ele>
        <time>2022-08-13T05:36:17Z</time>
      </trkpt>
      <trkpt lat="43.16974" lon="5.89839">
        <ele>252.874847</ele>
        <time>2022-08-13T05:36:19Z</time>
      </trkpt>
      <trkpt lat="43.16975" lon="5.89827">
        <ele>254.082962</ele>
        <time>2022-08-13T05:36:21Z</time>
      </trkpt>
      <trkpt lat="43.16976" lon="5.89815">
        <ele>256.574951</ele>
        <time>2022-08-13T05:36:23Z</time>
      </trkpt>
      <trkpt lat="43.16977" lon="5.89804">
        <ele>257.84491</ele>
        <time>2022-08-13T05:36:25Z</time>
      </trkpt>
      <trkpt lat="43.16977" lon="5.89792">
        <ele>260.402679</ele>
        <time>2022-08-13T05:36:27Z</time>
      </trkpt>
      <trkpt lat="43.16977" lon="5.8978">
        <ele>261.679138</ele>
        <time>2022-08-13T05:36:29Z</time>
      </trkpt>
      <trkpt lat="43.16979" lon="5.8977">
        <ele>264.205383</ele>
        <time>2022-08-13T05:36:31Z</time>
      </trkpt>
      <trkpt lat="43.16979" lon="5.89758">
        <ele>266.684418</ele>
        <time>2022-08-13T05:36:33Z</time>
      </trkpt>
      <trkpt lat="43.16977" lon="5.89747">
        <ele>267.904358</ele>
        <time>2022-08-13T05:36:35Z</time>
      </trkpt>
      <trkpt lat="43.16972" lon="5.89738">
        <ele>270.297058</ele>
        <time>2022-08-13T05:36:37Z</time>
      </trkpt>
      <trkpt lat="43.16966" lon="5.8973">
        <ele>271.464386</ele>
        <time>2022-08-13T05:36:39Z</time>
      </trkpt>
      <trkpt lat="43.1696" lon="5.89721">
        <ele>273.732086</ele>
        <time>2022-08-13T05:36:41Z</time>
      </trkpt>
      <trkpt lat="43.16954" lon="5.89711">
        <ele>274.830719</ele>
        <time>2022-08-13T05:36:43Z</time>
      </trkpt>
      <trkpt lat="43.16951" lon="5.89701">
        <ele>276.959717</ele>
        <time>2022-08-13T05:36:45Z</time>
      </trkpt>
      <trkpt lat="43.16946" lon="5.89691">
        <ele>279.007507</ele>
        <time>2022-08-13T05:36:47Z</time>
      </trkpt>
      <trkpt lat="43.1694" lon="5.8968">
        <ele>280.004425</ele>
        <time>2022-08-13T05:36:49Z</time>
      </trkpt>
      <trkpt lat="43.16937" lon="5.8967">
        <ele>281.945923</ele>
        <time>2022-08-13T05:36:51Z</time>
      </trkpt>
      <trkpt lat="43.16939" lon="5.89659">
        <ele>282.89212</ele>
        <time>2022-08-13T05:36:53Z</time>
      </trkpt>
      <trkpt lat="43.16945" lon="5.89651">
        <ele>284.733948</ele>
        <time>2022-08-13T05:36:55Z</time>
      </trkpt>
      <trkpt lat="43.16953" lon="5.89652">
        <ele>285.622345</ele>
        <time>2022-08-13T05:36:57Z</time>
      </trkpt>
      <trkpt lat="43.16957" lon="5.89662">
        <ele>287.305756</ele>
        <time>2022-08-13T05:36:59Z</time>
      </trkpt>
      <trkpt lat="43.16958" lon="5.89673">
        <ele>288.838104</ele>
        <time>2022-08-13T05:37:01Z</time>
      </trkpt>
      <trkpt lat="43.16959" lon="5.89686">
        <ele>289.542786</ele>
        <time>2022-08-13T05:37:03Z</time>
      </trkpt>
      <trkpt lat="43.16961" lon="5.89698">
        <ele>290.81839</ele>
        <time>2022-08-13T05:37:05Z</time>
      </trkpt>
      <trkpt lat="43.16967" lon="5.89708">
        <ele>291.384613</ele>
        <time>2022-08-13T05:37:07Z</time>
      </trkpt>
      <trkpt lat="43.16975" lon="5.89714">
        <ele>292.368622</ele>
        <time>2022-08-13T05:37:09Z</time>
      </trkpt>
      <trkpt lat="43.16982" lon="5.8972">
        <ele>292.788177</ele>
        <time>2022-08-13T05:37:11Z</time>
      </trkpt>
      <trkpt lat="43.1699" lon="5.89726">
        <ele>293.495758</ele>
        <time>2022-08-13T05:37:13Z</time>
      </trkpt>
      <trkpt lat="43.16996" lon="5.89735">
        <ele>294.053406</ele>
        <time>2022-08-13T05:37:15Z</time>
      </trkpt>
      <trkpt lat="43.17" lon="5.89745">
        <ele>294.285645</ele>
        <time>2022-08-13T05:37:17Z</time>
      </trkpt>
      <trkpt lat="43.17003" lon="5.89756">
        <ele>294.673004</ele>
        <time>2022-08-13T05:37:19Z</time>
      </trkpt>
      <trkpt lat="43.17003" lon="5.89769">
        <ele>294.832611</ele>
        <time>2022-08-13T05:37:21Z</time>
      </trkpt>
      <trkpt lat="43.17001" lon="5.89782">
        <ele>295.090088</ele>
        <time>2022-08-13T05:37:23Z</time>
      </trkpt>
      <trkpt lat="43.17001" lon="5.89795">
        <ele>295.189209</ele>
        <time>2022-08-13T05:37:25Z</time>
      </trkpt>
      <trkpt lat="43.17003" lon="5.89808">
        <ele>295.328796</ele>
        <time>2022-08-13T05:37:27Z</time>
      </trkpt>
      <trkpt lat="43.17004" lon="5.89822">
        <ele>295.391052</ele>
        <time>2022-08-13T05:37:29Z</time>
      </trkpt>
      <trkpt lat="43.17005" lon="5.89834">
        <ele>295.39502</ele>
        <time>2022-08-13T05:37:31Z</time>
      </trkpt>
      <trkpt lat="43.17006" lon="5.89847">
        <ele>295.355408</ele>
        <time>2022-08-13T05:37:33Z</time>
      </trkpt>
      <trkpt lat="43.17008" lon="5.8986">
        <ele>295.313446</ele>
        <time>2022-08-13T05:37:35Z</time>
      </trkpt>
      <trkpt lat="43.17009" lon="5.89872">
        <ele>295.183319</ele>
        <time>2022-08-13T05:37:37Z</time>
      </trkpt>
      <trkpt lat="43.17008" lon="5.89885">
        <ele>294.982513</ele>
        <time>2022-08-13T05:37:39Z</time>
      </trkpt>
      <trkpt lat="43.17006" lon="5.89897">
        <ele>294.852356</ele>
        <time>2022-08-13T05:37:41Z</time>
      </trkpt>
      <trkpt lat="43.17001" lon="5.89909">
        <ele>294.520905</ele>
        <time>2022-08-13T05:37:43Z</time>
      </trkpt>
      <trkpt lat="43.16995" lon="5.8992">
        <ele>294.312042</ele>
        <time>2022-08-13T05:37:45Z</time>
      </trkpt>
      <trkpt lat="43.1699" lon="5.89933">
        <ele>293.792175</ele>
        <time>2022-08-13T05:37:47Z</time>
      </trkpt>
      <trkpt lat="43.16994" lon="5.89944">
        <ele>293.126129</ele>
        <time>2022-08-13T05:37:49Z</time>
      </trkpt>
      <trkpt lat="43.17001" lon="5.89945">
        <ele>292.740173</ele>
        <time>2022-08-13T05:37:51Z</time>
      </trkpt>
      <trkpt lat="43.17007" lon="5.89937">
        <ele>291.896484</ele>
        <time>2022-08-13T05:37:53Z</time>
      </trkpt>
      <trkpt lat="43.17009" lon="5.89924">
        <ele>291.465149</ele>
        <time>2022-08-13T05:37:55Z</time>
      </trkpt>
      <trkpt lat="43.17011" lon="5.89911">
        <ele>290.653137</ele>
        <time>2022-08-13T05:37:57Z</time>
      </trkpt>
      <trkpt lat="43.17014" lon="5.89898">
        <ele>289.961029</ele>
        <time>2022-08-13T05:37:59Z</time>
      </trkpt>
      <trkpt lat="43.17017" lon="5.89885">
        <ele>289.667328</ele>
        <time>2022-08-13T05:38:01Z</time>
      </trkpt>
      <trkpt lat="43.17018" lon="5.89873">
        <ele>289.188965</ele>
        <time>2022-08-13T05:38:03Z</time>
      </trkpt>
      <trkpt lat="43.17017" lon="5.89861">
        <ele>289.002441</ele>
        <time>2022-08-13T05:38:05Z</time>
      </trkpt>
      <trkpt lat="43.17016" lon="5.89848">
        <ele>288.718597</ele>
        <time>2022-08-13T05:38:07Z</time>
      </trkpt>
      <trkpt lat="43.17014" lon="5.89836">
        <ele>288.611511</ele>
        <time>2022-08-13T05:38:09Z</time>
      </trkpt>
      <trkpt lat="43.17012" lon="5.89823">
        <ele>288.447601</ele>
        <time>2022-08-13T05:38:11Z</time>
      </trkpt>
      <trkpt lat="43.17013" lon="5.8981">
        <ele>288.335114</ele>
        <time>2022-08-13T05:38:13Z</time>
      </trkpt>
      <trkpt lat="43.17014" lon="5.89798">
        <ele>288.295258</ele>
        <time>2022-08-13T05:38:15Z</time>
      </trkpt>
      <trkpt lat="43.17018" lon="5.89786">
        <ele>288.251892</ele>
        <time>2022-08-13T05:38:17Z</time>
      </trkpt>
      <trkpt lat="43.17021" lon="5.89774">
        <ele>288.252869</ele>
        <time>2022-08-13T05:38:19Z</time>
      </trkpt>
      <trkpt lat="43.17024" lon="5.89763">
        <ele>288.313171</ele>
        <time>2022-08-13T05:38:21Z</time>
      </trkpt>
      <trkpt lat="43.17024" lon="5.89751">
        <ele>288.375427</ele>
        <time>2022-08-13T05:38:23Z</time>
      </trkpt>
      <trkpt lat="43.17022" lon="5.8974">
        <ele>288.56424</ele>
        <time>2022-08-13T05:38:25Z</time>
      </trkpt>
      <trkpt lat="43.1702" lon="5.89729">
        <ele>288.829895</ele>
        <time>2022-08-13T05:38:27Z</time>
      </trkpt>
      <trkpt lat="43.17018" lon="5.89718">
        <ele>288.986969</ele>
        <time>2022-08-13T05:38:29Z</time>
      </trkpt>
      <trkpt lat="43.17014" lon="5.89708">
        <ele>289.340271</ele>
        <time>2022-08-13T05:38:31Z</time>
      </trkpt>
      <trkpt lat="43.17011" lon="5.89697">
        <ele>289.534332</ele>
        <time>2022-08-13T05:38:33Z</time>
      </trkpt>
      <trkpt lat="43.17007" lon="5.89686">
        <ele>289.955261</ele>
        <time>2022-08-13T05:38:35Z</time>
      </trkpt>
      <trkpt lat="43.17005" lon="5.89676">
        <ele>290.185028</ele>
        <time>2022-08-13T05:38:37Z</time>
      </trkpt>
      <trkpt lat="43.17006" lon="5.89664">
        <ele>290.705261</ele>
        <time>2022-08-13T05:38:39Z</time>
      </trkpt>
      <trkpt lat="43.17009" lon="5.89653">
        <ele>291.349457</ele>
        <time>2022-08-13T05:38:41Z</time>
      </trkpt>
      <trkpt lat="43.17012" lon="5.89642">
        <ele>291.725769</ele>
        <time>2022-08-13T05:38:43Z</time>
      </trkpt>
      <trkpt lat="43.17015" lon="5.8963">
        <ele>292.563171</ele>
        <time>2022-08-13T05:38:45Z</time>
      </trkpt>
      <trkpt lat="43.17019" lon="5.89619">
        <ele>293.007599</ele>
        <time>2022-08-13T05:38:47Z</time>
      </trkpt>
      <trkpt lat="43.17019" lon="5.89607">
        <ele>293.924072</ele>
        <time>2022-08-13T05:38:49Z</time>
      </trkpt>
      <trkpt lat="43.17017" lon="5.89596">
        <ele>294.393585</ele>
        <time>2022-08-13T05:38:51Z</time>
      </trkpt>
      <trkpt lat="43.17011" lon="5.89587">
        <ele>295.346741</ele>
        <time>2022-08-13T05:38:53Z</time>
      </trkpt>
      <trkpt lat="43.17003" lon="5.8958">
        <ele>296.284821</ele>
        <time>2022-08-13T05:38:55Z</time>
      </trkpt>
      <trkpt lat="43.16995" lon="5.89573">
        <ele>296.736481</ele>
        <time>2022-08-13T05:38:57Z</time>
      </trkpt>
      <trkpt lat="43.16989" lon="5.89564">
        <ele>297.605682</ele>
        <time>2022-08-13T05:38:59Z</time>
      </trkpt>
      <trkpt lat="43.16985" lon="5.89553">
        <ele>298.028412</ele>
        <time>2022-08-13T05:39:01Z</time>
      </trkpt>
      <trkpt lat="43.16982" lon="5.89541">
        <ele>298.869507</ele>
        <time>2022-08-13T05:39:03Z</time>
      </trkpt>
      <trkpt lat="43.1698" lon="5.8953">
        <ele>299.29538</ele>
        <time>2022-08-13T05:39:05Z</time>
      </trkpt>
      <trkpt lat="43.16979" lon="5.89518">
        <ele>300.169769</ele>
        <time>2022-08-13T05:39:07Z</time>
      </trkpt>
      <trkpt lat="43.16977" lon="5.89507">
        <ele>301.076599</ele>
        <time>2022-08-13T05:39:09Z</time>
      </trkpt>
      <trkpt lat="43.16976" lon="5.89496">
        <ele>301.538422</ele>
        <time>2022-08-13T05:39:11Z</time>
      </trkpt>
      <trkpt lat="43.16975" lon="5.89486">
        <ele>302.470398</ele>
        <time>2022-08-13T05:39:13Z</time>
      </trkpt>
      <trkpt lat="43.16974" lon="5.89474">
        <ele>302.938324</ele>
        <time>2022-08-13T05:39:15Z</time>
      </trkpt>
      <trkpt lat="43.16974" lon="5.89462">
        <ele>303.881287</ele>
        <time>2022-08-13T05:39:17Z</time>
      </trkpt>
      <trkpt lat="43.16974" lon="5.89451">
        <ele>304.359863</ele>
        <time>2022-08-13T05:39:19Z</time>
      </trkpt>
      <trkpt lat="43.16972" lon="5.89441">
        <ele>305.342224</ele>
        <time>2022-08-13T05:39:21Z</time>
      </trkpt>
      <trkpt lat="43.16973" lon="5.8943">
        <ele>305.849243</ele>
        <time>2022-08-13T05:39:23Z</time>
      </trkpt>
      <trkpt lat="43.16973" lon="5.89419">
        <ele>306.90094</ele>
        <time>2022-08-13T05:39:25Z</time>
      </trkpt>
      <trkpt lat="43.16974" lon="5.89407">
        <ele>308.011169</ele>
        <time>2022-08-13T05:39:27Z</time>
      </trkpt>
      <trkpt lat="43.16974" lon="5.89393">
        <ele>308.589264</ele>
        <time>2022-08-13T05:39:29Z</time>
      </trkpt>
      <trkpt lat="43.16974" lon="5.89382">
        <ele>309.781342</ele>
        <time>2022-08-13T05:39:31Z</time>
      </trkpt>
      <trkpt lat="43.16973" lon="5.89371">
        <ele>310.387756</ele>
        <time>2022-08-13T05:39:33Z</time>
      </trkpt>
      <trkpt lat="43.16973" lon="5.8936">
        <ele>311.600769</ele>
        <time>2022-08-13T05:39:35Z</time>
      </trkpt>
      <trkpt lat="43.16972" lon="5.89349">
        <ele>312.789154</ele>
        <time>2022-08-13T05:39:37Z</time>
      </trkpt>
      <trkpt lat="43.16972" lon="5.89341">
        <ele>313.365051</ele>
        <time>2022-08-13T05:39:39Z</time>
      </trkpt>
      <trkpt lat="43.16973" lon="5.8933">
        <ele>314.466309</ele>
        <time>2022-08-13T05:39:41Z</time>
      </trkpt>
      <trkpt lat="43.16974" lon="5.89322">
        <ele>314.98941</ele>
        <time>2022-08-13T05:39:43Z</time>
      </trkpt>
      <trkpt lat="43.16973" lon="5.89309">
        <ele>315.990814</ele>
        <time>2022-08-13T05:39:45Z</time>
      </trkpt>
      <trkpt lat="43.16972" lon="5.89298">
        <ele>316.47876</ele>
        <time>2022-08-13T05:39:47Z</time>
      </trkpt>
      <trkpt lat="43.16969" lon="5.89287">
        <ele>317.451416</ele>
        <time>2022-08-13T05:39:49Z</time>
      </trkpt>
      <trkpt lat="43.1697" lon="5.89276">
        <ele>318.434143</ele>
        <time>2022-08-13T05:39:51Z</time>
      </trkpt>
      <trkpt lat="43.16971" lon="5.89263">
        <ele>318.929108</ele>
        <time>2022-08-13T05:39:53Z</time>
      </trkpt>
      <trkpt lat="43.16971" lon="5.89253">
        <ele>319.921295</ele>
        <time>2022-08-13T05:39:55Z</time>
      </trkpt>
      <trkpt lat="43.16971" lon="5.89243">
        <ele>320.416748</ele>
        <time>2022-08-13T05:39:57Z</time>
      </trkpt>
      <trkpt lat="43.1697" lon="5.8923">
        <ele>321.402405</ele>
        <time>2022-08-13T05:39:59Z</time>
      </trkpt>
      <trkpt lat="43.16969" lon="5.89217">
        <ele>321.890869</ele>
        <time>2022-08-13T05:40:01Z</time>
      </trkpt>
      <trkpt lat="43.16969" lon="5.89204">
        <ele>322.858459</ele>
        <time>2022-08-13T05:40:03Z</time>
      </trkpt>
      <trkpt lat="43.16968" lon="5.89194">
        <ele>323.816467</ele>
        <time>2022-08-13T05:40:05Z</time>
      </trkpt>
      <trkpt lat="43.16967" lon="5.89184">
        <ele>324.29303</ele>
        <time>2022-08-13T05:40:07Z</time>
      </trkpt>
      <trkpt lat="43.16968" lon="5.8917">
        <ele>325.241638</ele>
        <time>2022-08-13T05:40:09Z</time>
      </trkpt>
      <trkpt lat="43.16969" lon="5.89159">
        <ele>325.714172</ele>
        <time>2022-08-13T05:40:11Z</time>
      </trkpt>
      <trkpt lat="43.16968" lon="5.89146">
        <ele>326.659485</ele>
        <time>2022-08-13T05:40:13Z</time>
      </trkpt>
      <trkpt lat="43.16966" lon="5.89135">
        <ele>327.610657</ele>
        <time>2022-08-13T05:40:15Z</time>
      </trkpt>
      <trkpt lat="43.16966" lon="5.89123">
        <ele>328.08902</ele>
        <time>2022-08-13T05:40:17Z</time>
      </trkpt>
      <trkpt lat="43.16967" lon="5.8911">
        <ele>329.051941</ele>
        <time>2022-08-13T05:40:19Z</time>
      </trkpt>
      <trkpt lat="43.16967" lon="5.89098">
        <ele>329.53717</ele>
        <time>2022-08-13T05:40:21Z</time>
      </trkpt>
      <trkpt lat="43.16968" lon="5.89087">
        <ele>330.519257</ele>
        <time>2022-08-13T05:40:23Z</time>
      </trkpt>
      <trkpt lat="43.16969" lon="5.89075">
        <ele>331.017365</ele>
        <time>2022-08-13T05:40:25Z</time>
      </trkpt>
      <trkpt lat="43.16967" lon="5.89061">
        <ele>332.03009</ele>
        <time>2022-08-13T05:40:27Z</time>
      </trkpt>
      <trkpt lat="43.16962" lon="5.89051">
        <ele>332.546021</ele>
        <time>2022-08-13T05:40:29Z</time>
      </trkpt>
      <trkpt lat="43.16955" lon="5.89042">
        <ele>333.597809</ele>
        <time>2022-08-13T05:40:31Z</time>
      </trkpt>
      <trkpt lat="43.1695" lon="5.89034">
        <ele>334.672302</ele>
        <time>2022-08-13T05:40:33Z</time>
      </trkpt>
      <trkpt lat="43.16943" lon="5.89024">
        <ele>335.214233</ele>
        <time>2022-08-13T05:40:35Z</time>
      </trkpt>
      <trkpt lat="43.16937" lon="5.89014">
        <ele>336.300964</ele>
        <time>2022-08-13T05:40:37Z</time>
      </trkpt>
      <trkpt lat="43.16931" lon="5.89006">
        <ele>336.844269</ele>
        <time>2022-08-13T05:40:39Z</time>
      </trkpt>
      <trkpt lat="43.16926" lon="5.88996">
        <ele>337.936584</ele>
        <time>2022-08-13T05:40:41Z</time>
      </trkpt>
      <trkpt lat="43.1692" lon="5.88987">
        <ele>338.490753</ele>
        <time>2022-08-13T05:40:43Z</time>
      </trkpt>
      <trkpt lat="43.16914" lon="5.88978">
        <ele>339.630188</ele>
        <time>2022-08-13T05:40:45Z</time>
      </trkpt>
      <trkpt lat="43.16908" lon="5.88968">
        <ele>340.818817</ele>
        <time>2022-08-13T05:40:47Z</time>
      </trkpt>
      <trkpt lat="43.16905" lon="5.88957">
        <ele>341.431793</ele>
        <time>2022-08-13T05:40:49Z</time>
      </trkpt>
      <trkpt lat="43.16908" lon="5.88946">
        <ele>342.691986</ele>
        <time>2022-08-13T05:40:51Z</time>
      </trkpt>
      <trkpt lat="43.16914" lon="5.8894">
        <ele>343.336121</ele>
        <time>2022-08-13T05:40:53Z</time>
      </trkpt>
      <trkpt lat="43.16922" lon="5.88944">
        <ele>344.635803</ele>
        <time>2022-08-13T05:40:55Z</time>
      </trkpt>
      <trkpt lat="43.16926" lon="5.88952">
        <ele>345.918365</ele>
        <time>2022-08-13T05:40:57Z</time>
      </trkpt>
      <trkpt lat="43.16932" lon="5.88962">
        <ele>346.541931</ele>
        <time>2022-08-13T05:40:59Z</time>
      </trkpt>
      <trkpt lat="43.16938" lon="5.88971">
        <ele>347.729431</ele>
        <time>2022-08-13T05:41:01Z</time>
      </trkpt>
      <trkpt lat="43.16944" lon="5.88981">
        <ele>348.284088</ele>
        <time>2022-08-13T05:41:03Z</time>
      </trkpt>
      <trkpt lat="43.16951" lon="5.88988">
        <ele>349.295868</ele>
        <time>2022-08-13T05:41:05Z</time>
      </trkpt>
      <trkpt lat="43.16957" lon="5.88993">
        <ele>349.748962</ele>
        <time>2022-08-13T05:41:07Z</time>
      </trkpt>
      <trkpt lat="43.16966" lon="5.88996">
        <ele>350.554993</ele>
        <time>2022-08-13T05:41:09Z</time>
      </trkpt>
      <trkpt lat="43.16976" lon="5.88999">
        <ele>351.251007</ele>
        <time>2022-08-13T05:41:11Z</time>
      </trkpt>
      <trkpt lat="43.16985" lon="5.88999">
        <ele>351.566711</ele>
        <time>2022-08-13T05:41:13Z</time>
      </trkpt>
      <trkpt lat="43.16993" lon="5.89">
        <ele>352.148376</ele>
        <time>2022-08-13T05:41:15Z</time>
      </trkpt>
      <trkpt lat="43.17001" lon="5.89004">
        <ele>352.419495</ele>
        <time>2022-08-13T05:41:17Z</time>
      </trkpt>
      <trkpt lat="43.17007" lon="5.89014">
        <ele>352.927551</ele>
        <time>2022-08-13T05:41:19Z</time>
      </trkpt>
      <trkpt lat="43.17011" lon="5.89026">
        <ele>353.162811</ele>
        <time>2022-08-13T05:41:21Z</time>
      </trkpt>
      <trkpt lat="43.17013" lon="5.89038">
        <ele>353.588928</ele>
        <time>2022-08-13T05:41:23Z</time>
      </trkpt>
      <trkpt lat="43.17016" lon="5.8905">
        <ele>353.945923</ele>
        <time>2022-08-13T05:41:25Z</time>
      </trkpt>
      <trkpt lat="43.17019" lon="5.89061">
        <ele>354.095245</ele>
        <time>2022-08-13T05:41:27Z</time>
      </trkpt>
      <trkpt lat="43.17022" lon="5.89073">
        <ele>354.333282</ele>
        <time>2022-08-13T05:41:29Z</time>
      </trkpt>
      <trkpt lat="43.17025" lon="5.89084">
        <ele>354.420349</ele>
        <time>2022-08-13T05:41:31Z</time>
      </trkpt>
      <trkpt lat="43.17027" lon="5.89096">
        <ele>354.519318</ele>
        <time>2022-08-13T05:41:33Z</time>
      </trkpt>
      <trkpt lat="43.17027" lon="5.89108">
        <ele>354.524689</ele>
        <time>2022-08-13T05:41:35Z</time>
      </trkpt>
      <trkpt lat="43.17028" lon="5.89119">
        <ele>354.429901</ele>
        <time>2022-08-13T05:41:37Z</time>
      </trkpt>
      <trkpt lat="43.17029" lon="5.89131">
        <ele>354.178497</ele>
        <time>2022-08-13T05:41:39Z</time>
      </trkpt>
      <trkpt lat="43.17031" lon="5.89143">
        <ele>353.990662</ele>
        <time>2022-08-13T05:41:41Z</time>
      </trkpt>
      <trkpt lat="43.17034" lon="5.89153">
        <ele>353.492126</ele>
        <time>2022-08-13T05:41:43Z</time>
      </trkpt>
      <trkpt lat="43.17038" lon="5.89162">
        <ele>353.186096</ele>
        <time>2022-08-13T05:41:45Z</time>
      </trkpt>
      <trkpt lat="43.17043" lon="5.89172">
        <ele>352.48941</ele>
        <time>2022-08-13T05:41:47Z</time>
      </trkpt>
      <trkpt lat="43.17048" lon="5.89181">
        <ele>352.113922</ele>
        <time>2022-08-13T05:41:49Z</time>
      </trkpt>
      <trkpt lat="43.1705" lon="5.89193">
        <ele>351.352386</ele>
        <time>2022-08-13T05:41:51Z</time>
      </trkpt>
      <trkpt lat="43.17053" lon="5.89206">
        <ele>350.981598</ele>
        <time>2022-08-13T05:41:53Z</time>
      </trkpt>
      <trkpt lat="43.17056" lon="5.89218">
        <ele>350.284424</ele>
        <time>2022-08-13T05:41:55Z</time>
      </trkpt>
      <trkpt lat="43.17057" lon="5.8923">
        <ele>349.664429</ele>
        <time>2022-08-13T05:41:57Z</time>
      </trkpt>
      <trkpt lat="43.17056" lon="5.89242">
        <ele>349.38327</ele>
        <time>2022-08-13T05:41:59Z</time>
      </trkpt>
      <trkpt lat="43.17054" lon="5.89255">
        <ele>348.863037</ele>
        <time>2022-08-13T05:42:01Z</time>
      </trkpt>
      <trkpt lat="43.17053" lon="5.89268">
        <ele>348.614197</ele>
        <time>2022-08-13T05:42:03Z</time>
      </trkpt>
      <trkpt lat="43.17053" lon="5.8928">
        <ele>348.11377</ele>
        <time>2022-08-13T05:42:05Z</time>
      </trkpt>
      <trkpt lat="43.17053" lon="5.89293">
        <ele>347.852692</ele>
        <time>2022-08-13T05:42:07Z</time>
      </trkpt>
      <trkpt lat="43.17052" lon="5.89306">
        <ele>347.294678</ele>
        <time>2022-08-13T05:42:09Z</time>
      </trkpt>
      <trkpt lat="43.17051" lon="5.8932">
        <ele>346.690521</ele>
        <time>2022-08-13T05:42:11Z</time>
      </trkpt>
      <trkpt lat="43.17052" lon="5.89333">
        <ele>346.376465</ele>
        <time>2022-08-13T05:42:13Z</time>
      </trkpt>
      <trkpt lat="43.17054" lon="5.89345">
        <ele>345.738953</ele>
        <time>2022-08-13T05:42:15Z</time>
      </trkpt>
      <trkpt lat="43.17061" lon="5.89346">
        <ele>345.424316</ele>
        <time>2022-08-13T05:42:17Z</time>
      </trkpt>
      <trkpt lat="43.17064" lon="5.89337">
        <ele>344.830261</ele>
        <time>2022-08-13T05:42:19Z</time>
      </trkpt>
      <trkpt lat="43.17064" lon="5.89326">
        <ele>344.562256</ele>
        <time>2022-08-13T05:42:21Z</time>
      </trkpt>
      <trkpt lat="43.17062" lon="5.89314">
        <ele>344.098785</ele>
        <time>2022-08-13T05:42:23Z</time>
      </trkpt>
      <trkpt lat="43.17061" lon="5.89302">
        <ele>343.724365</ele>
        <time>2022-08-13T05:42:25Z</time>
      </trkpt>
      <trkpt lat="43.17062" lon="5.8929">
        <ele>343.564789</ele>
        <time>2022-08-13T05:42:27Z</time>
      </trkpt>
      <trkpt lat="43.17063" lon="5.89278">
        <ele>343.29425</ele>
        <time>2022-08-13T05:42:29Z</time>
      </trkpt>
      <trkpt lat="43.17065" lon="5.89267">
        <ele>343.184326</ele>
        <time>2022-08-13T05:42:31Z</time>
      </trkpt>
      <trkpt lat="43.17068" lon="5.89256">
        <ele>343.025482</ele>
        <time>2022-08-13T05:42:33Z</time>
      </trkpt>
      <trkpt lat="43.17071" lon="5.89245">
        <ele>342.963623</ele>
        <time>2022-08-13T05:42:35Z</time>
      </trkpt>
      <trkpt lat="43.17074" lon="5.89234">
        <ele>342.971527</ele>
        <time>2022-08-13T05:42:37Z</time>
      </trkpt>
      <trkpt lat="43.17076" lon="5.89222">
        <ele>343.056091</ele>
        <time>2022-08-13T05:42:39Z</time>
      </trkpt>
      <trkpt lat="43.17077" lon="5.89211">
        <ele>343.124847</ele>
        <time>2022-08-13T05:42:41Z</time>
      </trkpt>
      <trkpt lat="43.17077" lon="5.89199">
        <ele>343.295074</ele>
        <time>2022-08-13T05:42:43Z</time>
      </trkpt>
      <trkpt lat="43.17076" lon="5.89188">
        <ele>343.391449</ele>
        <time>2022-08-13T05:42:45Z</time>
      </trkpt>
      <trkpt lat="43.17076" lon="5.89177">
        <ele>343.60199</ele>
        <time>2022-08-13T05:42:47Z</time>
      </trkpt>
      <trkpt lat="43.17075" lon="5.89166">
        <ele>343.836884</ele>
        <time>2022-08-13T05:42:49Z</time>
      </trkpt>
      <trkpt lat="43.17076" lon="5.89156">
        <ele>343.964111</ele>
        <time>2022-08-13T05:42:51Z</time>
      </trkpt>
      <trkpt lat="43.17076" lon="5.89145">
        <ele>344.240753</ele>
        <time>2022-08-13T05:42:53Z</time>
      </trkpt>
      <trkpt lat="43.17077" lon="5.89133">
        <ele>344.393005</ele>
        <time>2022-08-13T05:42:55Z</time>
      </trkpt>
      <trkpt lat="43.17077" lon="5.89122">
        <ele>344.738708</ele>
        <time>2022-08-13T05:42:57Z</time>
      </trkpt>
      <trkpt lat="43.17078" lon="5.89111">
        <ele>345.160645</ele>
        <time>2022-08-13T05:42:59Z</time>
      </trkpt>
      <trkpt lat="43.17083" lon="5.89101">
        <ele>345.407745</ele>
        <time>2022-08-13T05:43:01Z</time>
      </trkpt>
      <trkpt lat="43.17086" lon="5.89091">
        <ele>345.99176</ele>
        <time>2022-08-13T05:43:03Z</time>
      </trkpt>
      <trkpt lat="43.17088" lon="5.89081">
        <ele>346.337372</ele>
        <time>2022-08-13T05:43:05Z</time>
      </trkpt>
      <trkpt lat="43.17087" lon="5.89071">
        <ele>347.151733</ele>
        <time>2022-08-13T05:43:07Z</time>
      </trkpt>
      <trkpt lat="43.17085" lon="5.89061">
        <ele>347.615662</ele>
        <time>2022-08-13T05:43:09Z</time>
      </trkpt>
      <trkpt lat="43.17082" lon="5.89051">
        <ele>348.615479</ele>
        <time>2022-08-13T05:43:11Z</time>
      </trkpt>
      <trkpt lat="43.17081" lon="5.8904">
        <ele>349.656311</ele>
        <time>2022-08-13T05:43:13Z</time>
      </trkpt>
      <trkpt lat="43.17082" lon="5.8903">
        <ele>350.185303</ele>
        <time>2022-08-13T05:43:15Z</time>
      </trkpt>
      <trkpt lat="43.17083" lon="5.8902">
        <ele>351.278351</ele>
        <time>2022-08-13T05:43:17Z</time>
      </trkpt>
      <trkpt lat="43.17083" lon="5.89006">
        <ele>351.852661</ele>
        <time>2022-08-13T05:43:19Z</time>
      </trkpt>
      <trkpt lat="43.17083" lon="5.88994">
        <ele>353.076355</ele>
        <time>2022-08-13T05:43:21Z</time>
      </trkpt>
      <trkpt lat="43.17084" lon="5.88983">
        <ele>353.727844</ele>
        <time>2022-08-13T05:43:23Z</time>
      </trkpt>
      <trkpt lat="43.17085" lon="5.88972">
        <ele>355.105225</ele>
        <time>2022-08-13T05:43:25Z</time>
      </trkpt>
      <trkpt lat="43.17086" lon="5.8896">
        <ele>356.572235</ele>
        <time>2022-08-13T05:43:27Z</time>
      </trkpt>
      <trkpt lat="43.17088" lon="5.88949">
        <ele>357.337708</ele>
        <time>2022-08-13T05:43:29Z</time>
      </trkpt>
      <trkpt lat="43.1709" lon="5.88938">
        <ele>358.9328</ele>
        <time>2022-08-13T05:43:31Z</time>
      </trkpt>
      <trkpt lat="43.17088" lon="5.88925">
        <ele>359.764954</ele>
        <time>2022-08-13T05:43:33Z</time>
      </trkpt>
      <trkpt lat="43.17085" lon="5.88914">
        <ele>361.502594</ele>
        <time>2022-08-13T05:43:35Z</time>
      </trkpt>
      <trkpt lat="43.17078" lon="5.88902">
        <ele>362.40509</ele>
        <time>2022-08-13T05:43:37Z</time>
      </trkpt>
      <trkpt lat="43.1707" lon="5.88893">
        <ele>364.255371</ele>
        <time>2022-08-13T05:43:39Z</time>
      </trkpt>
      <trkpt lat="43.17062" lon="5.88884">
        <ele>366.12915</ele>
        <time>2022-08-13T05:43:41Z</time>
      </trkpt>
      <trkpt lat="43.17055" lon="5.88876">
        <ele>367.063568</ele>
        <time>2022-08-13T05:43:43Z</time>
      </trkpt>
      <trkpt lat="43.17048" lon="5.88869">
        <ele>368.906189</ele>
        <time>2022-08-13T05:43:45Z</time>
      </trkpt>
      <trkpt lat="43.1704" lon="5.8886">
        <ele>369.807037</ele>
        <time>2022-08-13T05:43:47Z</time>
      </trkpt>
      <trkpt lat="43.17035" lon="5.88849">
        <ele>371.549164</ele>
        <time>2022-08-13T05:43:49Z</time>
      </trkpt>
      <trkpt lat="43.17034" lon="5.88837">
        <ele>372.383484</ele>
        <time>2022-08-13T05:43:51Z</time>
      </trkpt>
      <trkpt lat="43.17036" lon="5.88825">
        <ele>373.966248</ele>
        <time>2022-08-13T05:43:53Z</time>
      </trkpt>
      <trkpt lat="43.17038" lon="5.88814">
        <ele>375.432281</ele>
        <time>2022-08-13T05:43:55Z</time>
      </trkpt>
      <trkpt lat="43.1704" lon="5.88803">
        <ele>376.123718</ele>
        <time>2022-08-13T05:43:57Z</time>
      </trkpt>
      <trkpt lat="43.17043" lon="5.8879">
        <ele>377.438873</ele>
        <time>2022-08-13T05:43:59Z</time>
      </trkpt>
      <trkpt lat="43.17048" lon="5.88777">
        <ele>378.073303</ele>
        <time>2022-08-13T05:44:01Z</time>
      </trkpt>
      <trkpt lat="43.17055" lon="5.88763">
        <ele>379.329987</ele>
        <time>2022-08-13T05:44:03Z</time>
      </trkpt>
      <trkpt lat="43.17066" lon="5.88752">
        <ele>379.963715</ele>
        <time>2022-08-13T05:44:05Z</time>
      </trkpt>
      <trkpt lat="43.17077" lon="5.88737">
        <ele>381.256531</ele>
        <time>2022-08-13T05:44:07Z</time>
      </trkpt>
      <trkpt lat="43.17086" lon="5.88717">
        <ele>382.578125</ele>
        <time>2022-08-13T05:44:09Z</time>
      </trkpt>
      <trkpt lat="43.17092" lon="5.88695">
        <ele>383.242432</ele>
        <time>2022-08-13T05:44:11Z</time>
      </trkpt>
      <trkpt lat="43.17099" lon="5.88671">
        <ele>384.556549</ele>
        <time>2022-08-13T05:44:13Z</time>
      </trkpt>
      <trkpt lat="43.17105" lon="5.88645">
        <ele>385.19696</ele>
        <time>2022-08-13T05:44:15Z</time>
      </trkpt>
      <trkpt lat="43.17112" lon="5.88619">
        <ele>386.42334</ele>
        <time>2022-08-13T05:44:17Z</time>
      </trkpt>
      <trkpt lat="43.17122" lon="5.88594">
        <ele>387.552643</ele>
        <time>2022-08-13T05:44:19Z</time>
      </trkpt>
      <trkpt lat="43.17138" lon="5.88575">
        <ele>388.073242</ele>
        <time>2022-08-13T05:44:21Z</time>
      </trkpt>
      <trkpt lat="43.17157" lon="5.88559">
        <ele>388.559479</ele>
        <time>2022-08-13T05:44:23Z</time>
      </trkpt>
      <trkpt lat="43.17176" lon="5.88543">
        <ele>389.410492</ele>
        <time>2022-08-13T05:44:25Z</time>
      </trkpt>
      <trkpt lat="43.17195" lon="5.88526">
        <ele>390.078949</ele>
        <time>2022-08-13T05:44:27Z</time>
      </trkpt>
      <trkpt lat="43.17212" lon="5.88507">
        <ele>390.343445</ele>
        <time>2022-08-13T05:44:29Z</time>
      </trkpt>
      <trkpt lat="43.17229" lon="5.8849">
        <ele>390.74118</ele>
        <time>2022-08-13T05:44:31Z</time>
      </trkpt>
      <trkpt lat="43.17249" lon="5.88478">
        <ele>390.876404</ele>
        <time>2022-08-13T05:44:33Z</time>
      </trkpt>
      <trkpt lat="43.17269" lon="5.88463">
        <ele>391.024506</ele>
        <time>2022-08-13T05:44:35Z</time>
      </trkpt>
      <trkpt lat="43.17287" lon="5.88444">
        <ele>391.039948</ele>
        <time>2022-08-13T05:44:37Z</time>
      </trkpt>
      <trkpt lat="43.17303" lon="5.88429">
        <ele>390.952393</ele>
        <time>2022-08-13T05:44:39Z</time>
      </trkpt>
      <trkpt lat="43.17316" lon="5.88424">
        <ele>390.690521</ele>
        <time>2022-08-13T05:44:41Z</time>
      </trkpt>
      <trkpt lat="43.17329" lon="5.88429">
        <ele>390.490387</ele>
        <time>2022-08-13T05:44:43Z</time>
      </trkpt>
      <trkpt lat="43.17344" lon="5.88425">
        <ele>389.952484</ele>
        <time>2022-08-13T05:44:45Z</time>
      </trkpt>
      <trkpt lat="43.17356" lon="5.88412">
        <ele>389.618011</ele>
        <time>2022-08-13T05:44:47Z</time>
      </trkpt>
      <trkpt lat="43.17367" lon="5.88395">
        <ele>388.816711</ele>
        <time>2022-08-13T05:44:49Z</time>
      </trkpt>
      <trkpt lat="43.17379" lon="5.88376">
        <ele>387.827728</ele>
        <time>2022-08-13T05:44:51Z</time>
      </trkpt>
      <trkpt lat="43.17384" lon="5.8835">
        <ele>387.258789</ele>
        <time>2022-08-13T05:44:53Z</time>
      </trkpt>
      <trkpt lat="43.17387" lon="5.88322">
        <ele>385.971283</ele>
        <time>2022-08-13T05:44:55Z</time>
      </trkpt>
      <trkpt lat="43.17392" lon="5.88292">
        <ele>385.249817</ele>
        <time>2022-08-13T05:44:57Z</time>
      </trkpt>
      <trkpt lat="43.17399" lon="5.88262">
        <ele>383.633636</ele>
        <time>2022-08-13T05:44:59Z</time>
      </trkpt>
      <trkpt lat="43.17406" lon="5.88231">
        <ele>382.73407</ele>
        <time>2022-08-13T05:45:01Z</time>
      </trkpt>
      <trkpt lat="43.17414" lon="5.88199">
        <ele>380.761322</ele>
        <time>2022-08-13T05:45:03Z</time>
      </trkpt>
      <trkpt lat="43.17423" lon="5.88168">
        <ele>378.592682</ele>
        <time>2022-08-13T05:45:05Z</time>
      </trkpt>
      <trkpt lat="43.17431" lon="5.88135">
        <ele>377.448334</ele>
        <time>2022-08-13T05:45:07Z</time>
      </trkpt>
      <trkpt lat="43.17437" lon="5.88101">
        <ele>375.059845</ele>
        <time>2022-08-13T05:45:09Z</time>
      </trkpt>
      <trkpt lat="43.17445" lon="5.88068">
        <ele>373.821655</ele>
        <time>2022-08-13T05:45:11Z</time>
      </trkpt>
      <trkpt lat="43.17453" lon="5.88034">
        <ele>371.268005</ele>
        <time>2022-08-13T05:45:13Z</time>
      </trkpt>
      <trkpt lat="43.1746" lon="5.87998">
        <ele>369.957336</ele>
        <time>2022-08-13T05:45:15Z</time>
      </trkpt>
      <trkpt lat="43.17466" lon="5.87963">
        <ele>367.277283</ele>
        <time>2022-08-13T05:45:17Z</time>
      </trkpt>
      <trkpt lat="43.17472" lon="5.87926">
        <ele>365.910797</ele>
        <time>2022-08-13T05:45:19Z</time>
      </trkpt>
      <trkpt lat="43.17478" lon="5.87889">
        <ele>363.134155</ele>
        <time>2022-08-13T05:45:21Z</time>
      </trkpt>
      <trkpt lat="43.17486" lon="5.87853">
        <ele>360.319641</ele>
        <time>2022-08-13T05:45:23Z</time>
      </trkpt>
      <trkpt lat="43.17493" lon="5.87817">
        <ele>358.906982</ele>
        <time>2022-08-13T05:45:25Z</time>
      </trkpt>
      <trkpt lat="43.17501" lon="5.8778">
        <ele>356.088715</ele>
        <time>2022-08-13T05:45:27Z</time>
      </trkpt>
      <trkpt lat="43.17508" lon="5.87745">
        <ele>354.693024</ele>
        <time>2022-08-13T05:45:29Z</time>
      </trkpt>
      <trkpt lat="43.17515" lon="5.87714">
        <ele>351.975739</ele>
        <time>2022-08-13T05:45:31Z</time>
      </trkpt>
      <trkpt lat="43.17519" lon="5.87684">
        <ele>350.672913</ele>
        <time>2022-08-13T05:45:33Z</time>
      </trkpt>
      <trkpt lat="43.17518" lon="5.87654">
        <ele>348.202972</ele>
        <time>2022-08-13T05:45:35Z</time>
      </trkpt>
      <trkpt lat="43.17508" lon="5.87626">
        <ele>345.886627</ele>
        <time>2022-08-13T05:45:37Z</time>
      </trkpt>
      <trkpt lat="43.175" lon="5.87602">
        <ele>344.766846</ele>
        <time>2022-08-13T05:45:39Z</time>
      </trkpt>
      <trkpt lat="43.17498" lon="5.87581">
        <ele>342.573578</ele>
        <time>2022-08-13T05:45:41Z</time>
      </trkpt>
      <trkpt lat="43.17503" lon="5.87561">
        <ele>341.494965</ele>
        <time>2022-08-13T05:45:43Z</time>
      </trkpt>
      <trkpt lat="43.17514" lon="5.87543">
        <ele>339.372711</ele>
        <time>2022-08-13T05:45:45Z</time>
      </trkpt>
      <trkpt lat="43.17528" lon="5.87527">
        <ele>338.330566</ele>
        <time>2022-08-13T05:45:47Z</time>
      </trkpt>
      <trkpt lat="43.17541" lon="5.8751">
        <ele>336.297455</ele>
        <time>2022-08-13T05:45:49Z</time>
      </trkpt>
      <trkpt lat="43.17548" lon="5.87495">
        <ele>334.349609</ele>
        <time>2022-08-13T05:45:51Z</time>
      </trkpt>
      <trkpt lat="43.17546" lon="5.8748">
        <ele>333.405609</ele>
        <time>2022-08-13T05:45:53Z</time>
      </trkpt>
      <trkpt lat="43.17538" lon="5.87465">
        <ele>331.55957</ele>
        <time>2022-08-13T05:45:55Z</time>
      </trkpt>
      <trkpt lat="43.1753" lon="5.87454">
        <ele>330.651276</ele>
        <time>2022-08-13T05:45:57Z</time>
      </trkpt>
      <trkpt lat="43.17524" lon="5.8744">
        <ele>328.863831</ele>
        <time>2022-08-13T05:45:59Z</time>
      </trkpt>
      <trkpt lat="43.17519" lon="5.87422">
        <ele>327.125</ele>
        <time>2022-08-13T05:46:01Z</time>
      </trkpt>
      <trkpt lat="43.17518" lon="5.87401">
        <ele>326.278137</ele>
        <time>2022-08-13T05:46:03Z</time>
      </trkpt>
      <trkpt lat="43.17518" lon="5.8738">
        <ele>324.633728</ele>
        <time>2022-08-13T05:46:05Z</time>
      </trkpt>
      <trkpt lat="43.17516" lon="5.87359">
        <ele>323.836609</ele>
        <time>2022-08-13T05:46:07Z</time>
      </trkpt>
      <trkpt lat="43.17515" lon="5.87336">
        <ele>322.291534</ele>
        <time>2022-08-13T05:46:09Z</time>
      </trkpt>
      <trkpt lat="43.17514" lon="5.87313">
        <ele>321.543671</ele>
        <time>2022-08-13T05:46:11Z</time>
      </trkpt>
      <trkpt lat="43.17513" lon="5.87293">
        <ele>320.097961</ele>
        <time>2022-08-13T05:46:13Z</time>
      </trkpt>
      <trkpt lat="43.17505" lon="5.87275">
        <ele>318.718384</ele>
        <time>2022-08-13T05:46:15Z</time>
      </trkpt>
      <trkpt lat="43.17494" lon="5.8726">
        <ele>318.053253</ele>
        <time>2022-08-13T05:46:17Z</time>
      </trkpt>
      <trkpt lat="43.17482" lon="5.87246">
        <ele>316.769501</ele>
        <time>2022-08-13T05:46:19Z</time>
      </trkpt>
      <trkpt lat="43.1747" lon="5.87232">
        <ele>316.145874</ele>
        <time>2022-08-13T05:46:21Z</time>
      </trkpt>
      <trkpt lat="43.17457" lon="5.87218">
        <ele>314.913025</ele>
        <time>2022-08-13T05:46:23Z</time>
      </trkpt>
      <trkpt lat="43.17445" lon="5.87203">
        <ele>314.294128</ele>
        <time>2022-08-13T05:46:25Z</time>
      </trkpt>
      <trkpt lat="43.17431" lon="5.87188">
        <ele>313.038849</ele>
        <time>2022-08-13T05:46:27Z</time>
      </trkpt>
      <trkpt lat="43.17416" lon="5.87173">
        <ele>312.403412</ele>
        <time>2022-08-13T05:46:29Z</time>
      </trkpt>
      <trkpt lat="43.17402" lon="5.87157">
        <ele>311.131989</ele>
        <time>2022-08-13T05:46:31Z</time>
      </trkpt>
      <trkpt lat="43.1739" lon="5.8714">
        <ele>309.881592</ele>
        <time>2022-08-13T05:46:33Z</time>
      </trkpt>
      <trkpt lat="43.17381" lon="5.87121">
        <ele>309.267761</ele>
        <time>2022-08-13T05:46:35Z</time>
      </trkpt>
      <trkpt lat="43.17373" lon="5.87101">
        <ele>308.057343</ele>
        <time>2022-08-13T05:46:37Z</time>
      </trkpt>
      <trkpt lat="43.17368" lon="5.87084">
        <ele>307.456726</ele>
        <time>2022-08-13T05:46:39Z</time>
      </trkpt>
      <trkpt lat="43.17363" lon="5.87067">
        <ele>306.257355</ele>
        <time>2022-08-13T05:46:41Z</time>
      </trkpt>
      <trkpt lat="43.17354" lon="5.87051">
        <ele>305.658386</ele>
        <time>2022-08-13T05:46:43Z</time>
      </trkpt>
      <trkpt lat="43.17346" lon="5.87035">
        <ele>304.469849</ele>
        <time>2022-08-13T05:46:45Z</time>
      </trkpt>
      <trkpt lat="43.17339" lon="5.87019">
        <ele>303.3078</ele>
        <time>2022-08-13T05:46:47Z</time>
      </trkpt>
      <trkpt lat="43.17332" lon="5.87001">
        <ele>302.739075</ele>
        <time>2022-08-13T05:46:49Z</time>
      </trkpt>
      <trkpt lat="43.17326" lon="5.86982">
        <ele>301.620178</ele>
        <time>2022-08-13T05:46:51Z</time>
      </trkpt>
      <trkpt lat="43.1732" lon="5.86963">
        <ele>301.065582</ele>
        <time>2022-08-13T05:46:53Z</time>
      </trkpt>
      <trkpt lat="43.17315" lon="5.86943">
        <ele>299.958313</ele>
        <time>2022-08-13T05:46:55Z</time>
      </trkpt>
      <trkpt lat="43.1731" lon="5.86924">
        <ele>299.406067</ele>
        <time>2022-08-13T05:46:57Z</time>
      </trkpt>
      <trkpt lat="43.17305" lon="5.86904">
        <ele>298.314636</ele>
        <time>2022-08-13T05:46:59Z</time>
      </trkpt>
      <trkpt lat="43.17301" lon="5.86885">
        <ele>297.782776</ele>
        <time>2022-08-13T05:47:01Z</time>
      </trkpt>
      <trkpt lat="43.17296" lon="5.86865">
        <ele>296.764893</ele>
        <time>2022-08-13T05:47:03Z</time>
      </trkpt>
      <trkpt lat="43.17292" lon="5.86845">
        <ele>295.82605</ele>
        <time>2022-08-13T05:47:05Z</time>
      </trkpt>
      <trkpt lat="43.17289" lon="5.86824">
        <ele>295.390015</ele>
        <time>2022-08-13T05:47:07Z</time>
      </trkpt>
      <trkpt lat="43.17285" lon="5.86802">
        <ele>294.585754</ele>
        <time>2022-08-13T05:47:09Z</time>
      </trkpt>
      <trkpt lat="43.17281" lon="5.86779">
        <ele>294.216095</ele>
        <time>2022-08-13T05:47:11Z</time>
      </trkpt>
      <trkpt lat="43.17276" lon="5.86756">
        <ele>293.536438</ele>
        <time>2022-08-13T05:47:13Z</time>
      </trkpt>
      <trkpt lat="43.17272" lon="5.86733">
        <ele>293.225769</ele>
        <time>2022-08-13T05:47:15Z</time>
      </trkpt>
      <trkpt lat="43.17267" lon="5.86712">
        <ele>292.665924</ele>
        <time>2022-08-13T05:47:17Z</time>
      </trkpt>
      <trkpt lat="43.17258" lon="5.86695">
        <ele>292.19812</ele>
        <time>2022-08-13T05:47:19Z</time>
      </trkpt>
      <trkpt lat="43.17247" lon="5.86684">
        <ele>292.002472</ele>
        <time>2022-08-13T05:47:21Z</time>
      </trkpt>
      <trkpt lat="43.17235" lon="5.86678">
        <ele>291.689514</ele>
        <time>2022-08-13T05:47:23Z</time>
      </trkpt>
      <trkpt lat="43.17225" lon="5.86672">
        <ele>291.569824</ele>
        <time>2022-08-13T05:47:25Z</time>
      </trkpt>
      <trkpt lat="43.17214" lon="5.86666">
        <ele>291.394348</ele>
        <time>2022-08-13T05:47:27Z</time>
      </trkpt>
      <trkpt lat="43.17204" lon="5.8666">
        <ele>291.335236</ele>
        <time>2022-08-13T05:47:29Z</time>
      </trkpt>
      <trkpt lat="43.17194" lon="5.86655">
        <ele>291.281799</ele>
        <time>2022-08-13T05:47:31Z</time>
      </trkpt>
      <trkpt lat="43.17184" lon="5.8665">
        <ele>291.349426</ele>
        <time>2022-08-13T05:47:33Z</time>
      </trkpt>
      <trkpt lat="43.17174" lon="5.86645">
        <ele>291.443665</ele>
        <time>2022-08-13T05:47:35Z</time>
      </trkpt>
      <trkpt lat="43.17164" lon="5.8664">
        <ele>291.767883</ele>
        <time>2022-08-13T05:47:37Z</time>
      </trkpt>
      <trkpt lat="43.17154" lon="5.86637">
        <ele>291.99884</ele>
        <time>2022-08-13T05:47:39Z</time>
      </trkpt>
      <trkpt lat="43.17144" lon="5.86637">
        <ele>292.597351</ele>
        <time>2022-08-13T05:47:41Z</time>
      </trkpt>
      <trkpt lat="43.17134" lon="5.86642">
        <ele>292.963318</ele>
        <time>2022-08-13T05:47:43Z</time>
      </trkpt>
      <trkpt lat="43.17127" lon="5.86652">
        <ele>293.81842</ele>
        <time>2022-08-13T05:47:45Z</time>
      </trkpt>
      <trkpt lat="43.17121" lon="5.86665">
        <ele>294.793457</ele>
        <time>2022-08-13T05:47:47Z</time>
      </trkpt>
      <trkpt lat="43.17119" lon="5.86678">
        <ele>295.318787</ele>
        <time>2022-08-13T05:47:49Z</time>
      </trkpt>
      <trkpt lat="43.17116" lon="5.86691">
        <ele>296.413025</ele>
        <time>2022-08-13T05:47:51Z</time>
      </trkpt>
      <trkpt lat="43.17115" lon="5.86704">
        <ele>296.96698</ele>
        <time>2022-08-13T05:47:53Z</time>
      </trkpt>
      <trkpt lat="43.1711" lon="5.86717">
        <ele>298.056274</ele>
        <time>2022-08-13T05:47:55Z</time>
      </trkpt>
      <trkpt lat="43.17104" lon="5.86728">
        <ele>299.094818</ele>
        <time>2022-08-13T05:47:57Z</time>
      </trkpt>
      <trkpt lat="43.17098" lon="5.8674">
        <ele>299.590271</ele>
        <time>2022-08-13T05:47:59Z</time>
      </trkpt>
      <trkpt lat="43.17091" lon="5.86751">
        <ele>300.53241</ele>
        <time>2022-08-13T05:48:01Z</time>
      </trkpt>
      <trkpt lat="43.17085" lon="5.86764">
        <ele>300.980377</ele>
        <time>2022-08-13T05:48:03Z</time>
      </trkpt>
      <trkpt lat="43.17079" lon="5.86775">
        <ele>301.832764</ele>
        <time>2022-08-13T05:48:05Z</time>
      </trkpt>
      <trkpt lat="43.17073" lon="5.86786">
        <ele>302.626404</ele>
        <time>2022-08-13T05:48:07Z</time>
      </trkpt>
      <trkpt lat="43.17069" lon="5.86796">
        <ele>302.998444</ele>
        <time>2022-08-13T05:48:09Z</time>
      </trkpt>
      <trkpt lat="43.17064" lon="5.86805">
        <ele>303.677399</ele>
        <time>2022-08-13T05:48:11Z</time>
      </trkpt>
      <trkpt lat="43.17057" lon="5.86814">
        <ele>303.977692</ele>
        <time>2022-08-13T05:48:13Z</time>
      </trkpt>
      <trkpt lat="43.1705" lon="5.86821">
        <ele>304.490479</ele>
        <time>2022-08-13T05:48:15Z</time>
      </trkpt>
      <trkpt lat="43.17041" lon="5.86824">
        <ele>304.703918</ele>
        <time>2022-08-13T05:48:17Z</time>
      </trkpt>
      <trkpt lat="43.17032" lon="5.86823">
        <ele>305.05365</ele>
        <time>2022-08-13T05:48:19Z</time>
      </trkpt>
      <trkpt lat="43.17024" lon="5.86816">
        <ele>305.302826</ele>
        <time>2022-08-13T05:48:21Z</time>
      </trkpt>
      <trkpt lat="43.17019" lon="5.86808">
        <ele>305.384033</ele>
        <time>2022-08-13T05:48:23Z</time>
      </trkpt>
      <trkpt lat="43.17014" lon="5.86797">
        <ele>305.440491</ele>
        <time>2022-08-13T05:48:25Z</time>
      </trkpt>
      <trkpt lat="43.17011" lon="5.86786">
        <ele>305.411133</ele>
        <time>2022-08-13T05:48:27Z</time>
      </trkpt>
      <trkpt lat="43.17007" lon="5.86776">
        <ele>305.237305</ele>
        <time>2022-08-13T05:48:29Z</time>
      </trkpt>
      <trkpt lat="43.17003" lon="5.86765">
        <ele>304.914154</ele>
        <time>2022-08-13T05:48:31Z</time>
      </trkpt>
      <trkpt lat="43.16999" lon="5.86754">
        <ele>304.698822</ele>
        <time>2022-08-13T05:48:33Z</time>
      </trkpt>
      <trkpt lat="43.16995" lon="5.86742">
        <ele>304.171875</ele>
        <time>2022-08-13T05:48:35Z</time>
      </trkpt>
      <trkpt lat="43.16991" lon="5.86731">
        <ele>303.877136</ele>
        <time>2022-08-13T05:48:37Z</time>
      </trkpt>
      <trkpt lat="43.16986" lon="5.86719">
        <ele>303.235748</ele>
        <time>2022-08-13T05:48:39Z</time>
      </trkpt>
      <trkpt lat="43.16982" lon="5.86708">
        <ele>302.901428</ele>
        <time>2022-08-13T05:48:41Z</time>
      </trkpt>
      <trkpt lat="43.16979" lon="5.86698">
        <ele>302.238037</ele>
        <time>2022-08-13T05:48:43Z</time>
      </trkpt>
      <trkpt lat="43.16974" lon="5.86686">
        <ele>301.615875</ele>
        <time>2022-08-13T05:48:45Z</time>
      </trkpt>
      <trkpt lat="43.1697" lon="5.86674">
        <ele>301.327484</ele>
        <time>2022-08-13T05:48:47Z</time>
      </trkpt>
      <trkpt lat="43.16966" lon="5.86663">
        <ele>300.799164</ele>
        <time>2022-08-13T05:48:49Z</time>
      </trkpt>
      <trkpt lat="43.16961" lon="5.86652">
        <ele>300.558014</ele>
        <time>2022-08-13T05:48:51Z</time>
      </trkpt>
      <trkpt lat="43.16957" lon="5.86642">
        <ele>300.119629</ele>
        <time>2022-08-13T05:48:53Z</time>
      </trkpt>
      <trkpt lat="43.16953" lon="5.86631">
        <ele>299.923157</ele>
        <time>2022-08-13T05:48:55Z</time>
      </trkpt>
      <trkpt lat="43.16947" lon="5.86619">
        <ele>299.580322</ele>
        <time>2022-08-13T05:48:57Z</time>
      </trkpt>
      <trkpt lat="43.16941" lon="5.86609">
        <ele>299.308258</ele>
        <time>2022-08-13T05:48:59Z</time>
      </trkpt>
      <trkpt lat="43.16935" lon="5.86599">
        <ele>299.201416</ele>
        <time>2022-08-13T05:49:01Z</time>
      </trkpt>
      <trkpt lat="43.16927" lon="5.86589">
        <ele>299.054047</ele>
        <time>2022-08-13T05:49:03Z</time>
      </trkpt>
      <trkpt lat="43.1692" lon="5.8658">
        <ele>299.015686</ele>
        <time>2022-08-13T05:49:05Z</time>
      </trkpt>
      <trkpt lat="43.16913" lon="5.86569">
        <ele>299.009186</ele>
        <time>2022-08-13T05:49:07Z</time>
      </trkpt>
      <trkpt lat="43.16907" lon="5.86558">
        <ele>299.037933</ele>
        <time>2022-08-13T05:49:09Z</time>
      </trkpt>
      <trkpt lat="43.16901" lon="5.86548">
        <ele>299.151276</ele>
        <time>2022-08-13T05:49:11Z</time>
      </trkpt>
      <trkpt lat="43.16895" lon="5.86537">
        <ele>299.326324</ele>
        <time>2022-08-13T05:49:13Z</time>
      </trkpt>
      <trkpt lat="43.1689" lon="5.86527">
        <ele>299.431549</ele>
        <time>2022-08-13T05:49:15Z</time>
      </trkpt>
      <trkpt lat="43.16885" lon="5.86516">
        <ele>299.664551</ele>
        <time>2022-08-13T05:49:17Z</time>
      </trkpt>
      <trkpt lat="43.16881" lon="5.86504">
        <ele>299.785736</ele>
        <time>2022-08-13T05:49:19Z</time>
      </trkpt>
      <trkpt lat="43.16878" lon="5.86492">
        <ele>300.014832</ele>
        <time>2022-08-13T05:49:21Z</time>
      </trkpt>
      <trkpt lat="43.16876" lon="5.86479">
        <ele>300.200043</ele>
        <time>2022-08-13T05:49:23Z</time>
      </trkpt>
      <trkpt lat="43.16874" lon="5.86466">
        <ele>300.27124</ele>
        <time>2022-08-13T05:49:25Z</time>
      </trkpt>
      <trkpt lat="43.16873" lon="5.86453">
        <ele>300.373108</ele>
        <time>2022-08-13T05:49:27Z</time>
      </trkpt>
      <trkpt lat="43.16871" lon="5.8644">
        <ele>300.405579</ele>
        <time>2022-08-13T05:49:29Z</time>
      </trkpt>
      <trkpt lat="43.16867" lon="5.86428">
        <ele>300.437439</ele>
        <time>2022-08-13T05:49:31Z</time>
      </trkpt>
      <trkpt lat="43.16864" lon="5.86417">
        <ele>300.437073</ele>
        <time>2022-08-13T05:49:33Z</time>
      </trkpt>
      <trkpt lat="43.1686" lon="5.86405">
        <ele>300.400391</ele>
        <time>2022-08-13T05:49:35Z</time>
      </trkpt>
      <trkpt lat="43.16856" lon="5.86392">
        <ele>300.307892</ele>
        <time>2022-08-13T05:49:37Z</time>
      </trkpt>
      <trkpt lat="43.16852" lon="5.8638">
        <ele>300.237061</ele>
        <time>2022-08-13T05:49:39Z</time>
      </trkpt>
      <trkpt lat="43.1685" lon="5.86367">
        <ele>300.040802</ele>
        <time>2022-08-13T05:49:41Z</time>
      </trkpt>
      <trkpt lat="43.16851" lon="5.86354">
        <ele>299.914215</ele>
        <time>2022-08-13T05:49:43Z</time>
      </trkpt>
      <trkpt lat="43.16852" lon="5.8634">
        <ele>299.608582</ele>
        <time>2022-08-13T05:49:45Z</time>
      </trkpt>
      <trkpt lat="43.16853" lon="5.86326">
        <ele>299.434723</ele>
        <time>2022-08-13T05:49:47Z</time>
      </trkpt>
      <trkpt lat="43.16855" lon="5.86311">
        <ele>299.065063</ele>
        <time>2022-08-13T05:49:49Z</time>
      </trkpt>
      <trkpt lat="43.16856" lon="5.86296">
        <ele>298.690765</ele>
        <time>2022-08-13T05:49:51Z</time>
      </trkpt>
      <trkpt lat="43.16856" lon="5.8628">
        <ele>298.510437</ele>
        <time>2022-08-13T05:49:53Z</time>
      </trkpt>
      <trkpt lat="43.16857" lon="5.86266">
        <ele>298.179443</ele>
        <time>2022-08-13T05:49:55Z</time>
      </trkpt>
      <trkpt lat="43.16856" lon="5.86251">
        <ele>298.033325</ele>
        <time>2022-08-13T05:49:57Z</time>
      </trkpt>
      <trkpt lat="43.16854" lon="5.86238">
        <ele>297.785156</ele>
        <time>2022-08-13T05:49:59Z</time>
      </trkpt>
      <trkpt lat="43.1685" lon="5.86224">
        <ele>297.680847</ele>
        <time>2022-08-13T05:50:01Z</time>
      </trkpt>
      <trkpt lat="43.16844" lon="5.86209">
        <ele>297.495575</ele>
        <time>2022-08-13T05:50:03Z</time>
      </trkpt>
      <trkpt lat="43.16837" lon="5.86195">
        <ele>297.317932</ele>
        <time>2022-08-13T05:50:05Z</time>
      </trkpt>
      <trkpt lat="43.1683" lon="5.86181">
        <ele>297.220459</ele>
        <time>2022-08-13T05:50:07Z</time>
      </trkpt>
      <trkpt lat="43.16824" lon="5.86166">
        <ele>296.985413</ele>
        <time>2022-08-13T05:50:09Z</time>
      </trkpt>
      <trkpt lat="43.16817" lon="5.86151">
        <ele>296.842834</ele>
        <time>2022-08-13T05:50:11Z</time>
      </trkpt>
      <trkpt lat="43.16811" lon="5.86136">
        <ele>296.508301</ele>
        <time>2022-08-13T05:50:13Z</time>
      </trkpt>
      <trkpt lat="43.16806" lon="5.86121">
        <ele>296.112885</ele>
        <time>2022-08-13T05:50:15Z</time>
      </trkpt>
      <trkpt lat="43.16803" lon="5.86104">
        <ele>295.892059</ele>
        <time>2022-08-13T05:50:17Z</time>
      </trkpt>
      <trkpt lat="43.16804" lon="5.86086">
        <ele>295.403809</ele>
        <time>2022-08-13T05:50:19Z</time>
      </trkpt>
      <trkpt lat="43.16805" lon="5.86068">
        <ele>295.143158</ele>
        <time>2022-08-13T05:50:21Z</time>
      </trkpt>
      <trkpt lat="43.16808" lon="5.86049">
        <ele>294.625732</ele>
        <time>2022-08-13T05:50:23Z</time>
      </trkpt>
      <trkpt lat="43.1681" lon="5.86031">
        <ele>294.38913</ele>
        <time>2022-08-13T05:50:25Z</time>
      </trkpt>
      <trkpt lat="43.16813" lon="5.86013">
        <ele>294.006622</ele>
        <time>2022-08-13T05:50:27Z</time>
      </trkpt>
      <trkpt lat="43.16814" lon="5.85996">
        <ele>293.788361</ele>
        <time>2022-08-13T05:50:29Z</time>
      </trkpt>
      <trkpt lat="43.16814" lon="5.85981">
        <ele>293.751862</ele>
        <time>2022-08-13T05:50:31Z</time>
      </trkpt>
      <trkpt lat="43.1681" lon="5.85967">
        <ele>293.824432</ele>
        <time>2022-08-13T05:50:33Z</time>
      </trkpt>
      <trkpt lat="43.16804" lon="5.85952">
        <ele>293.922546</ele>
        <time>2022-08-13T05:50:35Z</time>
      </trkpt>
      <trkpt lat="43.16796" lon="5.85937">
        <ele>294.190277</ele>
        <time>2022-08-13T05:50:37Z</time>
      </trkpt>
      <trkpt lat="43.16789" lon="5.85922">
        <ele>294.335632</ele>
        <time>2022-08-13T05:50:39Z</time>
      </trkpt>
      <trkpt lat="43.1678" lon="5.85907">
        <ele>294.587128</ele>
        <time>2022-08-13T05:50:41Z</time>
      </trkpt>
      <trkpt lat="43.16772" lon="5.85891">
        <ele>294.720917</ele>
        <time>2022-08-13T05:50:43Z</time>
      </trkpt>
      <trkpt lat="43.16765" lon="5.85875">
        <ele>294.72641</ele>
        <time>2022-08-13T05:50:45Z</time>
      </trkpt>
      <trkpt lat="43.1676" lon="5.85856">
        <ele>294.597107</ele>
        <time>2022-08-13T05:50:47Z</time>
      </trkpt>
      <trkpt lat="43.1676" lon="5.85835">
        <ele>294.461395</ele>
        <time>2022-08-13T05:50:49Z</time>
      </trkpt>
      <trkpt lat="43.16762" lon="5.85815">
        <ele>294.075317</ele>
        <time>2022-08-13T05:50:51Z</time>
      </trkpt>
      <trkpt lat="43.16765" lon="5.85796">
        <ele>293.85144</ele>
        <time>2022-08-13T05:50:53Z</time>
      </trkpt>
      <trkpt lat="43.16768" lon="5.85776">
        <ele>293.4328</ele>
        <time>2022-08-13T05:50:55Z</time>
      </trkpt>
      <trkpt lat="43.16771" lon="5.85757">
        <ele>293.162994</ele>
        <time>2022-08-13T05:50:57Z</time>
      </trkpt>
      <trkpt lat="43.16774" lon="5.85738">
        <ele>293.116882</ele>
        <time>2022-08-13T05:50:59Z</time>
      </trkpt>
      <trkpt lat="43.16776" lon="5.85719">
        <ele>293.24704</ele>
        <time>2022-08-13T05:51:01Z</time>
      </trkpt>
      <trkpt lat="43.16778" lon="5.85701">
        <ele>293.434143</ele>
        <time>2022-08-13T05:51:03Z</time>
      </trkpt>
      <trkpt lat="43.16776" lon="5.85685">
        <ele>294.066772</ele>
        <time>2022-08-13T05:51:05Z</time>
      </trkpt>
      <trkpt lat="43.16769" lon="5.85672">
        <ele>294.518738</ele>
        <time>2022-08-13T05:51:07Z</time>
      </trkpt>
      <trkpt lat="43.16758" lon="5.85662">
        <ele>295.707153</ele>
        <time>2022-08-13T05:51:09Z</time>
      </trkpt>
      <trkpt lat="43.16747" lon="5.85652">
        <ele>297.249207</ele>
        <time>2022-08-13T05:51:11Z</time>
      </trkpt>
      <trkpt lat="43.16735" lon="5.85641">
        <ele>298.121002</ele>
        <time>2022-08-13T05:51:13Z</time>
      </trkpt>
      <trkpt lat="43.16723" lon="5.85629">
        <ele>299.986633</ele>
        <time>2022-08-13T05:51:15Z</time>
      </trkpt>
      <trkpt lat="43.1671" lon="5.8562">
        <ele>300.954651</ele>
        <time>2022-08-13T05:51:17Z</time>
      </trkpt>
      <trkpt lat="43.16698" lon="5.85616">
        <ele>302.922119</ele>
        <time>2022-08-13T05:51:19Z</time>
      </trkpt>
      <trkpt lat="43.16685" lon="5.85614">
        <ele>303.905945</ele>
        <time>2022-08-13T05:51:21Z</time>
      </trkpt>
      <trkpt lat="43.16671" lon="5.85615">
        <ele>305.832336</ele>
        <time>2022-08-13T05:51:23Z</time>
      </trkpt>
      <trkpt lat="43.16657" lon="5.85617">
        <ele>306.764099</ele>
        <time>2022-08-13T05:51:25Z</time>
      </trkpt>
      <trkpt lat="43.16642" lon="5.85618">
        <ele>308.547882</ele>
        <time>2022-08-13T05:51:27Z</time>
      </trkpt>
      <trkpt lat="43.16628" lon="5.85619">
        <ele>310.212708</ele>
        <time>2022-08-13T05:51:29Z</time>
      </trkpt>
      <trkpt lat="43.16613" lon="5.85616">
        <ele>311.002533</ele>
        <time>2022-08-13T05:51:31Z</time>
      </trkpt>
      <trkpt lat="43.166" lon="5.8561">
        <ele>312.517456</ele>
        <time>2022-08-13T05:51:33Z</time>
      </trkpt>
      <trkpt lat="43.16585" lon="5.85603">
        <ele>313.256348</ele>
        <time>2022-08-13T05:51:35Z</time>
      </trkpt>
      <trkpt lat="43.16571" lon="5.85595">
        <ele>314.736115</ele>
        <time>2022-08-13T05:51:37Z</time>
      </trkpt>
      <trkpt lat="43.16556" lon="5.85587">
        <ele>315.49234</ele>
        <time>2022-08-13T05:51:39Z</time>
      </trkpt>
      <trkpt lat="43.16542" lon="5.85579">
        <ele>317.059631</ele>
        <time>2022-08-13T05:51:41Z</time>
      </trkpt>
      <trkpt lat="43.16528" lon="5.85571">
        <ele>318.674957</ele>
        <time>2022-08-13T05:51:43Z</time>
      </trkpt>
      <trkpt lat="43.16514" lon="5.85564">
        <ele>319.474335</ele>
        <time>2022-08-13T05:51:45Z</time>
      </trkpt>
      <trkpt lat="43.165" lon="5.85557">
        <ele>320.979492</ele>
        <time>2022-08-13T05:51:47Z</time>
      </trkpt>
      <trkpt lat="43.16486" lon="5.85551">
        <ele>321.648041</ele>
        <time>2022-08-13T05:51:49Z</time>
      </trkpt>
      <trkpt lat="43.16472" lon="5.85544">
        <ele>322.718628</ele>
        <time>2022-08-13T05:51:51Z</time>
      </trkpt>
      <trkpt lat="43.16458" lon="5.85536">
        <ele>323.086609</ele>
        <time>2022-08-13T05:51:53Z</time>
      </trkpt>
      <trkpt lat="43.16445" lon="5.85526">
        <ele>323.443268</ele>
        <time>2022-08-13T05:51:55Z</time>
      </trkpt>
      <trkpt lat="43.16433" lon="5.85514">
        <ele>323.423859</ele>
        <time>2022-08-13T05:51:57Z</time>
      </trkpt>
      <trkpt lat="43.16421" lon="5.85501">
        <ele>322.977783</ele>
        <time>2022-08-13T05:51:59Z</time>
      </trkpt>
      <trkpt lat="43.1641" lon="5.85489">
        <ele>322.002502</ele>
        <time>2022-08-13T05:52:01Z</time>
      </trkpt>
      <trkpt lat="43.16399" lon="5.85477">
        <ele>321.33963</ele>
        <time>2022-08-13T05:52:03Z</time>
      </trkpt>
      <trkpt lat="43.16389" lon="5.85462">
        <ele>319.728973</ele>
        <time>2022-08-13T05:52:05Z</time>
      </trkpt>
      <trkpt lat="43.16384" lon="5.85443">
        <ele>318.802551</ele>
        <time>2022-08-13T05:52:07Z</time>
      </trkpt>
      <trkpt lat="43.16383" lon="5.85423">
        <ele>316.758423</ele>
        <time>2022-08-13T05:52:09Z</time>
      </trkpt>
      <trkpt lat="43.16387" lon="5.85403">
        <ele>315.671265</ele>
        <time>2022-08-13T05:52:11Z</time>
      </trkpt>
      <trkpt lat="43.16393" lon="5.85385">
        <ele>313.472473</ele>
        <time>2022-08-13T05:52:13Z</time>
      </trkpt>
      <trkpt lat="43.164" lon="5.85368">
        <ele>311.384338</ele>
        <time>2022-08-13T05:52:15Z</time>
      </trkpt>
      <trkpt lat="43.16407" lon="5.85351">
        <ele>310.424255</ele>
        <time>2022-08-13T05:52:17Z</time>
      </trkpt>
      <trkpt lat="43.16414" lon="5.85335">
        <ele>308.725891</ele>
        <time>2022-08-13T05:52:19Z</time>
      </trkpt>
      <trkpt lat="43.16421" lon="5.85318">
        <ele>307.994324</ele>
        <time>2022-08-13T05:52:21Z</time>
      </trkpt>
      <trkpt lat="43.16426" lon="5.85301">
        <ele>306.762787</ele>
        <time>2022-08-13T05:52:23Z</time>
      </trkpt>
      <trkpt lat="43.16427" lon="5.85286">
        <ele>306.253418</ele>
        <time>2022-08-13T05:52:25Z</time>
      </trkpt>
      <trkpt lat="43.16422" lon="5.85269">
        <ele>305.402191</ele>
        <time>2022-08-13T05:52:27Z</time>
      </trkpt>
      <trkpt lat="43.16412" lon="5.85254">
        <ele>305.034027</ele>
        <time>2022-08-13T05:52:29Z</time>
      </trkpt>
      <trkpt lat="43.16402" lon="5.85241">
        <ele>304.338074</ele>
        <time>2022-08-13T05:52:31Z</time>
      </trkpt>
      <trkpt lat="43.16393" lon="5.85228">
        <ele>303.575745</ele>
        <time>2022-08-13T05:52:33Z</time>
      </trkpt>
      <trkpt lat="43.16383" lon="5.85214">
        <ele>303.127869</ele>
        <time>2022-08-13T05:52:35Z</time>
      </trkpt>
      <trkpt lat="43.16377" lon="5.85198">
        <ele>302.044373</ele>
        <time>2022-08-13T05:52:37Z</time>
      </trkpt>
      <trkpt lat="43.16377" lon="5.85181">
        <ele>301.40213</ele>
        <time>2022-08-13T05:52:39Z</time>
      </trkpt>
      <trkpt lat="43.16383" lon="5.85166">
        <ele>299.94751</ele>
        <time>2022-08-13T05:52:41Z</time>
      </trkpt>
      <trkpt lat="43.16391" lon="5.85151">
        <ele>298.380554</ele>
        <time>2022-08-13T05:52:43Z</time>
      </trkpt>
      <trkpt lat="43.16399" lon="5.85136">
        <ele>297.612854</ele>
        <time>2022-08-13T05:52:45Z</time>
      </trkpt>
      <trkpt lat="43.16408" lon="5.8512">
        <ele>296.219177</ele>
        <time>2022-08-13T05:52:47Z</time>
      </trkpt>
      <trkpt lat="43.16417" lon="5.85103">
        <ele>295.620667</ele>
        <time>2022-08-13T05:52:49Z</time>
      </trkpt>
      <trkpt lat="43.16427" lon="5.85086">
        <ele>294.643555</ele>
        <time>2022-08-13T05:52:51Z</time>
      </trkpt>
      <trkpt lat="43.16437" lon="5.85067">
        <ele>294.260925</ele>
        <time>2022-08-13T05:52:53Z</time>
      </trkpt>
      <trkpt lat="43.16448" lon="5.85049">
        <ele>293.688293</ele>
        <time>2022-08-13T05:52:55Z</time>
      </trkpt>
      <trkpt lat="43.16458" lon="5.85029">
        <ele>293.490051</ele>
        <time>2022-08-13T05:52:57Z</time>
      </trkpt>
      <trkpt lat="43.1647" lon="5.8501">
        <ele>293.242981</ele>
        <time>2022-08-13T05:52:59Z</time>
      </trkpt>
      <trkpt lat="43.16482" lon="5.8499">
        <ele>293.123291</ele>
        <time>2022-08-13T05:53:01Z</time>
      </trkpt>
      <trkpt lat="43.16494" lon="5.84969">
        <ele>293.081116</ele>
        <time>2022-08-13T05:53:03Z</time>
      </trkpt>
      <trkpt lat="43.16507" lon="5.84949">
        <ele>292.972839</ele>
        <time>2022-08-13T05:53:05Z</time>
      </trkpt>
      <trkpt lat="43.16521" lon="5.8493">
        <ele>292.884155</ele>
        <time>2022-08-13T05:53:07Z</time>
      </trkpt>
      <trkpt lat="43.16534" lon="5.84912">
        <ele>292.585266</ele>
        <time>2022-08-13T05:53:09Z</time>
      </trkpt>
      <trkpt lat="43.16546" lon="5.84896">
        <ele>292.36499</ele>
        <time>2022-08-13T05:53:11Z</time>
      </trkpt>
      <trkpt lat="43.16558" lon="5.84879">
        <ele>291.789001</ele>
        <time>2022-08-13T05:53:13Z</time>
      </trkpt>
      <trkpt lat="43.16571" lon="5.84862">
        <ele>291.44165</ele>
        <time>2022-08-13T05:53:15Z</time>
      </trkpt>
      <trkpt lat="43.16583" lon="5.84845">
        <ele>290.663635</ele>
        <time>2022-08-13T05:53:17Z</time>
      </trkpt>
      <trkpt lat="43.16595" lon="5.84829">
        <ele>289.839539</ele>
        <time>2022-08-13T05:53:19Z</time>
      </trkpt>
      <trkpt lat="43.16607" lon="5.84814">
        <ele>289.433167</ele>
        <time>2022-08-13T05:53:21Z</time>
      </trkpt>
      <trkpt lat="43.16619" lon="5.84797">
        <ele>288.687317</ele>
        <time>2022-08-13T05:53:23Z</time>
      </trkpt>
      <trkpt lat="43.16631" lon="5.84782">
        <ele>288.376312</ele>
        <time>2022-08-13T05:53:25Z</time>
      </trkpt>
      <trkpt lat="43.16646" lon="5.8477">
        <ele>287.950012</ele>
        <time>2022-08-13T05:53:27Z</time>
      </trkpt>
      <trkpt lat="43.16663" lon="5.84762">
        <ele>287.855255</ele>
        <time>2022-08-13T05:53:29Z</time>
      </trkpt>
      <trkpt lat="43.16681" lon="5.84758">
        <ele>287.936768</ele>
        <time>2022-08-13T05:53:31Z</time>
      </trkpt>
      <trkpt lat="43.16697" lon="5.84758">
        <ele>288.391266</ele>
        <time>2022-08-13T05:53:33Z</time>
      </trkpt>
      <trkpt lat="43.16714" lon="5.84759">
        <ele>288.740967</ele>
        <time>2022-08-13T05:53:35Z</time>
      </trkpt>
      <trkpt lat="43.1673" lon="5.84762">
        <ele>289.603058</ele>
        <time>2022-08-13T05:53:37Z</time>
      </trkpt>
      <trkpt lat="43.16747" lon="5.84764">
        <ele>290.082031</ele>
        <time>2022-08-13T05:53:39Z</time>
      </trkpt>
      <trkpt lat="43.16763" lon="5.84766">
        <ele>291.086609</ele>
        <time>2022-08-13T05:53:41Z</time>
      </trkpt>
      <trkpt lat="43.16778" lon="5.84769">
        <ele>291.603485</ele>
        <time>2022-08-13T05:53:43Z</time>
      </trkpt>
      <trkpt lat="43.16794" lon="5.84772">
        <ele>292.657104</ele>
        <time>2022-08-13T05:53:45Z</time>
      </trkpt>
      <trkpt lat="43.16809" lon="5.84774">
        <ele>293.72821</ele>
        <time>2022-08-13T05:53:47Z</time>
      </trkpt>
      <trkpt lat="43.16825" lon="5.84776">
        <ele>294.26889</ele>
        <time>2022-08-13T05:53:49Z</time>
      </trkpt>
      <trkpt lat="43.16841" lon="5.84779">
        <ele>295.362976</ele>
        <time>2022-08-13T05:53:51Z</time>
      </trkpt>
      <trkpt lat="43.16857" lon="5.84781">
        <ele>295.91217</ele>
        <time>2022-08-13T05:53:53Z</time>
      </trkpt>
      <trkpt lat="43.16872" lon="5.84783">
        <ele>296.991333</ele>
        <time>2022-08-13T05:53:55Z</time>
      </trkpt>
      <trkpt lat="43.16887" lon="5.84784">
        <ele>297.512512</ele>
        <time>2022-08-13T05:53:57Z</time>
      </trkpt>
      <trkpt lat="43.16901" lon="5.84782">
        <ele>298.520721</ele>
        <time>2022-08-13T05:53:59Z</time>
      </trkpt>
      <trkpt lat="43.16911" lon="5.84774">
        <ele>299.014954</ele>
        <time>2022-08-13T05:54:01Z</time>
      </trkpt>
      <trkpt lat="43.16917" lon="5.84762">
        <ele>299.998962</ele>
        <time>2022-08-13T05:54:03Z</time>
      </trkpt>
      <trkpt lat="43.16922" lon="5.84747">
        <ele>300.980835</ele>
        <time>2022-08-13T05:54:05Z</time>
      </trkpt>
      <trkpt lat="43.16925" lon="5.84734">
        <ele>301.466339</ele>
        <time>2022-08-13T05:54:07Z</time>
      </trkpt>
      <trkpt lat="43.16928" lon="5.84721">
        <ele>302.408508</ele>
        <time>2022-08-13T05:54:09Z</time>
      </trkpt>
      <trkpt lat="43.16931" lon="5.84708">
        <ele>303.309601</ele>
        <time>2022-08-13T05:54:11Z</time>
      </trkpt>
      <trkpt lat="43.16937" lon="5.84697">
        <ele>303.754517</ele>
        <time>2022-08-13T05:54:13Z</time>
      </trkpt>
      <trkpt lat="43.16943" lon="5.8469">
        <ele>304.653931</ele>
        <time>2022-08-13T05:54:15Z</time>
      </trkpt>
      <trkpt lat="43.1695" lon="5.84686">
        <ele>305.109741</ele>
        <time>2022-08-13T05:54:17Z</time>
      </trkpt>
      <trkpt lat="43.16958" lon="5.8468">
        <ele>306.02594</ele>
        <time>2022-08-13T05:54:19Z</time>
      </trkpt>
      <trkpt lat="43.16965" lon="5.84672">
        <ele>306.482971</ele>
        <time>2022-08-13T05:54:21Z</time>
      </trkpt>
      <trkpt lat="43.16969" lon="5.84662">
        <ele>307.395203</ele>
        <time>2022-08-13T05:54:23Z</time>
      </trkpt>
      <trkpt lat="43.16974" lon="5.84655">
        <ele>307.854187</ele>
        <time>2022-08-13T05:54:25Z</time>
      </trkpt>
      <trkpt lat="43.16979" lon="5.84646">
        <ele>308.789978</ele>
        <time>2022-08-13T05:54:27Z</time>
      </trkpt>
      <trkpt lat="43.16985" lon="5.84639">
        <ele>309.755554</ele>
        <time>2022-08-13T05:54:29Z</time>
      </trkpt>
      <trkpt lat="43.16993" lon="5.84631">
        <ele>310.247772</ele>
        <time>2022-08-13T05:54:31Z</time>
      </trkpt>
      <trkpt lat="43.17004" lon="5.84631">
        <ele>311.246155</ele>
        <time>2022-08-13T05:54:33Z</time>
      </trkpt>
      <trkpt lat="43.17016" lon="5.84633">
        <ele>311.749084</ele>
        <time>2022-08-13T05:54:35Z</time>
      </trkpt>
      <trkpt lat="43.17029" lon="5.84634">
        <ele>312.748108</ele>
        <time>2022-08-13T05:54:37Z</time>
      </trkpt>
      <trkpt lat="43.17041" lon="5.84637">
        <ele>313.714264</ele>
        <time>2022-08-13T05:54:39Z</time>
      </trkpt>
      <trkpt lat="43.17053" lon="5.8464">
        <ele>314.179108</ele>
        <time>2022-08-13T05:54:41Z</time>
      </trkpt>
      <trkpt lat="43.17065" lon="5.84643">
        <ele>315.06781</ele>
        <time>2022-08-13T05:54:43Z</time>
      </trkpt>
      <trkpt lat="43.17077" lon="5.84646">
        <ele>315.49115</ele>
        <time>2022-08-13T05:54:45Z</time>
      </trkpt>
      <trkpt lat="43.17089" lon="5.84649">
        <ele>316.296265</ele>
        <time>2022-08-13T05:54:47Z</time>
      </trkpt>
      <trkpt lat="43.17102" lon="5.84653">
        <ele>316.679382</ele>
        <time>2022-08-13T05:54:49Z</time>
      </trkpt>
      <trkpt lat="43.17114" lon="5.84657">
        <ele>317.414764</ele>
        <time>2022-08-13T05:54:51Z</time>
      </trkpt>
      <trkpt lat="43.17125" lon="5.8466">
        <ele>318.12616</ele>
        <time>2022-08-13T05:54:53Z</time>
      </trkpt>
      <trkpt lat="43.17137" lon="5.84663">
        <ele>318.479919</ele>
        <time>2022-08-13T05:54:55Z</time>
      </trkpt>
      <trkpt lat="43.17149" lon="5.84666">
        <ele>319.197449</ele>
        <time>2022-08-13T05:54:57Z</time>
      </trkpt>
      <trkpt lat="43.1716" lon="5.84667">
        <ele>319.565643</ele>
        <time>2022-08-13T05:54:59Z</time>
      </trkpt>
      <trkpt lat="43.17172" lon="5.8467">
        <ele>320.319122</ele>
        <time>2022-08-13T05:55:01Z</time>
      </trkpt>
      <trkpt lat="43.17184" lon="5.84672">
        <ele>320.698303</ele>
        <time>2022-08-13T05:55:03Z</time>
      </trkpt>
      <trkpt lat="43.17197" lon="5.84675">
        <ele>321.439484</ele>
        <time>2022-08-13T05:55:05Z</time>
      </trkpt>
      <trkpt lat="43.17209" lon="5.84677">
        <ele>322.138245</ele>
        <time>2022-08-13T05:55:07Z</time>
      </trkpt>
      <trkpt lat="43.17219" lon="5.84676">
        <ele>322.468475</ele>
        <time>2022-08-13T05:55:09Z</time>
      </trkpt>
      <trkpt lat="43.1723" lon="5.84676">
        <ele>323.092316</ele>
        <time>2022-08-13T05:55:11Z</time>
      </trkpt>
      <trkpt lat="43.17243" lon="5.8468">
        <ele>323.386536</ele>
        <time>2022-08-13T05:55:13Z</time>
      </trkpt>
      <trkpt lat="43.17255" lon="5.84682">
        <ele>323.933472</ele>
        <time>2022-08-13T05:55:15Z</time>
      </trkpt>
      <trkpt lat="43.17267" lon="5.84683">
        <ele>324.180634</ele>
        <time>2022-08-13T05:55:17Z</time>
      </trkpt>
      <trkpt lat="43.17278" lon="5.84685">
        <ele>324.608093</ele>
        <time>2022-08-13T05:55:19Z</time>
      </trkpt>
      <trkpt lat="43.17288" lon="5.84684">
        <ele>324.939423</ele>
        <time>2022-08-13T05:55:21Z</time>
      </trkpt>
      <trkpt lat="43.173" lon="5.84685">
        <ele>325.069031</ele>
        <time>2022-08-13T05:55:23Z</time>
      </trkpt>
      <trkpt lat="43.17313" lon="5.84686">
        <ele>325.259338</ele>
        <time>2022-08-13T05:55:25Z</time>
      </trkpt>
      <trkpt lat="43.17335" lon="5.84692">
        <ele>325.323029</ele>
        <time>2022-08-13T05:55:27Z</time>
      </trkpt>
      <trkpt lat="43.17352" lon="5.84694">
        <ele>325.396606</ele>
        <time>2022-08-13T05:55:29Z</time>
      </trkpt>
      <trkpt lat="43.1737" lon="5.84701">
        <ele>325.407898</ele>
        <time>2022-08-13T05:55:31Z</time>
      </trkpt>
      <trkpt lat="43.17388" lon="5.84704">
        <ele>325.37912</ele>
        <time>2022-08-13T05:55:33Z</time>
      </trkpt>
      <trkpt lat="43.17405" lon="5.84707">
        <ele>325.338257</ele>
        <time>2022-08-13T05:55:35Z</time>
      </trkpt>
      <trkpt lat="43.17423" lon="5.84711">
        <ele>325.204315</ele>
        <time>2022-08-13T05:55:37Z</time>
      </trkpt>
      <trkpt lat="43.17441" lon="5.84717">
        <ele>325.003479</ele>
        <time>2022-08-13T05:55:39Z</time>
      </trkpt>
      <trkpt lat="43.17459" lon="5.84728">
        <ele>324.879425</ele>
        <time>2022-08-13T05:55:41Z</time>
      </trkpt>
      <trkpt lat="43.17474" lon="5.84742">
        <ele>324.582642</ele>
        <time>2022-08-13T05:55:43Z</time>
      </trkpt>
      <trkpt lat="43.17484" lon="5.84763">
        <ele>324.412384</ele>
        <time>2022-08-13T05:55:45Z</time>
      </trkpt>
      <trkpt lat="43.17486" lon="5.84789">
        <ele>324.048523</ele>
        <time>2022-08-13T05:55:47Z</time>
      </trkpt>
      <trkpt lat="43.17485" lon="5.84814">
        <ele>323.867462</ele>
        <time>2022-08-13T05:55:49Z</time>
      </trkpt>
      <trkpt lat="43.17489" lon="5.84838">
        <ele>323.534637</ele>
        <time>2022-08-13T05:55:51Z</time>
      </trkpt>
      <trkpt lat="43.175" lon="5.84861">
        <ele>323.257141</ele>
        <time>2022-08-13T05:55:53Z</time>
      </trkpt>
      <trkpt lat="43.17514" lon="5.84883">
        <ele>323.135193</ele>
        <time>2022-08-13T05:55:55Z</time>
      </trkpt>
      <trkpt lat="43.17528" lon="5.84906">
        <ele>322.901337</ele>
        <time>2022-08-13T05:55:57Z</time>
      </trkpt>
      <trkpt lat="43.17544" lon="5.84929">
        <ele>322.776917</ele>
        <time>2022-08-13T05:55:59Z</time>
      </trkpt>
      <trkpt lat="43.1756" lon="5.84953">
        <ele>322.479675</ele>
        <time>2022-08-13T05:56:01Z</time>
      </trkpt>
      <trkpt lat="43.17577" lon="5.84976">
        <ele>322.298126</ele>
        <time>2022-08-13T05:56:03Z</time>
      </trkpt>
      <trkpt lat="43.17596" lon="5.84997">
        <ele>321.861206</ele>
        <time>2022-08-13T05:56:05Z</time>
      </trkpt>
      <trkpt lat="43.17616" lon="5.85018">
        <ele>321.605499</ele>
        <time>2022-08-13T05:56:07Z</time>
      </trkpt>
      <trkpt lat="43.17632" lon="5.85041">
        <ele>321.023743</ele>
        <time>2022-08-13T05:56:09Z</time>
      </trkpt>
      <trkpt lat="43.17647" lon="5.8506">
        <ele>320.360413</ele>
        <time>2022-08-13T05:56:11Z</time>
      </trkpt>
      <trkpt lat="43.17663" lon="5.85069">
        <ele>320.007355</ele>
        <time>2022-08-13T05:56:13Z</time>
      </trkpt>
      <trkpt lat="43.17677" lon="5.85066">
        <ele>319.276855</ele>
        <time>2022-08-13T05:56:15Z</time>
      </trkpt>
      <trkpt lat="43.17687" lon="5.85052">
        <ele>318.902618</ele>
        <time>2022-08-13T05:56:17Z</time>
      </trkpt>
      <trkpt lat="43.17688" lon="5.85031">
        <ele>318.116211</ele>
        <time>2022-08-13T05:56:19Z</time>
      </trkpt>
      <trkpt lat="43.17683" lon="5.85007">
        <ele>317.241394</ele>
        <time>2022-08-13T05:56:21Z</time>
      </trkpt>
      <trkpt lat="43.17678" lon="5.84984">
        <ele>316.762817</ele>
        <time>2022-08-13T05:56:23Z</time>
      </trkpt>
      <trkpt lat="43.17682" lon="5.84962">
        <ele>315.731873</ele>
        <time>2022-08-13T05:56:25Z</time>
      </trkpt>
      <trkpt lat="43.17695" lon="5.84945">
        <ele>315.184662</ele>
        <time>2022-08-13T05:56:27Z</time>
      </trkpt>
      <trkpt lat="43.17711" lon="5.84935">
        <ele>314.025818</ele>
        <time>2022-08-13T05:56:29Z</time>
      </trkpt>
      <trkpt lat="43.17732" lon="5.84941">
        <ele>313.404053</ele>
        <time>2022-08-13T05:56:31Z</time>
      </trkpt>
      <trkpt lat="43.17752" lon="5.84958">
        <ele>312.044739</ele>
        <time>2022-08-13T05:56:33Z</time>
      </trkpt>
      <trkpt lat="43.17772" lon="5.84978">
        <ele>311.300873</ele>
        <time>2022-08-13T05:56:35Z</time>
      </trkpt>
      <trkpt lat="43.17793" lon="5.84998">
        <ele>309.684265</ele>
        <time>2022-08-13T05:56:37Z</time>
      </trkpt>
      <trkpt lat="43.17814" lon="5.85015">
        <ele>307.903168</ele>
        <time>2022-08-13T05:56:39Z</time>
      </trkpt>
      <trkpt lat="43.1783" lon="5.85025">
        <ele>306.951172</ele>
        <time>2022-08-13T05:56:41Z</time>
      </trkpt>
      <trkpt lat="43.17844" lon="5.85022">
        <ele>304.912781</ele>
        <time>2022-08-13T05:56:43Z</time>
      </trkpt>
      <trkpt lat="43.17853" lon="5.85006">
        <ele>303.821381</ele>
        <time>2022-08-13T05:56:45Z</time>
      </trkpt>
      <trkpt lat="43.17853" lon="5.84988">
        <ele>301.502502</ele>
        <time>2022-08-13T05:56:47Z</time>
      </trkpt>
      <trkpt lat="43.17845" lon="5.84972">
        <ele>300.289551</ele>
        <time>2022-08-13T05:56:49Z</time>
      </trkpt>
      <trkpt lat="43.17835" lon="5.84957">
        <ele>297.819153</ele>
        <time>2022-08-13T05:56:51Z</time>
      </trkpt>
      <trkpt lat="43.17823" lon="5.84941">
        <ele>295.370453</ele>
        <time>2022-08-13T05:56:53Z</time>
      </trkpt>
      <trkpt lat="43.17812" lon="5.84925">
        <ele>294.173676</ele>
        <time>2022-08-13T05:56:55Z</time>
      </trkpt>
      <trkpt lat="43.178" lon="5.84907">
        <ele>291.861389</ele>
        <time>2022-08-13T05:56:57Z</time>
      </trkpt>
      <trkpt lat="43.17788" lon="5.84891">
        <ele>290.751709</ele>
        <time>2022-08-13T05:56:59Z</time>
      </trkpt>
      <trkpt lat="43.17775" lon="5.84873">
        <ele>288.62442</ele>
        <time>2022-08-13T05:57:01Z</time>
      </trkpt>
      <trkpt lat="43.17762" lon="5.84857">
        <ele>287.597412</ele>
        <time>2022-08-13T05:57:03Z</time>
      </trkpt>
      <trkpt lat="43.17749" lon="5.84839">
        <ele>285.578613</ele>
        <time>2022-08-13T05:57:05Z</time>
      </trkpt>
      <trkpt lat="43.17736" lon="5.84821">
        <ele>283.57196</ele>
        <time>2022-08-13T05:57:07Z</time>
      </trkpt>
      <trkpt lat="43.17722" lon="5.84803">
        <ele>282.582306</ele>
        <time>2022-08-13T05:57:09Z</time>
      </trkpt>
      <trkpt lat="43.17707" lon="5.84783">
        <ele>280.688873</ele>
        <time>2022-08-13T05:57:11Z</time>
      </trkpt>
      <trkpt lat="43.17694" lon="5.8476">
        <ele>279.806366</ele>
        <time>2022-08-13T05:57:13Z</time>
      </trkpt>
      <trkpt lat="43.17682" lon="5.84734">
        <ele>278.187927</ele>
        <time>2022-08-13T05:57:15Z</time>
      </trkpt>
      <trkpt lat="43.1767" lon="5.84704">
        <ele>276.747833</ele>
        <time>2022-08-13T05:57:17Z</time>
      </trkpt>
      <trkpt lat="43.17658" lon="5.84672">
        <ele>276.091034</ele>
        <time>2022-08-13T05:57:19Z</time>
      </trkpt>
      <trkpt lat="43.17645" lon="5.84639">
        <ele>274.908661</ele>
        <time>2022-08-13T05:57:21Z</time>
      </trkpt>
      <trkpt lat="43.17633" lon="5.84602">
        <ele>274.382599</ele>
        <time>2022-08-13T05:57:23Z</time>
      </trkpt>
      <trkpt lat="43.17624" lon="5.84562">
        <ele>273.413208</ele>
        <time>2022-08-13T05:57:25Z</time>
      </trkpt>
      <trkpt lat="43.1761" lon="5.84524">
        <ele>272.928833</ele>
        <time>2022-08-13T05:57:27Z</time>
      </trkpt>
      <trkpt lat="43.17593" lon="5.84488">
        <ele>271.83429</ele>
        <time>2022-08-13T05:57:29Z</time>
      </trkpt>
      <trkpt lat="43.17572" lon="5.84455">
        <ele>270.463318</ele>
        <time>2022-08-13T05:57:31Z</time>
      </trkpt>
      <trkpt lat="43.1755" lon="5.84423">
        <ele>269.674377</ele>
        <time>2022-08-13T05:57:33Z</time>
      </trkpt>
      <trkpt lat="43.17532" lon="5.84389">
        <ele>267.962708</ele>
        <time>2022-08-13T05:57:35Z</time>
      </trkpt>
      <trkpt lat="43.17519" lon="5.84349">
        <ele>267.075806</ele>
        <time>2022-08-13T05:57:37Z</time>
      </trkpt>
      <trkpt lat="43.17507" lon="5.84309">
        <ele>265.298157</ele>
        <time>2022-08-13T05:57:39Z</time>
      </trkpt>
      <trkpt lat="43.175" lon="5.84267">
        <ele>264.408966</ele>
        <time>2022-08-13T05:57:41Z</time>
      </trkpt>
      <trkpt lat="43.17498" lon="5.84223">
        <ele>262.570251</ele>
        <time>2022-08-13T05:57:43Z</time>
      </trkpt>
      <trkpt lat="43.17499" lon="5.84186">
        <ele>261.579956</ele>
        <time>2022-08-13T05:57:45Z</time>
      </trkpt>
      <trkpt lat="43.17491" lon="5.84156">
        <ele>259.365295</ele>
        <time>2022-08-13T05:57:47Z</time>
      </trkpt>
      <trkpt lat="43.17476" lon="5.84128">
        <ele>256.776825</ele>
        <time>2022-08-13T05:57:49Z</time>
      </trkpt>
      <trkpt lat="43.17458" lon="5.841">
        <ele>255.354279</ele>
        <time>2022-08-13T05:57:51Z</time>
      </trkpt>
      <trkpt lat="43.17439" lon="5.84073">
        <ele>252.342697</ele>
        <time>2022-08-13T05:57:53Z</time>
      </trkpt>
      <trkpt lat="43.17422" lon="5.84042">
        <ele>250.794464</ele>
        <time>2022-08-13T05:57:55Z</time>
      </trkpt>
      <trkpt lat="43.17408" lon="5.84007">
        <ele>247.681854</ele>
        <time>2022-08-13T05:57:57Z</time>
      </trkpt>
      <trkpt lat="43.17394" lon="5.83973">
        <ele>244.546997</ele>
        <time>2022-08-13T05:57:59Z</time>
      </trkpt>
      <trkpt lat="43.17386" lon="5.83936">
        <ele>242.943756</ele>
        <time>2022-08-13T05:58:01Z</time>
      </trkpt>
      <trkpt lat="43.17383" lon="5.83899">
        <ele>239.591827</ele>
        <time>2022-08-13T05:58:03Z</time>
      </trkpt>
      <trkpt lat="43.17379" lon="5.83867">
        <ele>237.819366</ele>
        <time>2022-08-13T05:58:05Z</time>
      </trkpt>
      <trkpt lat="43.17367" lon="5.8384">
        <ele>234.057281</ele>
        <time>2022-08-13T05:58:07Z</time>
      </trkpt>
      <trkpt lat="43.17351" lon="5.83815">
        <ele>232.070755</ele>
        <time>2022-08-13T05:58:09Z</time>
      </trkpt>
      <trkpt lat="43.17336" lon="5.83788">
        <ele>227.926666</ele>
        <time>2022-08-13T05:58:11Z</time>
      </trkpt>
      <trkpt lat="43.1732" lon="5.83759">
        <ele>225.798309</ele>
        <time>2022-08-13T05:58:13Z</time>
      </trkpt>
      <trkpt lat="43.17305" lon="5.8373">
        <ele>221.543167</ele>
        <time>2022-08-13T05:58:15Z</time>
      </trkpt>
      <trkpt lat="43.17289" lon="5.83701">
        <ele>217.486786</ele>
        <time>2022-08-13T05:58:17Z</time>
      </trkpt>
      <trkpt lat="43.17278" lon="5.8367">
        <ele>215.596893</ele>
        <time>2022-08-13T05:58:19Z</time>
      </trkpt>
      <trkpt lat="43.17276" lon="5.83636">
        <ele>212.152496</ele>
        <time>2022-08-13T05:58:21Z</time>
      </trkpt>
      <trkpt lat="43.17276" lon="5.83602">
        <ele>210.591888</ele>
        <time>2022-08-13T05:58:23Z</time>
      </trkpt>
      <trkpt lat="43.17273" lon="5.83569">
        <ele>207.707031</ele>
        <time>2022-08-13T05:58:25Z</time>
      </trkpt>
      <trkpt lat="43.17265" lon="5.8354">
        <ele>206.334229</ele>
        <time>2022-08-13T05:58:27Z</time>
      </trkpt>
      <trkpt lat="43.17255" lon="5.83512">
        <ele>203.620026</ele>
        <time>2022-08-13T05:58:29Z</time>
      </trkpt>
      <trkpt lat="43.17246" lon="5.83484">
        <ele>200.861603</ele>
        <time>2022-08-13T05:58:31Z</time>
      </trkpt>
      <trkpt lat="43.17238" lon="5.83457">
        <ele>199.463104</ele>
        <time>2022-08-13T05:58:33Z</time>
      </trkpt>
      <trkpt lat="43.17231" lon="5.83427">
        <ele>196.694244</ele>
        <time>2022-08-13T05:58:35Z</time>
      </trkpt>
      <trkpt lat="43.17226" lon="5.83398">
        <ele>195.358627</ele>
        <time>2022-08-13T05:58:37Z</time>
      </trkpt>
      <trkpt lat="43.17222" lon="5.83366">
        <ele>192.845764</ele>
        <time>2022-08-13T05:58:39Z</time>
      </trkpt>
      <trkpt lat="43.1722" lon="5.83334">
        <ele>191.670746</ele>
        <time>2022-08-13T05:58:41Z</time>
      </trkpt>
      <trkpt lat="43.1722" lon="5.83305">
        <ele>189.434891</ele>
        <time>2022-08-13T05:58:43Z</time>
      </trkpt>
      <trkpt lat="43.17223" lon="5.83277">
        <ele>187.240723</ele>
        <time>2022-08-13T05:58:45Z</time>
      </trkpt>
      <trkpt lat="43.17227" lon="5.83251">
        <ele>186.126892</ele>
        <time>2022-08-13T05:58:47Z</time>
      </trkpt>
      <trkpt lat="43.17231" lon="5.83228">
        <ele>183.845444</ele>
        <time>2022-08-13T05:58:49Z</time>
      </trkpt>
      <trkpt lat="43.17234" lon="5.83204">
        <ele>182.687271</ele>
        <time>2022-08-13T05:58:51Z</time>
      </trkpt>
      <trkpt lat="43.17233" lon="5.83178">
        <ele>180.389648</ele>
        <time>2022-08-13T05:58:53Z</time>
      </trkpt>
      <trkpt lat="43.1723" lon="5.83153">
        <ele>178.197662</ele>
        <time>2022-08-13T05:58:55Z</time>
      </trkpt>
      <trkpt lat="43.17227" lon="5.83126">
        <ele>177.166275</ele>
        <time>2022-08-13T05:58:57Z</time>
      </trkpt>
      <trkpt lat="43.17224" lon="5.83099">
        <ele>175.248413</ele>
        <time>2022-08-13T05:58:59Z</time>
      </trkpt>
      <trkpt lat="43.17219" lon="5.8307">
        <ele>174.354645</ele>
        <time>2022-08-13T05:59:01Z</time>
      </trkpt>
      <trkpt lat="43.17215" lon="5.83042">
        <ele>172.657806</ele>
        <time>2022-08-13T05:59:03Z</time>
      </trkpt>
      <trkpt lat="43.17214" lon="5.83019">
        <ele>171.831833</ele>
        <time>2022-08-13T05:59:05Z</time>
      </trkpt>
      <trkpt lat="43.1722" lon="5.83003">
        <ele>170.168488</ele>
        <time>2022-08-13T05:59:07Z</time>
      </trkpt>
      <trkpt lat="43.17231" lon="5.82994">
        <ele>168.454636</ele>
        <time>2022-08-13T05:59:09Z</time>
      </trkpt>
      <trkpt lat="43.17244" lon="5.82988">
        <ele>167.583099</ele>
        <time>2022-08-13T05:59:11Z</time>
      </trkpt>
      <trkpt lat="43.17256" lon="5.82979">
        <ele>165.833176</ele>
        <time>2022-08-13T05:59:13Z</time>
      </trkpt>
      <trkpt lat="43.17265" lon="5.82971">
        <ele>164.968018</ele>
        <time>2022-08-13T05:59:15Z</time>
      </trkpt>
      <trkpt lat="43.17278" lon="5.82963">
        <ele>163.301422</ele>
        <time>2022-08-13T05:59:17Z</time>
      </trkpt>
      <trkpt lat="43.17289" lon="5.82956">
        <ele>161.773758</ele>
        <time>2022-08-13T05:59:19Z</time>
      </trkpt>
      <trkpt lat="43.17299" lon="5.82949">
        <ele>161.074509</ele>
        <time>2022-08-13T05:59:21Z</time>
      </trkpt>
      <trkpt lat="43.17311" lon="5.82943">
        <ele>159.810349</ele>
        <time>2022-08-13T05:59:23Z</time>
      </trkpt>
      <trkpt lat="43.17321" lon="5.82938">
        <ele>159.244019</ele>
        <time>2022-08-13T05:59:25Z</time>
      </trkpt>
      <trkpt lat="43.17332" lon="5.82933">
        <ele>158.233185</ele>
        <time>2022-08-13T05:59:27Z</time>
      </trkpt>
      <trkpt lat="43.17341" lon="5.82927">
        <ele>157.374054</ele>
        <time>2022-08-13T05:59:29Z</time>
      </trkpt>
      <trkpt lat="43.17349" lon="5.82921">
        <ele>156.998169</ele>
        <time>2022-08-13T05:59:31Z</time>
      </trkpt>
      <trkpt lat="43.1736" lon="5.82916">
        <ele>156.349289</ele>
        <time>2022-08-13T05:59:33Z</time>
      </trkpt>
      <trkpt lat="43.17368" lon="5.82908">
        <ele>156.075348</ele>
        <time>2022-08-13T05:59:35Z</time>
      </trkpt>
      <trkpt lat="43.17378" lon="5.82902">
        <ele>155.628296</ele>
        <time>2022-08-13T05:59:37Z</time>
      </trkpt>
      <trkpt lat="43.17387" lon="5.82894">
        <ele>155.315887</ele>
        <time>2022-08-13T05:59:39Z</time>
      </trkpt>
      <trkpt lat="43.17394" lon="5.82886">
        <ele>155.209305</ele>
        <time>2022-08-13T05:59:41Z</time>
      </trkpt>
      <trkpt lat="43.17403" lon="5.8288">
        <ele>155.090546</ele>
        <time>2022-08-13T05:59:43Z</time>
      </trkpt>
      <trkpt lat="43.17411" lon="5.82871">
        <ele>155.075745</ele>
        <time>2022-08-13T05:59:45Z</time>
      </trkpt>
      <trkpt lat="43.17422" lon="5.82865">
        <ele>155.127991</ele>
        <time>2022-08-13T05:59:47Z</time>
      </trkpt>
      <trkpt lat="43.17432" lon="5.82857">
        <ele>155.192047</ele>
        <time>2022-08-13T05:59:49Z</time>
      </trkpt>
      <trkpt lat="43.17443" lon="5.82851">
        <ele>155.386139</ele>
        <time>2022-08-13T05:59:51Z</time>
      </trkpt>
      <trkpt lat="43.17453" lon="5.82842">
        <ele>155.651321</ele>
        <time>2022-08-13T05:59:53Z</time>
      </trkpt>
      <trkpt lat="43.17464" lon="5.82833">
        <ele>155.80217</ele>
        <time>2022-08-13T05:59:55Z</time>
      </trkpt>
      <trkpt lat="43.17474" lon="5.82826">
        <ele>156.120117</ele>
        <time>2022-08-13T05:59:57Z</time>
      </trkpt>
      <trkpt lat="43.17484" lon="5.82818">
        <ele>156.279709</ele>
        <time>2022-08-13T05:59:59Z</time>
      </trkpt>
      <trkpt lat="43.17495" lon="5.8281">
        <ele>156.589157</ele>
        <time>2022-08-13T06:00:01Z</time>
      </trkpt>
      <trkpt lat="43.17505" lon="5.82803">
        <ele>156.737473</ele>
        <time>2022-08-13T06:00:03Z</time>
      </trkpt>
      <trkpt lat="43.17514" lon="5.82795">
        <ele>157.021164</ele>
        <time>2022-08-13T06:00:05Z</time>
      </trkpt>
      <trkpt lat="43.17522" lon="5.82786">
        <ele>157.287231</ele>
        <time>2022-08-13T06:00:07Z</time>
      </trkpt>
      <trkpt lat="43.17532" lon="5.8278">
        <ele>157.41333</ele>
        <time>2022-08-13T06:00:09Z</time>
      </trkpt>
      <trkpt lat="43.17542" lon="5.82774">
        <ele>157.651077</ele>
        <time>2022-08-13T06:00:11Z</time>
      </trkpt>
      <trkpt lat="43.17553" lon="5.82767">
        <ele>157.762863</ele>
        <time>2022-08-13T06:00:13Z</time>
      </trkpt>
      <trkpt lat="43.17564" lon="5.82759">
        <ele>157.972076</ele>
        <time>2022-08-13T06:00:15Z</time>
      </trkpt>
      <trkpt lat="43.17576" lon="5.82753">
        <ele>158.069412</ele>
        <time>2022-08-13T06:00:17Z</time>
      </trkpt>
      <trkpt lat="43.17588" lon="5.82746">
        <ele>158.250931</ele>
        <time>2022-08-13T06:00:19Z</time>
      </trkpt>
      <trkpt lat="43.17598" lon="5.82738">
        <ele>158.418793</ele>
        <time>2022-08-13T06:00:21Z</time>
      </trkpt>
      <trkpt lat="43.17609" lon="5.8273">
        <ele>158.49942</ele>
        <time>2022-08-13T06:00:23Z</time>
      </trkpt>
      <trkpt lat="43.17619" lon="5.82723">
        <ele>158.657181</ele>
        <time>2022-08-13T06:00:25Z</time>
      </trkpt>
      <trkpt lat="43.17629" lon="5.82716">
        <ele>158.734833</ele>
        <time>2022-08-13T06:00:27Z</time>
      </trkpt>
      <trkpt lat="43.17638" lon="5.82709">
        <ele>158.887665</ele>
        <time>2022-08-13T06:00:29Z</time>
      </trkpt>
      <trkpt lat="43.17648" lon="5.82702">
        <ele>159.037399</ele>
        <time>2022-08-13T06:00:31Z</time>
      </trkpt>
      <trkpt lat="43.17658" lon="5.82696">
        <ele>159.111694</ele>
        <time>2022-08-13T06:00:33Z</time>
      </trkpt>
      <trkpt lat="43.17667" lon="5.82689">
        <ele>159.260223</ele>
        <time>2022-08-13T06:00:35Z</time>
      </trkpt>
      <trkpt lat="43.17676" lon="5.82681">
        <ele>159.334717</ele>
        <time>2022-08-13T06:00:37Z</time>
      </trkpt>
      <trkpt lat="43.17685" lon="5.82674">
        <ele>159.485367</ele>
        <time>2022-08-13T06:00:39Z</time>
      </trkpt>
      <trkpt lat="43.17695" lon="5.82667">
        <ele>159.562439</ele>
        <time>2022-08-13T06:00:41Z</time>
      </trkpt>
      <trkpt lat="43.17703" lon="5.8266">
        <ele>159.723724</ele>
        <time>2022-08-13T06:00:43Z</time>
      </trkpt>
      <trkpt lat="43.17712" lon="5.82653">
        <ele>159.809418</ele>
        <time>2022-08-13T06:00:45Z</time>
      </trkpt>
      <trkpt lat="43.17722" lon="5.82646">
        <ele>159.993866</ele>
        <time>2022-08-13T06:00:47Z</time>
      </trkpt>
      <trkpt lat="43.17732" lon="5.8264">
        <ele>160.1987</ele>
        <time>2022-08-13T06:00:49Z</time>
      </trkpt>
      <trkpt lat="43.17742" lon="5.82633">
        <ele>160.309677</ele>
        <time>2022-08-13T06:00:51Z</time>
      </trkpt>
      <trkpt lat="43.17751" lon="5.82626">
        <ele>160.550034</ele>
        <time>2022-08-13T06:00:53Z</time>
      </trkpt>
      <trkpt lat="43.17762" lon="5.82619">
        <ele>160.679993</ele>
        <time>2022-08-13T06:00:55Z</time>
      </trkpt>
      <trkpt lat="43.17771" lon="5.82613">
        <ele>160.961029</ele>
        <time>2022-08-13T06:00:57Z</time>
      </trkpt>
      <trkpt lat="43.17781" lon="5.82605">
        <ele>161.112244</ele>
        <time>2022-08-13T06:00:59Z</time>
      </trkpt>
      <trkpt lat="43.17792" lon="5.82598">
        <ele>161.436493</ele>
        <time>2022-08-13T06:01:01Z</time>
      </trkpt>
      <trkpt lat="43.17802" lon="5.82591">
        <ele>161.609772</ele>
        <time>2022-08-13T06:01:03Z</time>
      </trkpt>
      <trkpt lat="43.17813" lon="5.82585">
        <ele>161.980118</ele>
        <time>2022-08-13T06:01:05Z</time>
      </trkpt>
      <trkpt lat="43.17824" lon="5.82579">
        <ele>162.383148</ele>
        <time>2022-08-13T06:01:07Z</time>
      </trkpt>
      <trkpt lat="43.17835" lon="5.82572">
        <ele>162.59642</ele>
        <time>2022-08-13T06:01:09Z</time>
      </trkpt>
      <trkpt lat="43.17847" lon="5.82564">
        <ele>163.043076</ele>
        <time>2022-08-13T06:01:11Z</time>
      </trkpt>
      <trkpt lat="43.17857" lon="5.82557">
        <ele>163.274506</ele>
        <time>2022-08-13T06:01:13Z</time>
      </trkpt>
      <trkpt lat="43.17868" lon="5.8255">
        <ele>163.748184</ele>
        <time>2022-08-13T06:01:15Z</time>
      </trkpt>
      <trkpt lat="43.17878" lon="5.82543">
        <ele>164.229553</ele>
        <time>2022-08-13T06:01:17Z</time>
      </trkpt>
      <trkpt lat="43.17888" lon="5.82536">
        <ele>164.47081</ele>
        <time>2022-08-13T06:01:19Z</time>
      </trkpt>
      <trkpt lat="43.17898" lon="5.82529">
        <ele>164.949646</ele>
        <time>2022-08-13T06:01:21Z</time>
      </trkpt>
      <trkpt lat="43.17907" lon="5.82523">
        <ele>165.18515</ele>
        <time>2022-08-13T06:01:23Z</time>
      </trkpt>
      <trkpt lat="43.17917" lon="5.82516">
        <ele>165.644012</ele>
        <time>2022-08-13T06:01:25Z</time>
      </trkpt>
      <trkpt lat="43.17927" lon="5.8251">
        <ele>165.866074</ele>
        <time>2022-08-13T06:01:27Z</time>
      </trkpt>
      <trkpt lat="43.17936" lon="5.82503">
        <ele>166.293137</ele>
        <time>2022-08-13T06:01:29Z</time>
      </trkpt>
      <trkpt lat="43.17945" lon="5.82496">
        <ele>166.694778</ele>
        <time>2022-08-13T06:01:31Z</time>
      </trkpt>
      <trkpt lat="43.17953" lon="5.82489">
        <ele>166.885254</ele>
        <time>2022-08-13T06:01:33Z</time>
      </trkpt>
      <trkpt lat="43.17962" lon="5.82481">
        <ele>167.244354</ele>
        <time>2022-08-13T06:01:35Z</time>
      </trkpt>
      <trkpt lat="43.1797" lon="5.82474">
        <ele>167.412796</ele>
        <time>2022-08-13T06:01:37Z</time>
      </trkpt>
      <trkpt lat="43.17978" lon="5.82466">
        <ele>167.726471</ele>
        <time>2022-08-13T06:01:39Z</time>
      </trkpt>
      <trkpt lat="43.17987" lon="5.82457">
        <ele>168.010132</ele>
        <time>2022-08-13T06:01:41Z</time>
      </trkpt>
      <trkpt lat="43.17996" lon="5.82449">
        <ele>168.141769</ele>
        <time>2022-08-13T06:01:43Z</time>
      </trkpt>
      <trkpt lat="43.18005" lon="5.8244">
        <ele>168.387741</ele>
        <time>2022-08-13T06:01:45Z</time>
      </trkpt>
      <trkpt lat="43.18014" lon="5.82431">
        <ele>168.502838</ele>
        <time>2022-08-13T06:01:47Z</time>
      </trkpt>
      <trkpt lat="43.18024" lon="5.82423">
        <ele>168.718597</ele>
        <time>2022-08-13T06:01:49Z</time>
      </trkpt>
      <trkpt lat="43.18032" lon="5.82414">
        <ele>168.915115</ele>
        <time>2022-08-13T06:01:51Z</time>
      </trkpt>
      <trkpt lat="43.18041" lon="5.82405">
        <ele>169.005737</ele>
        <time>2022-08-13T06:01:53Z</time>
      </trkpt>
      <trkpt lat="43.18051" lon="5.82396">
        <ele>169.171387</ele>
        <time>2022-08-13T06:01:55Z</time>
      </trkpt>
      <trkpt lat="43.1806" lon="5.82388">
        <ele>169.247192</ele>
        <time>2022-08-13T06:01:57Z</time>
      </trkpt>
      <trkpt lat="43.1807" lon="5.82379">
        <ele>169.38797</ele>
        <time>2022-08-13T06:01:59Z</time>
      </trkpt>
      <trkpt lat="43.18079" lon="5.8237">
        <ele>169.454269</ele>
        <time>2022-08-13T06:02:01Z</time>
      </trkpt>
      <trkpt lat="43.18089" lon="5.82361">
        <ele>169.581299</ele>
        <time>2022-08-13T06:02:03Z</time>
      </trkpt>
      <trkpt lat="43.18099" lon="5.82352">
        <ele>169.702835</ele>
        <time>2022-08-13T06:02:05Z</time>
      </trkpt>
      <trkpt lat="43.18108" lon="5.82342">
        <ele>169.762207</ele>
        <time>2022-08-13T06:02:07Z</time>
      </trkpt>
      <trkpt lat="43.18118" lon="5.82333">
        <ele>169.880051</ele>
        <time>2022-08-13T06:02:09Z</time>
      </trkpt>
      <trkpt lat="43.18127" lon="5.82324">
        <ele>169.939896</ele>
        <time>2022-08-13T06:02:11Z</time>
      </trkpt>
      <trkpt lat="43.18136" lon="5.82315">
        <ele>170.066437</ele>
        <time>2022-08-13T06:02:13Z</time>
      </trkpt>
      <trkpt lat="43.18146" lon="5.82306">
        <ele>170.209442</ele>
        <time>2022-08-13T06:02:15Z</time>
      </trkpt>
      <trkpt lat="43.18156" lon="5.82297">
        <ele>170.289581</ele>
        <time>2022-08-13T06:02:17Z</time>
      </trkpt>
      <trkpt lat="43.18166" lon="5.82287">
        <ele>170.470871</ele>
        <time>2022-08-13T06:02:19Z</time>
      </trkpt>
      <trkpt lat="43.18175" lon="5.82279">
        <ele>170.573563</ele>
        <time>2022-08-13T06:02:21Z</time>
      </trkpt>
      <trkpt lat="43.18184" lon="5.8227">
        <ele>170.806152</ele>
        <time>2022-08-13T06:02:23Z</time>
      </trkpt>
      <trkpt lat="43.18193" lon="5.82263">
        <ele>171.077057</ele>
        <time>2022-08-13T06:02:25Z</time>
      </trkpt>
      <trkpt lat="43.18203" lon="5.82254">
        <ele>171.22644</ele>
        <time>2022-08-13T06:02:27Z</time>
      </trkpt>
      <trkpt lat="43.18212" lon="5.82247">
        <ele>171.550446</ele>
        <time>2022-08-13T06:02:29Z</time>
      </trkpt>
      <trkpt lat="43.18221" lon="5.82239">
        <ele>171.723801</ele>
        <time>2022-08-13T06:02:31Z</time>
      </trkpt>
      <trkpt lat="43.1823" lon="5.8223">
        <ele>172.09021</ele>
        <time>2022-08-13T06:02:33Z</time>
      </trkpt>
      <trkpt lat="43.1824" lon="5.82222">
        <ele>172.281906</ele>
        <time>2022-08-13T06:02:35Z</time>
      </trkpt>
      <trkpt lat="43.18248" lon="5.82213">
        <ele>172.67984</ele>
        <time>2022-08-13T06:02:37Z</time>
      </trkpt>
      <trkpt lat="43.18257" lon="5.82205">
        <ele>172.885498</ele>
        <time>2022-08-13T06:02:39Z</time>
      </trkpt>
      <trkpt lat="43.18266" lon="5.82197">
        <ele>173.308868</ele>
        <time>2022-08-13T06:02:41Z</time>
      </trkpt>
      <trkpt lat="43.18275" lon="5.82189">
        <ele>173.745773</ele>
        <time>2022-08-13T06:02:43Z</time>
      </trkpt>
      <trkpt lat="43.18284" lon="5.8218">
        <ele>173.968048</ele>
        <time>2022-08-13T06:02:45Z</time>
      </trkpt>
      <trkpt lat="43.18292" lon="5.82171">
        <ele>174.417511</ele>
        <time>2022-08-13T06:02:47Z</time>
      </trkpt>
      <trkpt lat="43.18301" lon="5.82162">
        <ele>174.64389</ele>
        <time>2022-08-13T06:02:49Z</time>
      </trkpt>
      <trkpt lat="43.1831" lon="5.82153">
        <ele>175.098923</ele>
        <time>2022-08-13T06:02:51Z</time>
      </trkpt>
      <trkpt lat="43.18319" lon="5.82145">
        <ele>175.556305</ele>
        <time>2022-08-13T06:02:53Z</time>
      </trkpt>
      <trkpt lat="43.18327" lon="5.82136">
        <ele>175.785492</ele>
        <time>2022-08-13T06:02:55Z</time>
      </trkpt>
      <trkpt lat="43.18335" lon="5.82128">
        <ele>176.244385</ele>
        <time>2022-08-13T06:02:57Z</time>
      </trkpt>
      <trkpt lat="43.18344" lon="5.8212">
        <ele>176.473907</ele>
        <time>2022-08-13T06:02:59Z</time>
      </trkpt>
      <trkpt lat="43.18353" lon="5.82112">
        <ele>176.932327</ele>
        <time>2022-08-13T06:03:01Z</time>
      </trkpt>
      <trkpt lat="43.18361" lon="5.82104">
        <ele>177.160431</ele>
        <time>2022-08-13T06:03:03Z</time>
      </trkpt>
      <trkpt lat="43.18369" lon="5.82096">
        <ele>177.611481</ele>
        <time>2022-08-13T06:03:05Z</time>
      </trkpt>
      <trkpt lat="43.18377" lon="5.82087">
        <ele>178.051956</ele>
        <time>2022-08-13T06:03:07Z</time>
      </trkpt>
      <trkpt lat="43.18385" lon="5.8208">
        <ele>178.267059</ele>
        <time>2022-08-13T06:03:09Z</time>
      </trkpt>
      <trkpt lat="43.18394" lon="5.82072">
        <ele>178.684906</ele>
        <time>2022-08-13T06:03:11Z</time>
      </trkpt>
      <trkpt lat="43.18402" lon="5.82063">
        <ele>178.886688</ele>
        <time>2022-08-13T06:03:13Z</time>
      </trkpt>
      <trkpt lat="43.18411" lon="5.82055">
        <ele>179.274109</ele>
        <time>2022-08-13T06:03:15Z</time>
      </trkpt>
      <trkpt lat="43.18419" lon="5.82047">
        <ele>179.459503</ele>
        <time>2022-08-13T06:03:17Z</time>
      </trkpt>
      <trkpt lat="43.18428" lon="5.82039">
        <ele>179.814484</ele>
        <time>2022-08-13T06:03:19Z</time>
      </trkpt>
      <trkpt lat="43.18437" lon="5.8203">
        <ele>180.150879</ele>
        <time>2022-08-13T06:03:21Z</time>
      </trkpt>
      <trkpt lat="43.18446" lon="5.82022">
        <ele>180.312759</ele>
        <time>2022-08-13T06:03:23Z</time>
      </trkpt>
      <trkpt lat="43.18455" lon="5.82014">
        <ele>180.624557</ele>
        <time>2022-08-13T06:03:25Z</time>
      </trkpt>
      <trkpt lat="43.18464" lon="5.82006">
        <ele>180.774506</ele>
        <time>2022-08-13T06:03:27Z</time>
      </trkpt>
      <trkpt lat="43.18472" lon="5.81997">
        <ele>181.062393</ele>
        <time>2022-08-13T06:03:29Z</time>
      </trkpt>
      <trkpt lat="43.18481" lon="5.81989">
        <ele>181.200409</ele>
        <time>2022-08-13T06:03:31Z</time>
      </trkpt>
      <trkpt lat="43.1849" lon="5.8198">
        <ele>181.466339</ele>
        <time>2022-08-13T06:03:33Z</time>
      </trkpt>
      <trkpt lat="43.18499" lon="5.81972">
        <ele>181.722641</ele>
        <time>2022-08-13T06:03:35Z</time>
      </trkpt>
      <trkpt lat="43.18507" lon="5.81964">
        <ele>181.848282</ele>
        <time>2022-08-13T06:03:37Z</time>
      </trkpt>
      <trkpt lat="43.18516" lon="5.81955">
        <ele>182.094513</ele>
        <time>2022-08-13T06:03:39Z</time>
      </trkpt>
      <trkpt lat="43.18525" lon="5.81946">
        <ele>182.214584</ele>
        <time>2022-08-13T06:03:41Z</time>
      </trkpt>
      <trkpt lat="43.18535" lon="5.81937">
        <ele>182.446869</ele>
        <time>2022-08-13T06:03:43Z</time>
      </trkpt>
      <trkpt lat="43.18544" lon="5.81928">
        <ele>182.666122</ele>
        <time>2022-08-13T06:03:45Z</time>
      </trkpt>
      <trkpt lat="43.18555" lon="5.81918">
        <ele>182.770676</ele>
        <time>2022-08-13T06:03:47Z</time>
      </trkpt>
      <trkpt lat="43.18565" lon="5.81908">
        <ele>182.969971</ele>
        <time>2022-08-13T06:03:49Z</time>
      </trkpt>
      <trkpt lat="43.18576" lon="5.81898">
        <ele>183.065155</ele>
        <time>2022-08-13T06:03:51Z</time>
      </trkpt>
      <trkpt lat="43.18586" lon="5.81888">
        <ele>183.248474</ele>
        <time>2022-08-13T06:03:53Z</time>
      </trkpt>
      <trkpt lat="43.18597" lon="5.81877">
        <ele>183.337036</ele>
        <time>2022-08-13T06:03:55Z</time>
      </trkpt>
      <trkpt lat="43.18607" lon="5.81866">
        <ele>183.509109</ele>
        <time>2022-08-13T06:03:57Z</time>
      </trkpt>
      <trkpt lat="43.18618" lon="5.81854">
        <ele>183.675461</ele>
        <time>2022-08-13T06:03:59Z</time>
      </trkpt>
      <trkpt lat="43.18629" lon="5.81842">
        <ele>183.756912</ele>
        <time>2022-08-13T06:04:01Z</time>
      </trkpt>
      <trkpt lat="43.1864" lon="5.8183">
        <ele>183.916962</ele>
        <time>2022-08-13T06:04:03Z</time>
      </trkpt>
      <trkpt lat="43.18651" lon="5.81819">
        <ele>183.995819</ele>
        <time>2022-08-13T06:04:05Z</time>
      </trkpt>
      <trkpt lat="43.18663" lon="5.81808">
        <ele>184.152481</ele>
        <time>2022-08-13T06:04:07Z</time>
      </trkpt>
      <trkpt lat="43.18674" lon="5.81796">
        <ele>184.230743</ele>
        <time>2022-08-13T06:04:09Z</time>
      </trkpt>
      <trkpt lat="43.18685" lon="5.81784">
        <ele>184.38736</ele>
        <time>2022-08-13T06:04:11Z</time>
      </trkpt>
      <trkpt lat="43.18697" lon="5.81772">
        <ele>184.542191</ele>
        <time>2022-08-13T06:04:13Z</time>
      </trkpt>
      <trkpt lat="43.18708" lon="5.81759">
        <ele>184.618195</ele>
        <time>2022-08-13T06:04:15Z</time>
      </trkpt>
      <trkpt lat="43.1872" lon="5.81747">
        <ele>184.766769</ele>
        <time>2022-08-13T06:04:17Z</time>
      </trkpt>
      <trkpt lat="43.18731" lon="5.81735">
        <ele>184.83931</ele>
        <time>2022-08-13T06:04:19Z</time>
      </trkpt>
      <trkpt lat="43.18742" lon="5.81723">
        <ele>184.980865</ele>
        <time>2022-08-13T06:04:21Z</time>
      </trkpt>
      <trkpt lat="43.18754" lon="5.81711">
        <ele>185.117096</ele>
        <time>2022-08-13T06:04:23Z</time>
      </trkpt>
      <trkpt lat="43.18765" lon="5.81699">
        <ele>185.182755</ele>
        <time>2022-08-13T06:04:25Z</time>
      </trkpt>
      <trkpt lat="43.18776" lon="5.81687">
        <ele>185.308502</ele>
        <time>2022-08-13T06:04:27Z</time>
      </trkpt>
      <trkpt lat="43.18786" lon="5.81675">
        <ele>185.368683</ele>
        <time>2022-08-13T06:04:29Z</time>
      </trkpt>
      <trkpt lat="43.18797" lon="5.81664">
        <ele>185.484634</ele>
        <time>2022-08-13T06:04:31Z</time>
      </trkpt>
      <trkpt lat="43.18808" lon="5.81653">
        <ele>185.540924</ele>
        <time>2022-08-13T06:04:33Z</time>
      </trkpt>
      <trkpt lat="43.18819" lon="5.81642">
        <ele>185.651886</ele>
        <time>2022-08-13T06:04:35Z</time>
      </trkpt>
      <trkpt lat="43.18829" lon="5.81631">
        <ele>185.761826</ele>
        <time>2022-08-13T06:04:37Z</time>
      </trkpt>
      <trkpt lat="43.1884" lon="5.81618">
        <ele>185.816498</ele>
        <time>2022-08-13T06:04:39Z</time>
      </trkpt>
      <trkpt lat="43.1885" lon="5.81606">
        <ele>185.924713</ele>
        <time>2022-08-13T06:04:41Z</time>
      </trkpt>
      <trkpt lat="43.18862" lon="5.81593">
        <ele>185.977814</ele>
        <time>2022-08-13T06:04:43Z</time>
      </trkpt>
      <trkpt lat="43.18874" lon="5.8158">
        <ele>186.081299</ele>
        <time>2022-08-13T06:04:45Z</time>
      </trkpt>
      <trkpt lat="43.18885" lon="5.81566">
        <ele>186.179352</ele>
        <time>2022-08-13T06:04:47Z</time>
      </trkpt>
      <trkpt lat="43.18896" lon="5.81551">
        <ele>186.225525</ele>
        <time>2022-08-13T06:04:49Z</time>
      </trkpt>
      <trkpt lat="43.18908" lon="5.81536">
        <ele>186.310165</ele>
        <time>2022-08-13T06:04:51Z</time>
      </trkpt>
      <trkpt lat="43.18919" lon="5.8152">
        <ele>186.347992</ele>
        <time>2022-08-13T06:04:53Z</time>
      </trkpt>
      <trkpt lat="43.1893" lon="5.81504">
        <ele>186.414215</ele>
        <time>2022-08-13T06:04:55Z</time>
      </trkpt>
      <trkpt lat="43.18943" lon="5.81488">
        <ele>186.442703</ele>
        <time>2022-08-13T06:04:57Z</time>
      </trkpt>
      <trkpt lat="43.18955" lon="5.81472">
        <ele>186.491257</ele>
        <time>2022-08-13T06:04:59Z</time>
      </trkpt>
      <trkpt lat="43.18967" lon="5.81456">
        <ele>186.530273</ele>
        <time>2022-08-13T06:05:01Z</time>
      </trkpt>
      <trkpt lat="43.18979" lon="5.8144">
        <ele>186.547119</ele>
        <time>2022-08-13T06:05:03Z</time>
      </trkpt>
      <trkpt lat="43.18991" lon="5.81424">
        <ele>186.577515</ele>
        <time>2022-08-13T06:05:05Z</time>
      </trkpt>
      <trkpt lat="43.19003" lon="5.81408">
        <ele>186.591644</ele>
        <time>2022-08-13T06:05:07Z</time>
      </trkpt>
      <trkpt lat="43.19014" lon="5.81392">
        <ele>186.618439</ele>
        <time>2022-08-13T06:05:09Z</time>
      </trkpt>
      <trkpt lat="43.19026" lon="5.81376">
        <ele>186.643021</ele>
        <time>2022-08-13T06:05:11Z</time>
      </trkpt>
      <trkpt lat="43.19038" lon="5.81358">
        <ele>186.65451</ele>
        <time>2022-08-13T06:05:13Z</time>
      </trkpt>
      <trkpt lat="43.19051" lon="5.8134">
        <ele>186.677216</ele>
        <time>2022-08-13T06:05:15Z</time>
      </trkpt>
      <trkpt lat="43.19064" lon="5.81322">
        <ele>186.689056</ele>
        <time>2022-08-13T06:05:17Z</time>
      </trkpt>
      <trkpt lat="43.19079" lon="5.81304">
        <ele>186.714203</ele>
        <time>2022-08-13T06:05:19Z</time>
      </trkpt>
      <trkpt lat="43.19093" lon="5.81286">
        <ele>186.726974</ele>
        <time>2022-08-13T06:05:21Z</time>
      </trkpt>
      <trkpt lat="43.19109" lon="5.81275">
        <ele>186.750778</ele>
        <time>2022-08-13T06:05:23Z</time>
      </trkpt>
      <trkpt lat="43.19127" lon="5.81277">
        <ele>186.768387</ele>
        <time>2022-08-13T06:05:25Z</time>
      </trkpt>
      <trkpt lat="43.19144" lon="5.81279">
        <ele>186.772263</ele>
        <time>2022-08-13T06:05:27Z</time>
      </trkpt>
      <trkpt lat="43.1916" lon="5.81271">
        <ele>186.758331</ele>
        <time>2022-08-13T06:05:29Z</time>
      </trkpt>
      <trkpt lat="43.19171" lon="5.81253">
        <ele>186.73465</ele>
        <time>2022-08-13T06:05:31Z</time>
      </trkpt>
      <trkpt lat="43.19174" lon="5.81231">
        <ele>186.643814</ele>
        <time>2022-08-13T06:05:33Z</time>
      </trkpt>
      <trkpt lat="43.19173" lon="5.81209">
        <ele>186.49968</ele>
        <time>2022-08-13T06:05:35Z</time>
      </trkpt>
      <trkpt lat="43.19175" lon="5.81187">
        <ele>186.415512</ele>
        <time>2022-08-13T06:05:37Z</time>
      </trkpt>
      <trkpt lat="43.19184" lon="5.81169">
        <ele>186.243774</ele>
        <time>2022-08-13T06:05:39Z</time>
      </trkpt>
      <trkpt lat="43.19195" lon="5.81153">
        <ele>186.161316</ele>
        <time>2022-08-13T06:05:41Z</time>
      </trkpt>
      <trkpt lat="43.19206" lon="5.81136">
        <ele>186.003311</ele>
        <time>2022-08-13T06:05:43Z</time>
      </trkpt>
      <trkpt lat="43.19217" lon="5.8112">
        <ele>185.925171</ele>
        <time>2022-08-13T06:05:45Z</time>
      </trkpt>
      <trkpt lat="43.19227" lon="5.81104">
        <ele>185.759537</ele>
        <time>2022-08-13T06:05:47Z</time>
      </trkpt>
      <trkpt lat="43.19238" lon="5.81088">
        <ele>185.668274</ele>
        <time>2022-08-13T06:05:49Z</time>
      </trkpt>
      <trkpt lat="43.19249" lon="5.81073">
        <ele>185.463959</ele>
        <time>2022-08-13T06:05:51Z</time>
      </trkpt>
      <trkpt lat="43.19261" lon="5.81057">
        <ele>185.226166</ele>
        <time>2022-08-13T06:05:53Z</time>
      </trkpt>
      <trkpt lat="43.19273" lon="5.81042">
        <ele>185.093643</ele>
        <time>2022-08-13T06:05:55Z</time>
      </trkpt>
      <trkpt lat="43.19285" lon="5.81027">
        <ele>184.79982</ele>
        <time>2022-08-13T06:05:57Z</time>
      </trkpt>
      <trkpt lat="43.19297" lon="5.81011">
        <ele>184.638702</ele>
        <time>2022-08-13T06:05:59Z</time>
      </trkpt>
      <trkpt lat="43.19309" lon="5.80995">
        <ele>184.289703</ele>
        <time>2022-08-13T06:06:01Z</time>
      </trkpt>
      <trkpt lat="43.19321" lon="5.80979">
        <ele>183.908371</ele>
        <time>2022-08-13T06:06:03Z</time>
      </trkpt>
      <trkpt lat="43.19333" lon="5.80963">
        <ele>183.706818</ele>
        <time>2022-08-13T06:06:05Z</time>
      </trkpt>
      <trkpt lat="43.19344" lon="5.80948">
        <ele>183.284256</ele>
        <time>2022-08-13T06:06:07Z</time>
      </trkpt>
      <trkpt lat="43.19355" lon="5.80932">
        <ele>183.064362</ele>
        <time>2022-08-13T06:06:09Z</time>
      </trkpt>
      <trkpt lat="43.19367" lon="5.80915">
        <ele>182.609833</ele>
        <time>2022-08-13T06:06:11Z</time>
      </trkpt>
      <trkpt lat="43.19379" lon="5.80899">
        <ele>182.375504</ele>
        <time>2022-08-13T06:06:13Z</time>
      </trkpt>
      <trkpt lat="43.19391" lon="5.80884">
        <ele>181.892624</ele>
        <time>2022-08-13T06:06:15Z</time>
      </trkpt>
      <trkpt lat="43.19402" lon="5.80867">
        <ele>181.644501</ele>
        <time>2022-08-13T06:06:17Z</time>
      </trkpt>
      <trkpt lat="43.19413" lon="5.80852">
        <ele>181.140106</ele>
        <time>2022-08-13T06:06:19Z</time>
      </trkpt>
      <trkpt lat="43.19424" lon="5.80835">
        <ele>180.641937</ele>
        <time>2022-08-13T06:06:21Z</time>
      </trkpt>
      <trkpt lat="43.19437" lon="5.80819">
        <ele>180.40213</ele>
        <time>2022-08-13T06:06:23Z</time>
      </trkpt>
      <trkpt lat="43.1945" lon="5.80802">
        <ele>179.946228</ele>
        <time>2022-08-13T06:06:25Z</time>
      </trkpt>
      <trkpt lat="43.19461" lon="5.80785">
        <ele>179.726471</ele>
        <time>2022-08-13T06:06:27Z</time>
      </trkpt>
      <trkpt lat="43.19474" lon="5.80768">
        <ele>179.284042</ele>
        <time>2022-08-13T06:06:29Z</time>
      </trkpt>
      <trkpt lat="43.19487" lon="5.80751">
        <ele>178.814774</ele>
        <time>2022-08-13T06:06:31Z</time>
      </trkpt>
      <trkpt lat="43.195" lon="5.80735">
        <ele>178.568466</ele>
        <time>2022-08-13T06:06:33Z</time>
      </trkpt>
      <trkpt lat="43.1951" lon="5.80721">
        <ele>178.059235</ele>
        <time>2022-08-13T06:06:35Z</time>
      </trkpt>
      <trkpt lat="43.19519" lon="5.80704">
        <ele>177.800644</ele>
        <time>2022-08-13T06:06:37Z</time>
      </trkpt>
      <trkpt lat="43.19531" lon="5.80687">
        <ele>177.286423</ele>
        <time>2022-08-13T06:06:39Z</time>
      </trkpt>
      <trkpt lat="43.19541" lon="5.80676">
        <ele>177.034058</ele>
        <time>2022-08-13T06:06:41Z</time>
      </trkpt>
      <trkpt lat="43.1955" lon="5.80669">
        <ele>176.546539</ele>
        <time>2022-08-13T06:06:43Z</time>
      </trkpt>
      <trkpt lat="43.19555" lon="5.80667">
        <ele>176.313889</ele>
        <time>2022-08-13T06:06:45Z</time>
      </trkpt>
      <trkpt lat="43.1956" lon="5.80665">
        <ele>175.874573</ele>
        <time>2022-08-13T06:06:47Z</time>
      </trkpt>
      <trkpt lat="43.19567" lon="5.80662">
        <ele>175.470673</ele>
        <time>2022-08-13T06:06:49Z</time>
      </trkpt>
      <trkpt lat="43.19574" lon="5.80654">
        <ele>175.281311</ele>
        <time>2022-08-13T06:06:51Z</time>
      </trkpt>
      <trkpt lat="43.19576" lon="5.80639">
        <ele>174.92572</ele>
        <time>2022-08-13T06:06:53Z</time>
      </trkpt>
      <trkpt lat="43.19572" lon="5.80625">
        <ele>174.75882</ele>
        <time>2022-08-13T06:06:55Z</time>
      </trkpt>
      <trkpt lat="43.19567" lon="5.80611">
        <ele>174.44635</ele>
        <time>2022-08-13T06:06:57Z</time>
      </trkpt>
      <trkpt lat="43.19566" lon="5.80594">
        <ele>174.162476</ele>
        <time>2022-08-13T06:06:59Z</time>
      </trkpt>
      <trkpt lat="43.19568" lon="5.8058">
        <ele>174.033401</ele>
        <time>2022-08-13T06:07:01Z</time>
      </trkpt>
      <trkpt lat="43.19571" lon="5.80565">
        <ele>173.805496</ele>
        <time>2022-08-13T06:07:03Z</time>
      </trkpt>
      <trkpt lat="43.19574" lon="5.8055">
        <ele>173.70816</ele>
        <time>2022-08-13T06:07:05Z</time>
      </trkpt>
      <trkpt lat="43.19576" lon="5.80535">
        <ele>173.549484</ele>
        <time>2022-08-13T06:07:07Z</time>
      </trkpt>
      <trkpt lat="43.19577" lon="5.80518">
        <ele>173.442429</ele>
        <time>2022-08-13T06:07:09Z</time>
      </trkpt>
      <trkpt lat="43.19577" lon="5.80499">
        <ele>173.409454</ele>
        <time>2022-08-13T06:07:11Z</time>
      </trkpt>
      <trkpt lat="43.19577" lon="5.80481">
        <ele>173.385361</ele>
        <time>2022-08-13T06:07:13Z</time>
      </trkpt>
      <trkpt lat="43.19579" lon="5.80465">
        <ele>173.393906</ele>
        <time>2022-08-13T06:07:15Z</time>
      </trkpt>
      <trkpt lat="43.19579" lon="5.80447">
        <ele>173.45137</ele>
        <time>2022-08-13T06:07:17Z</time>
      </trkpt>
      <trkpt lat="43.19579" lon="5.80429">
        <ele>173.500336</ele>
        <time>2022-08-13T06:07:19Z</time>
      </trkpt>
      <trkpt lat="43.19579" lon="5.80412">
        <ele>173.639267</ele>
        <time>2022-08-13T06:07:21Z</time>
      </trkpt>
      <trkpt lat="43.19579" lon="5.80395">
        <ele>173.831604</ele>
        <time>2022-08-13T06:07:23Z</time>
      </trkpt>
      <trkpt lat="43.1958" lon="5.80378">
        <ele>173.946991</ele>
        <time>2022-08-13T06:07:25Z</time>
      </trkpt>
      <trkpt lat="43.19581" lon="5.80362">
        <ele>174.214691</ele>
        <time>2022-08-13T06:07:27Z</time>
      </trkpt>
      <trkpt lat="43.19581" lon="5.80346">
        <ele>174.366547</ele>
        <time>2022-08-13T06:07:29Z</time>
      </trkpt>
      <trkpt lat="43.19581" lon="5.8033">
        <ele>174.70401</ele>
        <time>2022-08-13T06:07:31Z</time>
      </trkpt>
      <trkpt lat="43.19582" lon="5.80314">
        <ele>175.079941</ele>
        <time>2022-08-13T06:07:33Z</time>
      </trkpt>
      <trkpt lat="43.19583" lon="5.80299">
        <ele>175.279678</ele>
        <time>2022-08-13T06:07:35Z</time>
      </trkpt>
      <trkpt lat="43.19585" lon="5.80283">
        <ele>175.69899</ele>
        <time>2022-08-13T06:07:37Z</time>
      </trkpt>
      <trkpt lat="43.19586" lon="5.80269">
        <ele>175.917816</ele>
        <time>2022-08-13T06:07:39Z</time>
      </trkpt>
      <trkpt lat="43.19587" lon="5.80254">
        <ele>176.371857</ele>
        <time>2022-08-13T06:07:41Z</time>
      </trkpt>
      <trkpt lat="43.19589" lon="5.8024">
        <ele>176.605698</ele>
        <time>2022-08-13T06:07:43Z</time>
      </trkpt>
      <trkpt lat="43.1959" lon="5.80225">
        <ele>177.082581</ele>
        <time>2022-08-13T06:07:45Z</time>
      </trkpt>
      <trkpt lat="43.19592" lon="5.80211">
        <ele>177.323593</ele>
        <time>2022-08-13T06:07:47Z</time>
      </trkpt>
      <trkpt lat="43.19593" lon="5.80196">
        <ele>177.805023</ele>
        <time>2022-08-13T06:07:49Z</time>
      </trkpt>
      <trkpt lat="43.19595" lon="5.80182">
        <ele>178.275696</ele>
        <time>2022-08-13T06:07:51Z</time>
      </trkpt>
      <trkpt lat="43.19598" lon="5.80169">
        <ele>178.503387</ele>
        <time>2022-08-13T06:07:53Z</time>
      </trkpt>
      <trkpt lat="43.196" lon="5.80154">
        <ele>178.939636</ele>
        <time>2022-08-13T06:07:55Z</time>
      </trkpt>
      <trkpt lat="43.19598" lon="5.8014">
        <ele>179.14743</ele>
        <time>2022-08-13T06:07:57Z</time>
      </trkpt>
      <trkpt lat="43.19598" lon="5.80126">
        <ele>179.541595</ele>
        <time>2022-08-13T06:07:59Z</time>
      </trkpt>
      <trkpt lat="43.19598" lon="5.8011">
        <ele>179.907867</ele>
        <time>2022-08-13T06:08:01Z</time>
      </trkpt>
      <trkpt lat="43.19598" lon="5.80097">
        <ele>180.08107</ele>
        <time>2022-08-13T06:08:03Z</time>
      </trkpt>
      <trkpt lat="43.196" lon="5.80083">
        <ele>180.407013</ele>
        <time>2022-08-13T06:08:05Z</time>
      </trkpt>
      <trkpt lat="43.19602" lon="5.80069">
        <ele>180.559311</ele>
        <time>2022-08-13T06:08:07Z</time>
      </trkpt>
      <trkpt lat="43.19603" lon="5.80054">
        <ele>180.849701</ele>
        <time>2022-08-13T06:08:09Z</time>
      </trkpt>
      <trkpt lat="43.19603" lon="5.80038">
        <ele>181.162979</ele>
        <time>2022-08-13T06:08:11Z</time>
      </trkpt>
      <trkpt lat="43.19604" lon="5.80024">
        <ele>181.350754</ele>
        <time>2022-08-13T06:08:13Z</time>
      </trkpt>
      <trkpt lat="43.19605" lon="5.80009">
        <ele>181.827148</ele>
        <time>2022-08-13T06:08:15Z</time>
      </trkpt>
      <trkpt lat="43.19605" lon="5.79993">
        <ele>182.124115</ele>
        <time>2022-08-13T06:08:17Z</time>
      </trkpt>
      <trkpt lat="43.19606" lon="5.79979">
        <ele>182.831757</ele>
        <time>2022-08-13T06:08:19Z</time>
      </trkpt>
      <trkpt lat="43.19606" lon="5.79964">
        <ele>183.229538</ele>
        <time>2022-08-13T06:08:21Z</time>
      </trkpt>
      <trkpt lat="43.19607" lon="5.79948">
        <ele>184.069916</ele>
        <time>2022-08-13T06:08:23Z</time>
      </trkpt>
      <trkpt lat="43.19608" lon="5.79933">
        <ele>184.928177</ele>
        <time>2022-08-13T06:08:25Z</time>
      </trkpt>
      <trkpt lat="43.1961" lon="5.79918">
        <ele>185.355759</ele>
        <time>2022-08-13T06:08:27Z</time>
      </trkpt>
      <trkpt lat="43.19611" lon="5.79903">
        <ele>186.199188</ele>
        <time>2022-08-13T06:08:29Z</time>
      </trkpt>
      <trkpt lat="43.19613" lon="5.79888">
        <ele>186.612625</ele>
        <time>2022-08-13T06:08:31Z</time>
      </trkpt>
      <trkpt lat="43.19614" lon="5.79873">
        <ele>187.419556</ele>
        <time>2022-08-13T06:08:33Z</time>
      </trkpt>
      <trkpt lat="43.19616" lon="5.79858">
        <ele>188.199219</ele>
        <time>2022-08-13T06:08:35Z</time>
      </trkpt>
      <trkpt lat="43.19616" lon="5.79842">
        <ele>188.578979</ele>
        <time>2022-08-13T06:08:37Z</time>
      </trkpt>
      <trkpt lat="43.1962" lon="5.79828">
        <ele>189.32019</ele>
        <time>2022-08-13T06:08:39Z</time>
      </trkpt>
      <trkpt lat="43.19629" lon="5.79818">
        <ele>189.683395</ele>
        <time>2022-08-13T06:08:41Z</time>
      </trkpt>
      <trkpt lat="43.19636" lon="5.79806">
        <ele>190.397461</ele>
        <time>2022-08-13T06:08:43Z</time>
      </trkpt>
      <trkpt lat="43.19642" lon="5.79792">
        <ele>190.747559</ele>
        <time>2022-08-13T06:08:45Z</time>
      </trkpt>
      <trkpt lat="43.19642" lon="5.79776">
        <ele>191.428986</ele>
        <time>2022-08-13T06:08:47Z</time>
      </trkpt>
      <trkpt lat="43.19635" lon="5.79764">
        <ele>192.079102</ele>
        <time>2022-08-13T06:08:49Z</time>
      </trkpt>
      <trkpt lat="43.19626" lon="5.79754">
        <ele>192.392212</ele>
        <time>2022-08-13T06:08:51Z</time>
      </trkpt>
      <trkpt lat="43.19618" lon="5.79744">
        <ele>193.00177</ele>
        <time>2022-08-13T06:08:53Z</time>
      </trkpt>
      <trkpt lat="43.19613" lon="5.79733">
        <ele>193.303009</ele>
        <time>2022-08-13T06:08:55Z</time>
      </trkpt>
      <trkpt lat="43.19609" lon="5.79719">
        <ele>193.906754</ele>
        <time>2022-08-13T06:08:57Z</time>
      </trkpt>
      <trkpt lat="43.19604" lon="5.79705">
        <ele>194.208694</ele>
        <time>2022-08-13T06:08:59Z</time>
      </trkpt>
      <trkpt lat="43.19599" lon="5.79691">
        <ele>194.789154</ele>
        <time>2022-08-13T06:09:01Z</time>
      </trkpt>
      <trkpt lat="43.19594" lon="5.79678">
        <ele>195.050217</ele>
        <time>2022-08-13T06:09:03Z</time>
      </trkpt>
      <trkpt lat="43.19589" lon="5.79665">
        <ele>195.464325</ele>
        <time>2022-08-13T06:09:05Z</time>
      </trkpt>
      <trkpt lat="43.19584" lon="5.79652">
        <ele>195.690887</ele>
        <time>2022-08-13T06:09:07Z</time>
      </trkpt>
      <trkpt lat="43.19579" lon="5.7964">
        <ele>195.727814</ele>
        <time>2022-08-13T06:09:09Z</time>
      </trkpt>
      <trkpt lat="43.19575" lon="5.79628">
        <ele>195.671494</ele>
        <time>2022-08-13T06:09:11Z</time>
      </trkpt>
      <trkpt lat="43.19572" lon="5.79616">
        <ele>195.594376</ele>
        <time>2022-08-13T06:09:13Z</time>
      </trkpt>
      <trkpt lat="43.19571" lon="5.79602">
        <ele>195.380219</ele>
        <time>2022-08-13T06:09:15Z</time>
      </trkpt>
      <trkpt lat="43.19568" lon="5.79587">
        <ele>195.251801</ele>
        <time>2022-08-13T06:09:17Z</time>
      </trkpt>
      <trkpt lat="43.19561" lon="5.79575">
        <ele>194.962601</ele>
        <time>2022-08-13T06:09:19Z</time>
      </trkpt>
      <trkpt lat="43.19552" lon="5.79567">
        <ele>194.636749</ele>
        <time>2022-08-13T06:09:21Z</time>
      </trkpt>
      <trkpt lat="43.19542" lon="5.79561">
        <ele>194.462479</ele>
        <time>2022-08-13T06:09:23Z</time>
      </trkpt>
      <trkpt lat="43.19536" lon="5.79548">
        <ele>194.097443</ele>
        <time>2022-08-13T06:09:25Z</time>
      </trkpt>
      <trkpt lat="43.19528" lon="5.79536">
        <ele>193.9095</ele>
        <time>2022-08-13T06:09:27Z</time>
      </trkpt>
      <trkpt lat="43.19519" lon="5.79523">
        <ele>193.526428</ele>
        <time>2022-08-13T06:09:29Z</time>
      </trkpt>
      <trkpt lat="43.19508" lon="5.79511">
        <ele>193.330521</ele>
        <time>2022-08-13T06:09:31Z</time>
      </trkpt>
      <trkpt lat="43.19496" lon="5.79498">
        <ele>192.92514</ele>
        <time>2022-08-13T06:09:33Z</time>
      </trkpt>
      <trkpt lat="43.19484" lon="5.79485">
        <ele>192.716248</ele>
        <time>2022-08-13T06:09:35Z</time>
      </trkpt>
      <trkpt lat="43.19472" lon="5.79471">
        <ele>192.29335</ele>
        <time>2022-08-13T06:09:37Z</time>
      </trkpt>
      <trkpt lat="43.19459" lon="5.79456">
        <ele>191.874054</ele>
        <time>2022-08-13T06:09:39Z</time>
      </trkpt>
      <trkpt lat="43.19445" lon="5.79439">
        <ele>191.667313</ele>
        <time>2022-08-13T06:09:41Z</time>
      </trkpt>
      <trkpt lat="43.19431" lon="5.79422">
        <ele>191.25592</ele>
        <time>2022-08-13T06:09:43Z</time>
      </trkpt>
      <trkpt lat="43.19418" lon="5.79402">
        <ele>191.047821</ele>
        <time>2022-08-13T06:09:45Z</time>
      </trkpt>
      <trkpt lat="43.19407" lon="5.7938">
        <ele>190.616791</ele>
        <time>2022-08-13T06:09:47Z</time>
      </trkpt>
      <trkpt lat="43.19399" lon="5.79357">
        <ele>190.391479</ele>
        <time>2022-08-13T06:09:49Z</time>
      </trkpt>
      <trkpt lat="43.19391" lon="5.79333">
        <ele>189.919922</ele>
        <time>2022-08-13T06:09:51Z</time>
      </trkpt>
      <trkpt lat="43.19381" lon="5.79306">
        <ele>189.423737</ele>
        <time>2022-08-13T06:09:53Z</time>
      </trkpt>
      <trkpt lat="43.19371" lon="5.79281">
        <ele>189.168518</ele>
        <time>2022-08-13T06:09:55Z</time>
      </trkpt>
      <trkpt lat="43.19358" lon="5.79258">
        <ele>188.644684</ele>
        <time>2022-08-13T06:09:57Z</time>
      </trkpt>
      <trkpt lat="43.19344" lon="5.79238">
        <ele>188.374268</ele>
        <time>2022-08-13T06:09:59Z</time>
      </trkpt>
      <trkpt lat="43.19326" lon="5.79219">
        <ele>187.809784</ele>
        <time>2022-08-13T06:10:01Z</time>
      </trkpt>
      <trkpt lat="43.19307" lon="5.792">
        <ele>187.512482</ele>
        <time>2022-08-13T06:10:03Z</time>
      </trkpt>
      <trkpt lat="43.19289" lon="5.7918">
        <ele>186.880615</ele>
        <time>2022-08-13T06:10:05Z</time>
      </trkpt>
      <trkpt lat="43.1927" lon="5.79159">
        <ele>186.54364</ele>
        <time>2022-08-13T06:10:07Z</time>
      </trkpt>
      <trkpt lat="43.19254" lon="5.79136">
        <ele>185.820267</ele>
        <time>2022-08-13T06:10:09Z</time>
      </trkpt>
      <trkpt lat="43.19241" lon="5.79109">
        <ele>185.019196</ele>
        <time>2022-08-13T06:10:11Z</time>
      </trkpt>
      <trkpt lat="43.19231" lon="5.79079">
        <ele>184.587784</ele>
        <time>2022-08-13T06:10:13Z</time>
      </trkpt>
      <trkpt lat="43.19226" lon="5.79047">
        <ele>183.660431</ele>
        <time>2022-08-13T06:10:15Z</time>
      </trkpt>
      <trkpt lat="43.19221" lon="5.79013">
        <ele>183.159164</ele>
        <time>2022-08-13T06:10:17Z</time>
      </trkpt>
      <trkpt lat="43.19217" lon="5.78979">
        <ele>182.055649</ele>
        <time>2022-08-13T06:10:19Z</time>
      </trkpt>
      <trkpt lat="43.19215" lon="5.78945">
        <ele>180.793854</ele>
        <time>2022-08-13T06:10:21Z</time>
      </trkpt>
      <trkpt lat="43.19212" lon="5.78912">
        <ele>180.101181</ele>
        <time>2022-08-13T06:10:23Z</time>
      </trkpt>
      <trkpt lat="43.19209" lon="5.78878">
        <ele>178.599396</ele>
        <time>2022-08-13T06:10:25Z</time>
      </trkpt>
      <trkpt lat="43.19162" lon="5.78698">
        <ele>177.79538</ele>
        <time>2022-08-13T06:10:36Z</time>
      </trkpt>
      <trkpt lat="43.19162" lon="5.78664">
        <ele>176.144958</ele>
        <time>2022-08-13T06:10:38Z</time>
      </trkpt>
      <trkpt lat="43.19162" lon="5.78628">
        <ele>175.270126</ele>
        <time>2022-08-13T06:10:40Z</time>
      </trkpt>
      <trkpt lat="43.19162" lon="5.78592">
        <ele>173.40773</ele>
        <time>2022-08-13T06:10:42Z</time>
      </trkpt>
      <trkpt lat="43.1916" lon="5.78557">
        <ele>171.398132</ele>
        <time>2022-08-13T06:10:44Z</time>
      </trkpt>
      <trkpt lat="43.19155" lon="5.78523">
        <ele>170.352966</ele>
        <time>2022-08-13T06:10:46Z</time>
      </trkpt>
      <trkpt lat="43.19147" lon="5.7849">
        <ele>168.208893</ele>
        <time>2022-08-13T06:10:48Z</time>
      </trkpt>
      <trkpt lat="43.19133" lon="5.78459">
        <ele>167.117035</ele>
        <time>2022-08-13T06:10:50Z</time>
      </trkpt>
      <trkpt lat="43.19117" lon="5.78433">
        <ele>164.901962</ele>
        <time>2022-08-13T06:10:52Z</time>
      </trkpt>
      <trkpt lat="43.19098" lon="5.78411">
        <ele>162.63887</ele>
        <time>2022-08-13T06:10:54Z</time>
      </trkpt>
      <trkpt lat="43.19078" lon="5.78391">
        <ele>161.483856</ele>
        <time>2022-08-13T06:10:56Z</time>
      </trkpt>
      <trkpt lat="43.19058" lon="5.78372">
        <ele>159.119873</ele>
        <time>2022-08-13T06:10:58Z</time>
      </trkpt>
      <trkpt lat="43.19038" lon="5.78353">
        <ele>157.909973</ele>
        <time>2022-08-13T06:11:00Z</time>
      </trkpt>
      <trkpt lat="43.19022" lon="5.78338">
        <ele>155.438812</ele>
        <time>2022-08-13T06:11:02Z</time>
      </trkpt>
      <trkpt lat="43.19013" lon="5.78319">
        <ele>154.181641</ele>
        <time>2022-08-13T06:11:04Z</time>
      </trkpt>
      <trkpt lat="43.19014" lon="5.78296">
        <ele>151.641083</ele>
        <time>2022-08-13T06:11:06Z</time>
      </trkpt>
      <trkpt lat="43.19017" lon="5.78273">
        <ele>149.088089</ele>
        <time>2022-08-13T06:11:08Z</time>
      </trkpt>
      <trkpt lat="43.19025" lon="5.78249">
        <ele>147.815994</ele>
        <time>2022-08-13T06:11:10Z</time>
      </trkpt>
      <trkpt lat="43.19034" lon="5.78225">
        <ele>145.292328</ele>
        <time>2022-08-13T06:11:12Z</time>
      </trkpt>
      <trkpt lat="43.19045" lon="5.78201">
        <ele>144.044281</ele>
        <time>2022-08-13T06:11:14Z</time>
      </trkpt>
      <trkpt lat="43.19056" lon="5.78176">
        <ele>141.587067</ele>
        <time>2022-08-13T06:11:16Z</time>
      </trkpt>
      <trkpt lat="43.19068" lon="5.78149">
        <ele>140.388504</ele>
        <time>2022-08-13T06:11:18Z</time>
      </trkpt>
      <trkpt lat="43.1908" lon="5.78121">
        <ele>138.078415</ele>
        <time>2022-08-13T06:11:20Z</time>
      </trkpt>
      <trkpt lat="43.19093" lon="5.78092">
        <ele>135.904144</ele>
        <time>2022-08-13T06:11:22Z</time>
      </trkpt>
      <trkpt lat="43.19103" lon="5.78062">
        <ele>134.86734</ele>
        <time>2022-08-13T06:11:24Z</time>
      </trkpt>
      <trkpt lat="43.19113" lon="5.7803">
        <ele>132.878525</ele>
        <time>2022-08-13T06:11:26Z</time>
      </trkpt>
      <trkpt lat="43.1912" lon="5.77994">
        <ele>131.89325</ele>
        <time>2022-08-13T06:11:28Z</time>
      </trkpt>
      <trkpt lat="43.19126" lon="5.77959">
        <ele>129.984055</ele>
        <time>2022-08-13T06:11:30Z</time>
      </trkpt>
      <trkpt lat="43.19131" lon="5.77926">
        <ele>128.172699</ele>
        <time>2022-08-13T06:11:32Z</time>
      </trkpt>
      <trkpt lat="43.19136" lon="5.77892">
        <ele>127.303688</ele>
        <time>2022-08-13T06:11:34Z</time>
      </trkpt>
      <trkpt lat="43.1914" lon="5.77858">
        <ele>125.608719</ele>
        <time>2022-08-13T06:11:36Z</time>
      </trkpt>
      <trkpt lat="43.19145" lon="5.77824">
        <ele>124.769264</ele>
        <time>2022-08-13T06:11:38Z</time>
      </trkpt>
      <trkpt lat="43.1915" lon="5.7779">
        <ele>123.087318</ele>
        <time>2022-08-13T06:11:40Z</time>
      </trkpt>
      <trkpt lat="43.19154" lon="5.77754">
        <ele>122.240784</ele>
        <time>2022-08-13T06:11:42Z</time>
      </trkpt>
      <trkpt lat="43.19158" lon="5.77719">
        <ele>120.539757</ele>
        <time>2022-08-13T06:11:44Z</time>
      </trkpt>
      <trkpt lat="43.19162" lon="5.77684">
        <ele>119.691917</ele>
        <time>2022-08-13T06:11:46Z</time>
      </trkpt>
      <trkpt lat="43.19166" lon="5.77648">
        <ele>118.022568</ele>
        <time>2022-08-13T06:11:48Z</time>
      </trkpt>
      <trkpt lat="43.1917" lon="5.77612">
        <ele>116.406494</ele>
        <time>2022-08-13T06:11:50Z</time>
      </trkpt>
      <trkpt lat="43.19175" lon="5.77578">
        <ele>115.622482</ele>
        <time>2022-08-13T06:11:52Z</time>
      </trkpt>
      <trkpt lat="43.19179" lon="5.77544">
        <ele>114.105614</ele>
        <time>2022-08-13T06:11:54Z</time>
      </trkpt>
      <trkpt lat="43.19182" lon="5.77511">
        <ele>113.371094</ele>
        <time>2022-08-13T06:11:56Z</time>
      </trkpt>
      <trkpt lat="43.19187" lon="5.7748">
        <ele>111.942917</ele>
        <time>2022-08-13T06:11:58Z</time>
      </trkpt>
      <trkpt lat="43.19199" lon="5.77369">
        <ele>107.937515</ele>
        <time>2022-08-13T06:12:05Z</time>
      </trkpt>
      <trkpt lat="43.19203" lon="5.77338">
        <ele>107.302902</ele>
        <time>2022-08-13T06:12:07Z</time>
      </trkpt>
      <trkpt lat="43.19206" lon="5.77308">
        <ele>106.050255</ele>
        <time>2022-08-13T06:12:09Z</time>
      </trkpt>
      <trkpt lat="43.1921" lon="5.77279">
        <ele>105.430344</ele>
        <time>2022-08-13T06:12:11Z</time>
      </trkpt>
      <trkpt lat="43.19215" lon="5.77251">
        <ele>104.201233</ele>
        <time>2022-08-13T06:12:13Z</time>
      </trkpt>
      <trkpt lat="43.19221" lon="5.77221">
        <ele>103.591713</ele>
        <time>2022-08-13T06:12:15Z</time>
      </trkpt>
      <trkpt lat="43.19228" lon="5.77193">
        <ele>102.380417</ele>
        <time>2022-08-13T06:12:17Z</time>
      </trkpt>
      <trkpt lat="43.19235" lon="5.77164">
        <ele>101.777092</ele>
        <time>2022-08-13T06:12:19Z</time>
      </trkpt>
      <trkpt lat="43.19244" lon="5.77136">
        <ele>100.574699</ele>
        <time>2022-08-13T06:12:21Z</time>
      </trkpt>
      <trkpt lat="43.19255" lon="5.77109">
        <ele>99.384018</ele>
        <time>2022-08-13T06:12:23Z</time>
      </trkpt>
      <trkpt lat="43.19264" lon="5.77083">
        <ele>98.796982</ele>
        <time>2022-08-13T06:12:25Z</time>
      </trkpt>
      <trkpt lat="43.19272" lon="5.77055">
        <ele>97.644646</ele>
        <time>2022-08-13T06:12:27Z</time>
      </trkpt>
      <trkpt lat="43.1928" lon="5.7703">
        <ele>97.081718</ele>
        <time>2022-08-13T06:12:29Z</time>
      </trkpt>
      <trkpt lat="43.19287" lon="5.77005">
        <ele>95.988533</ele>
        <time>2022-08-13T06:12:31Z</time>
      </trkpt>
      <trkpt lat="43.19291" lon="5.76979">
        <ele>94.94751</ele>
        <time>2022-08-13T06:12:33Z</time>
      </trkpt>
      <trkpt lat="43.19289" lon="5.76948">
        <ele>94.447891</ele>
        <time>2022-08-13T06:12:35Z</time>
      </trkpt>
      <trkpt lat="43.19291" lon="5.76919">
        <ele>93.486298</ele>
        <time>2022-08-13T06:12:37Z</time>
      </trkpt>
      <trkpt lat="43.19293" lon="5.76891">
        <ele>93.021996</ele>
        <time>2022-08-13T06:12:39Z</time>
      </trkpt>
      <trkpt lat="43.19294" lon="5.76862">
        <ele>92.123497</ele>
        <time>2022-08-13T06:12:41Z</time>
      </trkpt>
      <trkpt lat="43.19297" lon="5.76836">
        <ele>91.688858</ele>
        <time>2022-08-13T06:12:43Z</time>
      </trkpt>
      <trkpt lat="43.19298" lon="5.76808">
        <ele>90.846756</ele>
        <time>2022-08-13T06:12:45Z</time>
      </trkpt>
      <trkpt lat="43.19302" lon="5.76783">
        <ele>90.038185</ele>
        <time>2022-08-13T06:12:47Z</time>
      </trkpt>
      <trkpt lat="43.19302" lon="5.76756">
        <ele>89.646873</ele>
        <time>2022-08-13T06:12:49Z</time>
      </trkpt>
      <trkpt lat="43.19303" lon="5.76728">
        <ele>88.891335</ele>
        <time>2022-08-13T06:12:51Z</time>
      </trkpt>
      <trkpt lat="43.19294" lon="5.76469">
        <ele>83.922722</ele>
        <time>2022-08-13T06:13:11Z</time>
      </trkpt>
      <trkpt lat="43.19289" lon="5.76449">
        <ele>83.689651</ele>
        <time>2022-08-13T06:13:13Z</time>
      </trkpt>
      <trkpt lat="43.19276" lon="5.76435">
        <ele>83.267143</ele>
        <time>2022-08-13T06:13:15Z</time>
      </trkpt>
      <trkpt lat="43.1926" lon="5.76452">
        <ele>83.075676</ele>
        <time>2022-08-13T06:13:17Z</time>
      </trkpt>
      <trkpt lat="43.19249" lon="5.76465">
        <ele>82.721138</ele>
        <time>2022-08-13T06:13:19Z</time>
      </trkpt>
      <trkpt lat="43.19237" lon="5.76478">
        <ele>82.552673</ele>
        <time>2022-08-13T06:13:21Z</time>
      </trkpt>
      <trkpt lat="43.19223" lon="5.76492">
        <ele>82.222519</ele>
        <time>2022-08-13T06:13:23Z</time>
      </trkpt>
      <trkpt lat="43.19207" lon="5.76504">
        <ele>81.891785</ele>
        <time>2022-08-13T06:13:25Z</time>
      </trkpt>
      <trkpt lat="43.19188" lon="5.76514">
        <ele>81.723412</ele>
        <time>2022-08-13T06:13:27Z</time>
      </trkpt>
      <trkpt lat="43.19166" lon="5.76521">
        <ele>81.37822</ele>
        <time>2022-08-13T06:13:29Z</time>
      </trkpt>
      <trkpt lat="43.19141" lon="5.76531">
        <ele>81.201805</ele>
        <time>2022-08-13T06:13:31Z</time>
      </trkpt>
      <trkpt lat="43.19117" lon="5.76543">
        <ele>80.843246</ele>
        <time>2022-08-13T06:13:33Z</time>
      </trkpt>
      <trkpt lat="43.19095" lon="5.76553">
        <ele>80.660828</ele>
        <time>2022-08-13T06:13:35Z</time>
      </trkpt>
      <trkpt lat="43.19073" lon="5.76566">
        <ele>80.285973</ele>
        <time>2022-08-13T06:13:37Z</time>
      </trkpt>
      <trkpt lat="43.19051" lon="5.76579">
        <ele>79.888504</ele>
        <time>2022-08-13T06:13:39Z</time>
      </trkpt>
      <trkpt lat="43.19032" lon="5.76594">
        <ele>79.677818</ele>
        <time>2022-08-13T06:13:41Z</time>
      </trkpt>
      <trkpt lat="43.19013" lon="5.7661">
        <ele>79.229637</ele>
        <time>2022-08-13T06:13:43Z</time>
      </trkpt>
      <trkpt lat="43.18993" lon="5.76626">
        <ele>78.992813</ele>
        <time>2022-08-13T06:13:45Z</time>
      </trkpt>
      <trkpt lat="43.18974" lon="5.76643">
        <ele>78.498146</ele>
        <time>2022-08-13T06:13:47Z</time>
      </trkpt>
      <trkpt lat="43.18952" lon="5.76658">
        <ele>78.242264</ele>
        <time>2022-08-13T06:13:49Z</time>
      </trkpt>
      <trkpt lat="43.18932" lon="5.76675">
        <ele>77.718811</ele>
        <time>2022-08-13T06:13:51Z</time>
      </trkpt>
      <trkpt lat="43.18911" lon="5.7669">
        <ele>77.18602</ele>
        <time>2022-08-13T06:13:53Z</time>
      </trkpt>
      <trkpt lat="43.18892" lon="5.76706">
        <ele>76.91774</ele>
        <time>2022-08-13T06:13:55Z</time>
      </trkpt>
      <trkpt lat="43.18873" lon="5.76722">
        <ele>76.376968</ele>
        <time>2022-08-13T06:13:57Z</time>
      </trkpt>
      <trkpt lat="43.18854" lon="5.76738">
        <ele>76.103195</ele>
        <time>2022-08-13T06:13:59Z</time>
      </trkpt>
      <trkpt lat="43.18837" lon="5.76753">
        <ele>75.544556</ele>
        <time>2022-08-13T06:14:01Z</time>
      </trkpt>
      <trkpt lat="43.18819" lon="5.76768">
        <ele>75.258804</ele>
        <time>2022-08-13T06:14:03Z</time>
      </trkpt>
      <trkpt lat="43.18802" lon="5.76782">
        <ele>74.676575</ele>
        <time>2022-08-13T06:14:05Z</time>
      </trkpt>
      <trkpt lat="43.18786" lon="5.76796">
        <ele>74.086899</ele>
        <time>2022-08-13T06:14:07Z</time>
      </trkpt>
      <trkpt lat="43.1877" lon="5.76809">
        <ele>73.792862</ele>
        <time>2022-08-13T06:14:09Z</time>
      </trkpt>
      <trkpt lat="43.18754" lon="5.76822">
        <ele>73.214813</ele>
        <time>2022-08-13T06:14:11Z</time>
      </trkpt>
      <trkpt lat="43.18739" lon="5.76835">
        <ele>72.932297</ele>
        <time>2022-08-13T06:14:13Z</time>
      </trkpt>
      <trkpt lat="43.18723" lon="5.76848">
        <ele>72.379227</ele>
        <time>2022-08-13T06:14:15Z</time>
      </trkpt>
      <trkpt lat="43.18707" lon="5.76862">
        <ele>72.107468</ele>
        <time>2022-08-13T06:14:17Z</time>
      </trkpt>
      <trkpt lat="43.18692" lon="5.76877">
        <ele>71.572189</ele>
        <time>2022-08-13T06:14:19Z</time>
      </trkpt>
      <trkpt lat="43.18676" lon="5.7689">
        <ele>71.046494</ele>
        <time>2022-08-13T06:14:21Z</time>
      </trkpt>
      <trkpt lat="43.18659" lon="5.76903">
        <ele>70.787003</ele>
        <time>2022-08-13T06:14:23Z</time>
      </trkpt>
      <trkpt lat="43.18643" lon="5.76914">
        <ele>70.275253</ele>
        <time>2022-08-13T06:14:25Z</time>
      </trkpt>
      <trkpt lat="43.18626" lon="5.76926">
        <ele>70.024101</ele>
        <time>2022-08-13T06:14:27Z</time>
      </trkpt>
      <trkpt lat="43.18609" lon="5.76936">
        <ele>69.535652</ele>
        <time>2022-08-13T06:14:29Z</time>
      </trkpt>
      <trkpt lat="43.18589" lon="5.76946">
        <ele>69.071274</ele>
        <time>2022-08-13T06:14:31Z</time>
      </trkpt>
      <trkpt lat="43.1857" lon="5.76954">
        <ele>68.848892</ele>
        <time>2022-08-13T06:14:33Z</time>
      </trkpt>
      <trkpt lat="43.1855" lon="5.76962">
        <ele>68.42038</ele>
        <time>2022-08-13T06:14:35Z</time>
      </trkpt>
      <trkpt lat="43.1853" lon="5.76969">
        <ele>68.212845</ele>
        <time>2022-08-13T06:14:37Z</time>
      </trkpt>
      <trkpt lat="43.18509" lon="5.76974">
        <ele>67.810501</ele>
        <time>2022-08-13T06:14:39Z</time>
      </trkpt>
      <trkpt lat="43.18488" lon="5.76979">
        <ele>67.616623</ele>
        <time>2022-08-13T06:14:41Z</time>
      </trkpt>
      <trkpt lat="43.18467" lon="5.76981">
        <ele>67.244911</ele>
        <time>2022-08-13T06:14:43Z</time>
      </trkpt>
      <trkpt lat="43.18446" lon="5.76984">
        <ele>66.893875</ele>
        <time>2022-08-13T06:14:45Z</time>
      </trkpt>
      <trkpt lat="43.18427" lon="5.76989">
        <ele>66.725586</ele>
        <time>2022-08-13T06:14:47Z</time>
      </trkpt>
      <trkpt lat="43.18406" lon="5.76995">
        <ele>66.403</ele>
        <time>2022-08-13T06:14:49Z</time>
      </trkpt>
      <trkpt lat="43.18385" lon="5.77001">
        <ele>66.24839</ele>
        <time>2022-08-13T06:14:51Z</time>
      </trkpt>
      <trkpt lat="43.18364" lon="5.77007">
        <ele>65.95018</ele>
        <time>2022-08-13T06:14:53Z</time>
      </trkpt>
      <trkpt lat="43.18344" lon="5.77012">
        <ele>65.804527</ele>
        <time>2022-08-13T06:14:55Z</time>
      </trkpt>
      <trkpt lat="43.18323" lon="5.77018">
        <ele>65.513962</ele>
        <time>2022-08-13T06:14:57Z</time>
      </trkpt>
      <trkpt lat="43.18303" lon="5.77024">
        <ele>65.366875</ele>
        <time>2022-08-13T06:14:59Z</time>
      </trkpt>
      <trkpt lat="43.18282" lon="5.7703">
        <ele>65.065964</ele>
        <time>2022-08-13T06:15:01Z</time>
      </trkpt>
      <trkpt lat="43.18263" lon="5.77038">
        <ele>64.757278</ele>
        <time>2022-08-13T06:15:03Z</time>
      </trkpt>
      <trkpt lat="43.18243" lon="5.77047">
        <ele>64.60218</ele>
        <time>2022-08-13T06:15:05Z</time>
      </trkpt>
      <trkpt lat="43.18224" lon="5.77056">
        <ele>64.297005</ele>
        <time>2022-08-13T06:15:07Z</time>
      </trkpt>
      <trkpt lat="43.18205" lon="5.77065">
        <ele>64.149017</ele>
        <time>2022-08-13T06:15:09Z</time>
      </trkpt>
      <trkpt lat="43.18186" lon="5.77074">
        <ele>63.865437</ele>
        <time>2022-08-13T06:15:11Z</time>
      </trkpt>
      <trkpt lat="43.18166" lon="5.77083">
        <ele>63.730446</ele>
        <time>2022-08-13T06:15:13Z</time>
      </trkpt>
      <trkpt lat="43.18147" lon="5.77092">
        <ele>63.475441</ele>
        <time>2022-08-13T06:15:15Z</time>
      </trkpt>
      <trkpt lat="43.18128" lon="5.77098">
        <ele>63.243904</ele>
        <time>2022-08-13T06:15:17Z</time>
      </trkpt>
      <trkpt lat="43.18108" lon="5.77099">
        <ele>63.138153</ele>
        <time>2022-08-13T06:15:19Z</time>
      </trkpt>
      <trkpt lat="43.18088" lon="5.771">
        <ele>62.946281</ele>
        <time>2022-08-13T06:15:21Z</time>
      </trkpt>
      <trkpt lat="43.18069" lon="5.77102">
        <ele>62.859295</ele>
        <time>2022-08-13T06:15:23Z</time>
      </trkpt>
      <trkpt lat="43.1805" lon="5.77105">
        <ele>62.700104</ele>
        <time>2022-08-13T06:15:25Z</time>
      </trkpt>
      <trkpt lat="43.18032" lon="5.77114">
        <ele>62.626301</ele>
        <time>2022-08-13T06:15:27Z</time>
      </trkpt>
      <trkpt lat="43.18018" lon="5.77129">
        <ele>62.48653</ele>
        <time>2022-08-13T06:15:29Z</time>
      </trkpt>
      <trkpt lat="43.18011" lon="5.77152">
        <ele>62.355835</ele>
        <time>2022-08-13T06:15:31Z</time>
      </trkpt>
      <trkpt lat="43.18009" lon="5.77174">
        <ele>62.294994</ele>
        <time>2022-08-13T06:15:33Z</time>
      </trkpt>
      <trkpt lat="43.18009" lon="5.77196">
        <ele>62.18766</ele>
        <time>2022-08-13T06:15:35Z</time>
      </trkpt>
      <trkpt lat="43.18013" lon="5.77218">
        <ele>62.143311</ele>
        <time>2022-08-13T06:15:37Z</time>
      </trkpt>
      <trkpt lat="43.18017" lon="5.7724">
        <ele>62.07917</ele>
        <time>2022-08-13T06:15:39Z</time>
      </trkpt>
      <trkpt lat="43.18014" lon="5.77262">
        <ele>62.062023</ele>
        <time>2022-08-13T06:15:41Z</time>
      </trkpt>
      <trkpt lat="43.18008" lon="5.77281">
        <ele>62.06369</ele>
        <time>2022-08-13T06:15:43Z</time>
      </trkpt>
      <trkpt lat="43.17995" lon="5.77296">
        <ele>62.083874</ele>
        <time>2022-08-13T06:15:45Z</time>
      </trkpt>
      <trkpt lat="43.17981" lon="5.77308">
        <ele>62.162079</ele>
        <time>2022-08-13T06:15:47Z</time>
      </trkpt>
      <trkpt lat="43.17965" lon="5.77314">
        <ele>62.285004</ele>
        <time>2022-08-13T06:15:49Z</time>
      </trkpt>
      <trkpt lat="43.1795" lon="5.77318">
        <ele>62.359467</ele>
        <time>2022-08-13T06:15:51Z</time>
      </trkpt>
      <trkpt lat="43.17935" lon="5.7732">
        <ele>62.526318</ele>
        <time>2022-08-13T06:15:53Z</time>
      </trkpt>
      <trkpt lat="43.1792" lon="5.77323">
        <ele>62.614887</ele>
        <time>2022-08-13T06:15:55Z</time>
      </trkpt>
      <trkpt lat="43.17905" lon="5.77327">
        <ele>62.791145</ele>
        <time>2022-08-13T06:15:57Z</time>
      </trkpt>
      <trkpt lat="43.17891" lon="5.77329">
        <ele>62.87487</ele>
        <time>2022-08-13T06:15:59Z</time>
      </trkpt>
      <trkpt lat="43.17876" lon="5.77331">
        <ele>63.027748</ele>
        <time>2022-08-13T06:16:01Z</time>
      </trkpt>
      <trkpt lat="43.17862" lon="5.7733">
        <ele>63.15696</ele>
        <time>2022-08-13T06:16:03Z</time>
      </trkpt>
      <trkpt lat="43.17848" lon="5.77329">
        <ele>63.21067</ele>
        <time>2022-08-13T06:16:05Z</time>
      </trkpt>
      <trkpt lat="43.17835" lon="5.77325">
        <ele>63.290123</ele>
        <time>2022-08-13T06:16:07Z</time>
      </trkpt>
      <trkpt lat="43.17821" lon="5.77322">
        <ele>63.313618</ele>
        <time>2022-08-13T06:16:09Z</time>
      </trkpt>
      <trkpt lat="43.17806" lon="5.77319">
        <ele>63.325825</ele>
        <time>2022-08-13T06:16:11Z</time>
      </trkpt>
      <trkpt lat="43.1779" lon="5.7732">
        <ele>63.31546</ele>
        <time>2022-08-13T06:16:13Z</time>
      </trkpt>
      <trkpt lat="43.17773" lon="5.77323">
        <ele>63.266499</ele>
        <time>2022-08-13T06:16:15Z</time>
      </trkpt>
      <trkpt lat="43.17755" lon="5.77322">
        <ele>63.187855</ele>
        <time>2022-08-13T06:16:17Z</time>
      </trkpt>
      <trkpt lat="43.17737" lon="5.77315">
        <ele>63.139931</ele>
        <time>2022-08-13T06:16:19Z</time>
      </trkpt>
      <trkpt lat="43.17718" lon="5.77302">
        <ele>63.028015</ele>
        <time>2022-08-13T06:16:21Z</time>
      </trkpt>
      <trkpt lat="43.177" lon="5.77291">
        <ele>62.962849</ele>
        <time>2022-08-13T06:16:23Z</time>
      </trkpt>
      <trkpt lat="43.17683" lon="5.77284">
        <ele>62.808117</ele>
        <time>2022-08-13T06:16:25Z</time>
      </trkpt>
      <trkpt lat="43.17667" lon="5.77278">
        <ele>62.716148</ele>
        <time>2022-08-13T06:16:27Z</time>
      </trkpt>
      <trkpt lat="43.17654" lon="5.7727">
        <ele>62.498711</ele>
        <time>2022-08-13T06:16:29Z</time>
      </trkpt>
      <trkpt lat="43.17642" lon="5.77261">
        <ele>62.230103</ele>
        <time>2022-08-13T06:16:31Z</time>
      </trkpt>
      <trkpt lat="43.17632" lon="5.77252">
        <ele>62.073853</ele>
        <time>2022-08-13T06:16:33Z</time>
      </trkpt>
      <trkpt lat="43.17622" lon="5.77244">
        <ele>61.715565</ele>
        <time>2022-08-13T06:16:35Z</time>
      </trkpt>
      <trkpt lat="43.17614" lon="5.77241">
        <ele>61.515461</ele>
        <time>2022-08-13T06:16:37Z</time>
      </trkpt>
      <trkpt lat="43.17603" lon="5.77237">
        <ele>61.082611</ele>
        <time>2022-08-13T06:16:39Z</time>
      </trkpt>
      <trkpt lat="43.17593" lon="5.77235">
        <ele>60.854115</ele>
        <time>2022-08-13T06:16:41Z</time>
      </trkpt>
      <trkpt lat="43.17585" lon="5.77234">
        <ele>60.382935</ele>
        <time>2022-08-13T06:16:43Z</time>
      </trkpt>
      <trkpt lat="43.17578" lon="5.77234">
        <ele>59.902313</ele>
        <time>2022-08-13T06:16:45Z</time>
      </trkpt>
      <trkpt lat="43.17567" lon="5.77231">
        <ele>59.661865</ele>
        <time>2022-08-13T06:16:47Z</time>
      </trkpt>
      <trkpt lat="43.17555" lon="5.77225">
        <ele>59.186016</ele>
        <time>2022-08-13T06:16:49Z</time>
      </trkpt>
      <trkpt lat="43.17543" lon="5.77216">
        <ele>58.95174</ele>
        <time>2022-08-13T06:16:51Z</time>
      </trkpt>
      <trkpt lat="43.17531" lon="5.77204">
        <ele>58.492577</ele>
        <time>2022-08-13T06:16:53Z</time>
      </trkpt>
      <trkpt lat="43.1752" lon="5.77189">
        <ele>58.05172</ele>
        <time>2022-08-13T06:16:55Z</time>
      </trkpt>
      <trkpt lat="43.17509" lon="5.77173">
        <ele>57.840382</ele>
        <time>2022-08-13T06:16:57Z</time>
      </trkpt>
      <trkpt lat="43.17498" lon="5.77155">
        <ele>57.44088</ele>
        <time>2022-08-13T06:16:59Z</time>
      </trkpt>
      <trkpt lat="43.17487" lon="5.77138">
        <ele>57.253967</ele>
        <time>2022-08-13T06:17:01Z</time>
      </trkpt>
      <trkpt lat="43.17476" lon="5.77121">
        <ele>56.9063</ele>
        <time>2022-08-13T06:17:03Z</time>
      </trkpt>
      <trkpt lat="43.17463" lon="5.77104">
        <ele>56.74453</ele>
        <time>2022-08-13T06:17:05Z</time>
      </trkpt>
      <trkpt lat="43.17451" lon="5.77088">
        <ele>56.442909</ele>
        <time>2022-08-13T06:17:07Z</time>
      </trkpt>
      <trkpt lat="43.17436" lon="5.77078">
        <ele>56.170876</ele>
        <time>2022-08-13T06:17:09Z</time>
      </trkpt>
      <trkpt lat="43.1742" lon="5.77074">
        <ele>56.046654</ele>
        <time>2022-08-13T06:17:11Z</time>
      </trkpt>
      <trkpt lat="43.17404" lon="5.77074">
        <ele>55.821033</ele>
        <time>2022-08-13T06:17:13Z</time>
      </trkpt>
      <trkpt lat="43.17387" lon="5.77074">
        <ele>55.718273</ele>
        <time>2022-08-13T06:17:15Z</time>
      </trkpt>
      <trkpt lat="43.1737" lon="5.77073">
        <ele>55.527504</ele>
        <time>2022-08-13T06:17:17Z</time>
      </trkpt>
      <trkpt lat="43.17354" lon="5.77072">
        <ele>55.437744</ele>
        <time>2022-08-13T06:17:19Z</time>
      </trkpt>
      <trkpt lat="43.17339" lon="5.77072">
        <ele>55.26759</ele>
        <time>2022-08-13T06:17:21Z</time>
      </trkpt>
      <trkpt lat="43.17325" lon="5.77071">
        <ele>55.188183</ele>
        <time>2022-08-13T06:17:23Z</time>
      </trkpt>
      <trkpt lat="43.1731" lon="5.77071">
        <ele>55.052307</ele>
        <time>2022-08-13T06:17:25Z</time>
      </trkpt>
      <trkpt lat="43.17294" lon="5.7707">
        <ele>54.964867</ele>
        <time>2022-08-13T06:17:27Z</time>
      </trkpt>
      <trkpt lat="43.17276" lon="5.77069">
        <ele>54.94392</ele>
        <time>2022-08-13T06:17:29Z</time>
      </trkpt>
      <trkpt lat="43.17258" lon="5.77068">
        <ele>54.953026</ele>
        <time>2022-08-13T06:17:31Z</time>
      </trkpt>
      <trkpt lat="43.17241" lon="5.77067">
        <ele>54.987</ele>
        <time>2022-08-13T06:17:33Z</time>
      </trkpt>
      <trkpt lat="43.17223" lon="5.77067">
        <ele>55.127098</ele>
        <time>2022-08-13T06:17:35Z</time>
      </trkpt>
      <trkpt lat="43.17206" lon="5.77067">
        <ele>55.379433</ele>
        <time>2022-08-13T06:17:37Z</time>
      </trkpt>
      <trkpt lat="43.17189" lon="5.77072">
        <ele>55.551697</ele>
        <time>2022-08-13T06:17:39Z</time>
      </trkpt>
      <trkpt lat="43.17172" lon="5.77083">
        <ele>55.986561</ele>
        <time>2022-08-13T06:17:41Z</time>
      </trkpt>
      <trkpt lat="43.17156" lon="5.77098">
        <ele>56.244526</ele>
        <time>2022-08-13T06:17:43Z</time>
      </trkpt>
      <trkpt lat="43.17138" lon="5.77113">
        <ele>56.820313</ele>
        <time>2022-08-13T06:17:45Z</time>
      </trkpt>
      <trkpt lat="43.17119" lon="5.77125">
        <ele>57.444286</ele>
        <time>2022-08-13T06:17:47Z</time>
      </trkpt>
      <trkpt lat="43.17099" lon="5.77136">
        <ele>57.764709</ele>
        <time>2022-08-13T06:17:49Z</time>
      </trkpt>
      <trkpt lat="43.1708" lon="5.77145">
        <ele>58.408154</ele>
        <time>2022-08-13T06:17:51Z</time>
      </trkpt>
      <trkpt lat="43.17059" lon="5.77152">
        <ele>58.728111</ele>
        <time>2022-08-13T06:17:53Z</time>
      </trkpt>
      <trkpt lat="43.17039" lon="5.77158">
        <ele>59.362255</ele>
        <time>2022-08-13T06:17:55Z</time>
      </trkpt>
      <trkpt lat="43.17019" lon="5.77162">
        <ele>59.971386</ele>
        <time>2022-08-13T06:17:57Z</time>
      </trkpt>
      <trkpt lat="43.17" lon="5.77165">
        <ele>60.25415</ele>
        <time>2022-08-13T06:17:59Z</time>
      </trkpt>
      <trkpt lat="43.16981" lon="5.77166">
        <ele>60.751343</ele>
        <time>2022-08-13T06:18:01Z</time>
      </trkpt>
      <trkpt lat="43.16963" lon="5.77166">
        <ele>60.961376</ele>
        <time>2022-08-13T06:18:03Z</time>
      </trkpt>
      <trkpt lat="43.16946" lon="5.77164">
        <ele>61.300068</ele>
        <time>2022-08-13T06:18:05Z</time>
      </trkpt>
      <trkpt lat="43.16929" lon="5.77162">
        <ele>61.552574</ele>
        <time>2022-08-13T06:18:07Z</time>
      </trkpt>
      <trkpt lat="43.16912" lon="5.77157">
        <ele>61.641319</ele>
        <time>2022-08-13T06:18:09Z</time>
      </trkpt>
      <trkpt lat="43.16896" lon="5.7715">
        <ele>61.751526</ele>
        <time>2022-08-13T06:18:11Z</time>
      </trkpt>
      <trkpt lat="43.16883" lon="5.77136">
        <ele>61.77581</ele>
        <time>2022-08-13T06:18:13Z</time>
      </trkpt>
      <trkpt lat="43.16873" lon="5.77114">
        <ele>61.763752</ele>
        <time>2022-08-13T06:18:15Z</time>
      </trkpt>
      <trkpt lat="43.16864" lon="5.77088">
        <ele>61.727467</ele>
        <time>2022-08-13T06:18:17Z</time>
      </trkpt>
      <trkpt lat="43.16859" lon="5.7706">
        <ele>61.600697</ele>
        <time>2022-08-13T06:18:19Z</time>
      </trkpt>
      <trkpt lat="43.16853" lon="5.7703">
        <ele>61.418781</ele>
        <time>2022-08-13T06:18:21Z</time>
      </trkpt>
      <trkpt lat="43.16844" lon="5.77003">
        <ele>61.308006</ele>
        <time>2022-08-13T06:18:23Z</time>
      </trkpt>
      <trkpt lat="43.16829" lon="5.76981">
        <ele>61.027435</ele>
        <time>2022-08-13T06:18:25Z</time>
      </trkpt>
      <trkpt lat="43.16811" lon="5.76962">
        <ele>60.847523</ele>
        <time>2022-08-13T06:18:27Z</time>
      </trkpt>
      <trkpt lat="43.16792" lon="5.76946">
        <ele>60.371246</ele>
        <time>2022-08-13T06:18:29Z</time>
      </trkpt>
      <trkpt lat="43.16772" lon="5.7693">
        <ele>59.696831</ele>
        <time>2022-08-13T06:18:31Z</time>
      </trkpt>
      <trkpt lat="43.16752" lon="5.76915">
        <ele>59.279469</ele>
        <time>2022-08-13T06:18:33Z</time>
      </trkpt>
      <trkpt lat="43.16731" lon="5.76899">
        <ele>58.30479</ele>
        <time>2022-08-13T06:18:35Z</time>
      </trkpt>
      <trkpt lat="43.1671" lon="5.76882">
        <ele>57.762733</ele>
        <time>2022-08-13T06:18:37Z</time>
      </trkpt>
      <trkpt lat="43.1669" lon="5.76866">
        <ele>56.602745</ele>
        <time>2022-08-13T06:18:39Z</time>
      </trkpt>
      <trkpt lat="43.16669" lon="5.76852">
        <ele>55.997505</ele>
        <time>2022-08-13T06:18:41Z</time>
      </trkpt>
      <trkpt lat="43.16648" lon="5.76841">
        <ele>54.766132</ele>
        <time>2022-08-13T06:18:43Z</time>
      </trkpt>
      <trkpt lat="43.16625" lon="5.76835">
        <ele>54.149158</ele>
        <time>2022-08-13T06:18:45Z</time>
      </trkpt>
      <trkpt lat="43.16602" lon="5.76831">
        <ele>52.936504</ele>
        <time>2022-08-13T06:18:47Z</time>
      </trkpt>
      <trkpt lat="43.16579" lon="5.76827">
        <ele>51.798218</ele>
        <time>2022-08-13T06:18:49Z</time>
      </trkpt>
      <trkpt lat="43.16557" lon="5.76815">
        <ele>51.275196</ele>
        <time>2022-08-13T06:18:51Z</time>
      </trkpt>
      <trkpt lat="43.16539" lon="5.76796">
        <ele>50.344151</ele>
        <time>2022-08-13T06:18:53Z</time>
      </trkpt>
      <trkpt lat="43.16522" lon="5.76772">
        <ele>49.940529</ele>
        <time>2022-08-13T06:18:55Z</time>
      </trkpt>
      <trkpt lat="43.1651" lon="5.76745">
        <ele>49.250069</ele>
        <time>2022-08-13T06:18:57Z</time>
      </trkpt>
      <trkpt lat="43.165" lon="5.76723">
        <ele>48.962662</ele>
        <time>2022-08-13T06:18:59Z</time>
      </trkpt>
      <trkpt lat="43.16489" lon="5.76696">
        <ele>48.509865</ele>
        <time>2022-08-13T06:19:01Z</time>
      </trkpt>
      <trkpt lat="43.16488" lon="5.76662">
        <ele>48.203995</ele>
        <time>2022-08-13T06:19:03Z</time>
      </trkpt>
      <trkpt lat="43.1648" lon="5.76631">
        <ele>48.097969</ele>
        <time>2022-08-13T06:19:05Z</time>
      </trkpt>
      <trkpt lat="43.1647" lon="5.76603">
        <ele>47.961647</ele>
        <time>2022-08-13T06:19:07Z</time>
      </trkpt>
      <trkpt lat="43.16457" lon="5.76577">
        <ele>47.921555</ele>
        <time>2022-08-13T06:19:09Z</time>
      </trkpt>
      <trkpt lat="43.16442" lon="5.7655">
        <ele>47.862785</ele>
        <time>2022-08-13T06:19:11Z</time>
      </trkpt>
      <trkpt lat="43.16423" lon="5.76527">
        <ele>47.830742</ele>
        <time>2022-08-13T06:19:13Z</time>
      </trkpt>
      <trkpt lat="43.16404" lon="5.76506">
        <ele>47.741726</ele>
        <time>2022-08-13T06:19:15Z</time>
      </trkpt>
      <trkpt lat="43.16383" lon="5.76484">
        <ele>47.67963</ele>
        <time>2022-08-13T06:19:17Z</time>
      </trkpt>
      <trkpt lat="43.16361" lon="5.76464">
        <ele>47.513607</ele>
        <time>2022-08-13T06:19:19Z</time>
      </trkpt>
      <trkpt lat="43.16337" lon="5.76448">
        <ele>47.302067</ele>
        <time>2022-08-13T06:19:21Z</time>
      </trkpt>
      <trkpt lat="43.16312" lon="5.76439">
        <ele>47.188179</ele>
        <time>2022-08-13T06:19:23Z</time>
      </trkpt>
      <trkpt lat="43.16288" lon="5.76434">
        <ele>46.947575</ele>
        <time>2022-08-13T06:19:25Z</time>
      </trkpt>
      <trkpt lat="43.16262" lon="5.7643">
        <ele>46.812645</ele>
        <time>2022-08-13T06:19:27Z</time>
      </trkpt>
      <trkpt lat="43.16238" lon="5.76425">
        <ele>46.486748</ele>
        <time>2022-08-13T06:19:29Z</time>
      </trkpt>
      <trkpt lat="43.16214" lon="5.76419">
        <ele>46.289803</ele>
        <time>2022-08-13T06:19:31Z</time>
      </trkpt>
      <trkpt lat="43.1619" lon="5.76413">
        <ele>45.840096</ele>
        <time>2022-08-13T06:19:33Z</time>
      </trkpt>
      <trkpt lat="43.16166" lon="5.76406">
        <ele>45.600456</ele>
        <time>2022-08-13T06:19:35Z</time>
      </trkpt>
      <trkpt lat="43.16142" lon="5.76397">
        <ele>45.139545</ele>
        <time>2022-08-13T06:19:37Z</time>
      </trkpt>
      <trkpt lat="43.16119" lon="5.76388">
        <ele>44.757294</ele>
        <time>2022-08-13T06:19:39Z</time>
      </trkpt>
      <trkpt lat="43.16096" lon="5.76378">
        <ele>44.611622</ele>
        <time>2022-08-13T06:19:41Z</time>
      </trkpt>
      <trkpt lat="43.16073" lon="5.76369">
        <ele>44.432796</ele>
        <time>2022-08-13T06:19:43Z</time>
      </trkpt>
      <trkpt lat="43.1605" lon="5.76363">
        <ele>44.404644</ele>
        <time>2022-08-13T06:19:45Z</time>
      </trkpt>
      <trkpt lat="43.16027" lon="5.76362">
        <ele>44.479851</ele>
        <time>2022-08-13T06:19:47Z</time>
      </trkpt>
      <trkpt lat="43.16005" lon="5.76367">
        <ele>44.583523</ele>
        <time>2022-08-13T06:19:49Z</time>
      </trkpt>
      <trkpt lat="43.15982" lon="5.76376">
        <ele>44.902977</ele>
        <time>2022-08-13T06:19:51Z</time>
      </trkpt>
      <trkpt lat="43.15961" lon="5.7639">
        <ele>45.103508</ele>
        <time>2022-08-13T06:19:53Z</time>
      </trkpt>
      <trkpt lat="43.15943" lon="5.7641">
        <ele>45.539371</ele>
        <time>2022-08-13T06:19:55Z</time>
      </trkpt>
      <trkpt lat="43.15929" lon="5.76435">
        <ele>45.961014</ele>
        <time>2022-08-13T06:19:57Z</time>
      </trkpt>
      <trkpt lat="43.15917" lon="5.7646">
        <ele>46.136566</ele>
        <time>2022-08-13T06:19:59Z</time>
      </trkpt>
      <trkpt lat="43.15905" lon="5.76485">
        <ele>46.360699</ele>
        <time>2022-08-13T06:20:01Z</time>
      </trkpt>
      <trkpt lat="43.15888" lon="5.76503">
        <ele>46.397148</ele>
        <time>2022-08-13T06:20:03Z</time>
      </trkpt>
      <trkpt lat="43.15865" lon="5.76508">
        <ele>46.311302</ele>
        <time>2022-08-13T06:20:05Z</time>
      </trkpt>
      <trkpt lat="43.15841" lon="5.76509">
        <ele>46.044243</ele>
        <time>2022-08-13T06:20:07Z</time>
      </trkpt>
      <trkpt lat="43.15816" lon="5.76506">
        <ele>45.868256</ele>
        <time>2022-08-13T06:20:09Z</time>
      </trkpt>
      <trkpt lat="43.15793" lon="5.76495">
        <ele>45.504044</ele>
        <time>2022-08-13T06:20:11Z</time>
      </trkpt>
      <trkpt lat="43.15769" lon="5.7648">
        <ele>45.340614</ele>
        <time>2022-08-13T06:20:13Z</time>
      </trkpt>
      <trkpt lat="43.15747" lon="5.76463">
        <ele>45.089489</ele>
        <time>2022-08-13T06:20:15Z</time>
      </trkpt>
      <trkpt lat="43.15726" lon="5.76446">
        <ele>45.011265</ele>
        <time>2022-08-13T06:20:17Z</time>
      </trkpt>
      <trkpt lat="43.15705" lon="5.7643">
        <ele>44.967289</ele>
        <time>2022-08-13T06:20:19Z</time>
      </trkpt>
      <trkpt lat="43.15682" lon="5.76419">
        <ele>45.003983</ele>
        <time>2022-08-13T06:20:21Z</time>
      </trkpt>
      <trkpt lat="43.15658" lon="5.76418">
        <ele>45.179832</ele>
        <time>2022-08-13T06:20:23Z</time>
      </trkpt>
      <trkpt lat="43.15636" lon="5.76418">
        <ele>45.427666</ele>
        <time>2022-08-13T06:20:25Z</time>
      </trkpt>
      <trkpt lat="43.15613" lon="5.76415">
        <ele>45.543484</ele>
        <time>2022-08-13T06:20:27Z</time>
      </trkpt>
      <trkpt lat="43.1559" lon="5.76409">
        <ele>45.68383</ele>
        <time>2022-08-13T06:20:29Z</time>
      </trkpt>
      <trkpt lat="43.15566" lon="5.76403">
        <ele>45.690464</ele>
        <time>2022-08-13T06:20:31Z</time>
      </trkpt>
      <trkpt lat="43.15543" lon="5.76399">
        <ele>45.522465</ele>
        <time>2022-08-13T06:20:33Z</time>
      </trkpt>
      <trkpt lat="43.15521" lon="5.76394">
        <ele>45.076622</ele>
        <time>2022-08-13T06:20:35Z</time>
      </trkpt>
      <trkpt lat="43.15497" lon="5.76389">
        <ele>44.742638</ele>
        <time>2022-08-13T06:20:37Z</time>
      </trkpt>
      <trkpt lat="43.15474" lon="5.76384">
        <ele>43.854923</ele>
        <time>2022-08-13T06:20:39Z</time>
      </trkpt>
      <trkpt lat="43.15451" lon="5.76378">
        <ele>43.309677</ele>
        <time>2022-08-13T06:20:41Z</time>
      </trkpt>
      <trkpt lat="43.15429" lon="5.76373">
        <ele>42.058437</ele>
        <time>2022-08-13T06:20:43Z</time>
      </trkpt>
      <trkpt lat="43.15405" lon="5.76368">
        <ele>40.675179</ele>
        <time>2022-08-13T06:20:45Z</time>
      </trkpt>
      <trkpt lat="43.15382" lon="5.76365">
        <ele>39.967537</ele>
        <time>2022-08-13T06:20:47Z</time>
      </trkpt>
      <trkpt lat="43.1536" lon="5.76364">
        <ele>38.602615</ele>
        <time>2022-08-13T06:20:49Z</time>
      </trkpt>
      <trkpt lat="43.15338" lon="5.76358">
        <ele>37.979965</ele>
        <time>2022-08-13T06:20:51Z</time>
      </trkpt>
      <trkpt lat="43.15317" lon="5.76351">
        <ele>36.918282</ele>
        <time>2022-08-13T06:20:53Z</time>
      </trkpt>
      <trkpt lat="43.15295" lon="5.76349">
        <ele>36.139141</ele>
        <time>2022-08-13T06:20:55Z</time>
      </trkpt>
      <trkpt lat="43.15274" lon="5.76356">
        <ele>35.870567</ele>
        <time>2022-08-13T06:20:57Z</time>
      </trkpt>
      <trkpt lat="43.15253" lon="5.76364">
        <ele>35.556358</ele>
        <time>2022-08-13T06:20:59Z</time>
      </trkpt>
      <trkpt lat="43.15233" lon="5.76372">
        <ele>35.487854</ele>
        <time>2022-08-13T06:21:01Z</time>
      </trkpt>
      <trkpt lat="43.15212" lon="5.76386">
        <ele>35.463646</ele>
        <time>2022-08-13T06:21:03Z</time>
      </trkpt>
      <trkpt lat="43.15193" lon="5.76404">
        <ele>35.485504</ele>
        <time>2022-08-13T06:21:05Z</time>
      </trkpt>
      <trkpt lat="43.15173" lon="5.76422">
        <ele>35.555923</ele>
        <time>2022-08-13T06:21:07Z</time>
      </trkpt>
      <trkpt lat="43.15153" lon="5.76439">
        <ele>35.60976</ele>
        <time>2022-08-13T06:21:09Z</time>
      </trkpt>
      <trkpt lat="43.15134" lon="5.76455">
        <ele>35.611763</ele>
        <time>2022-08-13T06:21:11Z</time>
      </trkpt>
      <trkpt lat="43.15112" lon="5.76466">
        <ele>35.536274</ele>
        <time>2022-08-13T06:21:13Z</time>
      </trkpt>
      <trkpt lat="43.1509" lon="5.76475">
        <ele>35.450089</ele>
        <time>2022-08-13T06:21:15Z</time>
      </trkpt>
      <trkpt lat="43.15067" lon="5.76482">
        <ele>35.174458</ele>
        <time>2022-08-13T06:21:17Z</time>
      </trkpt>
      <trkpt lat="43.15045" lon="5.76486">
        <ele>34.785824</ele>
        <time>2022-08-13T06:21:19Z</time>
      </trkpt>
      <trkpt lat="43.15024" lon="5.76482">
        <ele>34.557667</ele>
        <time>2022-08-13T06:21:21Z</time>
      </trkpt>
      <trkpt lat="43.15004" lon="5.76475">
        <ele>34.067158</ele>
        <time>2022-08-13T06:21:23Z</time>
      </trkpt>
      <trkpt lat="43.14986" lon="5.76469">
        <ele>33.811344</ele>
        <time>2022-08-13T06:21:25Z</time>
      </trkpt>
      <trkpt lat="43.14969" lon="5.76461">
        <ele>33.288269</ele>
        <time>2022-08-13T06:21:27Z</time>
      </trkpt>
      <trkpt lat="43.14956" lon="5.76445">
        <ele>33.023235</ele>
        <time>2022-08-13T06:21:29Z</time>
      </trkpt>
      <trkpt lat="43.14952" lon="5.76422">
        <ele>32.490913</ele>
        <time>2022-08-13T06:21:31Z</time>
      </trkpt>
      <trkpt lat="43.14954" lon="5.76399">
        <ele>32.226234</ele>
        <time>2022-08-13T06:21:33Z</time>
      </trkpt>
      <trkpt lat="43.14949" lon="5.76379">
        <ele>31.711926</ele>
        <time>2022-08-13T06:21:35Z</time>
      </trkpt>
      <trkpt lat="43.14937" lon="5.76366">
        <ele>31.232046</ele>
        <time>2022-08-13T06:21:37Z</time>
      </trkpt>
      <trkpt lat="43.14924" lon="5.76363">
        <ele>31.006815</ele>
        <time>2022-08-13T06:21:39Z</time>
      </trkpt>
      <trkpt lat="43.1491" lon="5.7637">
        <ele>30.58576</ele>
        <time>2022-08-13T06:21:41Z</time>
      </trkpt>
      <trkpt lat="43.14899" lon="5.76386">
        <ele>30.389404</ele>
        <time>2022-08-13T06:21:43Z</time>
      </trkpt>
      <trkpt lat="43.14895" lon="5.76408">
        <ele>30.013849</ele>
        <time>2022-08-13T06:21:45Z</time>
      </trkpt>
      <trkpt lat="43.1489" lon="5.76431">
        <ele>29.600794</ele>
        <time>2022-08-13T06:21:47Z</time>
      </trkpt>
      <trkpt lat="43.14877" lon="5.76447">
        <ele>29.355083</ele>
        <time>2022-08-13T06:21:49Z</time>
      </trkpt>
      <trkpt lat="43.14859" lon="5.76453">
        <ele>28.753443</ele>
        <time>2022-08-13T06:21:51Z</time>
      </trkpt>
      <trkpt lat="43.14839" lon="5.76453">
        <ele>28.397867</ele>
        <time>2022-08-13T06:21:53Z</time>
      </trkpt>
      <trkpt lat="43.14819" lon="5.76455">
        <ele>27.620401</ele>
        <time>2022-08-13T06:21:55Z</time>
      </trkpt>
      <trkpt lat="43.14799" lon="5.76459">
        <ele>26.849232</ele>
        <time>2022-08-13T06:21:57Z</time>
      </trkpt>
      <trkpt lat="43.14779" lon="5.76465">
        <ele>26.503061</ele>
        <time>2022-08-13T06:21:59Z</time>
      </trkpt>
      <trkpt lat="43.14759" lon="5.76474">
        <ele>25.954706</ele>
        <time>2022-08-13T06:22:01Z</time>
      </trkpt>
      <trkpt lat="43.14741" lon="5.76486">
        <ele>25.773544</ele>
        <time>2022-08-13T06:22:03Z</time>
      </trkpt>
      <trkpt lat="43.14722" lon="5.76498">
        <ele>25.631506</ele>
        <time>2022-08-13T06:22:05Z</time>
      </trkpt>
      <trkpt lat="43.14703" lon="5.7651">
        <ele>25.675442</ele>
        <time>2022-08-13T06:22:07Z</time>
      </trkpt>
      <trkpt lat="43.14684" lon="5.76522">
        <ele>25.98605</ele>
        <time>2022-08-13T06:22:09Z</time>
      </trkpt>
      <trkpt lat="43.14666" lon="5.76536">
        <ele>26.560963</ele>
        <time>2022-08-13T06:22:11Z</time>
      </trkpt>
      <trkpt lat="43.14648" lon="5.76551">
        <ele>26.933558</ele>
        <time>2022-08-13T06:22:13Z</time>
      </trkpt>
      <trkpt lat="43.14632" lon="5.76569">
        <ele>27.815008</ele>
        <time>2022-08-13T06:22:15Z</time>
      </trkpt>
      <trkpt lat="43.14618" lon="5.76589">
        <ele>28.309397</ele>
        <time>2022-08-13T06:22:17Z</time>
      </trkpt>
      <trkpt lat="43.14607" lon="5.76613">
        <ele>29.372131</ele>
        <time>2022-08-13T06:22:19Z</time>
      </trkpt>
      <trkpt lat="43.146" lon="5.76639">
        <ele>29.925116</ele>
        <time>2022-08-13T06:22:21Z</time>
      </trkpt>
      <trkpt lat="43.14592" lon="5.76666">
        <ele>31.028187</ele>
        <time>2022-08-13T06:22:23Z</time>
      </trkpt>
      <trkpt lat="43.14586" lon="5.76693">
        <ele>32.043297</ele>
        <time>2022-08-13T06:22:25Z</time>
      </trkpt>
      <trkpt lat="43.14578" lon="5.76719">
        <ele>32.483555</ele>
        <time>2022-08-13T06:22:27Z</time>
      </trkpt>
      <trkpt lat="43.14566" lon="5.76742">
        <ele>33.172447</ele>
        <time>2022-08-13T06:22:29Z</time>
      </trkpt>
      <trkpt lat="43.14554" lon="5.76761">
        <ele>33.40527</ele>
        <time>2022-08-13T06:22:31Z</time>
      </trkpt>
      <trkpt lat="43.14541" lon="5.76772">
        <ele>33.631126</ele>
        <time>2022-08-13T06:22:33Z</time>
      </trkpt>
      <trkpt lat="43.14528" lon="5.76778">
        <ele>33.628624</ele>
        <time>2022-08-13T06:22:35Z</time>
      </trkpt>
      <trkpt lat="43.14513" lon="5.76783">
        <ele>33.438934</ele>
        <time>2022-08-13T06:22:37Z</time>
      </trkpt>
      <trkpt lat="43.14496" lon="5.76785">
        <ele>33.087727</ele>
        <time>2022-08-13T06:22:39Z</time>
      </trkpt>
      <trkpt lat="43.14478" lon="5.76782">
        <ele>32.889076</ele>
        <time>2022-08-13T06:22:41Z</time>
      </trkpt>
      <trkpt lat="43.1446" lon="5.76778">
        <ele>32.511578</ele>
        <time>2022-08-13T06:22:43Z</time>
      </trkpt>
      <trkpt lat="43.14442" lon="5.76775">
        <ele>32.341072</ele>
        <time>2022-08-13T06:22:45Z</time>
      </trkpt>
      <trkpt lat="43.14423" lon="5.76772">
        <ele>32.010288</ele>
        <time>2022-08-13T06:22:47Z</time>
      </trkpt>
      <trkpt lat="43.14405" lon="5.76771">
        <ele>31.8302</ele>
        <time>2022-08-13T06:22:49Z</time>
      </trkpt>
      <trkpt lat="43.14385" lon="5.76769">
        <ele>31.39859</ele>
        <time>2022-08-13T06:22:51Z</time>
      </trkpt>
      <trkpt lat="43.14364" lon="5.76769">
        <ele>30.840527</ele>
        <time>2022-08-13T06:22:53Z</time>
      </trkpt>
      <trkpt lat="43.14343" lon="5.7677">
        <ele>30.510147</ele>
        <time>2022-08-13T06:22:55Z</time>
      </trkpt>
      <trkpt lat="43.14324" lon="5.76773">
        <ele>29.755611</ele>
        <time>2022-08-13T06:22:57Z</time>
      </trkpt>
      <trkpt lat="43.14306" lon="5.76777">
        <ele>29.338436</ele>
        <time>2022-08-13T06:22:59Z</time>
      </trkpt>
      <trkpt lat="43.14291" lon="5.76782">
        <ele>28.459927</ele>
        <time>2022-08-13T06:23:01Z</time>
      </trkpt>
      <trkpt lat="43.14277" lon="5.7679">
        <ele>28.019287</ele>
        <time>2022-08-13T06:23:03Z</time>
      </trkpt>
      <trkpt lat="43.14265" lon="5.76798">
        <ele>27.188156</ele>
        <time>2022-08-13T06:23:05Z</time>
      </trkpt>
      <trkpt lat="43.14256" lon="5.76803">
        <ele>26.471827</ele>
        <time>2022-08-13T06:23:07Z</time>
      </trkpt>
      <trkpt lat="43.14245" lon="5.76802">
        <ele>26.166162</ele>
        <time>2022-08-13T06:23:09Z</time>
      </trkpt>
      <trkpt lat="43.1423" lon="5.76804">
        <ele>25.673773</ele>
        <time>2022-08-13T06:23:11Z</time>
      </trkpt>
      <trkpt lat="43.14216" lon="5.76814">
        <ele>25.496004</ele>
        <time>2022-08-13T06:23:13Z</time>
      </trkpt>
      <trkpt lat="43.14208" lon="5.76833">
        <ele>25.313429</ele>
        <time>2022-08-13T06:23:15Z</time>
      </trkpt>
      <trkpt lat="43.14207" lon="5.76856">
        <ele>25.319914</ele>
        <time>2022-08-13T06:23:17Z</time>
      </trkpt>
      <trkpt lat="43.14207" lon="5.76879">
        <ele>25.535748</ele>
        <time>2022-08-13T06:23:19Z</time>
      </trkpt>
      <trkpt lat="43.142" lon="5.76902">
        <ele>25.74032</ele>
        <time>2022-08-13T06:23:21Z</time>
      </trkpt>
      <trkpt lat="43.14191" lon="5.76925">
        <ele>26.310284</ele>
        <time>2022-08-13T06:23:23Z</time>
      </trkpt>
      <trkpt lat="43.14183" lon="5.7695">
        <ele>27.040028</ele>
        <time>2022-08-13T06:23:25Z</time>
      </trkpt>
      <trkpt lat="43.14173" lon="5.76975">
        <ele>27.4426</ele>
        <time>2022-08-13T06:23:27Z</time>
      </trkpt>
      <trkpt lat="43.14164" lon="5.77">
        <ele>28.268459</ele>
        <time>2022-08-13T06:23:29Z</time>
      </trkpt>
      <trkpt lat="43.14154" lon="5.77025">
        <ele>28.666233</ele>
        <time>2022-08-13T06:23:31Z</time>
      </trkpt>
      <trkpt lat="43.14144" lon="5.7705">
        <ele>29.37702</ele>
        <time>2022-08-13T06:23:33Z</time>
      </trkpt>
      <trkpt lat="43.14134" lon="5.77075">
        <ele>29.67664</ele>
        <time>2022-08-13T06:23:35Z</time>
      </trkpt>
      <trkpt lat="43.14123" lon="5.77099">
        <ele>30.151651</ele>
        <time>2022-08-13T06:23:37Z</time>
      </trkpt>
      <trkpt lat="43.14109" lon="5.77122">
        <ele>30.33136</ele>
        <time>2022-08-13T06:23:39Z</time>
      </trkpt>
      <trkpt lat="43.1409" lon="5.77137">
        <ele>30.597958</ele>
        <time>2022-08-13T06:23:41Z</time>
      </trkpt>
      <trkpt lat="43.14071" lon="5.77142">
        <ele>30.77034</ele>
        <time>2022-08-13T06:23:43Z</time>
      </trkpt>
      <trkpt lat="43.1405" lon="5.77137">
        <ele>30.826157</ele>
        <time>2022-08-13T06:23:45Z</time>
      </trkpt>
      <trkpt lat="43.14033" lon="5.77124">
        <ele>30.876596</ele>
        <time>2022-08-13T06:23:47Z</time>
      </trkpt>
      <trkpt lat="43.14019" lon="5.77105">
        <ele>30.870121</ele>
        <time>2022-08-13T06:23:49Z</time>
      </trkpt>
      <trkpt lat="43.14006" lon="5.77083">
        <ele>30.78281</ele>
        <time>2022-08-13T06:23:51Z</time>
      </trkpt>
      <trkpt lat="43.13994" lon="5.77062">
        <ele>30.550343</ele>
        <time>2022-08-13T06:23:53Z</time>
      </trkpt>
      <trkpt lat="43.13985" lon="5.7704">
        <ele>30.359003</ele>
        <time>2022-08-13T06:23:55Z</time>
      </trkpt>
      <trkpt lat="43.13977" lon="5.77017">
        <ele>29.804104</ele>
        <time>2022-08-13T06:23:57Z</time>
      </trkpt>
      <trkpt lat="43.13971" lon="5.76996">
        <ele>29.441166</ele>
        <time>2022-08-13T06:23:59Z</time>
      </trkpt>
      <trkpt lat="43.13965" lon="5.7698">
        <ele>28.554663</ele>
        <time>2022-08-13T06:24:01Z</time>
      </trkpt>
      <trkpt lat="43.13961" lon="5.76972">
        <ele>28.035503</ele>
        <time>2022-08-13T06:24:03Z</time>
      </trkpt>
      <trkpt lat="43.13957" lon="5.76966">
        <ele>26.855112</ele>
        <time>2022-08-13T06:24:05Z</time>
      </trkpt>
      <trkpt lat="43.13952" lon="5.76964">
        <ele>25.499369</ele>
        <time>2022-08-13T06:24:07Z</time>
      </trkpt>
      <trkpt lat="43.13947" lon="5.76964">
        <ele>24.770145</ele>
        <time>2022-08-13T06:24:09Z</time>
      </trkpt>
      <trkpt lat="43.1394" lon="5.76971">
        <ele>23.250982</ele>
        <time>2022-08-13T06:24:11Z</time>
      </trkpt>
      <trkpt lat="43.13935" lon="5.76984">
        <ele>22.478951</ele>
        <time>2022-08-13T06:24:13Z</time>
      </trkpt>
      <trkpt lat="43.13931" lon="5.77">
        <ele>20.951921</ele>
        <time>2022-08-13T06:24:15Z</time>
      </trkpt>
      <trkpt lat="43.13926" lon="5.77018">
        <ele>19.48151</ele>
        <time>2022-08-13T06:24:17Z</time>
      </trkpt>
      <trkpt lat="43.13921" lon="5.77037">
        <ele>18.779581</ele>
        <time>2022-08-13T06:24:19Z</time>
      </trkpt>
      <trkpt lat="43.13917" lon="5.77056">
        <ele>17.471556</ele>
        <time>2022-08-13T06:24:21Z</time>
      </trkpt>
      <trkpt lat="43.13913" lon="5.77076">
        <ele>16.874289</ele>
        <time>2022-08-13T06:24:23Z</time>
      </trkpt>
      <trkpt lat="43.13908" lon="5.77098">
        <ele>15.796852</ele>
        <time>2022-08-13T06:24:25Z</time>
      </trkpt>
      <trkpt lat="43.13903" lon="5.77119">
        <ele>15.311239</ele>
        <time>2022-08-13T06:24:27Z</time>
      </trkpt>
      <trkpt lat="43.13897" lon="5.77141">
        <ele>14.423691</ele>
        <time>2022-08-13T06:24:29Z</time>
      </trkpt>
      <trkpt lat="43.13892" lon="5.77164">
        <ele>14.011302</ele>
        <time>2022-08-13T06:24:31Z</time>
      </trkpt>
      <trkpt lat="43.13886" lon="5.77186">
        <ele>13.226659</ele>
        <time>2022-08-13T06:24:33Z</time>
      </trkpt>
      <trkpt lat="43.1388" lon="5.77207">
        <ele>12.476268</ele>
        <time>2022-08-13T06:24:35Z</time>
      </trkpt>
      <trkpt lat="43.13874" lon="5.77227">
        <ele>12.110457</ele>
        <time>2022-08-13T06:24:37Z</time>
      </trkpt>
      <trkpt lat="43.13868" lon="5.77247">
        <ele>11.394383</ele>
        <time>2022-08-13T06:24:39Z</time>
      </trkpt>
      <trkpt lat="43.13864" lon="5.77267">
        <ele>11.044175</ele>
        <time>2022-08-13T06:24:41Z</time>
      </trkpt>
      <trkpt lat="43.1386" lon="5.77281">
        <ele>10.361763</ele>
        <time>2022-08-13T06:24:43Z</time>
      </trkpt>
      <trkpt lat="43.13857" lon="5.77292">
        <ele>9.707522</ele>
        <time>2022-08-13T06:24:45Z</time>
      </trkpt>
      <trkpt lat="43.13853" lon="5.77306">
        <ele>9.392506</ele>
        <time>2022-08-13T06:24:47Z</time>
      </trkpt>
      <trkpt lat="43.13848" lon="5.77321">
        <ele>8.791356</ele>
        <time>2022-08-13T06:24:49Z</time>
      </trkpt>
      <trkpt lat="43.13842" lon="5.77338">
        <ele>8.507887</ele>
        <time>2022-08-13T06:24:51Z</time>
      </trkpt>
      <trkpt lat="43.13836" lon="5.77356">
        <ele>7.98167</ele>
        <time>2022-08-13T06:24:53Z</time>
      </trkpt>
      <trkpt lat="43.13829" lon="5.77375">
        <ele>7.74064</ele>
        <time>2022-08-13T06:24:55Z</time>
      </trkpt>
      <trkpt lat="43.13821" lon="5.77394">
        <ele>7.305618</ele>
        <time>2022-08-13T06:24:57Z</time>
      </trkpt>
      <trkpt lat="43.13814" lon="5.77413">
        <ele>6.935231</ele>
        <time>2022-08-13T06:24:59Z</time>
      </trkpt>
      <trkpt lat="43.13806" lon="5.77432">
        <ele>6.775435</ele>
        <time>2022-08-13T06:25:01Z</time>
      </trkpt>
      <trkpt lat="43.13799" lon="5.7745">
        <ele>6.510128</ele>
        <time>2022-08-13T06:25:03Z</time>
      </trkpt>
      <trkpt lat="43.13791" lon="5.77468">
        <ele>6.406489</ele>
        <time>2022-08-13T06:25:05Z</time>
      </trkpt>
      <trkpt lat="43.13783" lon="5.77486">
        <ele>6.259992</ele>
        <time>2022-08-13T06:25:07Z</time>
      </trkpt>
      <trkpt lat="43.13775" lon="5.77504">
        <ele>6.217137</ele>
        <time>2022-08-13T06:25:09Z</time>
      </trkpt>
      <trkpt lat="43.13766" lon="5.77523">
        <ele>6.191812</ele>
        <time>2022-08-13T06:25:11Z</time>
      </trkpt>
      <trkpt lat="43.13757" lon="5.77542">
        <ele>6.246394</ele>
        <time>2022-08-13T06:25:13Z</time>
      </trkpt>
      <trkpt lat="43.13747" lon="5.77561">
        <ele>6.30368</ele>
        <time>2022-08-13T06:25:15Z</time>
      </trkpt>
      <trkpt lat="43.13738" lon="5.77579">
        <ele>6.479219</ele>
        <time>2022-08-13T06:25:17Z</time>
      </trkpt>
      <trkpt lat="43.13727" lon="5.77596">
        <ele>6.599145</ele>
        <time>2022-08-13T06:25:19Z</time>
      </trkpt>
      <trkpt lat="43.13717" lon="5.77613">
        <ele>6.908486</ele>
        <time>2022-08-13T06:25:21Z</time>
      </trkpt>
      <trkpt lat="43.13707" lon="5.77629">
        <ele>7.312064</ele>
        <time>2022-08-13T06:25:23Z</time>
      </trkpt>
      <trkpt lat="43.13696" lon="5.77644">
        <ele>7.54778</ele>
        <time>2022-08-13T06:25:25Z</time>
      </trkpt>
      <trkpt lat="43.13686" lon="5.77661">
        <ele>8.079549</ele>
        <time>2022-08-13T06:25:27Z</time>
      </trkpt>
      <trkpt lat="43.13675" lon="5.77676">
        <ele>8.371828</ele>
        <time>2022-08-13T06:25:29Z</time>
      </trkpt>
      <trkpt lat="43.13662" lon="5.77692">
        <ele>8.998954</ele>
        <time>2022-08-13T06:25:31Z</time>
      </trkpt>
      <trkpt lat="43.13652" lon="5.77707">
        <ele>9.329931</ele>
        <time>2022-08-13T06:25:33Z</time>
      </trkpt>
      <trkpt lat="43.13641" lon="5.77723">
        <ele>10.0145</ele>
        <time>2022-08-13T06:25:35Z</time>
      </trkpt>
      <trkpt lat="43.13631" lon="5.77738">
        <ele>10.708529</ele>
        <time>2022-08-13T06:25:37Z</time>
      </trkpt>
      <trkpt lat="43.13619" lon="5.77751">
        <ele>11.051291</ele>
        <time>2022-08-13T06:25:39Z</time>
      </trkpt>
      <trkpt lat="43.13607" lon="5.77765">
        <ele>11.715202</ele>
        <time>2022-08-13T06:25:41Z</time>
      </trkpt>
      <trkpt lat="43.13596" lon="5.77779">
        <ele>12.032159</ele>
        <time>2022-08-13T06:25:43Z</time>
      </trkpt>
      <trkpt lat="43.13585" lon="5.77793">
        <ele>12.626103</ele>
        <time>2022-08-13T06:25:45Z</time>
      </trkpt>
      <trkpt lat="43.13574" lon="5.77807">
        <ele>12.898839</ele>
        <time>2022-08-13T06:25:47Z</time>
      </trkpt>
      <trkpt lat="43.13563" lon="5.77823">
        <ele>13.385263</ele>
        <time>2022-08-13T06:25:49Z</time>
      </trkpt>
      <trkpt lat="43.13554" lon="5.77839">
        <ele>13.778936</ele>
        <time>2022-08-13T06:25:51Z</time>
      </trkpt>
      <trkpt lat="43.13543" lon="5.77856">
        <ele>13.937813</ele>
        <time>2022-08-13T06:25:53Z</time>
      </trkpt>
      <trkpt lat="43.13532" lon="5.77871">
        <ele>14.180893</ele>
        <time>2022-08-13T06:25:55Z</time>
      </trkpt>
      <trkpt lat="43.1352" lon="5.77885">
        <ele>14.267189</ele>
        <time>2022-08-13T06:25:57Z</time>
      </trkpt>
      <trkpt lat="43.13507" lon="5.77898">
        <ele>14.372484</ele>
        <time>2022-08-13T06:25:59Z</time>
      </trkpt>
      <trkpt lat="43.13493" lon="5.7791">
        <ele>14.393707</ele>
        <time>2022-08-13T06:26:01Z</time>
      </trkpt>
      <trkpt lat="43.13479" lon="5.7792">
        <ele>14.390341</ele>
        <time>2022-08-13T06:26:03Z</time>
      </trkpt>
      <trkpt lat="43.13466" lon="5.77932">
        <ele>14.35786</ele>
        <time>2022-08-13T06:26:05Z</time>
      </trkpt>
      <trkpt lat="43.13453" lon="5.77943">
        <ele>14.339874</ele>
        <time>2022-08-13T06:26:07Z</time>
      </trkpt>
      <trkpt lat="43.1344" lon="5.77953">
        <ele>14.304878</ele>
        <time>2022-08-13T06:26:09Z</time>
      </trkpt>
      <trkpt lat="43.13427" lon="5.77964">
        <ele>14.28739</ele>
        <time>2022-08-13T06:26:11Z</time>
      </trkpt>
      <trkpt lat="43.13414" lon="5.77974">
        <ele>14.25327</ele>
        <time>2022-08-13T06:26:13Z</time>
      </trkpt>
      <trkpt lat="43.13401" lon="5.77985">
        <ele>14.238711</ele>
        <time>2022-08-13T06:26:15Z</time>
      </trkpt>
      <trkpt lat="43.13388" lon="5.77997">
        <ele>14.223628</ele>
        <time>2022-08-13T06:26:17Z</time>
      </trkpt>
      <trkpt lat="43.13374" lon="5.78006">
        <ele>14.237295</ele>
        <time>2022-08-13T06:26:19Z</time>
      </trkpt>
      <trkpt lat="43.1336" lon="5.78012">
        <ele>14.256419</ele>
        <time>2022-08-13T06:26:21Z</time>
      </trkpt>
      <trkpt lat="43.13345" lon="5.78017">
        <ele>14.312513</ele>
        <time>2022-08-13T06:26:23Z</time>
      </trkpt>
      <trkpt lat="43.13331" lon="5.78023">
        <ele>14.346735</ele>
        <time>2022-08-13T06:26:25Z</time>
      </trkpt>
      <trkpt lat="43.13317" lon="5.78029">
        <ele>14.417032</ele>
        <time>2022-08-13T06:26:27Z</time>
      </trkpt>
      <trkpt lat="43.13303" lon="5.78035">
        <ele>14.448805</ele>
        <time>2022-08-13T06:26:29Z</time>
      </trkpt>
      <trkpt lat="43.1329" lon="5.78041">
        <ele>14.498671</ele>
        <time>2022-08-13T06:26:31Z</time>
      </trkpt>
      <trkpt lat="43.13276" lon="5.78047">
        <ele>14.526138</ele>
        <time>2022-08-13T06:26:33Z</time>
      </trkpt>
      <trkpt lat="43.13262" lon="5.78054">
        <ele>14.531362</ele>
        <time>2022-08-13T06:26:35Z</time>
      </trkpt>
      <trkpt lat="43.13249" lon="5.78061">
        <ele>14.528862</ele>
        <time>2022-08-13T06:26:37Z</time>
      </trkpt>
      <trkpt lat="43.13236" lon="5.78069">
        <ele>14.523364</ele>
        <time>2022-08-13T06:26:39Z</time>
      </trkpt>
      <trkpt lat="43.13223" lon="5.78077">
        <ele>14.508067</ele>
        <time>2022-08-13T06:26:41Z</time>
      </trkpt>
      <trkpt lat="43.13209" lon="5.78085">
        <ele>14.498276</ele>
        <time>2022-08-13T06:26:43Z</time>
      </trkpt>
      <trkpt lat="43.13198" lon="5.78101">
        <ele>14.471423</ele>
        <time>2022-08-13T06:26:45Z</time>
      </trkpt>
      <trkpt lat="43.13145" lon="5.7814">
        <ele>14.434822</ele>
        <time>2022-08-13T06:26:53Z</time>
      </trkpt>
      <trkpt lat="43.13128" lon="5.78148">
        <ele>14.409508</ele>
        <time>2022-08-13T06:26:55Z</time>
      </trkpt>
      <trkpt lat="43.13112" lon="5.7816">
        <ele>14.400003</ele>
        <time>2022-08-13T06:26:57Z</time>
      </trkpt>
      <trkpt lat="43.13095" lon="5.78172">
        <ele>14.398628</ele>
        <time>2022-08-13T06:26:59Z</time>
      </trkpt>
      <trkpt lat="43.1308" lon="5.78185">
        <ele>14.392008</ele>
        <time>2022-08-13T06:27:01Z</time>
      </trkpt>
      <trkpt lat="43.13065" lon="5.78198">
        <ele>14.386899</ele>
        <time>2022-08-13T06:27:03Z</time>
      </trkpt>
      <trkpt lat="43.13049" lon="5.78212">
        <ele>14.384135</ele>
        <time>2022-08-13T06:27:05Z</time>
      </trkpt>
      <trkpt lat="43.13034" lon="5.78226">
        <ele>14.404492</ele>
        <time>2022-08-13T06:27:07Z</time>
      </trkpt>
      <trkpt lat="43.13018" lon="5.7824">
        <ele>14.425713</ele>
        <time>2022-08-13T06:27:09Z</time>
      </trkpt>
      <trkpt lat="43.13003" lon="5.78254">
        <ele>14.490744</ele>
        <time>2022-08-13T06:27:11Z</time>
      </trkpt>
      <trkpt lat="43.12988" lon="5.78269">
        <ele>14.534686</ele>
        <time>2022-08-13T06:27:13Z</time>
      </trkpt>
      <trkpt lat="43.12972" lon="5.78284">
        <ele>14.650324</ele>
        <time>2022-08-13T06:27:15Z</time>
      </trkpt>
      <trkpt lat="43.12957" lon="5.78299">
        <ele>14.724879</ele>
        <time>2022-08-13T06:27:17Z</time>
      </trkpt>
      <trkpt lat="43.12943" lon="5.78313">
        <ele>14.920198</ele>
        <time>2022-08-13T06:27:19Z</time>
      </trkpt>
      <trkpt lat="43.12928" lon="5.78327">
        <ele>15.19399</ele>
        <time>2022-08-13T06:27:21Z</time>
      </trkpt>
      <trkpt lat="43.12913" lon="5.78341">
        <ele>15.369054</ele>
        <time>2022-08-13T06:27:23Z</time>
      </trkpt>
      <trkpt lat="43.12899" lon="5.78354">
        <ele>15.810283</ele>
        <time>2022-08-13T06:27:25Z</time>
      </trkpt>
      <trkpt lat="43.12886" lon="5.78367">
        <ele>16.079582</ele>
        <time>2022-08-13T06:27:27Z</time>
      </trkpt>
      <trkpt lat="43.12873" lon="5.78381">
        <ele>16.718479</ele>
        <time>2022-08-13T06:27:29Z</time>
      </trkpt>
      <trkpt lat="43.1286" lon="5.78395">
        <ele>17.087893</ele>
        <time>2022-08-13T06:27:31Z</time>
      </trkpt>
      <trkpt lat="43.12848" lon="5.78408">
        <ele>17.923882</ele>
        <time>2022-08-13T06:27:33Z</time>
      </trkpt>
      <trkpt lat="43.12835" lon="5.78421">
        <ele>18.883385</ele>
        <time>2022-08-13T06:27:35Z</time>
      </trkpt>
      <trkpt lat="43.12824" lon="5.78433">
        <ele>19.407961</ele>
        <time>2022-08-13T06:27:37Z</time>
      </trkpt>
      <trkpt lat="43.12814" lon="5.78444">
        <ele>20.543653</ele>
        <time>2022-08-13T06:27:39Z</time>
      </trkpt>
      <trkpt lat="43.12808" lon="5.78456">
        <ele>21.151882</ele>
        <time>2022-08-13T06:27:41Z</time>
      </trkpt>
      <trkpt lat="43.128" lon="5.78465">
        <ele>22.436094</ele>
        <time>2022-08-13T06:27:43Z</time>
      </trkpt>
      <trkpt lat="43.12793" lon="5.78474">
        <ele>23.100935</ele>
        <time>2022-08-13T06:27:45Z</time>
      </trkpt>
      <trkpt lat="43.12786" lon="5.78481">
        <ele>24.467388</ele>
        <time>2022-08-13T06:27:47Z</time>
      </trkpt>
      <trkpt lat="43.1278" lon="5.78488">
        <ele>25.857813</ele>
        <time>2022-08-13T06:27:49Z</time>
      </trkpt>
      <trkpt lat="43.12775" lon="5.78494">
        <ele>26.554417</ele>
        <time>2022-08-13T06:27:51Z</time>
      </trkpt>
      <trkpt lat="43.12775" lon="5.785">
        <ele>27.932407</ele>
        <time>2022-08-13T06:27:53Z</time>
      </trkpt>
      <trkpt lat="43.1278" lon="5.785">
        <ele>28.605936</ele>
        <time>2022-08-13T06:27:55Z</time>
      </trkpt>
      <trkpt lat="43.12785" lon="5.78494">
        <ele>29.906992</ele>
        <time>2022-08-13T06:27:57Z</time>
      </trkpt>
      <trkpt lat="43.12792" lon="5.78492">
        <ele>31.131689</ele>
        <time>2022-08-13T06:27:59Z</time>
      </trkpt>
      <trkpt lat="43.12798" lon="5.78493">
        <ele>31.711536</ele>
        <time>2022-08-13T06:28:01Z</time>
      </trkpt>
      <trkpt lat="43.12799" lon="5.78495">
        <ele>35.484478</ele>
        <time>2022-08-13T06:28:11Z</time>
      </trkpt>
      <trkpt lat="43.128" lon="5.78499">
        <ele>37.111217</ele>
        <time>2022-08-13T06:28:17Z</time>
      </trkpt>
      <trkpt lat="43.12801" lon="5.78503">
        <ele>37.377502</ele>
        <time>2022-08-13T06:28:19Z</time>
      </trkpt>
      <trkpt lat="43.12801" lon="5.78507">
        <ele>37.858868</ele>
        <time>2022-08-13T06:28:21Z</time>
      </trkpt>
      <trkpt lat="43.128" lon="5.78512">
        <ele>38.27961</ele>
        <time>2022-08-13T06:28:23Z</time>
      </trkpt>
      <trkpt lat="43.12797" lon="5.78516">
        <ele>38.469929</ele>
        <time>2022-08-13T06:28:25Z</time>
      </trkpt>
      <trkpt lat="43.12794" lon="5.7852">
        <ele>38.815052</ele>
        <time>2022-08-13T06:28:27Z</time>
      </trkpt>
      <trkpt lat="43.12791" lon="5.78523">
        <ele>38.971844</ele>
        <time>2022-08-13T06:28:29Z</time>
      </trkpt>
      <trkpt lat="43.12788" lon="5.78526">
        <ele>39.257881</ele>
        <time>2022-08-13T06:28:31Z</time>
      </trkpt>
    </trkseg>
  </trk>
</gpx>